<?xml version='1.0' encoding='UTF-8'?><gpx version="1.1" creator="JPX - https://github.com/jenetics/jpx" xmlns="http://www.topografix.com/GPX/1/1"><trk><trkseg><trkpt lat="46.37863223934376" lon="6.631983137314616"><ele>828.6</ele><time>2026-04-06T14:25:14.001Z</time></trkpt><trkpt lat="46.37855560754879" lon="6.63197158919771"><ele>828.2</ele><time>2026-04-06T14:25:15.001Z</time></trkpt><trkpt lat="46.37847911187632" lon="6.63195166284545"><ele>827.8000000000001</ele><time>2026-04-06T14:25:16.001Z</time></trkpt><trkpt lat="46.378384327255006" lon="6.63191759109817"><ele>827.4000000000001</ele><time>2026-04-06T14:25:17.001Z</time></trkpt><trkpt lat="46.3782828550556" lon="6.631880097274594"><ele>827.0</ele><time>2026-04-06T14:25:18.001Z</time></trkpt><trkpt lat="46.37817290943957" lon="6.63183109166815"><ele>827.0</ele><time>2026-04-06T14:25:19.001Z</time></trkpt><trkpt lat="46.37808781491661" lon="6.6317630275464685"><ele>827.0</ele><time>2026-04-06T14:25:20.001Z</time></trkpt><trkpt lat="46.377989356600395" lon="6.631708208258989"><ele>827.0</ele><time>2026-04-06T14:25:21.001Z</time></trkpt><trkpt lat="46.377891097671835" lon="6.631663971375287"><ele>827.0</ele><time>2026-04-06T14:25:22.001Z</time></trkpt><trkpt lat="46.377803344703324" lon="6.631596607040952"><ele>827.0</ele><time>2026-04-06T14:25:23Z</time></trkpt><trkpt lat="46.37774810285944" lon="6.631500112341504"><ele>827.5000000000001</ele><time>2026-04-06T14:25:24Z</time></trkpt><trkpt lat="46.37770223154615" lon="6.63143026650855"><ele>828.0</ele><time>2026-04-06T14:25:25Z</time></trkpt><trkpt lat="46.37764636845293" lon="6.631338963762962"><ele>828.5</ele><time>2026-04-06T14:25:27Z</time></trkpt><trkpt lat="46.377608360201805" lon="6.631258413373987"><ele>829.0</ele><time>2026-04-06T14:25:29Z</time></trkpt><trkpt lat="46.3775549659533" lon="6.631193219039456"><ele>829.5000000000001</ele><time>2026-04-06T14:25:30Z</time></trkpt><trkpt lat="46.377487230902695" lon="6.6311196010541735"><ele>830.0</ele><time>2026-04-06T14:25:31Z</time></trkpt><trkpt lat="46.37740835947557" lon="6.631093686206571"><ele>830.25</ele><time>2026-04-06T14:25:32Z</time></trkpt><trkpt lat="46.377312491206176" lon="6.6310445657572705"><ele>830.5</ele><time>2026-04-06T14:25:33Z</time></trkpt><trkpt lat="46.37718534063689" lon="6.630992219969704"><ele>830.75</ele><time>2026-04-06T14:25:34Z</time></trkpt><trkpt lat="46.37704226674455" lon="6.63091731145729"><ele>831.0</ele><time>2026-04-06T14:25:35Z</time></trkpt><trkpt lat="46.37687538536488" lon="6.63085933158057"><ele>833.3333333333333</ele><time>2026-04-06T14:25:36Z</time></trkpt><trkpt lat="46.37672411700615" lon="6.630810483927135"><ele>835.6666666666666</ele><time>2026-04-06T14:25:37Z</time></trkpt><trkpt lat="46.3765721946133" lon="6.630761525976927"><ele>838.0</ele><time>2026-04-06T14:25:38Z</time></trkpt><trkpt lat="46.376410801455094" lon="6.630710496560519"><ele>841.0</ele><time>2026-04-06T14:25:39Z</time></trkpt><trkpt lat="46.3762481552045" lon="6.630678226153551"><ele>844.0</ele><time>2026-04-06T14:25:40Z</time></trkpt><trkpt lat="46.376094484009506" lon="6.63059605592866"><ele>847.0</ele><time>2026-04-06T14:25:41Z</time></trkpt><trkpt lat="46.37594543884668" lon="6.630520547424349"><ele>847.0</ele><time>2026-04-06T14:25:42Z</time></trkpt><trkpt lat="46.375803534241" lon="6.630437218591837"><ele>847.0</ele><time>2026-04-06T14:25:43Z</time></trkpt><trkpt lat="46.37565083592928" lon="6.630347228012639"><ele>847.0</ele><time>2026-04-06T14:25:44Z</time></trkpt><trkpt lat="46.37547570816178" lon="6.630252714706574"><ele>849.6666666666666</ele><time>2026-04-06T14:25:45Z</time></trkpt><trkpt lat="46.37527656811747" lon="6.630196272373978"><ele>852.3333333333333</ele><time>2026-04-06T14:25:46Z</time></trkpt><trkpt lat="46.3751046336158" lon="6.63011450167864"><ele>855.0</ele><time>2026-04-06T14:25:47Z</time></trkpt><trkpt lat="46.37494461628384" lon="6.630043789930877"><ele>855.0</ele><time>2026-04-06T14:25:48Z</time></trkpt><trkpt lat="46.37478708860794" lon="6.629948465582831"><ele>855.0</ele><time>2026-04-06T14:25:49Z</time></trkpt><trkpt lat="46.3746238822472" lon="6.6298241408265115"><ele>855.0</ele><time>2026-04-06T14:25:50Z</time></trkpt><trkpt lat="46.37444842038498" lon="6.629684545006324"><ele>857.0</ele><time>2026-04-06T14:25:51Z</time></trkpt><trkpt lat="46.374257608539644" lon="6.6295497037190465"><ele>859.0</ele><time>2026-04-06T14:25:52Z</time></trkpt><trkpt lat="46.374059712288336" lon="6.62944061163411"><ele>861.0</ele><time>2026-04-06T14:25:53Z</time></trkpt><trkpt lat="46.37388936273808" lon="6.62934902331407"><ele>863.0</ele><time>2026-04-06T14:25:54Z</time></trkpt><trkpt lat="46.373738602305856" lon="6.629240785583182"><ele>865.0</ele><time>2026-04-06T14:25:55Z</time></trkpt><trkpt lat="46.37357915610036" lon="6.629109377566485"><ele>867.0</ele><time>2026-04-06T14:25:56Z</time></trkpt><trkpt lat="46.37340637620109" lon="6.62897853148223"><ele>867.0</ele><time>2026-04-06T14:25:57Z</time></trkpt><trkpt lat="46.37323429198952" lon="6.628866571151031"><ele>867.0</ele><time>2026-04-06T14:25:58Z</time></trkpt><trkpt lat="46.37308901596999" lon="6.628778632088712"><ele>867.0</ele><time>2026-04-06T14:25:59Z</time></trkpt><trkpt lat="46.37296560558048" lon="6.628700106480757"><ele>867.75</ele><time>2026-04-06T14:26:00Z</time></trkpt><trkpt lat="46.372869875497244" lon="6.62859956414651"><ele>868.5</ele><time>2026-04-06T14:26:01Z</time></trkpt><trkpt lat="46.37277535286989" lon="6.628470014888005"><ele>869.25</ele><time>2026-04-06T14:26:02Z</time></trkpt><trkpt lat="46.37266143410903" lon="6.628324496490193"><ele>870.0</ele><time>2026-04-06T14:26:03Z</time></trkpt><trkpt lat="46.372515848053915" lon="6.628226325949659"><ele>870.0</ele><time>2026-04-06T14:26:04Z</time></trkpt><trkpt lat="46.37235082071863" lon="6.628232451918622"><ele>870.0</ele><time>2026-04-06T14:26:05Z</time></trkpt><trkpt lat="46.372161115793574" lon="6.6282309867985125"><ele>870.0</ele><time>2026-04-06T14:26:06Z</time></trkpt><trkpt lat="46.3719540043084" lon="6.628216579955495"><ele>872.0</ele><time>2026-04-06T14:26:07Z</time></trkpt><trkpt lat="46.37172665814355" lon="6.628194604311535"><ele>874.0</ele><time>2026-04-06T14:26:08Z</time></trkpt><trkpt lat="46.37149777736612" lon="6.628176594329703"><ele>875.6666666666666</ele><time>2026-04-06T14:26:09Z</time></trkpt><trkpt lat="46.371308218415514" lon="6.628220364657655"><ele>877.3333333333333</ele><time>2026-04-06T14:26:10Z</time></trkpt><trkpt lat="46.371129474929454" lon="6.628262252558333"><ele>879.0</ele><time>2026-04-06T14:26:11Z</time></trkpt><trkpt lat="46.37095891640878" lon="6.6283264584328565"><ele>879.0</ele><time>2026-04-06T14:26:12Z</time></trkpt><trkpt lat="46.370812431074434" lon="6.628335034498484"><ele>879.0</ele><time>2026-04-06T14:26:13Z</time></trkpt><trkpt lat="46.37069837385325" lon="6.628321080551263"><ele>879.0</ele><time>2026-04-06T14:26:14Z</time></trkpt><trkpt lat="46.37058920000578" lon="6.628297650688287"><ele>879.0</ele><time>2026-04-06T14:26:15Z</time></trkpt><trkpt lat="46.37048880055775" lon="6.628298319319288"><ele>879.6666666666666</ele><time>2026-04-06T14:26:16Z</time></trkpt><trkpt lat="46.37040933197792" lon="6.628269202521207"><ele>880.3333333333333</ele><time>2026-04-06T14:26:17Z</time></trkpt><trkpt lat="46.37034808025657" lon="6.628242068748061"><ele>881.0</ele><time>2026-04-06T14:26:18Z</time></trkpt><trkpt lat="46.37028743256875" lon="6.628197675459117"><ele>881.6666666666666</ele><time>2026-04-06T14:26:20Z</time></trkpt><trkpt lat="46.370295958185686" lon="6.628078812203843"><ele>882.3333333333333</ele><time>2026-04-06T14:26:21Z</time></trkpt><trkpt lat="46.37027151111748" lon="6.627943221487092"><ele>883.0</ele><time>2026-04-06T14:26:22Z</time></trkpt><trkpt lat="46.3702515389257" lon="6.627812203462962"><ele>883.0</ele><time>2026-04-06T14:26:23Z</time></trkpt><trkpt lat="46.37022930659655" lon="6.627656471280723"><ele>883.0</ele><time>2026-04-06T14:26:24Z</time></trkpt><trkpt lat="46.37020243282789" lon="6.627468226929028"><ele>883.0</ele><time>2026-04-06T14:26:25Z</time></trkpt><trkpt lat="46.370174947573716" lon="6.6272810296299065"><ele>883.0</ele><time>2026-04-06T14:26:26Z</time></trkpt><trkpt lat="46.37015101520844" lon="6.627119820042727"><ele>882.0</ele><time>2026-04-06T14:26:27Z</time></trkpt><trkpt lat="46.37011228836056" lon="6.62696844532337"><ele>881.0</ele><time>2026-04-06T14:26:28Z</time></trkpt><trkpt lat="46.37009511210323" lon="6.626835683450173"><ele>880.0</ele><time>2026-04-06T14:26:29Z</time></trkpt><trkpt lat="46.370090167247035" lon="6.62670994509887"><ele>879.0</ele><time>2026-04-06T14:26:30Z</time></trkpt><trkpt lat="46.370075760655595" lon="6.6266129013712645"><ele>878.0</ele><time>2026-04-06T14:26:31Z</time></trkpt><trkpt lat="46.369961235153724" lon="6.626579671371894"><ele>878.0</ele><time>2026-04-06T14:26:32Z</time></trkpt><trkpt lat="46.3698668151771" lon="6.626542015702506"><ele>878.0</ele><time>2026-04-06T14:26:33Z</time></trkpt><trkpt lat="46.369744924138345" lon="6.626471924390189"><ele>878.0</ele><time>2026-04-06T14:26:34Z</time></trkpt><trkpt lat="46.36958874305706" lon="6.626410812879606"><ele>878.0</ele><time>2026-04-06T14:26:35Z</time></trkpt><trkpt lat="46.36941925690344" lon="6.626403007935105"><ele>879.0</ele><time>2026-04-06T14:26:36Z</time></trkpt><trkpt lat="46.36926493953352" lon="6.626391294482114"><ele>880.0</ele><time>2026-04-06T14:26:37Z</time></trkpt><trkpt lat="46.36914406490363" lon="6.6263486516449115"><ele>881.0</ele><time>2026-04-06T14:26:38Z</time></trkpt><trkpt lat="46.36904421938392" lon="6.6262928093364675"><ele>882.0</ele><time>2026-04-06T14:26:39Z</time></trkpt><trkpt lat="46.36895456146511" lon="6.62623577410066"><ele>882.0</ele><time>2026-04-06T14:26:40Z</time></trkpt><trkpt lat="46.368862520828756" lon="6.626181707804313"><ele>882.0</ele><time>2026-04-06T14:26:41Z</time></trkpt><trkpt lat="46.3687792923977" lon="6.626137937285396"><ele>882.0</ele><time>2026-04-06T14:26:42Z</time></trkpt><trkpt lat="46.368695015601595" lon="6.6260943499169755"><ele>882.0</ele><time>2026-04-06T14:26:43Z</time></trkpt><trkpt lat="46.3686134430939" lon="6.626050945601146"><ele>882.0</ele><time>2026-04-06T14:26:44Z</time></trkpt><trkpt lat="46.36853462253054" lon="6.626007775504771"><ele>882.0</ele><time>2026-04-06T14:26:45Z</time></trkpt><trkpt lat="46.36844791935688" lon="6.625960288062932"><ele>881.8</ele><time>2026-04-06T14:26:46Z</time></trkpt><trkpt lat="46.3683550310263" lon="6.625903566291026"><ele>881.6</ele><time>2026-04-06T14:26:47Z</time></trkpt><trkpt lat="46.368268693246826" lon="6.625841424519678"><ele>881.3999999999999</ele><time>2026-04-06T14:26:48Z</time></trkpt><trkpt lat="46.368188382544496" lon="6.625776485401408"><ele>881.1999999999999</ele><time>2026-04-06T14:26:49Z</time></trkpt><trkpt lat="46.368104840358434" lon="6.625705858798423"><ele>881.0</ele><time>2026-04-06T14:26:50Z</time></trkpt><trkpt lat="46.36801720683327" lon="6.625631453980038"><ele>881.4</ele><time>2026-04-06T14:26:51Z</time></trkpt><trkpt lat="46.36794076867827" lon="6.625561559039052"><ele>881.8</ele><time>2026-04-06T14:26:52Z</time></trkpt><trkpt lat="46.36787258261839" lon="6.625485927210955"><ele>882.1999999999999</ele><time>2026-04-06T14:26:53Z</time></trkpt><trkpt lat="46.367808660065734" lon="6.625404311495886"><ele>882.5999999999999</ele><time>2026-04-06T14:26:54Z</time></trkpt><trkpt lat="46.367737852464586" lon="6.625309426626847"><ele>883.0</ele><time>2026-04-06T14:26:55Z</time></trkpt><trkpt lat="46.36765891535877" lon="6.62519457077714"><ele>883.4</ele><time>2026-04-06T14:26:56Z</time></trkpt><trkpt lat="46.36758086127719" lon="6.625076066783222"><ele>883.8</ele><time>2026-04-06T14:26:57Z</time></trkpt><trkpt lat="46.36752335137831" lon="6.624987530630817"><ele>884.2</ele><time>2026-04-06T14:26:58Z</time></trkpt><trkpt lat="46.36746619512507" lon="6.624897156974517"><ele>884.6</ele><time>2026-04-06T14:26:59Z</time></trkpt><trkpt lat="46.367394086931206" lon="6.624755457007088"><ele>885.0</ele><time>2026-04-06T14:27:01.001Z</time></trkpt><trkpt lat="46.36733135912848" lon="6.62467422273982"><ele>885.0</ele><time>2026-04-06T14:27:03.001Z</time></trkpt><trkpt lat="46.36725352174386" lon="6.62458288812077"><ele>885.0</ele><time>2026-04-06T14:27:05.001Z</time></trkpt><trkpt lat="46.36719299536438" lon="6.624555895627381"><ele>885.0</ele><time>2026-04-06T14:27:06Z</time></trkpt><trkpt lat="46.367119387679345" lon="6.624555682390285"><ele>885.0</ele><time>2026-04-06T14:27:08Z</time></trkpt><trkpt lat="46.36703469226519" lon="6.624522487999072"><ele>885.0</ele><time>2026-04-06T14:27:10Z</time></trkpt><trkpt lat="46.366903537122816" lon="6.624505951800383"><ele>885.4285714285714</ele><time>2026-04-06T14:27:12Z</time></trkpt><trkpt lat="46.366825521018086" lon="6.624513032696896"><ele>885.8571428571429</ele><time>2026-04-06T14:27:13Z</time></trkpt><trkpt lat="46.36674581804789" lon="6.624523571938172"><ele>886.2857142857142</ele><time>2026-04-06T14:27:14Z</time></trkpt><trkpt lat="46.36666961710844" lon="6.624535633324076"><ele>886.7142857142858</ele><time>2026-04-06T14:27:15Z</time></trkpt><trkpt lat="46.36658929633124" lon="6.6245519555807375"><ele>887.1428571428572</ele><time>2026-04-06T14:27:16Z</time></trkpt><trkpt lat="46.36652860183104" lon="6.624585130343056"><ele>887.5714285714286</ele><time>2026-04-06T14:27:17Z</time></trkpt><trkpt lat="46.366462297757" lon="6.624593213104508"><ele>888.0</ele><time>2026-04-06T14:27:18Z</time></trkpt><trkpt lat="46.36638109977242" lon="6.624614361270929"><ele>888.5</ele><time>2026-04-06T14:27:19Z</time></trkpt><trkpt lat="46.3662898475258" lon="6.624632865992471"><ele>889.0</ele><time>2026-04-06T14:27:20Z</time></trkpt><trkpt lat="46.366204029549095" lon="6.624624526309422"><ele>889.5</ele><time>2026-04-06T14:27:21Z</time></trkpt><trkpt lat="46.36613536129665" lon="6.624631085835631"><ele>890.0</ele><time>2026-04-06T14:27:22Z</time></trkpt><trkpt lat="46.3660626800653" lon="6.624629353241295"><ele>890.5</ele><time>2026-04-06T14:27:23Z</time></trkpt><trkpt lat="46.36598486870718" lon="6.624619717918312"><ele>891.0</ele><time>2026-04-06T14:27:24Z</time></trkpt><trkpt lat="46.365921204021184" lon="6.624613540301454"><ele>891.0</ele><time>2026-04-06T14:27:25Z</time></trkpt><trkpt lat="46.36585352314223" lon="6.6246391585763025"><ele>891.0</ele><time>2026-04-06T14:27:26Z</time></trkpt><trkpt lat="46.365772337108666" lon="6.624624293583134"><ele>891.0</ele><time>2026-04-06T14:27:27Z</time></trkpt><trkpt lat="46.36568381693155" lon="6.624640584920267"><ele>891.0</ele><time>2026-04-06T14:27:28Z</time></trkpt><trkpt lat="46.365604700538995" lon="6.624661643985244"><ele>891.0</ele><time>2026-04-06T14:27:29Z</time></trkpt><trkpt lat="46.36553211257582" lon="6.624682804506651"><ele>891.0</ele><time>2026-04-06T14:27:30Z</time></trkpt><trkpt lat="46.36546068130989" lon="6.624717572263291"><ele>891.3333333333334</ele><time>2026-04-06T14:27:31Z</time></trkpt><trkpt lat="46.365391032913685" lon="6.624733048801238"><ele>891.6666666666667</ele><time>2026-04-06T14:27:32Z</time></trkpt><trkpt lat="46.36530760196446" lon="6.624713700553755"><ele>892.0</ele><time>2026-04-06T14:27:33Z</time></trkpt><trkpt lat="46.36522586620083" lon="6.6247125225836685"><ele>892.3333333333334</ele><time>2026-04-06T14:27:34Z</time></trkpt><trkpt lat="46.36514533933786" lon="6.624704317860765"><ele>892.6666666666667</ele><time>2026-04-06T14:27:35Z</time></trkpt><trkpt lat="46.36506571516787" lon="6.624704923035921"><ele>893.0</ele><time>2026-04-06T14:27:36Z</time></trkpt><trkpt lat="46.36498295033041" lon="6.624712529078806"><ele>893.0000000000001</ele><time>2026-04-06T14:27:37Z</time></trkpt><trkpt lat="46.3648971026182" lon="6.624752576638913"><ele>893.0</ele><time>2026-04-06T14:27:38Z</time></trkpt><trkpt lat="46.36480462926619" lon="6.624762518791032"><ele>893.0</ele><time>2026-04-06T14:27:39Z</time></trkpt><trkpt lat="46.36472707733475" lon="6.624829286393031"><ele>893.0</ele><time>2026-04-06T14:27:40Z</time></trkpt><trkpt lat="46.364644666938055" lon="6.624880311441797"><ele>893.0000000000001</ele><time>2026-04-06T14:27:41Z</time></trkpt><trkpt lat="46.364566434410015" lon="6.624915701946549"><ele>893.0</ele><time>2026-04-06T14:27:42Z</time></trkpt><trkpt lat="46.364501050409544" lon="6.624956365476117"><ele>894.0000000000001</ele><time>2026-04-06T14:27:43Z</time></trkpt><trkpt lat="46.36444324520228" lon="6.624996102197787"><ele>895.0</ele><time>2026-04-06T14:27:44Z</time></trkpt><trkpt lat="46.36438302585102" lon="6.625028258020895"><ele>896.0</ele><time>2026-04-06T14:27:45Z</time></trkpt><trkpt lat="46.36431002113938" lon="6.625036801081004"><ele>897.0</ele><time>2026-04-06T14:27:46Z</time></trkpt><trkpt lat="46.36423838243341" lon="6.625086701712292"><ele>898.0000000000001</ele><time>2026-04-06T14:27:47Z</time></trkpt><trkpt lat="46.364158728678376" lon="6.625114504683278"><ele>899.0</ele><time>2026-04-06T14:27:48Z</time></trkpt><trkpt lat="46.36406935978905" lon="6.625153700251837"><ele>899.0000000000001</ele><time>2026-04-06T14:27:49Z</time></trkpt><trkpt lat="46.363985510723104" lon="6.625199693993466"><ele>899.0</ele><time>2026-04-06T14:27:50Z</time></trkpt><trkpt lat="46.36390025798035" lon="6.625253873364379"><ele>899.0</ele><time>2026-04-06T14:27:51Z</time></trkpt><trkpt lat="46.36381397705142" lon="6.625301640448243"><ele>899.0</ele><time>2026-04-06T14:27:52Z</time></trkpt><trkpt lat="46.36372827449134" lon="6.625323247867248"><ele>899.0000000000001</ele><time>2026-04-06T14:27:53Z</time></trkpt><trkpt lat="46.36364855581357" lon="6.6252975683952595"><ele>899.0</ele><time>2026-04-06T14:27:54Z</time></trkpt><trkpt lat="46.36357394469282" lon="6.6252814150241255"><ele>901.6666666666667</ele><time>2026-04-06T14:27:55Z</time></trkpt><trkpt lat="46.363495109067635" lon="6.625288095674811"><ele>904.3333333333334</ele><time>2026-04-06T14:27:56Z</time></trkpt><trkpt lat="46.3634191537491" lon="6.625266652080848"><ele>907.0</ele><time>2026-04-06T14:27:57Z</time></trkpt><trkpt lat="46.3633344618456" lon="6.6252625506427805"><ele>909.6666666666667</ele><time>2026-04-06T14:27:58Z</time></trkpt><trkpt lat="46.36324039761407" lon="6.625265742691921"><ele>912.3333333333334</ele><time>2026-04-06T14:27:59Z</time></trkpt><trkpt lat="46.363146910941985" lon="6.625281234159224"><ele>915.0</ele><time>2026-04-06T14:28:00Z</time></trkpt><trkpt lat="46.36308142884976" lon="6.625302932144676"><ele>917.4</ele><time>2026-04-06T14:28:01Z</time></trkpt><trkpt lat="46.36297804601692" lon="6.625350531544251"><ele>919.8</ele><time>2026-04-06T14:28:02Z</time></trkpt><trkpt lat="46.36289102733746" lon="6.625407800959236"><ele>922.2</ele><time>2026-04-06T14:28:03Z</time></trkpt><trkpt lat="46.36280438336138" lon="6.625474743825268"><ele>924.6</ele><time>2026-04-06T14:28:04Z</time></trkpt><trkpt lat="46.362706424281434" lon="6.6255373286789965"><ele>927.0</ele><time>2026-04-06T14:28:05Z</time></trkpt><trkpt lat="46.36261573578176" lon="6.625594233690505"><ele>927.0</ele><time>2026-04-06T14:28:06Z</time></trkpt><trkpt lat="46.362526137815536" lon="6.625657700617367"><ele>927.0</ele><time>2026-04-06T14:28:07Z</time></trkpt><trkpt lat="46.36241586496001" lon="6.625727914637237"><ele>927.0</ele><time>2026-04-06T14:28:08Z</time></trkpt><trkpt lat="46.362297249785925" lon="6.625791689615747"><ele>927.0</ele><time>2026-04-06T14:28:09Z</time></trkpt><trkpt lat="46.36217230469607" lon="6.625879322583083"><ele>928.0</ele><time>2026-04-06T14:28:10Z</time></trkpt><trkpt lat="46.36205509524547" lon="6.625992194245127"><ele>929.0</ele><time>2026-04-06T14:28:11Z</time></trkpt><trkpt lat="46.3619333323186" lon="6.626099384879417"><ele>930.0</ele><time>2026-04-06T14:28:12Z</time></trkpt><trkpt lat="46.36180028271682" lon="6.626186866925391"><ele>931.0</ele><time>2026-04-06T14:28:13Z</time></trkpt><trkpt lat="46.36163598213438" lon="6.626320936672936"><ele>931.0</ele><time>2026-04-06T14:28:14Z</time></trkpt><trkpt lat="46.36146789405651" lon="6.62645791128358"><ele>931.0</ele><time>2026-04-06T14:28:15Z</time></trkpt><trkpt lat="46.36133402597063" lon="6.626590470477344"><ele>931.0</ele><time>2026-04-06T14:28:16Z</time></trkpt><trkpt lat="46.361203179954906" lon="6.626717715699502"><ele>931.3333333333333</ele><time>2026-04-06T14:28:17Z</time></trkpt><trkpt lat="46.36106527566084" lon="6.6268666536920975"><ele>931.6666666666667</ele><time>2026-04-06T14:28:18Z</time></trkpt><trkpt lat="46.36093154399698" lon="6.627035248786013"><ele>932.0</ele><time>2026-04-06T14:28:19Z</time></trkpt><trkpt lat="46.360810204081154" lon="6.627224551281069"><ele>932.0</ele><time>2026-04-06T14:28:20Z</time></trkpt><trkpt lat="46.360707801054815" lon="6.627382664884838"><ele>932.0</ele><time>2026-04-06T14:28:21Z</time></trkpt><trkpt lat="46.36060420899175" lon="6.6275013516612615"><ele>932.0</ele><time>2026-04-06T14:28:22Z</time></trkpt><trkpt lat="46.36049703917992" lon="6.627615712608463"><ele>932.0</ele><time>2026-04-06T14:28:23Z</time></trkpt><trkpt lat="46.36040471138381" lon="6.62773510359064"><ele>931.25</ele><time>2026-04-06T14:28:24Z</time></trkpt><trkpt lat="46.3603219823551" lon="6.627877390196408"><ele>930.5</ele><time>2026-04-06T14:28:25Z</time></trkpt><trkpt lat="46.36024399717776" lon="6.62804687988826"><ele>929.75</ele><time>2026-04-06T14:28:26Z</time></trkpt><trkpt lat="46.36018876574258" lon="6.628248485794024"><ele>929.0</ele><time>2026-04-06T14:28:27Z</time></trkpt><trkpt lat="46.36012934344211" lon="6.628483311279585"><ele>928.3333333333334</ele><time>2026-04-06T14:28:28Z</time></trkpt><trkpt lat="46.36005311213715" lon="6.628762346522024"><ele>927.6666666666667</ele><time>2026-04-06T14:28:29Z</time></trkpt><trkpt lat="46.359969068024476" lon="6.629048100918894"><ele>927.0</ele><time>2026-04-06T14:28:30Z</time></trkpt><trkpt lat="46.35988024530611" lon="6.629324088000999"><ele>925.6666666666667</ele><time>2026-04-06T14:28:31Z</time></trkpt><trkpt lat="46.35978854058131" lon="6.629614782055722"><ele>924.3333333333334</ele><time>2026-04-06T14:28:32Z</time></trkpt><trkpt lat="46.35970547567492" lon="6.629887330976294"><ele>923.0</ele><time>2026-04-06T14:28:33Z</time></trkpt><trkpt lat="46.359648456924404" lon="6.630146652027328"><ele>921.3333333333334</ele><time>2026-04-06T14:28:34Z</time></trkpt><trkpt lat="46.35958683933203" lon="6.630389961190382"><ele>919.6666666666667</ele><time>2026-04-06T14:28:35Z</time></trkpt><trkpt lat="46.35951850468989" lon="6.63061993151839"><ele>918.0</ele><time>2026-04-06T14:28:36Z</time></trkpt><trkpt lat="46.35944139877222" lon="6.630826671123798"><ele>918.0</ele><time>2026-04-06T14:28:37Z</time></trkpt><trkpt lat="46.35934358302022" lon="6.630992442125159"><ele>918.0</ele><time>2026-04-06T14:28:38Z</time></trkpt><trkpt lat="46.359238418744965" lon="6.631133519612085"><ele>918.0</ele><time>2026-04-06T14:28:39Z</time></trkpt><trkpt lat="46.35916175611125" lon="6.631250292806829"><ele>918.0</ele><time>2026-04-06T14:28:40Z</time></trkpt><trkpt lat="46.35909243763594" lon="6.6314093228877"><ele>918.0</ele><time>2026-04-06T14:28:41Z</time></trkpt><trkpt lat="46.359071068607015" lon="6.631568038462986"><ele>918.0</ele><time>2026-04-06T14:28:42Z</time></trkpt><trkpt lat="46.359067871401734" lon="6.631760273806179"><ele>918.0</ele><time>2026-04-06T14:28:43Z</time></trkpt><trkpt lat="46.35907121326441" lon="6.631975655964676"><ele>918.0</ele><time>2026-04-06T14:28:44Z</time></trkpt><trkpt lat="46.35907176495795" lon="6.632190967130193"><ele>918.0</ele><time>2026-04-06T14:28:45Z</time></trkpt><trkpt lat="46.35907292413071" lon="6.632392068293874"><ele>918.0</ele><time>2026-04-06T14:28:46Z</time></trkpt><trkpt lat="46.35907720896358" lon="6.6325701767248075"><ele>918.0</ele><time>2026-04-06T14:28:47Z</time></trkpt><trkpt lat="46.35908535290126" lon="6.632707169670836"><ele>918.0</ele><time>2026-04-06T14:28:48Z</time></trkpt><trkpt lat="46.35910198090386" lon="6.632846523437257"><ele>918.0</ele><time>2026-04-06T14:28:49Z</time></trkpt><trkpt lat="46.359109826776546" lon="6.632962002419806"><ele>918.0</ele><time>2026-04-06T14:28:50Z</time></trkpt><trkpt lat="46.359111342230676" lon="6.6330801905206425"><ele>918.0</ele><time>2026-04-06T14:28:51Z</time></trkpt><trkpt lat="46.359093757409575" lon="6.63319017419796"><ele>918.0</ele><time>2026-04-06T14:28:52Z</time></trkpt><trkpt lat="46.35904156671027" lon="6.63329139251504"><ele>918.0</ele><time>2026-04-06T14:28:53Z</time></trkpt><trkpt lat="46.35897163674092" lon="6.633388035858368"><ele>918.0</ele><time>2026-04-06T14:28:54Z</time></trkpt><trkpt lat="46.35889092448449" lon="6.6334964712126"><ele>917.0</ele><time>2026-04-06T14:28:55Z</time></trkpt><trkpt lat="46.358828129140576" lon="6.633600785914052"><ele>916.0</ele><time>2026-04-06T14:28:56Z</time></trkpt><trkpt lat="46.358782614925" lon="6.6337095012608795"><ele>915.0</ele><time>2026-04-06T14:28:57Z</time></trkpt><trkpt lat="46.358753741961095" lon="6.6338223385732205"><ele>914.0</ele><time>2026-04-06T14:28:58Z</time></trkpt><trkpt lat="46.35873057375187" lon="6.633940936763744"><ele>913.0</ele><time>2026-04-06T14:28:59Z</time></trkpt><trkpt lat="46.35871630653761" lon="6.634057696251184"><ele>912.0</ele><time>2026-04-06T14:29:00Z</time></trkpt><trkpt lat="46.358715670809865" lon="6.634162433382686"><ele>911.5</ele><time>2026-04-06T14:29:01Z</time></trkpt><trkpt lat="46.358723818859275" lon="6.634258918084617"><ele>911.0</ele><time>2026-04-06T14:29:02Z</time></trkpt><trkpt lat="46.35872834645245" lon="6.63436182664159"><ele>910.5</ele><time>2026-04-06T14:29:03Z</time></trkpt><trkpt lat="46.35870566896206" lon="6.634469406217786"><ele>910.0</ele><time>2026-04-06T14:29:04Z</time></trkpt><trkpt lat="46.35865722585314" lon="6.634575713172601"><ele>909.5</ele><time>2026-04-06T14:29:05Z</time></trkpt><trkpt lat="46.35860455264013" lon="6.634672432142512"><ele>909.0</ele><time>2026-04-06T14:29:06.001Z</time></trkpt><trkpt lat="46.358547167811224" lon="6.6347449715235145"><ele>908.3333333333334</ele><time>2026-04-06T14:29:07.001Z</time></trkpt><trkpt lat="46.358494340136836" lon="6.63481176133375"><ele>907.6666666666667</ele><time>2026-04-06T14:29:08.001Z</time></trkpt><trkpt lat="46.35843400926099" lon="6.634889854208212"><ele>907.0</ele><time>2026-04-06T14:29:09.001Z</time></trkpt><trkpt lat="46.35837684486397" lon="6.6349759509555595"><ele>906.3333333333334</ele><time>2026-04-06T14:29:10.001Z</time></trkpt><trkpt lat="46.358330464183794" lon="6.635092418724971"><ele>905.6666666666667</ele><time>2026-04-06T14:29:11.001Z</time></trkpt><trkpt lat="46.35829577404156" lon="6.635229193379074"><ele>905.0</ele><time>2026-04-06T14:29:12.001Z</time></trkpt><trkpt lat="46.358270833586154" lon="6.6353761083623075"><ele>903.8333333333334</ele><time>2026-04-06T14:29:13.001Z</time></trkpt><trkpt lat="46.35824370831572" lon="6.635499860435574"><ele>902.6666666666667</ele><time>2026-04-06T14:29:14.001Z</time></trkpt><trkpt lat="46.35821882647426" lon="6.635613238175142"><ele>901.5</ele><time>2026-04-06T14:29:15.001Z</time></trkpt><trkpt lat="46.35819464106477" lon="6.635728657072823"><ele>900.3333333333333</ele><time>2026-04-06T14:29:16.001Z</time></trkpt><trkpt lat="46.35818469022994" lon="6.635845536097891"><ele>899.1666666666666</ele><time>2026-04-06T14:29:17.001Z</time></trkpt><trkpt lat="46.35818567455275" lon="6.635966858130249"><ele>898.0</ele><time>2026-04-06T14:29:18.001Z</time></trkpt><trkpt lat="46.35820183639164" lon="6.636088597980524"><ele>896.8</ele><time>2026-04-06T14:29:19.001Z</time></trkpt><trkpt lat="46.35823952419148" lon="6.636202327998811"><ele>895.5999999999999</ele><time>2026-04-06T14:29:20.001Z</time></trkpt><trkpt lat="46.35829560787245" lon="6.636323837715805"><ele>894.4000000000001</ele><time>2026-04-06T14:29:21.001Z</time></trkpt><trkpt lat="46.358358083838205" lon="6.636445319115269"><ele>893.2</ele><time>2026-04-06T14:29:22.001Z</time></trkpt><trkpt lat="46.35838751300738" lon="6.636571669395062"><ele>892.0</ele><time>2026-04-06T14:29:23Z</time></trkpt><trkpt lat="46.358421376036034" lon="6.636685173855851"><ele>891.9999999999999</ele><time>2026-04-06T14:29:24Z</time></trkpt><trkpt lat="46.35844937768466" lon="6.6367994352381166"><ele>892.0</ele><time>2026-04-06T14:29:25Z</time></trkpt><trkpt lat="46.358477327602486" lon="6.636924716564933"><ele>892.0</ele><time>2026-04-06T14:29:26Z</time></trkpt><trkpt lat="46.35850328623304" lon="6.637027110597502"><ele>892.0</ele><time>2026-04-06T14:29:27Z</time></trkpt><trkpt lat="46.358538729786225" lon="6.63710354212377"><ele>891.9999999999999</ele><time>2026-04-06T14:29:28Z</time></trkpt><trkpt lat="46.35853484167384" lon="6.6372315529534465"><ele>892.0</ele><time>2026-04-06T14:29:30Z</time></trkpt><trkpt lat="46.35847085848049" lon="6.637281281617623"><ele>892.0</ele><time>2026-04-06T14:29:32Z</time></trkpt><trkpt lat="46.35840362291307" lon="6.637204972860731"><ele>892.0</ele><time>2026-04-06T14:29:34Z</time></trkpt><trkpt lat="46.35835134835787" lon="6.637038071929913"><ele>892.0</ele><time>2026-04-06T14:29:36Z</time></trkpt><trkpt lat="46.35829565862004" lon="6.636927332622471"><ele>892.0</ele><time>2026-04-06T14:29:37Z</time></trkpt><trkpt lat="46.35821604619802" lon="6.63678575548167"><ele>892.0</ele><time>2026-04-06T14:29:38Z</time></trkpt><trkpt lat="46.358145936787025" lon="6.636685286142823"><ele>891.9999999999999</ele><time>2026-04-06T14:29:39Z</time></trkpt><trkpt lat="46.35808347251337" lon="6.636618244880466"><ele>892.0</ele><time>2026-04-06T14:29:40Z</time></trkpt><trkpt lat="46.358006535496855" lon="6.636568509451029"><ele>892.0</ele><time>2026-04-06T14:29:41Z</time></trkpt><trkpt lat="46.35791821051029" lon="6.636569122804338"><ele>892.0</ele><time>2026-04-06T14:29:42Z</time></trkpt><trkpt lat="46.35782250355779" lon="6.636559994925041"><ele>891.9999999999999</ele><time>2026-04-06T14:29:43Z</time></trkpt><trkpt lat="46.35774227531219" lon="6.636533934729106"><ele>892.0</ele><time>2026-04-06T14:29:44Z</time></trkpt><trkpt lat="46.35764309832592" lon="6.636527214970446"><ele>890.2</ele><time>2026-04-06T14:29:45Z</time></trkpt><trkpt lat="46.357531242142585" lon="6.636519706669596"><ele>888.4000000000001</ele><time>2026-04-06T14:29:46Z</time></trkpt><trkpt lat="46.35741920544063" lon="6.636512186240473"><ele>886.5999999999999</ele><time>2026-04-06T14:29:47Z</time></trkpt><trkpt lat="46.35730979952545" lon="6.636503918015481"><ele>884.8</ele><time>2026-04-06T14:29:48Z</time></trkpt><trkpt lat="46.35719917237668" lon="6.6364926735996965"><ele>883.0</ele><time>2026-04-06T14:29:49Z</time></trkpt><trkpt lat="46.35708250024693" lon="6.636477355929766"><ele>881.4</ele><time>2026-04-06T14:29:50Z</time></trkpt><trkpt lat="46.356979673413214" lon="6.636432056610661"><ele>879.8</ele><time>2026-04-06T14:29:51Z</time></trkpt><trkpt lat="46.35687628751681" lon="6.636382062289658"><ele>878.2</ele><time>2026-04-06T14:29:52Z</time></trkpt><trkpt lat="46.35676724328832" lon="6.636367373042363"><ele>876.6</ele><time>2026-04-06T14:29:53Z</time></trkpt><trkpt lat="46.35666462739731" lon="6.636402561240263"><ele>875.0</ele><time>2026-04-06T14:29:54Z</time></trkpt><trkpt lat="46.35656023958814" lon="6.636415446146686"><ele>875.0</ele><time>2026-04-06T14:29:55Z</time></trkpt><trkpt lat="46.3564546292371" lon="6.636390441086321"><ele>875.0</ele><time>2026-04-06T14:29:56Z</time></trkpt><trkpt lat="46.3563573990512" lon="6.636369806560025"><ele>875.0</ele><time>2026-04-06T14:29:57Z</time></trkpt><trkpt lat="46.356271086323616" lon="6.6363384498860265"><ele>875.0</ele><time>2026-04-06T14:29:58Z</time></trkpt><trkpt lat="46.35619548358455" lon="6.6362923061822725"><ele>875.0</ele><time>2026-04-06T14:29:59Z</time></trkpt><trkpt lat="46.35611665468499" lon="6.636229721964634"><ele>874.0000000000001</ele><time>2026-04-06T14:30:00Z</time></trkpt><trkpt lat="46.35604419698058" lon="6.636170794095662"><ele>873.0</ele><time>2026-04-06T14:30:01Z</time></trkpt><trkpt lat="46.35598221750772" lon="6.636116801450741"><ele>872.0</ele><time>2026-04-06T14:30:02Z</time></trkpt><trkpt lat="46.35590285596823" lon="6.636037604958758"><ele>871.0</ele><time>2026-04-06T14:30:04Z</time></trkpt><trkpt lat="46.35582618500575" lon="6.635972172055195"><ele>870.0000000000001</ele><time>2026-04-06T14:30:06Z</time></trkpt><trkpt lat="46.35576155624306" lon="6.635953189915406"><ele>869.0</ele><time>2026-04-06T14:30:11Z</time></trkpt><trkpt lat="46.35567164764332" lon="6.635993560643091"><ele>868.5</ele><time>2026-04-06T14:30:14Z</time></trkpt><trkpt lat="46.35564956762006" lon="6.636187730414128"><ele>868.0</ele><time>2026-04-06T14:30:15Z</time></trkpt><trkpt lat="46.355621144472636" lon="6.636318087594979"><ele>867.5</ele><time>2026-04-06T14:30:16Z</time></trkpt><trkpt lat="46.355577935854754" lon="6.636501328839695"><ele>867.0</ele><time>2026-04-06T14:30:17Z</time></trkpt><trkpt lat="46.35553374367994" lon="6.636667478037616"><ele>866.0</ele><time>2026-04-06T14:30:18Z</time></trkpt><trkpt lat="46.35549191559207" lon="6.636851035557708"><ele>865.0</ele><time>2026-04-06T14:30:19Z</time></trkpt><trkpt lat="46.355442261710714" lon="6.637035140479224"><ele>864.0</ele><time>2026-04-06T14:30:20Z</time></trkpt><trkpt lat="46.35538915890232" lon="6.637240524261797"><ele>863.0</ele><time>2026-04-06T14:30:21Z</time></trkpt><trkpt lat="46.35532837202958" lon="6.637457910130349"><ele>862.0</ele><time>2026-04-06T14:30:22Z</time></trkpt><trkpt lat="46.355264595429524" lon="6.637665295326527"><ele>861.0</ele><time>2026-04-06T14:30:23Z</time></trkpt><trkpt lat="46.355205654892835" lon="6.6378757489553175"><ele>860.0</ele><time>2026-04-06T14:30:24Z</time></trkpt><trkpt lat="46.35514722518624" lon="6.638121870887831"><ele>859.3333333333334</ele><time>2026-04-06T14:30:25Z</time></trkpt><trkpt lat="46.355091511981286" lon="6.638358567449812"><ele>858.6666666666667</ele><time>2026-04-06T14:30:26Z</time></trkpt><trkpt lat="46.355034342676475" lon="6.638576325400617"><ele>858.0</ele><time>2026-04-06T14:30:27Z</time></trkpt><trkpt lat="46.35494863052869" lon="6.638767838401815"><ele>858.0</ele><time>2026-04-06T14:30:28Z</time></trkpt><trkpt lat="46.35482612800857" lon="6.638954338154064"><ele>858.0</ele><time>2026-04-06T14:30:29Z</time></trkpt><trkpt lat="46.35467185442111" lon="6.6391353541331135"><ele>858.0</ele><time>2026-04-06T14:30:30Z</time></trkpt><trkpt lat="46.354508750925625" lon="6.639308562336891"><ele>856.0</ele><time>2026-04-06T14:30:31Z</time></trkpt><trkpt lat="46.35436951672902" lon="6.63948965668587"><ele>854.0</ele><time>2026-04-06T14:30:32Z</time></trkpt><trkpt lat="46.354258720800786" lon="6.639685545670964"><ele>852.0</ele><time>2026-04-06T14:30:33Z</time></trkpt><trkpt lat="46.35416791717111" lon="6.639888786319244"><ele>852.0</ele><time>2026-04-06T14:30:34Z</time></trkpt><trkpt lat="46.35408072640849" lon="6.640088760529412"><ele>852.0</ele><time>2026-04-06T14:30:35Z</time></trkpt><trkpt lat="46.35398158947311" lon="6.640259013716631"><ele>852.0</ele><time>2026-04-06T14:30:36Z</time></trkpt><trkpt lat="46.35387985671282" lon="6.640390415841293"><ele>850.75</ele><time>2026-04-06T14:30:37Z</time></trkpt><trkpt lat="46.35379891739631" lon="6.6405200382190195"><ele>849.5</ele><time>2026-04-06T14:30:38Z</time></trkpt><trkpt lat="46.353756840434" lon="6.64067973407787"><ele>848.25</ele><time>2026-04-06T14:30:39Z</time></trkpt><trkpt lat="46.3537473134796" lon="6.640855945433776"><ele>847.0</ele><time>2026-04-06T14:30:40Z</time></trkpt><trkpt lat="46.353748859077335" lon="6.641027200974714"><ele>848.0</ele><time>2026-04-06T14:30:41Z</time></trkpt><trkpt lat="46.353709513937574" lon="6.641179893599959"><ele>849.0</ele><time>2026-04-06T14:30:42Z</time></trkpt><trkpt lat="46.35362768656448" lon="6.641297429341404"><ele>850.0</ele><time>2026-04-06T14:30:43Z</time></trkpt><trkpt lat="46.35352511564943" lon="6.641364266483795"><ele>851.0</ele><time>2026-04-06T14:30:44Z</time></trkpt><trkpt lat="46.35342052591306" lon="6.641358073488382"><ele>852.0</ele><time>2026-04-06T14:30:45Z</time></trkpt><trkpt lat="46.35332062839509" lon="6.641372266649482"><ele>852.0</ele><time>2026-04-06T14:30:46Z</time></trkpt><trkpt lat="46.353211706840426" lon="6.641340393862129"><ele>852.0</ele><time>2026-04-06T14:30:47Z</time></trkpt><trkpt lat="46.35310544811423" lon="6.641317899845221"><ele>852.0</ele><time>2026-04-06T14:30:48Z</time></trkpt><trkpt lat="46.35298737606617" lon="6.641252858816895"><ele>852.0</ele><time>2026-04-06T14:30:49Z</time></trkpt><trkpt lat="46.35288036623166" lon="6.641134224898454"><ele>854.3333333333333</ele><time>2026-04-06T14:30:50Z</time></trkpt><trkpt lat="46.35279511207252" lon="6.640953523457868"><ele>856.6666666666666</ele><time>2026-04-06T14:30:51Z</time></trkpt><trkpt lat="46.352705706334895" lon="6.64076295059973"><ele>859.0</ele><time>2026-04-06T14:30:52Z</time></trkpt><trkpt lat="46.352633935750916" lon="6.6405814626697985"><ele>859.0</ele><time>2026-04-06T14:30:53Z</time></trkpt><trkpt lat="46.35258801723826" lon="6.640394811431692"><ele>859.0</ele><time>2026-04-06T14:30:54Z</time></trkpt><trkpt lat="46.352575455048594" lon="6.64016827948399"><ele>859.0</ele><time>2026-04-06T14:30:55Z</time></trkpt><trkpt lat="46.3526105883799" lon="6.639965702839637"><ele>859.0</ele><time>2026-04-06T14:30:56Z</time></trkpt><trkpt lat="46.35265232709156" lon="6.63970504342111"><ele>859.6666666666666</ele><time>2026-04-06T14:30:57Z</time></trkpt><trkpt lat="46.35265931497588" lon="6.639433109648537"><ele>860.3333333333333</ele><time>2026-04-06T14:30:58Z</time></trkpt><trkpt lat="46.35262681324479" lon="6.639171289423796"><ele>861.0</ele><time>2026-04-06T14:30:59Z</time></trkpt><trkpt lat="46.35258749491333" lon="6.638917699508519"><ele>861.0</ele><time>2026-04-06T14:31:00Z</time></trkpt><trkpt lat="46.3525138963131" lon="6.638662708435807"><ele>861.0</ele><time>2026-04-06T14:31:01Z</time></trkpt><trkpt lat="46.3524044058337" lon="6.638408548825742"><ele>861.0</ele><time>2026-04-06T14:31:02Z</time></trkpt><trkpt lat="46.35226747172531" lon="6.638137862105452"><ele>860.0</ele><time>2026-04-06T14:31:03Z</time></trkpt><trkpt lat="46.35212016473012" lon="6.637844525833864"><ele>859.0</ele><time>2026-04-06T14:31:04Z</time></trkpt><trkpt lat="46.35197026060213" lon="6.637515807354689"><ele>858.0</ele><time>2026-04-06T14:31:05Z</time></trkpt><trkpt lat="46.351805369320395" lon="6.637157328319541"><ele>857.0</ele><time>2026-04-06T14:31:06Z</time></trkpt><trkpt lat="46.35164967613748" lon="6.636818274307056"><ele>856.5</ele><time>2026-04-06T14:31:07Z</time></trkpt><trkpt lat="46.351484180244434" lon="6.636465125773826"><ele>856.0</ele><time>2026-04-06T14:31:08Z</time></trkpt><trkpt lat="46.35131689370555" lon="6.6361019314989695"><ele>858.0</ele><time>2026-04-06T14:31:09Z</time></trkpt><trkpt lat="46.35116706263157" lon="6.635776365715891"><ele>860.0</ele><time>2026-04-06T14:31:10Z</time></trkpt><trkpt lat="46.3510285102963" lon="6.635472962558096"><ele>859.0</ele><time>2026-04-06T14:31:11Z</time></trkpt><trkpt lat="46.350888634491234" lon="6.635168960172536"><ele>858.0</ele><time>2026-04-06T14:31:12Z</time></trkpt><trkpt lat="46.35073299757921" lon="6.634849828724511"><ele>858.0</ele><time>2026-04-06T14:31:13Z</time></trkpt><trkpt lat="46.35057576440609" lon="6.634552177732722"><ele>858.0</ele><time>2026-04-06T14:31:14Z</time></trkpt><trkpt lat="46.350433562854526" lon="6.6342844843869395"><ele>858.6666666666667</ele><time>2026-04-06T14:31:15Z</time></trkpt><trkpt lat="46.35030666269212" lon="6.634044883869436"><ele>859.3333333333334</ele><time>2026-04-06T14:31:16Z</time></trkpt><trkpt lat="46.35018296794016" lon="6.633821642767473"><ele>860.0</ele><time>2026-04-06T14:31:17Z</time></trkpt><trkpt lat="46.35004192196229" lon="6.633629041621696"><ele>860.0</ele><time>2026-04-06T14:31:18Z</time></trkpt><trkpt lat="46.349878226454585" lon="6.633459659462804"><ele>860.0</ele><time>2026-04-06T14:31:19Z</time></trkpt><trkpt lat="46.34970574764623" lon="6.633304523233474"><ele>860.0</ele><time>2026-04-06T14:31:20Z</time></trkpt><trkpt lat="46.349538920398054" lon="6.633180258430427"><ele>861.3333333333334</ele><time>2026-04-06T14:31:21Z</time></trkpt><trkpt lat="46.349373712721196" lon="6.633087134458002"><ele>862.6666666666667</ele><time>2026-04-06T14:31:22Z</time></trkpt><trkpt lat="46.34919838113561" lon="6.633064296313199"><ele>864.0</ele><time>2026-04-06T14:31:23Z</time></trkpt><trkpt lat="46.34901685301603" lon="6.6330865293363654"><ele>865.6666666666667</ele><time>2026-04-06T14:31:24Z</time></trkpt><trkpt lat="46.34880307374845" lon="6.633146014866464"><ele>867.3333333333334</ele><time>2026-04-06T14:31:25Z</time></trkpt><trkpt lat="46.34857928043707" lon="6.633216429798339"><ele>869.0</ele><time>2026-04-06T14:31:26Z</time></trkpt><trkpt lat="46.34838525299499" lon="6.6332734322144775"><ele>869.0</ele><time>2026-04-06T14:31:27Z</time></trkpt><trkpt lat="46.34822116014885" lon="6.633298129721387"><ele>869.0</ele><time>2026-04-06T14:31:28Z</time></trkpt><trkpt lat="46.34808049951061" lon="6.633323609194366"><ele>869.0</ele><time>2026-04-06T14:31:29Z</time></trkpt><trkpt lat="46.34796103445068" lon="6.633308855319471"><ele>869.0</ele><time>2026-04-06T14:31:30Z</time></trkpt><trkpt lat="46.34786011941572" lon="6.633225376960015"><ele>868.3333333333334</ele><time>2026-04-06T14:31:31Z</time></trkpt><trkpt lat="46.3477698650109" lon="6.63311713542305"><ele>867.6666666666667</ele><time>2026-04-06T14:31:32Z</time></trkpt><trkpt lat="46.34766641552824" lon="6.632932447008214"><ele>867.0</ele><time>2026-04-06T14:31:33Z</time></trkpt><trkpt lat="46.347559494126465" lon="6.632737846528929"><ele>867.0</ele><time>2026-04-06T14:31:34Z</time></trkpt><trkpt lat="46.347453387800286" lon="6.632574184214373"><ele>867.0</ele><time>2026-04-06T14:31:35Z</time></trkpt><trkpt lat="46.34736382214291" lon="6.632388050198535"><ele>867.0</ele><time>2026-04-06T14:31:36Z</time></trkpt><trkpt lat="46.347226349672816" lon="6.632223320378596"><ele>867.3333333333333</ele><time>2026-04-06T14:31:37Z</time></trkpt><trkpt lat="46.347058895332985" lon="6.632039535857023"><ele>867.6666666666666</ele><time>2026-04-06T14:31:38Z</time></trkpt><trkpt lat="46.34690977339629" lon="6.631865881390459"><ele>868.0</ele><time>2026-04-06T14:31:39Z</time></trkpt><trkpt lat="46.34677356863785" lon="6.631702553386329"><ele>868.0</ele><time>2026-04-06T14:31:40Z</time></trkpt><trkpt lat="46.34665993643948" lon="6.631532954535187"><ele>868.0</ele><time>2026-04-06T14:31:41Z</time></trkpt><trkpt lat="46.34656481586161" lon="6.631390856773215"><ele>868.0</ele><time>2026-04-06T14:31:42Z</time></trkpt><trkpt lat="46.346482352366536" lon="6.631280096060453"><ele>868.0</ele><time>2026-04-06T14:31:43Z</time></trkpt><trkpt lat="46.34639415059295" lon="6.631221689143065"><ele>869.25</ele><time>2026-04-06T14:31:44Z</time></trkpt><trkpt lat="46.346275158395706" lon="6.63121672182571"><ele>870.5</ele><time>2026-04-06T14:31:45Z</time></trkpt><trkpt lat="46.34612397449952" lon="6.6312711196494485"><ele>871.75</ele><time>2026-04-06T14:31:46Z</time></trkpt><trkpt lat="46.345956627414324" lon="6.631343680206083"><ele>873.0</ele><time>2026-04-06T14:31:47Z</time></trkpt><trkpt lat="46.345791108085265" lon="6.631338824214444"><ele>873.0</ele><time>2026-04-06T14:31:48Z</time></trkpt><trkpt lat="46.345620283462885" lon="6.6312928438912415"><ele>873.0</ele><time>2026-04-06T14:31:49Z</time></trkpt><trkpt lat="46.34544218816142" lon="6.631190219498263"><ele>873.0</ele><time>2026-04-06T14:31:50Z</time></trkpt><trkpt lat="46.34524874804849" lon="6.63105420498437"><ele>866.0</ele><time>2026-04-06T14:31:51Z</time></trkpt><trkpt lat="46.34502702076869" lon="6.63090035093644"><ele>859.0</ele><time>2026-04-06T14:31:52Z</time></trkpt><trkpt lat="46.344831261158824" lon="6.630758321041338"><ele>864.3333333333333</ele><time>2026-04-06T14:31:53Z</time></trkpt><trkpt lat="46.344674135410074" lon="6.630585746372234"><ele>869.6666666666667</ele><time>2026-04-06T14:31:54Z</time></trkpt><trkpt lat="46.344500219705225" lon="6.6304113705407115"><ele>875.0</ele><time>2026-04-06T14:31:55Z</time></trkpt><trkpt lat="46.344303327541965" lon="6.630311755889438"><ele>869.3333333333334</ele><time>2026-04-06T14:31:56Z</time></trkpt><trkpt lat="46.3441398969779" lon="6.630167511977759"><ele>863.6666666666667</ele><time>2026-04-06T14:31:57Z</time></trkpt><trkpt lat="46.34401451700042" lon="6.6299856066546345"><ele>858.0</ele><time>2026-04-06T14:31:58Z</time></trkpt><trkpt lat="46.34388976840481" lon="6.629797163706004"><ele>857.0</ele><time>2026-04-06T14:31:59Z</time></trkpt><trkpt lat="46.343755149431225" lon="6.62962966994737"><ele>856.0</ele><time>2026-04-06T14:32:00Z</time></trkpt><trkpt lat="46.3436118928114" lon="6.629487858635281"><ele>855.0</ele><time>2026-04-06T14:32:01Z</time></trkpt><trkpt lat="46.343443091364975" lon="6.629438020272059"><ele>855.0</ele><time>2026-04-06T14:32:02Z</time></trkpt><trkpt lat="46.34333166766796" lon="6.629320839755075"><ele>855.0</ele><time>2026-04-06T14:32:03Z</time></trkpt><trkpt lat="46.34323798923258" lon="6.629191849723021"><ele>855.0</ele><time>2026-04-06T14:32:04Z</time></trkpt><trkpt lat="46.34313941881135" lon="6.629107802266974"><ele>855.0</ele><time>2026-04-06T14:32:05Z</time></trkpt><trkpt lat="46.34301973447481" lon="6.629068152593013"><ele>855.75</ele><time>2026-04-06T14:32:06Z</time></trkpt><trkpt lat="46.34288673102316" lon="6.629101161045108"><ele>856.5</ele><time>2026-04-06T14:32:07Z</time></trkpt><trkpt lat="46.34273200104083" lon="6.629140394752485"><ele>857.25</ele><time>2026-04-06T14:32:08Z</time></trkpt><trkpt lat="46.34258220271424" lon="6.629071458545558"><ele>858.0</ele><time>2026-04-06T14:32:09Z</time></trkpt><trkpt lat="46.34242261041221" lon="6.628959441671617"><ele>858.0</ele><time>2026-04-06T14:32:10Z</time></trkpt><trkpt lat="46.34222218856775" lon="6.628862088206235"><ele>858.0</ele><time>2026-04-06T14:32:11Z</time></trkpt><trkpt lat="46.34202894731359" lon="6.628778849252012"><ele>858.0</ele><time>2026-04-06T14:32:12Z</time></trkpt><trkpt lat="46.34186717652688" lon="6.628701138856337"><ele>854.0</ele><time>2026-04-06T14:32:13Z</time></trkpt><trkpt lat="46.34172720966068" lon="6.628592969319885"><ele>850.0</ele><time>2026-04-06T14:32:14Z</time></trkpt><trkpt lat="46.34160608052847" lon="6.628450477198485"><ele>846.0</ele><time>2026-04-06T14:32:15Z</time></trkpt><trkpt lat="46.341495778207445" lon="6.628344433431497"><ele>842.0</ele><time>2026-04-06T14:32:16Z</time></trkpt><trkpt lat="46.34138190722541" lon="6.628288599766135"><ele>841.25</ele><time>2026-04-06T14:32:17Z</time></trkpt><trkpt lat="46.341256874628925" lon="6.628334957653844"><ele>840.5</ele><time>2026-04-06T14:32:18Z</time></trkpt><trkpt lat="46.34113597160071" lon="6.628405835752256"><ele>839.75</ele><time>2026-04-06T14:32:19Z</time></trkpt><trkpt lat="46.34102331886498" lon="6.628526736613797"><ele>839.0</ele><time>2026-04-06T14:32:20Z</time></trkpt><trkpt lat="46.34092705679971" lon="6.628712478143029"><ele>839.0</ele><time>2026-04-06T14:32:21Z</time></trkpt><trkpt lat="46.34083841256707" lon="6.628949761491002"><ele>839.0</ele><time>2026-04-06T14:32:22Z</time></trkpt><trkpt lat="46.34074312381747" lon="6.629218074460417"><ele>839.0</ele><time>2026-04-06T14:32:23Z</time></trkpt><trkpt lat="46.34063916883089" lon="6.6294889665310635"><ele>831.0</ele><time>2026-04-06T14:32:24Z</time></trkpt><trkpt lat="46.34053027542516" lon="6.629726963227779"><ele>823.0</ele><time>2026-04-06T14:32:25Z</time></trkpt><trkpt lat="46.34046944291943" lon="6.629979594851292"><ele>815.0</ele><time>2026-04-06T14:32:26Z</time></trkpt><trkpt lat="46.3404331974271" lon="6.630237424627378"><ele>817.0</ele><time>2026-04-06T14:32:27Z</time></trkpt><trkpt lat="46.34041701513978" lon="6.630502821712349"><ele>819.0</ele><time>2026-04-06T14:32:28Z</time></trkpt><trkpt lat="46.340383692264055" lon="6.630726276481175"><ele>821.0</ele><time>2026-04-06T14:32:29Z</time></trkpt><trkpt lat="46.34032145300371" lon="6.630917583514183"><ele>821.0</ele><time>2026-04-06T14:32:30Z</time></trkpt><trkpt lat="46.34025830085806" lon="6.631097904957396"><ele>821.0</ele><time>2026-04-06T14:32:31Z</time></trkpt><trkpt lat="46.34023130903987" lon="6.631281709313357"><ele>821.0</ele><time>2026-04-06T14:32:32Z</time></trkpt><trkpt lat="46.3402524586108" lon="6.631479470404248"><ele>821.0</ele><time>2026-04-06T14:32:33Z</time></trkpt><trkpt lat="46.34031333892234" lon="6.631693536055263"><ele>821.0</ele><time>2026-04-06T14:32:34Z</time></trkpt><trkpt lat="46.34039409818714" lon="6.631916206695362"><ele>821.0</ele><time>2026-04-06T14:32:35Z</time></trkpt><trkpt lat="46.34045781808717" lon="6.6321816849573425"><ele>821.0</ele><time>2026-04-06T14:32:36Z</time></trkpt><trkpt lat="46.3404808981288" lon="6.632485725542666"><ele>817.0</ele><time>2026-04-06T14:32:37Z</time></trkpt><trkpt lat="46.34050386822367" lon="6.632839801443665"><ele>813.0</ele><time>2026-04-06T14:32:38Z</time></trkpt><trkpt lat="46.34054977674602" lon="6.6331933884005085"><ele>829.0</ele><time>2026-04-06T14:32:39Z</time></trkpt><trkpt lat="46.340599705918855" lon="6.633529887836021"><ele>845.0</ele><time>2026-04-06T14:32:40Z</time></trkpt><trkpt lat="46.3406410420565" lon="6.6338462394769495"><ele>845.0</ele><time>2026-04-06T14:32:41Z</time></trkpt><trkpt lat="46.34066635073008" lon="6.634172923537588"><ele>845.0</ele><time>2026-04-06T14:32:42Z</time></trkpt><trkpt lat="46.34067540856785" lon="6.634533068132785"><ele>841.6666666666667</ele><time>2026-04-06T14:32:43Z</time></trkpt><trkpt lat="46.34068487976187" lon="6.63487516154264"><ele>838.3333333333333</ele><time>2026-04-06T14:32:44Z</time></trkpt><trkpt lat="46.340695522895594" lon="6.635179510491607"><ele>835.0</ele><time>2026-04-06T14:32:45Z</time></trkpt><trkpt lat="46.34070224291753" lon="6.635438236760931"><ele>833.3333333333333</ele><time>2026-04-06T14:32:46Z</time></trkpt><trkpt lat="46.340707221287225" lon="6.635675691706056"><ele>831.6666666666667</ele><time>2026-04-06T14:32:47Z</time></trkpt><trkpt lat="46.340714756646676" lon="6.635908209344983"><ele>830.0</ele><time>2026-04-06T14:32:48Z</time></trkpt><trkpt lat="46.34071370595251" lon="6.636142618269855"><ele>827.6666666666667</ele><time>2026-04-06T14:32:49Z</time></trkpt><trkpt lat="46.34070022261959" lon="6.6363684547064326"><ele>825.3333333333333</ele><time>2026-04-06T14:32:50Z</time></trkpt><trkpt lat="46.34067063162626" lon="6.636592106234883"><ele>823.0</ele><time>2026-04-06T14:32:51Z</time></trkpt><trkpt lat="46.340619881165786" lon="6.6368140734805"><ele>822.3333333333333</ele><time>2026-04-06T14:32:52Z</time></trkpt><trkpt lat="46.34055538959234" lon="6.637019954167515"><ele>821.6666666666667</ele><time>2026-04-06T14:32:53Z</time></trkpt><trkpt lat="46.340487138261174" lon="6.637216281953013"><ele>821.0</ele><time>2026-04-06T14:32:54Z</time></trkpt><trkpt lat="46.34042143292705" lon="6.637405948235024"><ele>819.75</ele><time>2026-04-06T14:32:55Z</time></trkpt><trkpt lat="46.3403640131938" lon="6.637575234401897"><ele>818.5</ele><time>2026-04-06T14:32:56Z</time></trkpt><trkpt lat="46.34031214888989" lon="6.637731079476542"><ele>817.25</ele><time>2026-04-06T14:32:57Z</time></trkpt><trkpt lat="46.34025213764735" lon="6.637883226169743"><ele>816.0</ele><time>2026-04-06T14:32:58Z</time></trkpt><trkpt lat="46.340180544572874" lon="6.63802009349286"><ele>816.0</ele><time>2026-04-06T14:32:59Z</time></trkpt><trkpt lat="46.340104843417016" lon="6.638148133924631"><ele>816.0</ele><time>2026-04-06T14:33:00Z</time></trkpt><trkpt lat="46.3400403060298" lon="6.638278142968172"><ele>816.0</ele><time>2026-04-06T14:33:01Z</time></trkpt><trkpt lat="46.33997004726006" lon="6.6384003668074"><ele>816.0</ele><time>2026-04-06T14:33:02Z</time></trkpt><trkpt lat="46.339889551317" lon="6.638510474565422"><ele>816.0</ele><time>2026-04-06T14:33:03Z</time></trkpt><trkpt lat="46.33979191358768" lon="6.638636421560667"><ele>814.5</ele><time>2026-04-06T14:33:04Z</time></trkpt><trkpt lat="46.3396835390586" lon="6.638765620076156"><ele>813.0</ele><time>2026-04-06T14:33:05Z</time></trkpt><trkpt lat="46.339582334651915" lon="6.638897335569794"><ele>811.5</ele><time>2026-04-06T14:33:06Z</time></trkpt><trkpt lat="46.339495019391094" lon="6.639044659184471"><ele>810.0</ele><time>2026-04-06T14:33:07Z</time></trkpt><trkpt lat="46.33941336957683" lon="6.63922876429253"><ele>810.0</ele><time>2026-04-06T14:33:08Z</time></trkpt><trkpt lat="46.33933521401083" lon="6.639413567337315"><ele>810.0</ele><time>2026-04-06T14:33:09Z</time></trkpt><trkpt lat="46.33924870518854" lon="6.639596768759753"><ele>810.0</ele><time>2026-04-06T14:33:10Z</time></trkpt><trkpt lat="46.339166028771906" lon="6.639765193688703"><ele>810.0</ele><time>2026-04-06T14:33:11Z</time></trkpt><trkpt lat="46.339080316438526" lon="6.639941570758685"><ele>811.0</ele><time>2026-04-06T14:33:12Z</time></trkpt><trkpt lat="46.33899843141432" lon="6.640130047349599"><ele>812.0</ele><time>2026-04-06T14:33:13Z</time></trkpt><trkpt lat="46.338929014589155" lon="6.640327788595355"><ele>813.0</ele><time>2026-04-06T14:33:14Z</time></trkpt><trkpt lat="46.33887635867092" lon="6.640525023133937"><ele>810.75</ele><time>2026-04-06T14:33:15Z</time></trkpt><trkpt lat="46.338840459241844" lon="6.6407263849873335"><ele>808.5</ele><time>2026-04-06T14:33:16Z</time></trkpt><trkpt lat="46.338813234680565" lon="6.640912214563202"><ele>806.25</ele><time>2026-04-06T14:33:17Z</time></trkpt><trkpt lat="46.33879160552641" lon="6.641069322596117"><ele>804.0</ele><time>2026-04-06T14:33:18Z</time></trkpt><trkpt lat="46.33877242307144" lon="6.641210524957161"><ele>804.0</ele><time>2026-04-06T14:33:19Z</time></trkpt><trkpt lat="46.338756445884435" lon="6.641343865085126"><ele>804.0</ele><time>2026-04-06T14:33:20Z</time></trkpt><trkpt lat="46.33874939922941" lon="6.641457364720644"><ele>804.0</ele><time>2026-04-06T14:33:21Z</time></trkpt><trkpt lat="46.338744139621504" lon="6.641607572772583"><ele>804.0</ele><time>2026-04-06T14:33:23Z</time></trkpt><trkpt lat="46.33874736128064" lon="6.6417029838182104"><ele>804.0</ele><time>2026-04-06T14:33:25Z</time></trkpt><trkpt lat="46.33881686825683" lon="6.6418996443898894"><ele>804.0</ele><time>2026-04-06T14:33:27Z</time></trkpt><trkpt lat="46.33881354644226" lon="6.641608774002078"><ele>804.0</ele><time>2026-04-06T14:33:41Z</time></trkpt><trkpt lat="46.338792836768135" lon="6.641895252626129"><ele>804.0</ele><time>2026-04-06T14:33:44Z</time></trkpt><trkpt lat="46.338813890347225" lon="6.641612410084279"><ele>804.0</ele><time>2026-04-06T14:33:56Z</time></trkpt><trkpt lat="46.33879637283612" lon="6.641895772417798"><ele>804.0</ele><time>2026-04-06T14:34:00Z</time></trkpt><trkpt lat="46.33881638515731" lon="6.6416112617035585"><ele>804.0</ele><time>2026-04-06T14:34:04Z</time></trkpt><trkpt lat="46.33875186218632" lon="6.641591891045013"><ele>804.0</ele><time>2026-04-06T14:34:07Z</time></trkpt><trkpt lat="46.33871735665978" lon="6.641741641851314"><ele>804.0</ele><time>2026-04-06T14:35:58Z</time></trkpt><trkpt lat="46.338694391397794" lon="6.6419027557860995"><ele>804.0</ele><time>2026-04-06T14:35:59Z</time></trkpt><trkpt lat="46.338652051503985" lon="6.64207875848094"><ele>804.0</ele><time>2026-04-06T14:36:00Z</time></trkpt><trkpt lat="46.33858128792093" lon="6.642286551492275"><ele>803.6666666666667</ele><time>2026-04-06T14:36:01Z</time></trkpt><trkpt lat="46.338527909481925" lon="6.642496101362498"><ele>803.3333333333334</ele><time>2026-04-06T14:36:02Z</time></trkpt><trkpt lat="46.338495052342786" lon="6.642719931434236"><ele>803.0</ele><time>2026-04-06T14:36:03Z</time></trkpt><trkpt lat="46.338475045200234" lon="6.64295642792157"><ele>803.6666666666667</ele><time>2026-04-06T14:36:04Z</time></trkpt><trkpt lat="46.338457932978834" lon="6.643184519961823"><ele>804.3333333333333</ele><time>2026-04-06T14:36:05Z</time></trkpt><trkpt lat="46.338420759205036" lon="6.643401639075065"><ele>805.0</ele><time>2026-04-06T14:36:06Z</time></trkpt><trkpt lat="46.33837974659286" lon="6.6436107280002155"><ele>804.0</ele><time>2026-04-06T14:36:07Z</time></trkpt><trkpt lat="46.338319559772586" lon="6.643790945869001"><ele>803.0</ele><time>2026-04-06T14:36:08Z</time></trkpt><trkpt lat="46.338246062137536" lon="6.643957019775289"><ele>802.0</ele><time>2026-04-06T14:36:09Z</time></trkpt><trkpt lat="46.33813928304471" lon="6.644118328079547"><ele>801.0</ele><time>2026-04-06T14:36:10Z</time></trkpt><trkpt lat="46.338013145708175" lon="6.644258567919221"><ele>801.0</ele><time>2026-04-06T14:36:11Z</time></trkpt><trkpt lat="46.337860991079076" lon="6.644406737923739"><ele>801.0</ele><time>2026-04-06T14:36:12Z</time></trkpt><trkpt lat="46.33770250635784" lon="6.644549829621242"><ele>801.0</ele><time>2026-04-06T14:36:13Z</time></trkpt><trkpt lat="46.33752697721438" lon="6.6447142735262945"><ele>802.3333333333333</ele><time>2026-04-06T14:36:14Z</time></trkpt><trkpt lat="46.33735551443026" lon="6.6448856938682415"><ele>803.6666666666666</ele><time>2026-04-06T14:36:15Z</time></trkpt><trkpt lat="46.337200568701675" lon="6.645046227932972"><ele>805.0</ele><time>2026-04-06T14:36:16Z</time></trkpt><trkpt lat="46.33706258462021" lon="6.6452118082591385"><ele>799.6666666666666</ele><time>2026-04-06T14:36:17Z</time></trkpt><trkpt lat="46.33694857785278" lon="6.645394859056289"><ele>794.3333333333333</ele><time>2026-04-06T14:36:18Z</time></trkpt><trkpt lat="46.336859736474665" lon="6.645579128027731"><ele>789.0</ele><time>2026-04-06T14:36:19Z</time></trkpt><trkpt lat="46.336804503104766" lon="6.645783578973919"><ele>789.0</ele><time>2026-04-06T14:36:20Z</time></trkpt><trkpt lat="46.336749896530605" lon="6.646036738035227"><ele>789.0</ele><time>2026-04-06T14:36:21Z</time></trkpt><trkpt lat="46.336691096458985" lon="6.646325358599522"><ele>789.0</ele><time>2026-04-06T14:36:22Z</time></trkpt><trkpt lat="46.33662825777699" lon="6.646634927095238"><ele>790.3333333333333</ele><time>2026-04-06T14:36:23Z</time></trkpt><trkpt lat="46.33657802959234" lon="6.646924085179592"><ele>791.6666666666666</ele><time>2026-04-06T14:36:23.999Z</time></trkpt><trkpt lat="46.33653543734833" lon="6.647186085274016"><ele>793.0</ele><time>2026-04-06T14:36:24.999Z</time></trkpt><trkpt lat="46.33648280322848" lon="6.647390093430368"><ele>792.0</ele><time>2026-04-06T14:36:25.999Z</time></trkpt><trkpt lat="46.33640758802085" lon="6.647567728604291"><ele>791.0</ele><time>2026-04-06T14:36:26.999Z</time></trkpt><trkpt lat="46.33628925937642" lon="6.647707961775192"><ele>790.0</ele><time>2026-04-06T14:36:27.999Z</time></trkpt><trkpt lat="46.33616172029181" lon="6.647848201770521"><ele>790.0</ele><time>2026-04-06T14:36:28.999Z</time></trkpt><trkpt lat="46.33604190393204" lon="6.648004245675028"><ele>790.0</ele><time>2026-04-06T14:36:29.999Z</time></trkpt><trkpt lat="46.335935290964215" lon="6.648228067705586"><ele>790.0</ele><time>2026-04-06T14:36:30.999Z</time></trkpt><trkpt lat="46.33585524138097" lon="6.648481535352031"><ele>791.6666666666666</ele><time>2026-04-06T14:36:31.999Z</time></trkpt><trkpt lat="46.335778130958666" lon="6.64874624069912"><ele>793.3333333333333</ele><time>2026-04-06T14:36:32.999Z</time></trkpt><trkpt lat="46.33569435893503" lon="6.6490335195794135"><ele>795.0</ele><time>2026-04-06T14:36:33.999Z</time></trkpt><trkpt lat="46.3356073793519" lon="6.649350217027432"><ele>790.0</ele><time>2026-04-06T14:36:34.999Z</time></trkpt><trkpt lat="46.335545409582416" lon="6.649643265310108"><ele>785.0</ele><time>2026-04-06T14:36:35.999Z</time></trkpt><trkpt lat="46.33545776897222" lon="6.649891630891117"><ele>780.0</ele><time>2026-04-06T14:36:36.999Z</time></trkpt><trkpt lat="46.33541080376587" lon="6.650115756642212"><ele>779.6666666666667</ele><time>2026-04-06T14:36:37.999Z</time></trkpt><trkpt lat="46.33534963706678" lon="6.650328446961922"><ele>779.3333333333334</ele><time>2026-04-06T14:36:38.999Z</time></trkpt><trkpt lat="46.33529868502716" lon="6.650558663066388"><ele>779.0</ele><time>2026-04-06T14:36:39.999Z</time></trkpt><trkpt lat="46.33528019944529" lon="6.650799204244059"><ele>779.0</ele><time>2026-04-06T14:36:40.999Z</time></trkpt><trkpt lat="46.33526425905146" lon="6.6510230944360975"><ele>779.0</ele><time>2026-04-06T14:36:41.999Z</time></trkpt><trkpt lat="46.335276485580835" lon="6.651233372630567"><ele>779.0</ele><time>2026-04-06T14:36:42.999Z</time></trkpt><trkpt lat="46.335239086011605" lon="6.651434902523906"><ele>779.0</ele><time>2026-04-06T14:36:43.999Z</time></trkpt><trkpt lat="46.33516356927083" lon="6.651612230145843"><ele>781.0</ele><time>2026-04-06T14:36:44.999Z</time></trkpt><trkpt lat="46.335047610045535" lon="6.651779434366355"><ele>783.0</ele><time>2026-04-06T14:36:45.999Z</time></trkpt><trkpt lat="46.3349055286219" lon="6.65195354850275"><ele>785.0</ele><time>2026-04-06T14:36:46.999Z</time></trkpt><trkpt lat="46.33476357425723" lon="6.652162640574843"><ele>777.5</ele><time>2026-04-06T14:36:47.999Z</time></trkpt><trkpt lat="46.33462896808792" lon="6.65242868320096"><ele>770.0</ele><time>2026-04-06T14:36:48.999Z</time></trkpt><trkpt lat="46.33450643625132" lon="6.652727885948019"><ele>772.3333333333334</ele><time>2026-04-06T14:36:49.999Z</time></trkpt><trkpt lat="46.33439929207314" lon="6.652996762376809"><ele>774.6666666666667</ele><time>2026-04-06T14:36:50.999Z</time></trkpt><trkpt lat="46.334300405594405" lon="6.65323069628868"><ele>777.0</ele><time>2026-04-06T14:36:51.999Z</time></trkpt><trkpt lat="46.33421945947612" lon="6.65342733485311"><ele>777.0</ele><time>2026-04-06T14:36:52.999Z</time></trkpt><trkpt lat="46.33415177986125" lon="6.6536008812247855"><ele>777.0</ele><time>2026-04-06T14:36:53.999Z</time></trkpt><trkpt lat="46.334100125958315" lon="6.653751860475031"><ele>777.0</ele><time>2026-04-06T14:36:54.999Z</time></trkpt><trkpt lat="46.33405829660401" lon="6.653918732539398"><ele>777.0</ele><time>2026-04-06T14:36:55.999Z</time></trkpt><trkpt lat="46.334035895003744" lon="6.654089911594809"><ele>776.6</ele><time>2026-04-06T14:36:56.999Z</time></trkpt><trkpt lat="46.33402194276186" lon="6.654248667330551"><ele>776.2</ele><time>2026-04-06T14:36:57.999Z</time></trkpt><trkpt lat="46.334000753786675" lon="6.654348518033979"><ele>775.8</ele><time>2026-04-06T14:36:58.999Z</time></trkpt><trkpt lat="46.33396108709117" lon="6.654420084078254"><ele>775.4</ele><time>2026-04-06T14:36:59.999Z</time></trkpt><trkpt lat="46.333855018138344" lon="6.654472047133767"><ele>775.0</ele><time>2026-04-06T14:37:01.999Z</time></trkpt><trkpt lat="46.3337995705123" lon="6.654611566655558"><ele>775.0</ele><time>2026-04-06T14:37:03.999Z</time></trkpt><trkpt lat="46.333795414163454" lon="6.654762580499958"><ele>775.0</ele><time>2026-04-06T14:37:04.999Z</time></trkpt><trkpt lat="46.333810252152134" lon="6.654972436575749"><ele>775.0</ele><time>2026-04-06T14:37:05.999Z</time></trkpt><trkpt lat="46.33382239488103" lon="6.655221185788365"><ele>775.0</ele><time>2026-04-06T14:37:06.999Z</time></trkpt><trkpt lat="46.33380283137812" lon="6.655506292325903"><ele>776.6666666666666</ele><time>2026-04-06T14:37:07.999Z</time></trkpt><trkpt lat="46.3337607707873" lon="6.655787993679263"><ele>778.3333333333333</ele><time>2026-04-06T14:37:08.999Z</time></trkpt><trkpt lat="46.33372061603626" lon="6.656065370767263"><ele>780.0</ele><time>2026-04-06T14:37:09.999Z</time></trkpt><trkpt lat="46.33370743216703" lon="6.65632488747035"><ele>780.0</ele><time>2026-04-06T14:37:10.999Z</time></trkpt><trkpt lat="46.333727061384025" lon="6.6565759057114935"><ele>780.0</ele><time>2026-04-06T14:37:11.999Z</time></trkpt><trkpt lat="46.33376772857637" lon="6.656808513388846"><ele>780.0</ele><time>2026-04-06T14:37:12.999Z</time></trkpt><trkpt lat="46.33380443060949" lon="6.6570190605925745"><ele>781.25</ele><time>2026-04-06T14:37:13.999Z</time></trkpt><trkpt lat="46.33381003673134" lon="6.657214261018329"><ele>782.5</ele><time>2026-04-06T14:37:14.999Z</time></trkpt><trkpt lat="46.33376798674979" lon="6.657396778854381"><ele>783.75</ele><time>2026-04-06T14:37:15.999Z</time></trkpt><trkpt lat="46.33365949842995" lon="6.657551852043086"><ele>785.0</ele><time>2026-04-06T14:37:16.999Z</time></trkpt><trkpt lat="46.33355156532949" lon="6.657763524151518"><ele>789.0</ele><time>2026-04-06T14:37:17.999Z</time></trkpt><trkpt lat="46.333448799193675" lon="6.657964446311581"><ele>793.0</ele><time>2026-04-06T14:37:18.999Z</time></trkpt><trkpt lat="46.33329927278813" lon="6.658047161368847"><ele>797.0</ele><time>2026-04-06T14:37:19.999Z</time></trkpt><trkpt lat="46.33312380585949" lon="6.6581538046117705"><ele>794.0</ele><time>2026-04-06T14:37:20.999Z</time></trkpt><trkpt lat="46.33293132715817" lon="6.658295548167221"><ele>791.0</ele><time>2026-04-06T14:37:21.999Z</time></trkpt><trkpt lat="46.332735278823506" lon="6.658471949679146"><ele>788.0</ele><time>2026-04-06T14:37:22.999Z</time></trkpt><trkpt lat="46.33253278405015" lon="6.658695969870668"><ele>788.0</ele><time>2026-04-06T14:37:23.999Z</time></trkpt><trkpt lat="46.33233631995406" lon="6.658898425405092"><ele>788.0</ele><time>2026-04-06T14:37:24.999Z</time></trkpt><trkpt lat="46.33216847161263" lon="6.659060329207921"><ele>788.0</ele><time>2026-04-06T14:37:25.999Z</time></trkpt><trkpt lat="46.33203519429833" lon="6.659208614563886"><ele>782.6666666666667</ele><time>2026-04-06T14:37:26.999Z</time></trkpt><trkpt lat="46.3319300083287" lon="6.6593953373453605"><ele>777.3333333333333</ele><time>2026-04-06T14:37:27.999Z</time></trkpt><trkpt lat="46.331853677496255" lon="6.659616181473227"><ele>772.0</ele><time>2026-04-06T14:37:28.999Z</time></trkpt><trkpt lat="46.33180829247886" lon="6.659875586035785"><ele>772.0</ele><time>2026-04-06T14:37:29.999Z</time></trkpt><trkpt lat="46.33179212368158" lon="6.6601773197136716"><ele>772.0</ele><time>2026-04-06T14:37:30.999Z</time></trkpt><trkpt lat="46.33179425888622" lon="6.660508411501688"><ele>772.0</ele><time>2026-04-06T14:37:31.999Z</time></trkpt><trkpt lat="46.33179012758751" lon="6.660866676228721"><ele>779.0</ele><time>2026-04-06T14:37:32.999Z</time></trkpt><trkpt lat="46.33176228346642" lon="6.6611983650634405"><ele>786.0</ele><time>2026-04-06T14:37:33.999Z</time></trkpt><trkpt lat="46.33170092969122" lon="6.661519417641978"><ele>786.0</ele><time>2026-04-06T14:37:34.999Z</time></trkpt><trkpt lat="46.331605615917134" lon="6.661863379456504"><ele>786.0</ele><time>2026-04-06T14:37:35.999Z</time></trkpt><trkpt lat="46.33148729331794" lon="6.662240220233884"><ele>779.0</ele><time>2026-04-06T14:37:37Z</time></trkpt><trkpt lat="46.331361119189864" lon="6.662638348008"><ele>772.0</ele><time>2026-04-06T14:37:38Z</time></trkpt><trkpt lat="46.33123120003332" lon="6.663032661886369"><ele>772.0</ele><time>2026-04-06T14:37:39Z</time></trkpt><trkpt lat="46.33108223078091" lon="6.6634230780783685"><ele>772.0</ele><time>2026-04-06T14:37:40Z</time></trkpt><trkpt lat="46.33092061152649" lon="6.6637796358002"><ele>779.5</ele><time>2026-04-06T14:37:41Z</time></trkpt><trkpt lat="46.330757124622" lon="6.664095502967421"><ele>787.0</ele><time>2026-04-06T14:37:42Z</time></trkpt><trkpt lat="46.330601142237995" lon="6.664389401081312"><ele>783.5</ele><time>2026-04-06T14:37:43Z</time></trkpt><trkpt lat="46.33045778213352" lon="6.664670342029231"><ele>780.0</ele><time>2026-04-06T14:37:44Z</time></trkpt><trkpt lat="46.330316130104684" lon="6.664934540457836"><ele>780.0</ele><time>2026-04-06T14:37:45Z</time></trkpt><trkpt lat="46.330208410321845" lon="6.665231862799451"><ele>780.0</ele><time>2026-04-06T14:37:46Z</time></trkpt><trkpt lat="46.33003858103008" lon="6.66541765422532"><ele>780.0</ele><time>2026-04-06T14:37:47Z</time></trkpt><trkpt lat="46.32978727015877" lon="6.665458577870254"><ele>781.0</ele><time>2026-04-06T14:37:48Z</time></trkpt><trkpt lat="46.32956605164263" lon="6.665605178498833"><ele>782.0</ele><time>2026-04-06T14:37:49Z</time></trkpt><trkpt lat="46.32934844129871" lon="6.665720297683664"><ele>782.0</ele><time>2026-04-06T14:37:50Z</time></trkpt><trkpt lat="46.329161543763185" lon="6.6658397244716685"><ele>782.0</ele><time>2026-04-06T14:37:51Z</time></trkpt><trkpt lat="46.32900295760658" lon="6.665974934586576"><ele>782.0</ele><time>2026-04-06T14:37:52Z</time></trkpt><trkpt lat="46.32887549187787" lon="6.666139860557523"><ele>780.3333333333334</ele><time>2026-04-06T14:37:53Z</time></trkpt><trkpt lat="46.32875770620677" lon="6.66635833345432"><ele>778.6666666666667</ele><time>2026-04-06T14:37:54Z</time></trkpt><trkpt lat="46.32865731942197" lon="6.666628667954601"><ele>777.0</ele><time>2026-04-06T14:37:55Z</time></trkpt><trkpt lat="46.328571962176014" lon="6.666898366076474"><ele>781.0</ele><time>2026-04-06T14:37:56Z</time></trkpt><trkpt lat="46.3284679811979" lon="6.667119600025683"><ele>785.0</ele><time>2026-04-06T14:37:57Z</time></trkpt><trkpt lat="46.32832876041776" lon="6.667285271204391"><ele>789.0</ele><time>2026-04-06T14:37:58Z</time></trkpt><trkpt lat="46.32815006817265" lon="6.667385778939844"><ele>785.6666666666667</ele><time>2026-04-06T14:37:59Z</time></trkpt><trkpt lat="46.32797880258646" lon="6.667501968764704"><ele>782.3333333333334</ele><time>2026-04-06T14:38:00Z</time></trkpt><trkpt lat="46.32782197839759" lon="6.667591295127195"><ele>779.0</ele><time>2026-04-06T14:38:01Z</time></trkpt><trkpt lat="46.327684949215694" lon="6.667707720424043"><ele>782.0</ele><time>2026-04-06T14:38:02Z</time></trkpt><trkpt lat="46.327572283744956" lon="6.667863603482496"><ele>785.0</ele><time>2026-04-06T14:38:03Z</time></trkpt><trkpt lat="46.32748221971435" lon="6.66804965236607"><ele>788.0</ele><time>2026-04-06T14:38:04Z</time></trkpt><trkpt lat="46.32739352506045" lon="6.668277459188297"><ele>788.0</ele><time>2026-04-06T14:38:05Z</time></trkpt><trkpt lat="46.32731006426087" lon="6.66852059342061"><ele>788.0</ele><time>2026-04-06T14:38:06Z</time></trkpt><trkpt lat="46.32724240805071" lon="6.668721926823267"><ele>788.0</ele><time>2026-04-06T14:38:07Z</time></trkpt><trkpt lat="46.32717342975693" lon="6.668889406834668"><ele>787.75</ele><time>2026-04-06T14:38:08Z</time></trkpt><trkpt lat="46.32708365661764" lon="6.669038267492724"><ele>787.5</ele><time>2026-04-06T14:38:09Z</time></trkpt><trkpt lat="46.32697394043179" lon="6.66915391712182"><ele>787.25</ele><time>2026-04-06T14:38:09.999Z</time></trkpt><trkpt lat="46.32683339818635" lon="6.669210652875025"><ele>787.0</ele><time>2026-04-06T14:38:10.999Z</time></trkpt><trkpt lat="46.32668824256666" lon="6.669290358713005"><ele>787.0</ele><time>2026-04-06T14:38:11.999Z</time></trkpt><trkpt lat="46.326541347503955" lon="6.669328698120211"><ele>787.0</ele><time>2026-04-06T14:38:12.999Z</time></trkpt><trkpt lat="46.326401604183424" lon="6.669374487127609"><ele>787.0</ele><time>2026-04-06T14:38:13.999Z</time></trkpt><trkpt lat="46.32626818302358" lon="6.669424360758236"><ele>787.0</ele><time>2026-04-06T14:38:14.999Z</time></trkpt><trkpt lat="46.326133255586036" lon="6.669473297762255"><ele>788.5</ele><time>2026-04-06T14:38:15.999Z</time></trkpt><trkpt lat="46.32599821367094" lon="6.669516139401559"><ele>790.0</ele><time>2026-04-06T14:38:16.999Z</time></trkpt><trkpt lat="46.325853172314545" lon="6.669548471419308"><ele>791.5</ele><time>2026-04-06T14:38:17.999Z</time></trkpt><trkpt lat="46.32569767258491" lon="6.669556835642946"><ele>793.0</ele><time>2026-04-06T14:38:18.999Z</time></trkpt><trkpt lat="46.32553185909096" lon="6.669548161330555"><ele>793.0</ele><time>2026-04-06T14:38:19.999Z</time></trkpt><trkpt lat="46.32534999142808" lon="6.6695421298754125"><ele>793.0</ele><time>2026-04-06T14:38:20.999Z</time></trkpt><trkpt lat="46.325165341332145" lon="6.669562633477576"><ele>793.0</ele><time>2026-04-06T14:38:21.999Z</time></trkpt><trkpt lat="46.32499897439458" lon="6.669609963345829"><ele>793.0</ele><time>2026-04-06T14:38:22.999Z</time></trkpt><trkpt lat="46.3248255844375" lon="6.669667285717629"><ele>793.0</ele><time>2026-04-06T14:38:23.999Z</time></trkpt><trkpt lat="46.32463466569366" lon="6.669754469028577"><ele>793.0</ele><time>2026-04-06T14:38:24.999Z</time></trkpt><trkpt lat="46.32444446998953" lon="6.669856022294037"><ele>791.6666666666666</ele><time>2026-04-06T14:38:25.999Z</time></trkpt><trkpt lat="46.32428204705925" lon="6.669938085350677"><ele>790.3333333333333</ele><time>2026-04-06T14:38:26.999Z</time></trkpt><trkpt lat="46.324131792448654" lon="6.669998079262359"><ele>789.0</ele><time>2026-04-06T14:38:27.999Z</time></trkpt><trkpt lat="46.32397035960827" lon="6.670050836290958"><ele>788.0</ele><time>2026-04-06T14:38:28.999Z</time></trkpt><trkpt lat="46.32381815941685" lon="6.670095891519806"><ele>787.0</ele><time>2026-04-06T14:38:29.999Z</time></trkpt><trkpt lat="46.32367976373823" lon="6.6701432465596815"><ele>786.0</ele><time>2026-04-06T14:38:30.999Z</time></trkpt><trkpt lat="46.32354229059478" lon="6.670217163520547"><ele>785.0</ele><time>2026-04-06T14:38:31.999Z</time></trkpt><trkpt lat="46.32339723891141" lon="6.670349028948933"><ele>785.0</ele><time>2026-04-06T14:38:32.999Z</time></trkpt><trkpt lat="46.32324498925882" lon="6.670528390065602"><ele>785.0</ele><time>2026-04-06T14:38:33.999Z</time></trkpt><trkpt lat="46.32307267170864" lon="6.67073268278645"><ele>785.0</ele><time>2026-04-06T14:38:34.999Z</time></trkpt><trkpt lat="46.322883231638386" lon="6.670932947310606"><ele>789.5</ele><time>2026-04-06T14:38:35.999Z</time></trkpt><trkpt lat="46.322678699209135" lon="6.671144082708344"><ele>794.0</ele><time>2026-04-06T14:38:36.999Z</time></trkpt><trkpt lat="46.32247308191751" lon="6.671361061610687"><ele>794.0</ele><time>2026-04-06T14:38:37.999Z</time></trkpt><trkpt lat="46.3222846722428" lon="6.671556394264153"><ele>794.0</ele><time>2026-04-06T14:38:38.999Z</time></trkpt><trkpt lat="46.322119353268" lon="6.671712575827036"><ele>794.0</ele><time>2026-04-06T14:38:39.999Z</time></trkpt><trkpt lat="46.3219744981364" lon="6.671860416254684"><ele>794.0</ele><time>2026-04-06T14:38:40.999Z</time></trkpt><trkpt lat="46.321840867160404" lon="6.671992832856337"><ele>794.0</ele><time>2026-04-06T14:38:41.999Z</time></trkpt><trkpt lat="46.3217176891501" lon="6.6721138927828685"><ele>794.0</ele><time>2026-04-06T14:38:42.999Z</time></trkpt><trkpt lat="46.321592712384025" lon="6.67220629242461"><ele>794.0</ele><time>2026-04-06T14:38:43.999Z</time></trkpt><trkpt lat="46.321454186957084" lon="6.67229476504549"><ele>794.0</ele><time>2026-04-06T14:38:44.999Z</time></trkpt><trkpt lat="46.3213087059947" lon="6.67237553403674"><ele>794.0</ele><time>2026-04-06T14:38:45.999Z</time></trkpt><trkpt lat="46.32116111461114" lon="6.672448247931487"><ele>792.0</ele><time>2026-04-06T14:38:46.999Z</time></trkpt><trkpt lat="46.321024112131944" lon="6.672526600783981"><ele>790.0</ele><time>2026-04-06T14:38:47.999Z</time></trkpt><trkpt lat="46.32089287371684" lon="6.672630703132537"><ele>788.0</ele><time>2026-04-06T14:38:48.999Z</time></trkpt><trkpt lat="46.32076344020762" lon="6.6727703571803545"><ele>788.6666666666667</ele><time>2026-04-06T14:38:49.999Z</time></trkpt><trkpt lat="46.32063872815139" lon="6.67294070594399"><ele>789.3333333333333</ele><time>2026-04-06T14:38:50.999Z</time></trkpt><trkpt lat="46.32051787186741" lon="6.673136381791799"><ele>790.0</ele><time>2026-04-06T14:38:51.999Z</time></trkpt><trkpt lat="46.32040200262539" lon="6.673314605195017"><ele>790.0</ele><time>2026-04-06T14:38:52.999Z</time></trkpt><trkpt lat="46.32028451831942" lon="6.673479359811304"><ele>790.0</ele><time>2026-04-06T14:38:53.999Z</time></trkpt><trkpt lat="46.32016730836209" lon="6.673651671768644"><ele>790.0</ele><time>2026-04-06T14:38:54.999Z</time></trkpt><trkpt lat="46.32005238197324" lon="6.67381840343394"><ele>790.6666666666666</ele><time>2026-04-06T14:38:55.999Z</time></trkpt><trkpt lat="46.319944721503454" lon="6.6739740932524265"><ele>791.3333333333333</ele><time>2026-04-06T14:38:56.999Z</time></trkpt><trkpt lat="46.31983218200646" lon="6.674115266905748"><ele>792.0</ele><time>2026-04-06T14:38:57.999Z</time></trkpt><trkpt lat="46.31970290564254" lon="6.674234115218802"><ele>792.0</ele><time>2026-04-06T14:38:58.999Z</time></trkpt><trkpt lat="46.31954951671114" lon="6.6743209230227105"><ele>792.0</ele><time>2026-04-06T14:38:59.999Z</time></trkpt><trkpt lat="46.31938214198157" lon="6.6743674345499775"><ele>792.0</ele><time>2026-04-06T14:39:00.999Z</time></trkpt><trkpt lat="46.31920825407768" lon="6.674371517837218"><ele>792.0</ele><time>2026-04-06T14:39:01.999Z</time></trkpt><trkpt lat="46.31904665204797" lon="6.674340777915337"><ele>792.0</ele><time>2026-04-06T14:39:02.999Z</time></trkpt><trkpt lat="46.318889732693975" lon="6.674287340883414"><ele>792.0</ele><time>2026-04-06T14:39:03.999Z</time></trkpt><trkpt lat="46.31872744180074" lon="6.674233139350147"><ele>793.0</ele><time>2026-04-06T14:39:04.999Z</time></trkpt><trkpt lat="46.318560213082655" lon="6.674181182248346"><ele>794.0</ele><time>2026-04-06T14:39:05.999Z</time></trkpt><trkpt lat="46.31840105771248" lon="6.6741354950568725"><ele>795.0</ele><time>2026-04-06T14:39:06.999Z</time></trkpt><trkpt lat="46.31825822707849" lon="6.674094858040645"><ele>795.0</ele><time>2026-04-06T14:39:07.999Z</time></trkpt><trkpt lat="46.31811630371789" lon="6.674058425815586"><ele>795.0</ele><time>2026-04-06T14:39:08.999Z</time></trkpt><trkpt lat="46.31796800810611" lon="6.674039181529505"><ele>795.0</ele><time>2026-04-06T14:39:09.999Z</time></trkpt><trkpt lat="46.31781911964169" lon="6.674057162726155"><ele>795.0</ele><time>2026-04-06T14:39:10.999Z</time></trkpt><trkpt lat="46.31766911106369" lon="6.674108131025594"><ele>794.3333333333333</ele><time>2026-04-06T14:39:11.999Z</time></trkpt><trkpt lat="46.31753414131901" lon="6.674189827350079"><ele>793.6666666666666</ele><time>2026-04-06T14:39:12.999Z</time></trkpt><trkpt lat="46.31740169320624" lon="6.67430971047278"><ele>793.0</ele><time>2026-04-06T14:39:13.999Z</time></trkpt><trkpt lat="46.31727317928393" lon="6.674455291782237"><ele>794.3333333333333</ele><time>2026-04-06T14:39:14.999Z</time></trkpt><trkpt lat="46.31715717544839" lon="6.674600082955944"><ele>795.6666666666667</ele><time>2026-04-06T14:39:15.999Z</time></trkpt><trkpt lat="46.31703662432078" lon="6.674734475566312"><ele>797.0</ele><time>2026-04-06T14:39:16.999Z</time></trkpt><trkpt lat="46.31691646894239" lon="6.674859186804057"><ele>797.0</ele><time>2026-04-06T14:39:17.999Z</time></trkpt><trkpt lat="46.31680124985357" lon="6.674982951925124"><ele>797.0</ele><time>2026-04-06T14:39:18.999Z</time></trkpt><trkpt lat="46.31669132995996" lon="6.675096459037883"><ele>797.0</ele><time>2026-04-06T14:39:19.999Z</time></trkpt><trkpt lat="46.31656133185068" lon="6.6751817849198565"><ele>797.0</ele><time>2026-04-06T14:39:20.999Z</time></trkpt><trkpt lat="46.316420729231204" lon="6.675230390521682"><ele>797.25</ele><time>2026-04-06T14:39:21.999Z</time></trkpt><trkpt lat="46.31627824168125" lon="6.675222891040277"><ele>797.5</ele><time>2026-04-06T14:39:22.999Z</time></trkpt><trkpt lat="46.31614075458559" lon="6.675203706084689"><ele>797.75</ele><time>2026-04-06T14:39:23.999Z</time></trkpt><trkpt lat="46.31600330850669" lon="6.675163157857412"><ele>798.0</ele><time>2026-04-06T14:39:24.999Z</time></trkpt><trkpt lat="46.315874466607816" lon="6.675112717568799"><ele>798.0</ele><time>2026-04-06T14:39:25.999Z</time></trkpt><trkpt lat="46.315754885770616" lon="6.675027512924821"><ele>798.0</ele><time>2026-04-06T14:39:26.999Z</time></trkpt><trkpt lat="46.31564106553887" lon="6.674939343035621"><ele>798.0</ele><time>2026-04-06T14:39:27.999Z</time></trkpt><trkpt lat="46.31552352995558" lon="6.674844118891192"><ele>798.0</ele><time>2026-04-06T14:39:28.999Z</time></trkpt><trkpt lat="46.315410442703744" lon="6.674762797844643"><ele>798.25</ele><time>2026-04-06T14:39:29.999Z</time></trkpt><trkpt lat="46.315312391023085" lon="6.674666889360248"><ele>798.5</ele><time>2026-04-06T14:39:30.999Z</time></trkpt><trkpt lat="46.31520678119612" lon="6.674611793026179"><ele>798.75</ele><time>2026-04-06T14:39:31.999Z</time></trkpt><trkpt lat="46.31508532889002" lon="6.674570442834207"><ele>799.0</ele><time>2026-04-06T14:39:32.999Z</time></trkpt><trkpt lat="46.31495245988403" lon="6.67455764008139"><ele>799.0</ele><time>2026-04-06T14:39:33.999Z</time></trkpt><trkpt lat="46.31482155533023" lon="6.674569088671387"><ele>799.0</ele><time>2026-04-06T14:39:34.999Z</time></trkpt><trkpt lat="46.31469871692427" lon="6.674606587759111"><ele>799.0</ele><time>2026-04-06T14:39:35.999Z</time></trkpt><trkpt lat="46.31458406871818" lon="6.674679889974215"><ele>799.0</ele><time>2026-04-06T14:39:36.999Z</time></trkpt><trkpt lat="46.314464243806825" lon="6.674752956857757"><ele>799.3333333333333</ele><time>2026-04-06T14:39:37.999Z</time></trkpt><trkpt lat="46.31432382322705" lon="6.674865205681051"><ele>799.6666666666667</ele><time>2026-04-06T14:39:38.999Z</time></trkpt><trkpt lat="46.31415834835893" lon="6.674974963461528"><ele>800.0</ele><time>2026-04-06T14:39:39.999Z</time></trkpt><trkpt lat="46.31397419651236" lon="6.675111960334158"><ele>800.0</ele><time>2026-04-06T14:39:40.999Z</time></trkpt><trkpt lat="46.313774728508776" lon="6.6752599482360715"><ele>800.0</ele><time>2026-04-06T14:39:41.999Z</time></trkpt><trkpt lat="46.31356826229939" lon="6.675414310033006"><ele>802.0</ele><time>2026-04-06T14:39:42.999Z</time></trkpt><trkpt lat="46.31339113612483" lon="6.675523714559961"><ele>804.0</ele><time>2026-04-06T14:39:43.999Z</time></trkpt><trkpt lat="46.31323475791515" lon="6.675610270768209"><ele>806.0</ele><time>2026-04-06T14:39:44.999Z</time></trkpt><trkpt lat="46.31308948512902" lon="6.675697136115939"><ele>805.0</ele><time>2026-04-06T14:39:45.999Z</time></trkpt><trkpt lat="46.31299325922729" lon="6.675835226257536"><ele>804.0</ele><time>2026-04-06T14:39:46.999Z</time></trkpt><trkpt lat="46.31288313624286" lon="6.676141261874855"><ele>803.0</ele><time>2026-04-06T14:39:47.999Z</time></trkpt><trkpt lat="46.31282079927523" lon="6.676376155619089"><ele>802.6666666666667</ele><time>2026-04-06T14:39:49Z</time></trkpt><trkpt lat="46.31276548489136" lon="6.676663746375665"><ele>802.3333333333333</ele><time>2026-04-06T14:39:50Z</time></trkpt><trkpt lat="46.31269553932938" lon="6.676970939012818"><ele>802.0</ele><time>2026-04-06T14:39:51Z</time></trkpt><trkpt lat="46.312613118455154" lon="6.677236140931496"><ele>803.6666666666666</ele><time>2026-04-06T14:39:52Z</time></trkpt><trkpt lat="46.31252392336375" lon="6.6774748833324455"><ele>805.3333333333333</ele><time>2026-04-06T14:39:53Z</time></trkpt><trkpt lat="46.31241898831146" lon="6.677694267338542"><ele>807.0</ele><time>2026-04-06T14:39:54Z</time></trkpt><trkpt lat="46.31229589063175" lon="6.677869376263699"><ele>806.6666666666667</ele><time>2026-04-06T14:39:55Z</time></trkpt><trkpt lat="46.3121465286075" lon="6.678015418633058"><ele>806.3333333333334</ele><time>2026-04-06T14:39:56Z</time></trkpt><trkpt lat="46.31198003301508" lon="6.678134200432071"><ele>806.0</ele><time>2026-04-06T14:39:57Z</time></trkpt><trkpt lat="46.31177477957191" lon="6.6781290982288715"><ele>806.0</ele><time>2026-04-06T14:39:58Z</time></trkpt><trkpt lat="46.311553077898395" lon="6.678130792249794"><ele>806.0</ele><time>2026-04-06T14:39:59Z</time></trkpt><trkpt lat="46.31130273813332" lon="6.678129060734844"><ele>805.5</ele><time>2026-04-06T14:40:00Z</time></trkpt><trkpt lat="46.31103145679481" lon="6.6781235301940205"><ele>805.0</ele><time>2026-04-06T14:40:01Z</time></trkpt><trkpt lat="46.310738192037654" lon="6.678133963131082"><ele>806.0</ele><time>2026-04-06T14:40:02Z</time></trkpt><trkpt lat="46.31045106576007" lon="6.6781245449801006"><ele>807.0</ele><time>2026-04-06T14:40:03Z</time></trkpt><trkpt lat="46.310179388060526" lon="6.678128886383462"><ele>807.0</ele><time>2026-04-06T14:40:04Z</time></trkpt><trkpt lat="46.30994462653186" lon="6.678132366715709"><ele>807.0</ele><time>2026-04-06T14:40:05Z</time></trkpt><trkpt lat="46.30975729735347" lon="6.678081771156024"><ele>807.0</ele><time>2026-04-06T14:40:06Z</time></trkpt><trkpt lat="46.30958263468903" lon="6.678011447184682"><ele>807.6666666666667</ele><time>2026-04-06T14:40:07Z</time></trkpt><trkpt lat="46.30939751707377" lon="6.67788500031767"><ele>808.3333333333334</ele><time>2026-04-06T14:40:08Z</time></trkpt><trkpt lat="46.309197940046424" lon="6.677710571630115"><ele>809.0</ele><time>2026-04-06T14:40:09Z</time></trkpt><trkpt lat="46.30900024303589" lon="6.677540311512867"><ele>810.6666666666667</ele><time>2026-04-06T14:40:10Z</time></trkpt><trkpt lat="46.30881769333701" lon="6.677423644099627"><ele>812.3333333333333</ele><time>2026-04-06T14:40:11Z</time></trkpt><trkpt lat="46.308647277419794" lon="6.677321470366377"><ele>814.0</ele><time>2026-04-06T14:40:12Z</time></trkpt><trkpt lat="46.30845305095307" lon="6.67728050812164"><ele>814.0</ele><time>2026-04-06T14:40:13Z</time></trkpt><trkpt lat="46.308231656291504" lon="6.677270339529857"><ele>814.0</ele><time>2026-04-06T14:40:14Z</time></trkpt><trkpt lat="46.30798852650335" lon="6.677284009208668"><ele>815.0</ele><time>2026-04-06T14:40:15Z</time></trkpt><trkpt lat="46.307732086128084" lon="6.6772872371913"><ele>816.0</ele><time>2026-04-06T14:40:16Z</time></trkpt><trkpt lat="46.30746290741662" lon="6.677288842196131"><ele>817.0</ele><time>2026-04-06T14:40:17Z</time></trkpt><trkpt lat="46.3071951796911" lon="6.677306340937511"><ele>818.0</ele><time>2026-04-06T14:40:18Z</time></trkpt><trkpt lat="46.30691712609077" lon="6.677383438517136"><ele>818.0</ele><time>2026-04-06T14:40:19Z</time></trkpt><trkpt lat="46.30665750877419" lon="6.67745037784987"><ele>818.0</ele><time>2026-04-06T14:40:20Z</time></trkpt><trkpt lat="46.30642822240985" lon="6.677525680634393"><ele>822.6666666666667</ele><time>2026-04-06T14:40:21Z</time></trkpt><trkpt lat="46.30622659504357" lon="6.677604180322404"><ele>827.3333333333333</ele><time>2026-04-06T14:40:22Z</time></trkpt><trkpt lat="46.306057084461166" lon="6.677692186142125"><ele>832.0</ele><time>2026-04-06T14:40:23Z</time></trkpt><trkpt lat="46.30590042475156" lon="6.677765131323865"><ele>832.0</ele><time>2026-04-06T14:40:23.999Z</time></trkpt><trkpt lat="46.30572167709766" lon="6.677741306345155"><ele>832.0</ele><time>2026-04-06T14:40:24.999Z</time></trkpt><trkpt lat="46.305523894414534" lon="6.677687985853709"><ele>832.0</ele><time>2026-04-06T14:40:25.999Z</time></trkpt><trkpt lat="46.30533152867567" lon="6.677583373556446"><ele>829.6666666666666</ele><time>2026-04-06T14:40:26.999Z</time></trkpt><trkpt lat="46.30511835923548" lon="6.67747773394489"><ele>827.3333333333333</ele><time>2026-04-06T14:40:27.999Z</time></trkpt><trkpt lat="46.30492700300101" lon="6.677333746598577"><ele>825.0</ele><time>2026-04-06T14:40:28.999Z</time></trkpt><trkpt lat="46.30475670499299" lon="6.677196968531143"><ele>825.0</ele><time>2026-04-06T14:40:29.999Z</time></trkpt><trkpt lat="46.30460161507972" lon="6.6770327982933635"><ele>825.0</ele><time>2026-04-06T14:40:30.999Z</time></trkpt><trkpt lat="46.304454947427395" lon="6.676834411019179"><ele>825.0</ele><time>2026-04-06T14:40:31.999Z</time></trkpt><trkpt lat="46.30432797659494" lon="6.676560760684977"><ele>825.0</ele><time>2026-04-06T14:40:32.999Z</time></trkpt><trkpt lat="46.304180992272094" lon="6.676296065463223"><ele>825.0</ele><time>2026-04-06T14:40:33.999Z</time></trkpt><trkpt lat="46.30405960061553" lon="6.676034543494991"><ele>825.6666666666667</ele><time>2026-04-06T14:40:34.999Z</time></trkpt><trkpt lat="46.30395546344" lon="6.675794371843579"><ele>826.3333333333334</ele><time>2026-04-06T14:40:35.999Z</time></trkpt><trkpt lat="46.30383015564613" lon="6.675586739919517"><ele>827.0</ele><time>2026-04-06T14:40:36.999Z</time></trkpt><trkpt lat="46.303674052471784" lon="6.6754336793355264"><ele>827.0</ele><time>2026-04-06T14:40:37.999Z</time></trkpt><trkpt lat="46.30350888088801" lon="6.675290945024977"><ele>827.0</ele><time>2026-04-06T14:40:38.999Z</time></trkpt><trkpt lat="46.303315914391376" lon="6.6751803258754805"><ele>827.0</ele><time>2026-04-06T14:40:39.999Z</time></trkpt><trkpt lat="46.30312004065776" lon="6.675088816085548"><ele>828.3333333333334</ele><time>2026-04-06T14:40:40.999Z</time></trkpt><trkpt lat="46.30294291761261" lon="6.675024348894796"><ele>829.6666666666667</ele><time>2026-04-06T14:40:41.999Z</time></trkpt><trkpt lat="46.30277472261989" lon="6.674986391617219"><ele>831.0</ele><time>2026-04-06T14:40:42.999Z</time></trkpt><trkpt lat="46.30261519406877" lon="6.675013540850271"><ele>831.0</ele><time>2026-04-06T14:40:43.999Z</time></trkpt><trkpt lat="46.30246640621759" lon="6.675082152679119"><ele>831.0</ele><time>2026-04-06T14:40:44.999Z</time></trkpt><trkpt lat="46.302325863288566" lon="6.675143710259765"><ele>831.0</ele><time>2026-04-06T14:40:45.999Z</time></trkpt><trkpt lat="46.30218949657136" lon="6.6751767578322605"><ele>831.0</ele><time>2026-04-06T14:40:46.999Z</time></trkpt><trkpt lat="46.30206236121031" lon="6.675139245255341"><ele>831.0</ele><time>2026-04-06T14:40:47.999Z</time></trkpt><trkpt lat="46.30194067359409" lon="6.67502643232834"><ele>831.0</ele><time>2026-04-06T14:40:48.999Z</time></trkpt><trkpt lat="46.30181906793673" lon="6.674870072406436"><ele>831.0</ele><time>2026-04-06T14:40:49.999Z</time></trkpt><trkpt lat="46.30172060636509" lon="6.6746762589608695"><ele>831.0</ele><time>2026-04-06T14:40:50.999Z</time></trkpt><trkpt lat="46.301662040898826" lon="6.674454028595293"><ele>831.0</ele><time>2026-04-06T14:40:51.999Z</time></trkpt><trkpt lat="46.301588972415715" lon="6.67425366272755"><ele>831.0</ele><time>2026-04-06T14:40:52.999Z</time></trkpt><trkpt lat="46.30151408858696" lon="6.674076973004363"><ele>831.75</ele><time>2026-04-06T14:40:53.999Z</time></trkpt><trkpt lat="46.30140656303091" lon="6.673929088092111"><ele>832.5</ele><time>2026-04-06T14:40:54.999Z</time></trkpt><trkpt lat="46.30128950332057" lon="6.673783023297855"><ele>833.25</ele><time>2026-04-06T14:40:55.999Z</time></trkpt><trkpt lat="46.30118166647358" lon="6.673645184351974"><ele>834.0</ele><time>2026-04-06T14:40:56.999Z</time></trkpt><trkpt lat="46.301087050765865" lon="6.673524230329538"><ele>834.0</ele><time>2026-04-06T14:40:57.999Z</time></trkpt><trkpt lat="46.30083419359456" lon="6.673683168082108"><ele>834.0</ele><time>2026-04-06T14:40:58.999Z</time></trkpt><trkpt lat="46.30065180344662" lon="6.6737346576903835"><ele>834.3333333333333</ele><time>2026-04-06T14:40:59.999Z</time></trkpt><trkpt lat="46.300454270896985" lon="6.673812175675932"><ele>834.6666666666666</ele><time>2026-04-06T14:41:00.999Z</time></trkpt><trkpt lat="46.30024227128039" lon="6.67391314942844"><ele>835.0</ele><time>2026-04-06T14:41:01.999Z</time></trkpt><trkpt lat="46.30004249142216" lon="6.6740441403183075"><ele>835.0</ele><time>2026-04-06T14:41:02.999Z</time></trkpt><trkpt lat="46.29987196092714" lon="6.674175795292388"><ele>835.0</ele><time>2026-04-06T14:41:03.999Z</time></trkpt><trkpt lat="46.299708155140245" lon="6.674260095976991"><ele>835.0</ele><time>2026-04-06T14:41:04.999Z</time></trkpt><trkpt lat="46.299513628812775" lon="6.674277268163547"><ele>838.5</ele><time>2026-04-06T14:41:05.999Z</time></trkpt><trkpt lat="46.29928852329936" lon="6.674260217930704"><ele>842.0</ele><time>2026-04-06T14:41:06.999Z</time></trkpt><trkpt lat="46.29904929206968" lon="6.674235541312066"><ele>843.0</ele><time>2026-04-06T14:41:07.999Z</time></trkpt><trkpt lat="46.298799476051336" lon="6.67421541529645"><ele>844.0</ele><time>2026-04-06T14:41:08.999Z</time></trkpt><trkpt lat="46.29855493105618" lon="6.674206381822183"><ele>844.0</ele><time>2026-04-06T14:41:09.999Z</time></trkpt><trkpt lat="46.29834300919002" lon="6.67419197211687"><ele>844.0</ele><time>2026-04-06T14:41:10.999Z</time></trkpt><trkpt lat="46.298150184058805" lon="6.674175344715143"><ele>844.0</ele><time>2026-04-06T14:41:11.999Z</time></trkpt><trkpt lat="46.297994061897796" lon="6.674169165530708"><ele>845.0</ele><time>2026-04-06T14:41:12.999Z</time></trkpt><trkpt lat="46.29784149466385" lon="6.6741975076143065"><ele>846.0</ele><time>2026-04-06T14:41:13.999Z</time></trkpt><trkpt lat="46.29769498609424" lon="6.674275573854957"><ele>847.0</ele><time>2026-04-06T14:41:14.999Z</time></trkpt><trkpt lat="46.29756184720197" lon="6.674405901040496"><ele>849.3333333333333</ele><time>2026-04-06T14:41:15.999Z</time></trkpt><trkpt lat="46.297443864015555" lon="6.6745792697472"><ele>851.6666666666667</ele><time>2026-04-06T14:41:16.999Z</time></trkpt><trkpt lat="46.29734152217281" lon="6.674809495170745"><ele>854.0</ele><time>2026-04-06T14:41:17.999Z</time></trkpt><trkpt lat="46.29726199577628" lon="6.675084296540749"><ele>854.0</ele><time>2026-04-06T14:41:18.999Z</time></trkpt><trkpt lat="46.29718293224691" lon="6.675397497013651"><ele>854.0</ele><time>2026-04-06T14:41:19.999Z</time></trkpt><trkpt lat="46.29709508225641" lon="6.6757115723239755"><ele>854.0</ele><time>2026-04-06T14:41:20.999Z</time></trkpt><trkpt lat="46.29697716744792" lon="6.676031259755592"><ele>854.0</ele><time>2026-04-06T14:41:21.999Z</time></trkpt><trkpt lat="46.29685040670629" lon="6.67636469922898"><ele>854.0</ele><time>2026-04-06T14:41:22.999Z</time></trkpt><trkpt lat="46.29674900590862" lon="6.676718523564958"><ele>854.0</ele><time>2026-04-06T14:41:23.999Z</time></trkpt><trkpt lat="46.29667784696416" lon="6.677064910183672"><ele>858.0</ele><time>2026-04-06T14:41:24.999Z</time></trkpt><trkpt lat="46.29659370562706" lon="6.6773801857093265"><ele>862.0</ele><time>2026-04-06T14:41:25.999Z</time></trkpt><trkpt lat="46.2964593622167" lon="6.677703928477297"><ele>857.5</ele><time>2026-04-06T14:41:26.999Z</time></trkpt><trkpt lat="46.29628293061617" lon="6.678018997175065"><ele>853.0</ele><time>2026-04-06T14:41:27.999Z</time></trkpt><trkpt lat="46.29610444122622" lon="6.6783183655910445"><ele>858.0</ele><time>2026-04-06T14:41:28.999Z</time></trkpt><trkpt lat="46.29594775348951" lon="6.6786080709683855"><ele>863.0</ele><time>2026-04-06T14:41:29.999Z</time></trkpt><trkpt lat="46.29581425588302" lon="6.678938425354186"><ele>863.0</ele><time>2026-04-06T14:41:30.999Z</time></trkpt><trkpt lat="46.29568636446762" lon="6.679315911019355"><ele>863.0</ele><time>2026-04-06T14:41:31.999Z</time></trkpt><trkpt lat="46.29555281002751" lon="6.679708127352459"><ele>865.5</ele><time>2026-04-06T14:41:32.999Z</time></trkpt><trkpt lat="46.295392566316345" lon="6.680098498206348"><ele>868.0</ele><time>2026-04-06T14:41:33.999Z</time></trkpt><trkpt lat="46.29519705029321" lon="6.680490788186968"><ele>868.0</ele><time>2026-04-06T14:41:34.999Z</time></trkpt><trkpt lat="46.294996200788844" lon="6.680913019276983"><ele>868.0</ele><time>2026-04-06T14:41:35.999Z</time></trkpt><trkpt lat="46.29479547727207" lon="6.681327310553862"><ele>871.5</ele><time>2026-04-06T14:41:36.999Z</time></trkpt><trkpt lat="46.29460793759134" lon="6.68169254486163"><ele>875.0</ele><time>2026-04-06T14:41:37.999Z</time></trkpt><trkpt lat="46.29442563936337" lon="6.682022743697497"><ele>875.0</ele><time>2026-04-06T14:41:38.999Z</time></trkpt><trkpt lat="46.29423951421964" lon="6.682323318269233"><ele>875.0</ele><time>2026-04-06T14:41:39.999Z</time></trkpt><trkpt lat="46.294026780277584" lon="6.682602965906345"><ele>873.0</ele><time>2026-04-06T14:41:40.999Z</time></trkpt><trkpt lat="46.29377909813265" lon="6.682862803333199"><ele>871.0</ele><time>2026-04-06T14:41:42Z</time></trkpt><trkpt lat="46.29350161722568" lon="6.6831257289876005"><ele>871.0</ele><time>2026-04-06T14:41:43Z</time></trkpt><trkpt lat="46.29321424108263" lon="6.683408121796318"><ele>871.0</ele><time>2026-04-06T14:41:44Z</time></trkpt><trkpt lat="46.29292032430254" lon="6.683707387044397"><ele>869.5</ele><time>2026-04-06T14:41:45Z</time></trkpt><trkpt lat="46.29262911049065" lon="6.684006691033981"><ele>868.0</ele><time>2026-04-06T14:41:46Z</time></trkpt><trkpt lat="46.29232529500208" lon="6.684316164290385"><ele>870.0</ele><time>2026-04-06T14:41:47Z</time></trkpt><trkpt lat="46.29200863625066" lon="6.684625939661083"><ele>872.0</ele><time>2026-04-06T14:41:48Z</time></trkpt><trkpt lat="46.291698116636816" lon="6.684930224751593"><ele>874.5</ele><time>2026-04-06T14:41:49Z</time></trkpt><trkpt lat="46.29142074865934" lon="6.685209833478784"><ele>877.0</ele><time>2026-04-06T14:41:50Z</time></trkpt><trkpt lat="46.2911652321857" lon="6.685469624362718"><ele>877.0</ele><time>2026-04-06T14:41:51Z</time></trkpt><trkpt lat="46.29093103425696" lon="6.6857057728537175"><ele>877.0</ele><time>2026-04-06T14:41:52Z</time></trkpt><trkpt lat="46.29070926191664" lon="6.68592756091839"><ele>879.0</ele><time>2026-04-06T14:41:53Z</time></trkpt><trkpt lat="46.29047279193784" lon="6.686176646699587"><ele>881.0</ele><time>2026-04-06T14:41:54Z</time></trkpt><trkpt lat="46.290238116246684" lon="6.686461323086371"><ele>881.0</ele><time>2026-04-06T14:41:55Z</time></trkpt><trkpt lat="46.29000677264234" lon="6.6867830022222945"><ele>881.0</ele><time>2026-04-06T14:41:56Z</time></trkpt><trkpt lat="46.289781221415716" lon="6.687123642934849"><ele>880.0</ele><time>2026-04-06T14:41:57Z</time></trkpt><trkpt lat="46.28954671474664" lon="6.687483564740425"><ele>879.0</ele><time>2026-04-06T14:41:58Z</time></trkpt><trkpt lat="46.289300746030925" lon="6.687852860671546"><ele>881.5</ele><time>2026-04-06T14:41:59Z</time></trkpt><trkpt lat="46.289042433967445" lon="6.688230503840004"><ele>884.0</ele><time>2026-04-06T14:42:00Z</time></trkpt><trkpt lat="46.28877932854017" lon="6.688611192051892"><ele>884.0</ele><time>2026-04-06T14:42:01Z</time></trkpt><trkpt lat="46.2885356537149" lon="6.688965973838789"><ele>884.0</ele><time>2026-04-06T14:42:02Z</time></trkpt><trkpt lat="46.2883229753928" lon="6.689283275460425"><ele>885.0</ele><time>2026-04-06T14:42:03Z</time></trkpt><trkpt lat="46.28812427129757" lon="6.689575086343147"><ele>886.0</ele><time>2026-04-06T14:42:04Z</time></trkpt><trkpt lat="46.28793557629903" lon="6.68985012049488"><ele>886.0</ele><time>2026-04-06T14:42:05Z</time></trkpt><trkpt lat="46.28775823206858" lon="6.690102766902269"><ele>886.0</ele><time>2026-04-06T14:42:06Z</time></trkpt><trkpt lat="46.28761630577885" lon="6.690318728449598"><ele>887.3333333333333</ele><time>2026-04-06T14:42:07Z</time></trkpt><trkpt lat="46.28750523614426" lon="6.690534276372424"><ele>888.6666666666667</ele><time>2026-04-06T14:42:08Z</time></trkpt><trkpt lat="46.28742467599632" lon="6.690768831634775"><ele>890.0</ele><time>2026-04-06T14:42:09Z</time></trkpt><trkpt lat="46.28738365951647" lon="6.691018490536402"><ele>890.6666666666667</ele><time>2026-04-06T14:42:10Z</time></trkpt><trkpt lat="46.287370414477024" lon="6.691295182046521"><ele>891.3333333333333</ele><time>2026-04-06T14:42:11Z</time></trkpt><trkpt lat="46.28738200454894" lon="6.691586020926418"><ele>892.0</ele><time>2026-04-06T14:42:12Z</time></trkpt><trkpt lat="46.28740244518831" lon="6.69184286460272"><ele>892.25</ele><time>2026-04-06T14:42:13Z</time></trkpt><trkpt lat="46.28742173276759" lon="6.6920550509045125"><ele>892.5</ele><time>2026-04-06T14:42:14Z</time></trkpt><trkpt lat="46.287449462316516" lon="6.692234757258213"><ele>892.75</ele><time>2026-04-06T14:42:15Z</time></trkpt><trkpt lat="46.28749970692565" lon="6.692400999812532"><ele>893.0</ele><time>2026-04-06T14:42:16Z</time></trkpt><trkpt lat="46.28757689776379" lon="6.6925514368976815"><ele>893.0</ele><time>2026-04-06T14:42:17Z</time></trkpt><trkpt lat="46.28766263027235" lon="6.692675329085227"><ele>893.0</ele><time>2026-04-06T14:42:18Z</time></trkpt><trkpt lat="46.28776190528127" lon="6.6927709794993815"><ele>893.0</ele><time>2026-04-06T14:42:19Z</time></trkpt><trkpt lat="46.287867582641454" lon="6.692858587697871"><ele>893.0</ele><time>2026-04-06T14:42:20Z</time></trkpt><trkpt lat="46.28796652147127" lon="6.692962253182373"><ele>893.0</ele><time>2026-04-06T14:42:21Z</time></trkpt><trkpt lat="46.28804249717932" lon="6.693098556510283"><ele>893.0</ele><time>2026-04-06T14:42:22Z</time></trkpt><trkpt lat="46.2880768735136" lon="6.693271008997644"><ele>893.0</ele><time>2026-04-06T14:42:23Z</time></trkpt><trkpt lat="46.28810087805847" lon="6.693452445554053"><ele>893.0</ele><time>2026-04-06T14:42:24Z</time></trkpt><trkpt lat="46.28811098892704" lon="6.693643207160634"><ele>893.5</ele><time>2026-04-06T14:42:25Z</time></trkpt><trkpt lat="46.28812370501594" lon="6.693827340314761"><ele>894.0</ele><time>2026-04-06T14:42:26Z</time></trkpt><trkpt lat="46.28811012556602" lon="6.694017179562996"><ele>894.5</ele><time>2026-04-06T14:42:27Z</time></trkpt><trkpt lat="46.288072772075736" lon="6.694190674497432"><ele>895.0</ele><time>2026-04-06T14:42:28Z</time></trkpt><trkpt lat="46.28800781414114" lon="6.694365966684836"><ele>897.75</ele><time>2026-04-06T14:42:29Z</time></trkpt><trkpt lat="46.287926327940816" lon="6.694513828471696"><ele>900.5</ele><time>2026-04-06T14:42:30Z</time></trkpt><trkpt lat="46.28785220510492" lon="6.694662988479343"><ele>903.25</ele><time>2026-04-06T14:42:31Z</time></trkpt><trkpt lat="46.28775716146307" lon="6.694800571643865"><ele>906.0</ele><time>2026-04-06T14:42:32Z</time></trkpt><trkpt lat="46.2876586263244" lon="6.694924425279524"><ele>906.0</ele><time>2026-04-06T14:42:33Z</time></trkpt><trkpt lat="46.28758231181963" lon="6.695062684469799"><ele>906.0</ele><time>2026-04-06T14:42:34Z</time></trkpt><trkpt lat="46.28746684259854" lon="6.695146920859184"><ele>906.0</ele><time>2026-04-06T14:42:35Z</time></trkpt><trkpt lat="46.28733896983419" lon="6.695213179688835"><ele>906.0</ele><time>2026-04-06T14:42:36Z</time></trkpt><trkpt lat="46.28719298193655" lon="6.695295697074411"><ele>913.3333333333333</ele><time>2026-04-06T14:42:37Z</time></trkpt><trkpt lat="46.287037650297606" lon="6.695373525748038"><ele>920.6666666666666</ele><time>2026-04-06T14:42:38Z</time></trkpt><trkpt lat="46.2868932162177" lon="6.69544589588413"><ele>928.0</ele><time>2026-04-06T14:42:39Z</time></trkpt><trkpt lat="46.28676190844573" lon="6.695526446029956"><ele>928.0</ele><time>2026-04-06T14:42:40Z</time></trkpt><trkpt lat="46.28663757597144" lon="6.695589803596312"><ele>928.0</ele><time>2026-04-06T14:42:41Z</time></trkpt><trkpt lat="46.286498109916884" lon="6.695661310112851"><ele>928.0</ele><time>2026-04-06T14:42:42Z</time></trkpt><trkpt lat="46.2863563768297" lon="6.69576918053041"><ele>928.0</ele><time>2026-04-06T14:42:43Z</time></trkpt><trkpt lat="46.28621818475577" lon="6.695898633137555"><ele>927.5</ele><time>2026-04-06T14:42:44Z</time></trkpt><trkpt lat="46.28610235411419" lon="6.6960230718336105"><ele>927.0</ele><time>2026-04-06T14:42:45Z</time></trkpt><trkpt lat="46.28599830014643" lon="6.6961330001471175"><ele>926.5</ele><time>2026-04-06T14:42:45.999Z</time></trkpt><trkpt lat="46.285895737896304" lon="6.696233933444502"><ele>926.0</ele><time>2026-04-06T14:42:46.999Z</time></trkpt><trkpt lat="46.2857992338192" lon="6.6963351119788594"><ele>926.0</ele><time>2026-04-06T14:42:47.999Z</time></trkpt><trkpt lat="46.285695285542225" lon="6.696416404446869"><ele>925.9999999999999</ele><time>2026-04-06T14:42:48.999Z</time></trkpt><trkpt lat="46.28559928041959" lon="6.696494560267865"><ele>925.9999999999999</ele><time>2026-04-06T14:42:49.999Z</time></trkpt><trkpt lat="46.285516076457284" lon="6.696600513065178"><ele>926.0</ele><time>2026-04-06T14:42:50.999Z</time></trkpt><trkpt lat="46.28545600295986" lon="6.696731987767522"><ele>926.0</ele><time>2026-04-06T14:42:51.999Z</time></trkpt><trkpt lat="46.28542428226049" lon="6.696890875449121"><ele>921.25</ele><time>2026-04-06T14:42:52.999Z</time></trkpt><trkpt lat="46.285425859423775" lon="6.697048933856128"><ele>916.5</ele><time>2026-04-06T14:42:53.999Z</time></trkpt><trkpt lat="46.28544645387049" lon="6.697232462996865"><ele>911.75</ele><time>2026-04-06T14:42:54.999Z</time></trkpt><trkpt lat="46.28548455493775" lon="6.69742315489508"><ele>907.0</ele><time>2026-04-06T14:42:55.999Z</time></trkpt><trkpt lat="46.28551634135261" lon="6.697597748471963"><ele>907.0</ele><time>2026-04-06T14:42:56.999Z</time></trkpt><trkpt lat="46.28552132574562" lon="6.697724402638777"><ele>907.0</ele><time>2026-04-06T14:42:57.999Z</time></trkpt><trkpt lat="46.2854920845" lon="6.697834774378076"><ele>907.0</ele><time>2026-04-06T14:42:58.999Z</time></trkpt><trkpt lat="46.2854503780464" lon="6.6979626916941255"><ele>907.0</ele><time>2026-04-06T14:42:59.999Z</time></trkpt><trkpt lat="46.28536932969166" lon="6.698093540917401"><ele>907.0</ele><time>2026-04-06T14:43:00.999Z</time></trkpt><trkpt lat="46.28526115046423" lon="6.698240004531096"><ele>908.5</ele><time>2026-04-06T14:43:01.999Z</time></trkpt><trkpt lat="46.28514384053999" lon="6.6983636279724195"><ele>910.0</ele><time>2026-04-06T14:43:02.999Z</time></trkpt><trkpt lat="46.285045090258684" lon="6.698504813090777"><ele>911.5</ele><time>2026-04-06T14:43:03.999Z</time></trkpt><trkpt lat="46.28494775092352" lon="6.698616413821858"><ele>913.0</ele><time>2026-04-06T14:43:04.999Z</time></trkpt><trkpt lat="46.28486974079131" lon="6.698745694300387"><ele>912.3333333333333</ele><time>2026-04-06T14:43:05.999Z</time></trkpt><trkpt lat="46.284788642981425" lon="6.698933068664214"><ele>911.6666666666667</ele><time>2026-04-06T14:43:06.999Z</time></trkpt><trkpt lat="46.28467675301679" lon="6.699146026021786"><ele>911.0</ele><time>2026-04-06T14:43:07.999Z</time></trkpt><trkpt lat="46.28455407335722" lon="6.69939620403926"><ele>912.0</ele><time>2026-04-06T14:43:08.999Z</time></trkpt><trkpt lat="46.28440793742206" lon="6.699661992037828"><ele>913.0</ele><time>2026-04-06T14:43:09.999Z</time></trkpt><trkpt lat="46.284254064682074" lon="6.699941269938452"><ele>913.0</ele><time>2026-04-06T14:43:10.999Z</time></trkpt><trkpt lat="46.28412856856613" lon="6.700184518903426"><ele>913.0</ele><time>2026-04-06T14:43:11.999Z</time></trkpt><trkpt lat="46.28402543283712" lon="6.7003849702670575"><ele>913.0</ele><time>2026-04-06T14:43:12.999Z</time></trkpt><trkpt lat="46.28393686625404" lon="6.700590880482985"><ele>911.0</ele><time>2026-04-06T14:43:13.999Z</time></trkpt><trkpt lat="46.28388217290869" lon="6.700825224576118"><ele>909.0</ele><time>2026-04-06T14:43:14.999Z</time></trkpt><trkpt lat="46.283861346239185" lon="6.701107356639222"><ele>907.0</ele><time>2026-04-06T14:43:15.999Z</time></trkpt><trkpt lat="46.28386786400442" lon="6.701405749710867"><ele>907.0</ele><time>2026-04-06T14:43:16.999Z</time></trkpt><trkpt lat="46.283878918592826" lon="6.701668249864506"><ele>907.0</ele><time>2026-04-06T14:43:17.999Z</time></trkpt><trkpt lat="46.28385598064912" lon="6.701924458867325"><ele>907.0</ele><time>2026-04-06T14:43:18.999Z</time></trkpt><trkpt lat="46.283810218272414" lon="6.70218589153539"><ele>909.0</ele><time>2026-04-06T14:43:19.999Z</time></trkpt><trkpt lat="46.28374530200071" lon="6.702454102371914"><ele>911.0</ele><time>2026-04-06T14:43:20.999Z</time></trkpt><trkpt lat="46.28366380895026" lon="6.702752023394958"><ele>913.0</ele><time>2026-04-06T14:43:21.999Z</time></trkpt><trkpt lat="46.283580720371525" lon="6.703032784681002"><ele>913.6666666666666</ele><time>2026-04-06T14:43:22.999Z</time></trkpt><trkpt lat="46.28350048064632" lon="6.703279170895923"><ele>914.3333333333333</ele><time>2026-04-06T14:43:23.999Z</time></trkpt><trkpt lat="46.28341199564295" lon="6.703498500499373"><ele>915.0</ele><time>2026-04-06T14:43:24.999Z</time></trkpt><trkpt lat="46.283308379244154" lon="6.703670920658129"><ele>915.3333333333333</ele><time>2026-04-06T14:43:25.999Z</time></trkpt><trkpt lat="46.28321033719811" lon="6.70383575328107"><ele>915.6666666666666</ele><time>2026-04-06T14:43:26.999Z</time></trkpt><trkpt lat="46.283104004921405" lon="6.703982380433656"><ele>916.0</ele><time>2026-04-06T14:43:27.999Z</time></trkpt><trkpt lat="46.282997448280334" lon="6.7041400580729285"><ele>916.0</ele><time>2026-04-06T14:43:28.999Z</time></trkpt><trkpt lat="46.2828854190498" lon="6.704293036305099"><ele>916.0</ele><time>2026-04-06T14:43:29.999Z</time></trkpt><trkpt lat="46.28278334797837" lon="6.704457463760863"><ele>916.0</ele><time>2026-04-06T14:43:30.999Z</time></trkpt><trkpt lat="46.28268267050763" lon="6.704608830721037"><ele>916.0</ele><time>2026-04-06T14:43:31.999Z</time></trkpt><trkpt lat="46.282602665403346" lon="6.704776788570336"><ele>916.0</ele><time>2026-04-06T14:43:32.999Z</time></trkpt><trkpt lat="46.2825251484525" lon="6.704970015816585"><ele>916.0</ele><time>2026-04-06T14:43:33.999Z</time></trkpt><trkpt lat="46.28243877554485" lon="6.705171376922426"><ele>918.6666666666666</ele><time>2026-04-06T14:43:34.999Z</time></trkpt><trkpt lat="46.282345776155594" lon="6.705387058852192"><ele>921.3333333333333</ele><time>2026-04-06T14:43:35.999Z</time></trkpt><trkpt lat="46.28225301648386" lon="6.705602690582874"><ele>924.0</ele><time>2026-04-06T14:43:36.999Z</time></trkpt><trkpt lat="46.28215407886648" lon="6.705802647546998"><ele>923.0</ele><time>2026-04-06T14:43:37.999Z</time></trkpt><trkpt lat="46.28204893085131" lon="6.705983553978959"><ele>922.0</ele><time>2026-04-06T14:43:38.999Z</time></trkpt><trkpt lat="46.28193050409688" lon="6.7061102119426055"><ele>921.0</ele><time>2026-04-06T14:43:39.999Z</time></trkpt><trkpt lat="46.281823765077974" lon="6.706257760623548"><ele>921.0</ele><time>2026-04-06T14:43:40.999Z</time></trkpt><trkpt lat="46.28169809901908" lon="6.706398167669156"><ele>921.0</ele><time>2026-04-06T14:43:41.999Z</time></trkpt><trkpt lat="46.28157812226497" lon="6.7065403647711035"><ele>921.0</ele><time>2026-04-06T14:43:42.999Z</time></trkpt><trkpt lat="46.281493815992384" lon="6.706722198867306"><ele>925.0</ele><time>2026-04-06T14:43:43.999Z</time></trkpt><trkpt lat="46.28142226521869" lon="6.706948666505583"><ele>929.0</ele><time>2026-04-06T14:43:44.999Z</time></trkpt><trkpt lat="46.28135583195156" lon="6.7071916108247684"><ele>933.0</ele><time>2026-04-06T14:43:45.999Z</time></trkpt><trkpt lat="46.28129947861791" lon="6.707439787850226"><ele>933.0</ele><time>2026-04-06T14:43:46.999Z</time></trkpt><trkpt lat="46.281233827406936" lon="6.707654404231248"><ele>933.0</ele><time>2026-04-06T14:43:48Z</time></trkpt><trkpt lat="46.28116607395062" lon="6.707874110139226"><ele>933.0</ele><time>2026-04-06T14:43:49Z</time></trkpt><trkpt lat="46.28110281755248" lon="6.7080917536956735"><ele>931.6666666666667</ele><time>2026-04-06T14:43:50Z</time></trkpt><trkpt lat="46.28104255142203" lon="6.7082982570282725"><ele>930.3333333333334</ele><time>2026-04-06T14:43:51Z</time></trkpt><trkpt lat="46.280998737261264" lon="6.708501661729548"><ele>929.0</ele><time>2026-04-06T14:43:52Z</time></trkpt><trkpt lat="46.280957161078405" lon="6.708725483960036"><ele>928.0</ele><time>2026-04-06T14:43:53Z</time></trkpt><trkpt lat="46.280922769138236" lon="6.708967332372982"><ele>927.0</ele><time>2026-04-06T14:43:54Z</time></trkpt><trkpt lat="46.28090157683777" lon="6.709226102062649"><ele>926.0</ele><time>2026-04-06T14:43:55Z</time></trkpt><trkpt lat="46.28088965148574" lon="6.709488620255088"><ele>923.6666666666667</ele><time>2026-04-06T14:43:56Z</time></trkpt><trkpt lat="46.280888288568406" lon="6.709729353252622"><ele>921.3333333333333</ele><time>2026-04-06T14:43:57Z</time></trkpt><trkpt lat="46.28089109294914" lon="6.709949727256973"><ele>919.0</ele><time>2026-04-06T14:43:58Z</time></trkpt><trkpt lat="46.2808970316046" lon="6.710179501347727"><ele>919.25</ele><time>2026-04-06T14:43:59Z</time></trkpt><trkpt lat="46.28090864285499" lon="6.710402421900855"><ele>919.5</ele><time>2026-04-06T14:44:00Z</time></trkpt><trkpt lat="46.280920840644455" lon="6.710601968510793"><ele>919.75</ele><time>2026-04-06T14:44:01Z</time></trkpt><trkpt lat="46.28093195482505" lon="6.7107910237694375"><ele>920.0</ele><time>2026-04-06T14:44:02Z</time></trkpt><trkpt lat="46.280939077362966" lon="6.710956760363379"><ele>920.0</ele><time>2026-04-06T14:44:03Z</time></trkpt><trkpt lat="46.280941746114884" lon="6.711098902057388"><ele>920.0</ele><time>2026-04-06T14:44:04Z</time></trkpt><trkpt lat="46.28094052778937" lon="6.7111993782069"><ele>920.0</ele><time>2026-04-06T14:44:05Z</time></trkpt><trkpt lat="46.28092978630753" lon="6.711330988936792"><ele>920.0</ele><time>2026-04-06T14:44:07Z</time></trkpt><trkpt lat="46.2809456692466" lon="6.711419736347066"><ele>920.0</ele><time>2026-04-06T14:44:10Z</time></trkpt><trkpt lat="46.28099129741567" lon="6.711594528196115"><ele>920.0</ele><time>2026-04-06T14:47:04.999Z</time></trkpt><trkpt lat="46.28100519290267" lon="6.711762468201108"><ele>920.0</ele><time>2026-04-06T14:47:05.999Z</time></trkpt><trkpt lat="46.281011905589324" lon="6.711941494914928"><ele>920.0</ele><time>2026-04-06T14:47:06.999Z</time></trkpt><trkpt lat="46.28102049983919" lon="6.71215504914832"><ele>920.0</ele><time>2026-04-06T14:47:07.999Z</time></trkpt><trkpt lat="46.28103050299402" lon="6.7123966031135565"><ele>919.6666666666667</ele><time>2026-04-06T14:47:08.999Z</time></trkpt><trkpt lat="46.28104072017258" lon="6.712625607311664"><ele>919.3333333333333</ele><time>2026-04-06T14:47:09.999Z</time></trkpt><trkpt lat="46.28103909587632" lon="6.712857614877489"><ele>919.0</ele><time>2026-04-06T14:47:10.999Z</time></trkpt><trkpt lat="46.281023646340174" lon="6.713103923684049"><ele>919.0</ele><time>2026-04-06T14:47:11.999Z</time></trkpt><trkpt lat="46.28100447999185" lon="6.7133239341387645"><ele>919.0</ele><time>2026-04-06T14:47:12.999Z</time></trkpt><trkpt lat="46.28098306560966" lon="6.713521050931508"><ele>919.0</ele><time>2026-04-06T14:47:13.999Z</time></trkpt><trkpt lat="46.28095299754894" lon="6.713713544944849"><ele>919.0</ele><time>2026-04-06T14:47:14.999Z</time></trkpt><trkpt lat="46.28092301199763" lon="6.713882386690163"><ele>919.3333333333333</ele><time>2026-04-06T14:47:15.999Z</time></trkpt><trkpt lat="46.2808927828282" lon="6.714035681469935"><ele>919.6666666666666</ele><time>2026-04-06T14:47:16.999Z</time></trkpt><trkpt lat="46.280857269650966" lon="6.714181492058504"><ele>920.0</ele><time>2026-04-06T14:47:17.999Z</time></trkpt><trkpt lat="46.28082086652711" lon="6.714302745407075"><ele>920.3333333333333</ele><time>2026-04-06T14:47:18.999Z</time></trkpt><trkpt lat="46.280790632621546" lon="6.714386778249799"><ele>920.6666666666666</ele><time>2026-04-06T14:47:19.999Z</time></trkpt><trkpt lat="46.28075128921385" lon="6.714473272098525"><ele>921.0</ele><time>2026-04-06T14:47:21.999Z</time></trkpt><trkpt lat="46.28070551525342" lon="6.71453593113776"><ele>921.3333333333334</ele><time>2026-04-06T14:47:23.999Z</time></trkpt><trkpt lat="46.280648833051885" lon="6.714581934231545"><ele>921.6666666666667</ele><time>2026-04-06T14:47:25.999Z</time></trkpt><trkpt lat="46.280609559326955" lon="6.714731443622464"><ele>922.0</ele><time>2026-04-06T14:47:38.999Z</time></trkpt><trkpt lat="46.280629789978086" lon="6.714833121130266"><ele>922.3333333333334</ele><time>2026-04-06T14:47:39.999Z</time></trkpt><trkpt lat="46.28067693040727" lon="6.714905634548159"><ele>922.6666666666667</ele><time>2026-04-06T14:47:40.999Z</time></trkpt><trkpt lat="46.280755363293665" lon="6.714966485918136"><ele>923.0</ele><time>2026-04-06T14:47:41.999Z</time></trkpt><trkpt lat="46.28083528164719" lon="6.7150554201796835"><ele>923.0</ele><time>2026-04-06T14:47:42.999Z</time></trkpt><trkpt lat="46.280890588938185" lon="6.715206007098396"><ele>923.0</ele><time>2026-04-06T14:47:43.999Z</time></trkpt><trkpt lat="46.28093115855301" lon="6.7153612265795655"><ele>923.0</ele><time>2026-04-06T14:47:44.999Z</time></trkpt><trkpt lat="46.28096569392065" lon="6.7155373445573"><ele>923.0</ele><time>2026-04-06T14:47:45.999Z</time></trkpt><trkpt lat="46.28099387354781" lon="6.715728504618958"><ele>923.6666666666667</ele><time>2026-04-06T14:47:46.999Z</time></trkpt><trkpt lat="46.281011785582386" lon="6.715930249517103"><ele>924.3333333333333</ele><time>2026-04-06T14:47:47.999Z</time></trkpt><trkpt lat="46.28098981179924" lon="6.716144817790793"><ele>925.0</ele><time>2026-04-06T14:47:48.999Z</time></trkpt><trkpt lat="46.28095346439199" lon="6.716369599801194"><ele>927.3333333333333</ele><time>2026-04-06T14:47:49.999Z</time></trkpt><trkpt lat="46.28092130780377" lon="6.716615081421745"><ele>929.6666666666667</ele><time>2026-04-06T14:47:50.999Z</time></trkpt><trkpt lat="46.280878399239796" lon="6.716847065938088"><ele>932.0</ele><time>2026-04-06T14:47:51.999Z</time></trkpt><trkpt lat="46.280857773170474" lon="6.717079552207622"><ele>932.0</ele><time>2026-04-06T14:47:52.999Z</time></trkpt><trkpt lat="46.28085843905285" lon="6.717331279970735"><ele>932.0</ele><time>2026-04-06T14:47:53.999Z</time></trkpt><trkpt lat="46.28087367179435" lon="6.717585799197144"><ele>932.0</ele><time>2026-04-06T14:47:54.999Z</time></trkpt><trkpt lat="46.2808913233104" lon="6.71783500583335"><ele>930.5</ele><time>2026-04-06T14:47:55.999Z</time></trkpt><trkpt lat="46.280909857187986" lon="6.718066249952405"><ele>929.0</ele><time>2026-04-06T14:47:56.999Z</time></trkpt><trkpt lat="46.2809281483583" lon="6.7182804787461725"><ele>927.5</ele><time>2026-04-06T14:47:57.999Z</time></trkpt><trkpt lat="46.28091598250939" lon="6.718479974599444"><ele>926.0</ele><time>2026-04-06T14:47:58.999Z</time></trkpt><trkpt lat="46.28087962715902" lon="6.718672245858028"><ele>926.0</ele><time>2026-04-06T14:47:59.999Z</time></trkpt><trkpt lat="46.28085294005108" lon="6.718860311024302"><ele>926.0</ele><time>2026-04-06T14:48:00.999Z</time></trkpt><trkpt lat="46.280830048737265" lon="6.719038965235118"><ele>926.0</ele><time>2026-04-06T14:48:01.999Z</time></trkpt><trkpt lat="46.280786202676154" lon="6.719200836842712"><ele>926.0</ele><time>2026-04-06T14:48:02.999Z</time></trkpt><trkpt lat="46.28073690177946" lon="6.719349923075363"><ele>927.5999999999999</ele><time>2026-04-06T14:48:03.999Z</time></trkpt><trkpt lat="46.28068842682672" lon="6.71949521432078"><ele>929.1999999999999</ele><time>2026-04-06T14:48:04.999Z</time></trkpt><trkpt lat="46.28064971294172" lon="6.71964169247564"><ele>930.8000000000001</ele><time>2026-04-06T14:48:05.999Z</time></trkpt><trkpt lat="46.280630049394304" lon="6.719787934280826"><ele>932.4000000000001</ele><time>2026-04-06T14:48:06.999Z</time></trkpt><trkpt lat="46.2806302641355" lon="6.719939617848871"><ele>934.0</ele><time>2026-04-06T14:48:07.999Z</time></trkpt><trkpt lat="46.28063550520652" lon="6.72010623454138"><ele>933.0</ele><time>2026-04-06T14:48:08.999Z</time></trkpt><trkpt lat="46.28063400027053" lon="6.720296076192634"><ele>932.0</ele><time>2026-04-06T14:48:09.999Z</time></trkpt><trkpt lat="46.28062271442476" lon="6.720496860263117"><ele>931.0</ele><time>2026-04-06T14:48:10.999Z</time></trkpt><trkpt lat="46.28062841892838" lon="6.720689074832151"><ele>930.0</ele><time>2026-04-06T14:48:11.999Z</time></trkpt><trkpt lat="46.28065560883298" lon="6.720853719589115"><ele>930.0</ele><time>2026-04-06T14:48:12.999Z</time></trkpt><trkpt lat="46.28070161461626" lon="6.721019881314208"><ele>930.0</ele><time>2026-04-06T14:48:13.999Z</time></trkpt><trkpt lat="46.28077907869016" lon="6.721209443146912"><ele>930.0</ele><time>2026-04-06T14:48:14.999Z</time></trkpt><trkpt lat="46.28087759668473" lon="6.721383461816027"><ele>930.0</ele><time>2026-04-06T14:48:15.999Z</time></trkpt><trkpt lat="46.2809905385537" lon="6.721549946356744"><ele>929.0</ele><time>2026-04-06T14:48:16.999Z</time></trkpt><trkpt lat="46.281116546285475" lon="6.721723482870537"><ele>928.0</ele><time>2026-04-06T14:48:17.999Z</time></trkpt><trkpt lat="46.28124850660161" lon="6.721897725556915"><ele>927.0</ele><time>2026-04-06T14:48:18.999Z</time></trkpt><trkpt lat="46.28137186791767" lon="6.722072775607482"><ele>931.6666666666667</ele><time>2026-04-06T14:48:19.999Z</time></trkpt><trkpt lat="46.281484473122056" lon="6.722260705962387"><ele>936.3333333333334</ele><time>2026-04-06T14:48:20.999Z</time></trkpt><trkpt lat="46.28156901900466" lon="6.722458123637553"><ele>941.0</ele><time>2026-04-06T14:48:21.999Z</time></trkpt><trkpt lat="46.281654900340826" lon="6.722651609118918"><ele>938.3333333333334</ele><time>2026-04-06T14:48:22.999Z</time></trkpt><trkpt lat="46.281733331657755" lon="6.722839089869774"><ele>935.6666666666667</ele><time>2026-04-06T14:48:23.999Z</time></trkpt><trkpt lat="46.281787035123315" lon="6.72304589882843"><ele>933.0</ele><time>2026-04-06T14:48:24.999Z</time></trkpt><trkpt lat="46.28183692802866" lon="6.7232574290179254"><ele>933.0</ele><time>2026-04-06T14:48:25.999Z</time></trkpt><trkpt lat="46.28188620114573" lon="6.7234690792407"><ele>933.0</ele><time>2026-04-06T14:48:26.999Z</time></trkpt><trkpt lat="46.281929881937515" lon="6.723672890130591"><ele>933.0</ele><time>2026-04-06T14:48:27.999Z</time></trkpt><trkpt lat="46.281968888895605" lon="6.723851088049926"><ele>933.0</ele><time>2026-04-06T14:48:28.999Z</time></trkpt><trkpt lat="46.28200146908118" lon="6.724032216818662"><ele>931.75</ele><time>2026-04-06T14:48:29.999Z</time></trkpt><trkpt lat="46.28203260230019" lon="6.7242280993883625"><ele>930.5</ele><time>2026-04-06T14:48:30.999Z</time></trkpt><trkpt lat="46.28206064376891" lon="6.724429593484387"><ele>929.25</ele><time>2026-04-06T14:48:31.999Z</time></trkpt><trkpt lat="46.282076133015494" lon="6.724629074634054"><ele>928.0</ele><time>2026-04-06T14:48:32.999Z</time></trkpt><trkpt lat="46.282077374993605" lon="6.724843362607359"><ele>927.3333333333333</ele><time>2026-04-06T14:48:33.999Z</time></trkpt><trkpt lat="46.28206175458721" lon="6.725064006011217"><ele>926.6666666666667</ele><time>2026-04-06T14:48:34.999Z</time></trkpt><trkpt lat="46.2820246851216" lon="6.725300802955566"><ele>926.0</ele><time>2026-04-06T14:48:35.999Z</time></trkpt><trkpt lat="46.28198970550234" lon="6.725572891924868"><ele>926.0</ele><time>2026-04-06T14:48:36.999Z</time></trkpt><trkpt lat="46.28195448462101" lon="6.725858508669131"><ele>926.0</ele><time>2026-04-06T14:48:37.999Z</time></trkpt><trkpt lat="46.281904774301054" lon="6.7261226409775485"><ele>926.0</ele><time>2026-04-06T14:48:38.999Z</time></trkpt><trkpt lat="46.281879968863905" lon="6.726413217832843"><ele>926.6666666666667</ele><time>2026-04-06T14:48:39.999Z</time></trkpt><trkpt lat="46.281884225628396" lon="6.726721137169834"><ele>927.3333333333333</ele><time>2026-04-06T14:48:40.999Z</time></trkpt><trkpt lat="46.28192058741006" lon="6.726982928969842"><ele>928.0</ele><time>2026-04-06T14:48:41.999Z</time></trkpt><trkpt lat="46.2819510743921" lon="6.727209501149911"><ele>928.0</ele><time>2026-04-06T14:48:42.999Z</time></trkpt><trkpt lat="46.281985221390116" lon="6.727407730699587"><ele>928.0</ele><time>2026-04-06T14:48:43.999Z</time></trkpt><trkpt lat="46.28201279564414" lon="6.727595764262354"><ele>928.0</ele><time>2026-04-06T14:48:44.999Z</time></trkpt><trkpt lat="46.28200861351619" lon="6.727777546235965"><ele>928.0</ele><time>2026-04-06T14:48:45.999Z</time></trkpt><trkpt lat="46.28201874247151" lon="6.727951586116182"><ele>928.75</ele><time>2026-04-06T14:48:46.999Z</time></trkpt><trkpt lat="46.28197638199286" lon="6.72812004512799"><ele>929.5</ele><time>2026-04-06T14:48:47.999Z</time></trkpt><trkpt lat="46.281937359169895" lon="6.728294343916266"><ele>930.25</ele><time>2026-04-06T14:48:48.999Z</time></trkpt><trkpt lat="46.281897760808135" lon="6.728483484333457"><ele>931.0</ele><time>2026-04-06T14:48:49.999Z</time></trkpt><trkpt lat="46.28183552869159" lon="6.728682801242095"><ele>932.3333333333333</ele><time>2026-04-06T14:48:50.999Z</time></trkpt><trkpt lat="46.28177866909405" lon="6.728882051204598"><ele>933.6666666666667</ele><time>2026-04-06T14:48:51.999Z</time></trkpt><trkpt lat="46.281733464211776" lon="6.729098618156496"><ele>935.0</ele><time>2026-04-06T14:48:52.999Z</time></trkpt><trkpt lat="46.281713119466765" lon="6.729325503795434"><ele>935.0</ele><time>2026-04-06T14:48:53.999Z</time></trkpt><trkpt lat="46.28170919152171" lon="6.729588147194164"><ele>935.0</ele><time>2026-04-06T14:48:54.999Z</time></trkpt><trkpt lat="46.28173134721801" lon="6.729885970133301"><ele>935.0</ele><time>2026-04-06T14:48:55.999Z</time></trkpt><trkpt lat="46.28174700941305" lon="6.730212440761407"><ele>936.5</ele><time>2026-04-06T14:48:56.999Z</time></trkpt><trkpt lat="46.28178741800881" lon="6.730551410541271"><ele>938.0</ele><time>2026-04-06T14:48:57.999Z</time></trkpt><trkpt lat="46.28181459775718" lon="6.730911649197003"><ele>940.5</ele><time>2026-04-06T14:48:58.999Z</time></trkpt><trkpt lat="46.281849607424206" lon="6.731245461247966"><ele>943.0</ele><time>2026-04-06T14:48:59.999Z</time></trkpt><trkpt lat="46.281889104271535" lon="6.731554423403682"><ele>943.0</ele><time>2026-04-06T14:49:00.999Z</time></trkpt><trkpt lat="46.28193365365435" lon="6.731832904123099"><ele>943.0</ele><time>2026-04-06T14:49:01.999Z</time></trkpt><trkpt lat="46.28199598460426" lon="6.732092280150788"><ele>943.0</ele><time>2026-04-06T14:49:02.999Z</time></trkpt><trkpt lat="46.28208125926393" lon="6.73231760049031"><ele>942.0</ele><time>2026-04-06T14:49:03.999Z</time></trkpt><trkpt lat="46.28219560037306" lon="6.732518210764693"><ele>941.0</ele><time>2026-04-06T14:49:04.999Z</time></trkpt><trkpt lat="46.282342470605165" lon="6.73268030570479"><ele>940.0</ele><time>2026-04-06T14:49:05.999Z</time></trkpt><trkpt lat="46.28252812625359" lon="6.732826008413387"><ele>938.5</ele><time>2026-04-06T14:49:06.999Z</time></trkpt><trkpt lat="46.28273970086438" lon="6.732955083524629"><ele>937.0</ele><time>2026-04-06T14:49:07.999Z</time></trkpt><trkpt lat="46.28296245675393" lon="6.733081056653249"><ele>937.0</ele><time>2026-04-06T14:49:08.999Z</time></trkpt><trkpt lat="46.2831507882175" lon="6.733236908336765"><ele>937.0</ele><time>2026-04-06T14:49:09.999Z</time></trkpt><trkpt lat="46.28333208185082" lon="6.733383381149546"><ele>937.0</ele><time>2026-04-06T14:49:10.999Z</time></trkpt><trkpt lat="46.283494654318254" lon="6.733568204307425"><ele>937.0</ele><time>2026-04-06T14:49:11.999Z</time></trkpt><trkpt lat="46.283659000555886" lon="6.733785251572023"><ele>937.0</ele><time>2026-04-06T14:49:12.999Z</time></trkpt><trkpt lat="46.28378949406817" lon="6.734085202489103"><ele>937.5</ele><time>2026-04-06T14:49:13.999Z</time></trkpt><trkpt lat="46.283924907232475" lon="6.734402649893868"><ele>938.0</ele><time>2026-04-06T14:49:14.999Z</time></trkpt><trkpt lat="46.28407082562539" lon="6.73472855687562"><ele>938.0</ele><time>2026-04-06T14:49:15.999Z</time></trkpt><trkpt lat="46.28421943754415" lon="6.7350876087507325"><ele>938.0</ele><time>2026-04-06T14:49:16.999Z</time></trkpt><trkpt lat="46.284374636693386" lon="6.735459337782771"><ele>939.0</ele><time>2026-04-06T14:49:17.999Z</time></trkpt><trkpt lat="46.284531778858565" lon="6.735845978422517"><ele>940.0</ele><time>2026-04-06T14:49:18.999Z</time></trkpt><trkpt lat="46.28466727948492" lon="6.736235910727294"><ele>942.0</ele><time>2026-04-06T14:49:19.999Z</time></trkpt><trkpt lat="46.28478251125505" lon="6.736659588785124"><ele>944.0</ele><time>2026-04-06T14:49:20.999Z</time></trkpt><trkpt lat="46.28490313127116" lon="6.737105356391798"><ele>944.0</ele><time>2026-04-06T14:49:21.999Z</time></trkpt><trkpt lat="46.28504201048672" lon="6.737542487941546"><ele>944.0</ele><time>2026-04-06T14:49:22.999Z</time></trkpt><trkpt lat="46.285180317489434" lon="6.737940046807409"><ele>944.5</ele><time>2026-04-06T14:49:23.999Z</time></trkpt><trkpt lat="46.285318109065905" lon="6.73829798784101"><ele>945.0</ele><time>2026-04-06T14:49:24.999Z</time></trkpt><trkpt lat="46.28545765092512" lon="6.738630109533089"><ele>945.0</ele><time>2026-04-06T14:49:25.999Z</time></trkpt><trkpt lat="46.28558743886865" lon="6.7389471244102745"><ele>945.0</ele><time>2026-04-06T14:49:26.999Z</time></trkpt><trkpt lat="46.285671832147784" lon="6.739304653438931"><ele>945.5</ele><time>2026-04-06T14:49:27.999Z</time></trkpt><trkpt lat="46.285738523999925" lon="6.739697122327627"><ele>946.0</ele><time>2026-04-06T14:49:28.999Z</time></trkpt><trkpt lat="46.28581393351716" lon="6.740109951035641"><ele>945.0</ele><time>2026-04-06T14:49:29.999Z</time></trkpt><trkpt lat="46.285869955634894" lon="6.740539068729298"><ele>944.0</ele><time>2026-04-06T14:49:30.999Z</time></trkpt><trkpt lat="46.28594081616139" lon="6.740971397443474"><ele>945.0</ele><time>2026-04-06T14:49:31.999Z</time></trkpt><trkpt lat="46.28601025961471" lon="6.741365157929094"><ele>946.0</ele><time>2026-04-06T14:49:32.999Z</time></trkpt><trkpt lat="46.28608680482489" lon="6.741756904689618"><ele>948.0</ele><time>2026-04-06T14:49:33.999Z</time></trkpt><trkpt lat="46.28618064255622" lon="6.742154588733672"><ele>950.0</ele><time>2026-04-06T14:49:34.999Z</time></trkpt><trkpt lat="46.28628137133974" lon="6.742512996180628"><ele>949.0</ele><time>2026-04-06T14:49:35.999Z</time></trkpt><trkpt lat="46.28638516620073" lon="6.742876944926049"><ele>948.0</ele><time>2026-04-06T14:49:36.999Z</time></trkpt><trkpt lat="46.28647813755727" lon="6.743222713924738"><ele>948.0</ele><time>2026-04-06T14:49:37.999Z</time></trkpt><trkpt lat="46.28655642832827" lon="6.743535687892502"><ele>948.0</ele><time>2026-04-06T14:49:38.999Z</time></trkpt><trkpt lat="46.28662796636647" lon="6.743830426938774"><ele>948.0</ele><time>2026-04-06T14:49:39.999Z</time></trkpt><trkpt lat="46.286701300435986" lon="6.744113646562243"><ele>948.3333333333333</ele><time>2026-04-06T14:49:40.999Z</time></trkpt><trkpt lat="46.28678458033288" lon="6.744358846451879"><ele>948.6666666666666</ele><time>2026-04-06T14:49:41.999Z</time></trkpt><trkpt lat="46.28686482706232" lon="6.744587409312972"><ele>949.0</ele><time>2026-04-06T14:49:42.999Z</time></trkpt><trkpt lat="46.28694258501403" lon="6.744801160152499"><ele>949.6666666666666</ele><time>2026-04-06T14:49:43.999Z</time></trkpt><trkpt lat="46.28714077286238" lon="6.744884802871464"><ele>950.3333333333333</ele><time>2026-04-06T14:49:44.999Z</time></trkpt><trkpt lat="46.28730343111616" lon="6.744971667067757"><ele>951.0</ele><time>2026-04-06T14:49:45.999Z</time></trkpt><trkpt lat="46.28748354997604" lon="6.745018448842943"><ele>951.3333333333333</ele><time>2026-04-06T14:49:46.999Z</time></trkpt><trkpt lat="46.28768607296297" lon="6.745054836818046"><ele>951.6666666666666</ele><time>2026-04-06T14:49:47.999Z</time></trkpt><trkpt lat="46.287879181759344" lon="6.745117602220858"><ele>952.0</ele><time>2026-04-06T14:49:48.999Z</time></trkpt><trkpt lat="46.288047807016355" lon="6.745228515005432"><ele>952.0</ele><time>2026-04-06T14:49:49.999Z</time></trkpt><trkpt lat="46.288196432501145" lon="6.745361601895958"><ele>952.0</ele><time>2026-04-06T14:49:50.999Z</time></trkpt><trkpt lat="46.288329826713245" lon="6.74552825283175"><ele>952.0</ele><time>2026-04-06T14:49:51.999Z</time></trkpt><trkpt lat="46.28845461268236" lon="6.745735411006873"><ele>952.0</ele><time>2026-04-06T14:49:52.999Z</time></trkpt><trkpt lat="46.288572420529036" lon="6.745981040130067"><ele>952.0</ele><time>2026-04-06T14:49:53.999Z</time></trkpt><trkpt lat="46.288680892949074" lon="6.746229588450339"><ele>952.0</ele><time>2026-04-06T14:49:54.999Z</time></trkpt><trkpt lat="46.28877990044499" lon="6.746457138642346"><ele>952.0</ele><time>2026-04-06T14:49:55.999Z</time></trkpt><trkpt lat="46.28887067974235" lon="6.7466709841199926"><ele>952.0</ele><time>2026-04-06T14:49:56.999Z</time></trkpt><trkpt lat="46.28895661215458" lon="6.7468585162553545"><ele>952.0</ele><time>2026-04-06T14:49:57.999Z</time></trkpt><trkpt lat="46.28904039857991" lon="6.747037412980945"><ele>952.6666666666666</ele><time>2026-04-06T14:49:58.999Z</time></trkpt><trkpt lat="46.28913461464585" lon="6.747246426804002"><ele>953.3333333333333</ele><time>2026-04-06T14:49:59.999Z</time></trkpt><trkpt lat="46.28924577375538" lon="6.74748171715186"><ele>954.0</ele><time>2026-04-06T14:50:00.999Z</time></trkpt><trkpt lat="46.289350677626175" lon="6.747712768452926"><ele>954.3333333333333</ele><time>2026-04-06T14:50:01.999Z</time></trkpt><trkpt lat="46.28944238063166" lon="6.7479129352451706"><ele>954.6666666666666</ele><time>2026-04-06T14:50:02.999Z</time></trkpt><trkpt lat="46.28952363339082" lon="6.748102202583652"><ele>955.0</ele><time>2026-04-06T14:50:03.999Z</time></trkpt><trkpt lat="46.289602004599594" lon="6.748280043741163"><ele>955.0</ele><time>2026-04-06T14:50:05Z</time></trkpt><trkpt lat="46.28966700001382" lon="6.748458720193539"><ele>955.0</ele><time>2026-04-06T14:50:06Z</time></trkpt><trkpt lat="46.289716468730646" lon="6.748650584726683"><ele>955.0</ele><time>2026-04-06T14:50:07Z</time></trkpt><trkpt lat="46.28975168850488" lon="6.74885489651087"><ele>955.0</ele><time>2026-04-06T14:50:08Z</time></trkpt><trkpt lat="46.28977873970366" lon="6.7490650360353515"><ele>957.0</ele><time>2026-04-06T14:50:09Z</time></trkpt><trkpt lat="46.289811452233636" lon="6.749268499019227"><ele>959.0</ele><time>2026-04-06T14:50:10Z</time></trkpt><trkpt lat="46.28984558606957" lon="6.749472852217673"><ele>961.0</ele><time>2026-04-06T14:50:11Z</time></trkpt><trkpt lat="46.2898825119085" lon="6.74968085798151"><ele>963.0</ele><time>2026-04-06T14:50:12Z</time></trkpt><trkpt lat="46.289929230714414" lon="6.749864954462704"><ele>963.5</ele><time>2026-04-06T14:50:13Z</time></trkpt><trkpt lat="46.28998616858932" lon="6.750046190870014"><ele>964.0</ele><time>2026-04-06T14:50:14Z</time></trkpt><trkpt lat="46.29005753250729" lon="6.750223233860305"><ele>964.5</ele><time>2026-04-06T14:50:15Z</time></trkpt><trkpt lat="46.290133733730286" lon="6.750409591651943"><ele>965.0</ele><time>2026-04-06T14:50:16Z</time></trkpt><trkpt lat="46.29021197352839" lon="6.750593784326648"><ele>964.0</ele><time>2026-04-06T14:50:17Z</time></trkpt><trkpt lat="46.29027934350963" lon="6.750751530420751"><ele>963.0</ele><time>2026-04-06T14:50:18Z</time></trkpt><trkpt lat="46.29034265838358" lon="6.750900311670731"><ele>962.0</ele><time>2026-04-06T14:50:19Z</time></trkpt><trkpt lat="46.2903978600047" lon="6.75104956934581"><ele>961.0</ele><time>2026-04-06T14:50:20Z</time></trkpt><trkpt lat="46.29045522204955" lon="6.751218650987455"><ele>961.0</ele><time>2026-04-06T14:50:21Z</time></trkpt><trkpt lat="46.29050492978879" lon="6.7513838629699965"><ele>961.0</ele><time>2026-04-06T14:50:22Z</time></trkpt><trkpt lat="46.29054821038365" lon="6.751552663898706"><ele>961.0</ele><time>2026-04-06T14:50:23Z</time></trkpt><trkpt lat="46.29058892605222" lon="6.75173276668174"><ele>961.0</ele><time>2026-04-06T14:50:24Z</time></trkpt><trkpt lat="46.29062714300915" lon="6.751923579971086"><ele>963.0</ele><time>2026-04-06T14:50:25Z</time></trkpt><trkpt lat="46.29066206209609" lon="6.7521194484790605"><ele>965.0</ele><time>2026-04-06T14:50:26Z</time></trkpt><trkpt lat="46.290700894699484" lon="6.752318579755479"><ele>967.0</ele><time>2026-04-06T14:50:27Z</time></trkpt><trkpt lat="46.290755650227155" lon="6.752575190867078"><ele>966.6666666666666</ele><time>2026-04-06T14:50:28Z</time></trkpt><trkpt lat="46.29079855644789" lon="6.752836756617797"><ele>966.3333333333333</ele><time>2026-04-06T14:50:29Z</time></trkpt><trkpt lat="46.29085854013863" lon="6.753124452606874"><ele>966.0</ele><time>2026-04-06T14:50:30Z</time></trkpt><trkpt lat="46.29093340134419" lon="6.753386270524636"><ele>966.3333333333333</ele><time>2026-04-06T14:50:31Z</time></trkpt><trkpt lat="46.29101651641155" lon="6.753613996769087"><ele>966.6666666666666</ele><time>2026-04-06T14:50:32Z</time></trkpt><trkpt lat="46.29109933024712" lon="6.753834780618357"><ele>967.0</ele><time>2026-04-06T14:50:33Z</time></trkpt><trkpt lat="46.29118692413778" lon="6.754065586914823"><ele>967.0</ele><time>2026-04-06T14:50:34Z</time></trkpt><trkpt lat="46.29127645099475" lon="6.754294460461867"><ele>967.0</ele><time>2026-04-06T14:50:35Z</time></trkpt><trkpt lat="46.29136692822546" lon="6.754524030536804"><ele>967.0</ele><time>2026-04-06T14:50:36Z</time></trkpt><trkpt lat="46.29145319431008" lon="6.754744821482867"><ele>968.3333333333333</ele><time>2026-04-06T14:50:37Z</time></trkpt><trkpt lat="46.29153762517957" lon="6.754970819028486"><ele>969.6666666666667</ele><time>2026-04-06T14:50:38Z</time></trkpt><trkpt lat="46.29162619751478" lon="6.755209026064676"><ele>971.0</ele><time>2026-04-06T14:50:39Z</time></trkpt><trkpt lat="46.29171300056398" lon="6.755446858679275"><ele>971.0</ele><time>2026-04-06T14:50:40Z</time></trkpt><trkpt lat="46.291803133134124" lon="6.755677666038719"><ele>971.0</ele><time>2026-04-06T14:50:41Z</time></trkpt><trkpt lat="46.291895609396775" lon="6.75589572843819"><ele>971.0</ele><time>2026-04-06T14:50:42Z</time></trkpt><trkpt lat="46.291994945325854" lon="6.7560940639982245"><ele>970.3333333333334</ele><time>2026-04-06T14:50:43Z</time></trkpt><trkpt lat="46.292106739734386" lon="6.756287000550882"><ele>969.6666666666667</ele><time>2026-04-06T14:50:44Z</time></trkpt><trkpt lat="46.2922333106914" lon="6.756474023256595"><ele>969.0</ele><time>2026-04-06T14:50:45Z</time></trkpt><trkpt lat="46.29235842852364" lon="6.756646396770344"><ele>970.0</ele><time>2026-04-06T14:50:46Z</time></trkpt><trkpt lat="46.29247499713895" lon="6.756823509560507"><ele>971.0</ele><time>2026-04-06T14:50:47Z</time></trkpt><trkpt lat="46.29259416568445" lon="6.7570130604570835"><ele>972.0</ele><time>2026-04-06T14:50:48Z</time></trkpt><trkpt lat="46.29270260603052" lon="6.757199350888848"><ele>972.0</ele><time>2026-04-06T14:50:49Z</time></trkpt><trkpt lat="46.292791203150266" lon="6.757402434271479"><ele>972.0</ele><time>2026-04-06T14:50:50Z</time></trkpt><trkpt lat="46.29284162759913" lon="6.757630137690383"><ele>972.0</ele><time>2026-04-06T14:50:51Z</time></trkpt><trkpt lat="46.29286019995442" lon="6.75788637179418"><ele>971.6666666666667</ele><time>2026-04-06T14:50:52Z</time></trkpt><trkpt lat="46.292871889182265" lon="6.7581466781886235"><ele>971.3333333333334</ele><time>2026-04-06T14:50:53Z</time></trkpt><trkpt lat="46.29290702057117" lon="6.758387014909448"><ele>971.0</ele><time>2026-04-06T14:50:54Z</time></trkpt><trkpt lat="46.292973254699326" lon="6.758615727650108"><ele>972.0</ele><time>2026-04-06T14:50:55Z</time></trkpt><trkpt lat="46.293072070372084" lon="6.758841020546676"><ele>973.0</ele><time>2026-04-06T14:50:56Z</time></trkpt><trkpt lat="46.29320310225802" lon="6.759046777325562"><ele>974.0</ele><time>2026-04-06T14:50:57Z</time></trkpt><trkpt lat="46.2933510661565" lon="6.759249903589464"><ele>974.3333333333334</ele><time>2026-04-06T14:50:58Z</time></trkpt><trkpt lat="46.293499208225796" lon="6.75946343733283"><ele>974.6666666666667</ele><time>2026-04-06T14:50:59Z</time></trkpt><trkpt lat="46.29361956008319" lon="6.7597122706257275"><ele>975.0</ele><time>2026-04-06T14:51:00Z</time></trkpt><trkpt lat="46.293707020071245" lon="6.759975915357019"><ele>975.6666666666667</ele><time>2026-04-06T14:51:01Z</time></trkpt><trkpt lat="46.29376822111639" lon="6.760266766352626"><ele>976.3333333333334</ele><time>2026-04-06T14:51:02Z</time></trkpt><trkpt lat="46.29383203754485" lon="6.760585263235494"><ele>977.0</ele><time>2026-04-06T14:51:03Z</time></trkpt><trkpt lat="46.2939085764365" lon="6.760897394796095"><ele>978.0</ele><time>2026-04-06T14:51:04Z</time></trkpt><trkpt lat="46.29399539074352" lon="6.761198502172017"><ele>979.0</ele><time>2026-04-06T14:51:05Z</time></trkpt><trkpt lat="46.294101183246894" lon="6.761485509925895"><ele>979.0</ele><time>2026-04-06T14:51:06Z</time></trkpt><trkpt lat="46.2942321844233" lon="6.761770501147266"><ele>979.0</ele><time>2026-04-06T14:51:07Z</time></trkpt><trkpt lat="46.29436576361247" lon="6.762059243502762"><ele>979.6666666666666</ele><time>2026-04-06T14:51:08Z</time></trkpt><trkpt lat="46.29447865050252" lon="6.762325768379914"><ele>980.3333333333333</ele><time>2026-04-06T14:51:09Z</time></trkpt><trkpt lat="46.29456572922584" lon="6.762612885442374"><ele>981.0</ele><time>2026-04-06T14:51:10Z</time></trkpt><trkpt lat="46.29462705592413" lon="6.76290968841586"><ele>981.0</ele><time>2026-04-06T14:51:11Z</time></trkpt><trkpt lat="46.29467788563193" lon="6.763193817935248"><ele>981.0</ele><time>2026-04-06T14:51:12Z</time></trkpt><trkpt lat="46.29472072428425" lon="6.763451896234727"><ele>981.0</ele><time>2026-04-06T14:51:13Z</time></trkpt><trkpt lat="46.294757604266415" lon="6.763702313076881"><ele>981.6666666666667</ele><time>2026-04-06T14:51:14Z</time></trkpt><trkpt lat="46.29477049420713" lon="6.763953946833404"><ele>982.3333333333334</ele><time>2026-04-06T14:51:15Z</time></trkpt><trkpt lat="46.29476480742911" lon="6.764226332601285"><ele>983.0</ele><time>2026-04-06T14:51:16Z</time></trkpt><trkpt lat="46.29474309018492" lon="6.764498326577441"><ele>982.6666666666667</ele><time>2026-04-06T14:51:17Z</time></trkpt><trkpt lat="46.29471633400713" lon="6.764749478634639"><ele>982.3333333333333</ele><time>2026-04-06T14:51:18Z</time></trkpt><trkpt lat="46.294693343681125" lon="6.765019472833583"><ele>982.0</ele><time>2026-04-06T14:51:19Z</time></trkpt><trkpt lat="46.294680921373136" lon="6.765311863894192"><ele>982.0</ele><time>2026-04-06T14:51:20Z</time></trkpt><trkpt lat="46.29467707017397" lon="6.765605279263763"><ele>982.0</ele><time>2026-04-06T14:51:21Z</time></trkpt><trkpt lat="46.29467928815243" lon="6.765864080839341"><ele>982.0</ele><time>2026-04-06T14:51:22Z</time></trkpt><trkpt lat="46.294688907570745" lon="6.766125627403743"><ele>982.3333333333333</ele><time>2026-04-06T14:51:23Z</time></trkpt><trkpt lat="46.294700591046734" lon="6.766393153181422"><ele>982.6666666666667</ele><time>2026-04-06T14:51:24Z</time></trkpt><trkpt lat="46.29470980135424" lon="6.766663834426368"><ele>983.0</ele><time>2026-04-06T14:51:25Z</time></trkpt><trkpt lat="46.29471842884244" lon="6.766921586816538"><ele>982.3333333333334</ele><time>2026-04-06T14:51:26Z</time></trkpt><trkpt lat="46.294726347785144" lon="6.767163196400774"><ele>981.6666666666667</ele><time>2026-04-06T14:51:27Z</time></trkpt><trkpt lat="46.294736599259615" lon="6.767395126292007"><ele>981.0</ele><time>2026-04-06T14:51:28Z</time></trkpt><trkpt lat="46.294747208949545" lon="6.767631652443343"><ele>981.0</ele><time>2026-04-06T14:51:29Z</time></trkpt><trkpt lat="46.2947670408947" lon="6.767878772621273"><ele>981.0</ele><time>2026-04-06T14:51:30Z</time></trkpt><trkpt lat="46.29479481351155" lon="6.768131827540465"><ele>981.0</ele><time>2026-04-06T14:51:31Z</time></trkpt><trkpt lat="46.294829737041795" lon="6.768381614644833"><ele>979.3333333333333</ele><time>2026-04-06T14:51:32Z</time></trkpt><trkpt lat="46.29485412962525" lon="6.768642369191665"><ele>977.6666666666666</ele><time>2026-04-06T14:51:33Z</time></trkpt><trkpt lat="46.2949085726651" lon="6.768884305554775"><ele>976.0</ele><time>2026-04-06T14:51:34Z</time></trkpt><trkpt lat="46.29494419511487" lon="6.769109994676946"><ele>976.0</ele><time>2026-04-06T14:51:35Z</time></trkpt><trkpt lat="46.29496131555452" lon="6.769336816905612"><ele>976.0</ele><time>2026-04-06T14:51:36Z</time></trkpt><trkpt lat="46.29498821218486" lon="6.769555078260639"><ele>976.0</ele><time>2026-04-06T14:51:37Z</time></trkpt><trkpt lat="46.29502476049844" lon="6.769783202739351"><ele>976.6666666666666</ele><time>2026-04-06T14:51:38Z</time></trkpt><trkpt lat="46.29504072735413" lon="6.770028525443087"><ele>977.3333333333333</ele><time>2026-04-06T14:51:39Z</time></trkpt><trkpt lat="46.29505127712342" lon="6.770280987226593"><ele>978.0</ele><time>2026-04-06T14:51:39.999Z</time></trkpt><trkpt lat="46.295053929318016" lon="6.770534368450547"><ele>978.6666666666667</ele><time>2026-04-06T14:51:40.999Z</time></trkpt><trkpt lat="46.29505075084587" lon="6.770785119056196"><ele>979.3333333333334</ele><time>2026-04-06T14:51:41.999Z</time></trkpt><trkpt lat="46.295040671261916" lon="6.771017872311824"><ele>980.0</ele><time>2026-04-06T14:51:42.999Z</time></trkpt><trkpt lat="46.295025086363225" lon="6.771246011166772"><ele>980.3333333333334</ele><time>2026-04-06T14:51:43.999Z</time></trkpt><trkpt lat="46.29501176891099" lon="6.7714771977503485"><ele>980.6666666666667</ele><time>2026-04-06T14:51:44.999Z</time></trkpt><trkpt lat="46.29499692776376" lon="6.771704801484773"><ele>981.0</ele><time>2026-04-06T14:51:45.999Z</time></trkpt><trkpt lat="46.294983270993406" lon="6.771926956237901"><ele>982.0</ele><time>2026-04-06T14:51:46.999Z</time></trkpt><trkpt lat="46.29496718730868" lon="6.772140888455105"><ele>983.0</ele><time>2026-04-06T14:51:48Z</time></trkpt><trkpt lat="46.29495212569262" lon="6.772357786846011"><ele>984.0</ele><time>2026-04-06T14:51:48.999Z</time></trkpt><trkpt lat="46.294937915446575" lon="6.772574205414514"><ele>985.0</ele><time>2026-04-06T14:51:49.999Z</time></trkpt><trkpt lat="46.29492728610747" lon="6.772790084377781"><ele>986.75</ele><time>2026-04-06T14:51:50.999Z</time></trkpt><trkpt lat="46.29492568194782" lon="6.772992876061705"><ele>988.5</ele><time>2026-04-06T14:51:51.999Z</time></trkpt><trkpt lat="46.294943237787926" lon="6.7731958143586946"><ele>990.25</ele><time>2026-04-06T14:51:52.999Z</time></trkpt><trkpt lat="46.294974698693096" lon="6.773401362718426"><ele>992.0</ele><time>2026-04-06T14:51:53.999Z</time></trkpt><trkpt lat="46.29501600878692" lon="6.773612195009463"><ele>993.3333333333334</ele><time>2026-04-06T14:51:54.999Z</time></trkpt><trkpt lat="46.29505757511613" lon="6.7738203761319795"><ele>994.6666666666667</ele><time>2026-04-06T14:51:55.999Z</time></trkpt><trkpt lat="46.295093115675975" lon="6.774040524470013"><ele>996.0</ele><time>2026-04-06T14:51:56.999Z</time></trkpt><trkpt lat="46.29511489756669" lon="6.774254411709499"><ele>996.0</ele><time>2026-04-06T14:51:57.999Z</time></trkpt><trkpt lat="46.29512037476379" lon="6.774453148768306"><ele>996.0</ele><time>2026-04-06T14:51:58.999Z</time></trkpt><trkpt lat="46.29512955679104" lon="6.7746403934813335"><ele>996.0</ele><time>2026-04-06T14:51:59.999Z</time></trkpt><trkpt lat="46.29514327428811" lon="6.774827958231837"><ele>996.0</ele><time>2026-04-06T14:52:00.999Z</time></trkpt><trkpt lat="46.29516023293163" lon="6.775021526041528"><ele>995.0</ele><time>2026-04-06T14:52:01.999Z</time></trkpt><trkpt lat="46.29518434249297" lon="6.775210308595425"><ele>994.0</ele><time>2026-04-06T14:52:02.999Z</time></trkpt><trkpt lat="46.29520577479008" lon="6.7754046115623"><ele>993.0</ele><time>2026-04-06T14:52:03.999Z</time></trkpt><trkpt lat="46.295235522418444" lon="6.77560100594537"><ele>992.0</ele><time>2026-04-06T14:52:04.999Z</time></trkpt><trkpt lat="46.29528586484353" lon="6.775804069340557"><ele>991.0</ele><time>2026-04-06T14:52:05.999Z</time></trkpt><trkpt lat="46.29535081946587" lon="6.7760256915195285"><ele>990.0</ele><time>2026-04-06T14:52:06.999Z</time></trkpt><trkpt lat="46.29541183948064" lon="6.7762714245842215"><ele>989.0</ele><time>2026-04-06T14:52:07.999Z</time></trkpt><trkpt lat="46.29547380854896" lon="6.7765274729191045"><ele>989.0</ele><time>2026-04-06T14:52:08.999Z</time></trkpt><trkpt lat="46.295534550954955" lon="6.776771435802339"><ele>989.0</ele><time>2026-04-06T14:52:09.999Z</time></trkpt><trkpt lat="46.295588211178725" lon="6.777007505288274"><ele>989.0</ele><time>2026-04-06T14:52:11Z</time></trkpt><trkpt lat="46.29562467497172" lon="6.777231716406186"><ele>993.0</ele><time>2026-04-06T14:52:12Z</time></trkpt><trkpt lat="46.29564844714065" lon="6.77745864969556"><ele>997.0</ele><time>2026-04-06T14:52:13Z</time></trkpt><trkpt lat="46.29565007839263" lon="6.777680525197263"><ele>1001.0</ele><time>2026-04-06T14:52:14Z</time></trkpt><trkpt lat="46.2956462266638" lon="6.77788982173335"><ele>1001.25</ele><time>2026-04-06T14:52:15Z</time></trkpt><trkpt lat="46.29564754139707" lon="6.7780902878030505"><ele>1001.5</ele><time>2026-04-06T14:52:16Z</time></trkpt><trkpt lat="46.29564857989832" lon="6.77827199728697"><ele>1001.75</ele><time>2026-04-06T14:52:17Z</time></trkpt><trkpt lat="46.29564987838863" lon="6.778431263848873"><ele>1002.0</ele><time>2026-04-06T14:52:18Z</time></trkpt><trkpt lat="46.29565393879187" lon="6.778583723850156"><ele>1002.6</ele><time>2026-04-06T14:52:19Z</time></trkpt><trkpt lat="46.2956565330839" lon="6.7787239525738725"><ele>1003.2</ele><time>2026-04-06T14:52:20Z</time></trkpt><trkpt lat="46.295657082896554" lon="6.778859955041101"><ele>1003.8</ele><time>2026-04-06T14:52:21Z</time></trkpt><trkpt lat="46.29565513428706" lon="6.7790215986239"><ele>1004.4</ele><time>2026-04-06T14:52:22Z</time></trkpt><trkpt lat="46.29565238857156" lon="6.779195817282695"><ele>1005.0</ele><time>2026-04-06T14:52:23Z</time></trkpt><trkpt lat="46.29565322004439" lon="6.779403686065433"><ele>1005.0</ele><time>2026-04-06T14:52:24Z</time></trkpt><trkpt lat="46.29565097976335" lon="6.779586977669944"><ele>1005.0</ele><time>2026-04-06T14:52:25Z</time></trkpt><trkpt lat="46.29565544346234" lon="6.779753149913228"><ele>1005.0</ele><time>2026-04-06T14:52:26Z</time></trkpt><trkpt lat="46.29565540707868" lon="6.779892742925697"><ele>1005.0</ele><time>2026-04-06T14:52:27Z</time></trkpt><trkpt lat="46.295642685362935" lon="6.780005908779999"><ele>1005.0</ele><time>2026-04-06T14:52:28Z</time></trkpt><trkpt lat="46.295614356976756" lon="6.780106303086824"><ele>1004.8333333333334</ele><time>2026-04-06T14:52:29Z</time></trkpt><trkpt lat="46.29556747259373" lon="6.780186744555579"><ele>1004.6666666666667</ele><time>2026-04-06T14:52:30Z</time></trkpt><trkpt lat="46.29551763188255" lon="6.78026315379222"><ele>1004.5</ele><time>2026-04-06T14:52:31Z</time></trkpt><trkpt lat="46.295494789191345" lon="6.780348741000232"><ele>1004.3333333333334</ele><time>2026-04-06T14:52:32Z</time></trkpt><trkpt lat="46.29550599076668" lon="6.780449422690658"><ele>1004.1666666666667</ele><time>2026-04-06T14:52:33Z</time></trkpt><trkpt lat="46.295545756818385" lon="6.780551879989884"><ele>1004.0</ele><time>2026-04-06T14:52:34Z</time></trkpt><trkpt lat="46.295596413184754" lon="6.780658578895087"><ele>1004.0</ele><time>2026-04-06T14:52:35Z</time></trkpt><trkpt lat="46.29564054557127" lon="6.780803007985704"><ele>1004.0</ele><time>2026-04-06T14:52:36Z</time></trkpt><trkpt lat="46.29565603442853" lon="6.7809743302875605"><ele>1004.0</ele><time>2026-04-06T14:52:37Z</time></trkpt><trkpt lat="46.29565550501285" lon="6.781145770999679"><ele>1004.0</ele><time>2026-04-06T14:52:38Z</time></trkpt><trkpt lat="46.29564334543458" lon="6.78129504132396"><ele>1003.8000000000001</ele><time>2026-04-06T14:52:39Z</time></trkpt><trkpt lat="46.295633004661134" lon="6.781438000112614"><ele>1003.6000000000001</ele><time>2026-04-06T14:52:40Z</time></trkpt><trkpt lat="46.29562370861023" lon="6.781576761518808"><ele>1003.4</ele><time>2026-04-06T14:52:41Z</time></trkpt><trkpt lat="46.2956094091709" lon="6.781710600538576"><ele>1003.2</ele><time>2026-04-06T14:52:42Z</time></trkpt><trkpt lat="46.29559664224728" lon="6.781857644055243"><ele>1003.0</ele><time>2026-04-06T14:52:43Z</time></trkpt><trkpt lat="46.29558503604378" lon="6.781979778087082"><ele>1003.0</ele><time>2026-04-06T14:52:44Z</time></trkpt><trkpt lat="46.295566137782956" lon="6.782140746423067"><ele>1003.0</ele><time>2026-04-06T14:52:46Z</time></trkpt><trkpt lat="46.29554566634209" lon="6.782295885676155"><ele>1003.0</ele><time>2026-04-06T14:52:48Z</time></trkpt><trkpt lat="46.29553517549222" lon="6.782462864447503"><ele>1003.0</ele><time>2026-04-06T14:52:50Z</time></trkpt><trkpt lat="46.29552668925594" lon="6.782566979803234"><ele>1003.0</ele><time>2026-04-06T14:52:51Z</time></trkpt><trkpt lat="46.29552566709237" lon="6.782670208851575"><ele>1003.5999999999999</ele><time>2026-04-06T14:52:52Z</time></trkpt><trkpt lat="46.295513557121254" lon="6.782858654336973"><ele>1004.1999999999999</ele><time>2026-04-06T14:52:54Z</time></trkpt><trkpt lat="46.2955097933059" lon="6.782962755198872"><ele>1004.8</ele><time>2026-04-06T14:52:55Z</time></trkpt><trkpt lat="46.295509380466235" lon="6.783076496915868"><ele>1005.4</ele><time>2026-04-06T14:52:56Z</time></trkpt><trkpt lat="46.295514110105216" lon="6.783198378008845"><ele>1006.0</ele><time>2026-04-06T14:52:57Z</time></trkpt><trkpt lat="46.29552192481031" lon="6.783333028723766"><ele>1006.0</ele><time>2026-04-06T14:52:58Z</time></trkpt><trkpt lat="46.29551400970128" lon="6.783477134071626"><ele>1005.9999999999999</ele><time>2026-04-06T14:52:59Z</time></trkpt><trkpt lat="46.2955201417251" lon="6.783616393699584"><ele>1005.9999999999999</ele><time>2026-04-06T14:53:00Z</time></trkpt><trkpt lat="46.29553945133275" lon="6.783744565648144"><ele>1006.0</ele><time>2026-04-06T14:53:01Z</time></trkpt><trkpt lat="46.29553924108545" lon="6.783878171663849"><ele>1006.0</ele><time>2026-04-06T14:53:02Z</time></trkpt><trkpt lat="46.29554518283852" lon="6.784040357081152"><ele>1006.1999999999999</ele><time>2026-04-06T14:53:03Z</time></trkpt><trkpt lat="46.29555102228379" lon="6.784204462797821"><ele>1006.3999999999999</ele><time>2026-04-06T14:53:04Z</time></trkpt><trkpt lat="46.29554600491768" lon="6.784354319314824"><ele>1006.6</ele><time>2026-04-06T14:53:05Z</time></trkpt><trkpt lat="46.295544291210255" lon="6.784500837547092"><ele>1006.8</ele><time>2026-04-06T14:53:06Z</time></trkpt><trkpt lat="46.29554566540784" lon="6.784656159956785"><ele>1007.0</ele><time>2026-04-06T14:53:07Z</time></trkpt><trkpt lat="46.29554373228692" lon="6.784818504857234"><ele>1007.0000000000001</ele><time>2026-04-06T14:53:08Z</time></trkpt><trkpt lat="46.29554918237718" lon="6.784954111408268"><ele>1007.0</ele><time>2026-04-06T14:53:09Z</time></trkpt><trkpt lat="46.29555267850559" lon="6.785076309420099"><ele>1007.0</ele><time>2026-04-06T14:53:10Z</time></trkpt><trkpt lat="46.29555836210928" lon="6.785187028486313"><ele>1007.0</ele><time>2026-04-06T14:53:11Z</time></trkpt><trkpt lat="46.295561190589645" lon="6.78528925937835"><ele>1007.0000000000001</ele><time>2026-04-06T14:53:12Z</time></trkpt><trkpt lat="46.295561319078296" lon="6.785396495269793"><ele>1007.0</ele><time>2026-04-06T14:53:13Z</time></trkpt><trkpt lat="46.29556617322283" lon="6.78558263438716"><ele>1007.6</ele><time>2026-04-06T14:53:15Z</time></trkpt><trkpt lat="46.29557287618352" lon="6.785691220818141"><ele>1008.2</ele><time>2026-04-06T14:53:16Z</time></trkpt><trkpt lat="46.29558034824545" lon="6.785827387325804"><ele>1008.8</ele><time>2026-04-06T14:53:17Z</time></trkpt><trkpt lat="46.29558370757591" lon="6.785969198685065"><ele>1009.4</ele><time>2026-04-06T14:53:18Z</time></trkpt><trkpt lat="46.29559050753053" lon="6.786112909227001"><ele>1010.0</ele><time>2026-04-06T14:53:19Z</time></trkpt><trkpt lat="46.29559662263586" lon="6.786241339388216"><ele>1011.6666666666667</ele><time>2026-04-06T14:53:20Z</time></trkpt><trkpt lat="46.2956060092468" lon="6.786367070382138"><ele>1013.3333333333334</ele><time>2026-04-06T14:53:21Z</time></trkpt><trkpt lat="46.29561297104692" lon="6.78647504415406"><ele>1015.0</ele><time>2026-04-06T14:53:22Z</time></trkpt><trkpt lat="46.29562078626041" lon="6.786584526692151"><ele>1016.6666666666667</ele><time>2026-04-06T14:53:23Z</time></trkpt><trkpt lat="46.295627305739295" lon="6.786702277260163"><ele>1018.3333333333334</ele><time>2026-04-06T14:53:24Z</time></trkpt><trkpt lat="46.295637725509025" lon="6.786825334503841"><ele>1020.0</ele><time>2026-04-06T14:53:25Z</time></trkpt><trkpt lat="46.29564077798526" lon="6.786946281323776"><ele>1019.8</ele><time>2026-04-06T14:53:26Z</time></trkpt><trkpt lat="46.295612879229346" lon="6.787066897227612"><ele>1019.6</ele><time>2026-04-06T14:53:27Z</time></trkpt><trkpt lat="46.295609352465846" lon="6.787210158166427"><ele>1019.4000000000001</ele><time>2026-04-06T14:53:28Z</time></trkpt><trkpt lat="46.29559002639189" lon="6.78735565395883"><ele>1019.2</ele><time>2026-04-06T14:53:29Z</time></trkpt><trkpt lat="46.29557326556866" lon="6.787511323435438"><ele>1019.0</ele><time>2026-04-06T14:53:30Z</time></trkpt><trkpt lat="46.295549734872296" lon="6.787660230643394"><ele>1019.5000000000001</ele><time>2026-04-06T14:53:31Z</time></trkpt><trkpt lat="46.2955291912285" lon="6.787795061847256"><ele>1020.0</ele><time>2026-04-06T14:53:32Z</time></trkpt><trkpt lat="46.29550877044788" lon="6.787905758389836"><ele>1020.5</ele><time>2026-04-06T14:53:33Z</time></trkpt><trkpt lat="46.295484181839484" lon="6.788006138620945"><ele>1021.0</ele><time>2026-04-06T14:53:34Z</time></trkpt><trkpt lat="46.29546102339099" lon="6.788102755799699"><ele>1021.5000000000001</ele><time>2026-04-06T14:53:35Z</time></trkpt><trkpt lat="46.295422723524425" lon="6.78826190219634"><ele>1022.0</ele><time>2026-04-06T14:53:37Z</time></trkpt><trkpt lat="46.29539920455561" lon="6.788350580196754"><ele>1022.0000000000001</ele><time>2026-04-06T14:53:38Z</time></trkpt><trkpt lat="46.29537494313604" lon="6.788450741009949"><ele>1022.0</ele><time>2026-04-06T14:53:39Z</time></trkpt><trkpt lat="46.295350438496826" lon="6.788545350769273"><ele>1022.0</ele><time>2026-04-06T14:53:40Z</time></trkpt><trkpt lat="46.29532565304542" lon="6.788643567233838"><ele>1022.0</ele><time>2026-04-06T14:53:41Z</time></trkpt><trkpt lat="46.29529896965263" lon="6.7887559668068"><ele>1022.0000000000001</ele><time>2026-04-06T14:53:42Z</time></trkpt><trkpt lat="46.29527090004542" lon="6.788873172087781"><ele>1022.0</ele><time>2026-04-06T14:53:43Z</time></trkpt><trkpt lat="46.295242132912996" lon="6.788992864243377"><ele>1022.2</ele><time>2026-04-06T14:53:43.999Z</time></trkpt><trkpt lat="46.295214219160485" lon="6.789116651330183"><ele>1022.4000000000001</ele><time>2026-04-06T14:53:44.999Z</time></trkpt><trkpt lat="46.295187096034674" lon="6.789239888935812"><ele>1022.5999999999999</ele><time>2026-04-06T14:53:45.999Z</time></trkpt><trkpt lat="46.295160546044116" lon="6.7893635843653355"><ele>1022.8</ele><time>2026-04-06T14:53:46.999Z</time></trkpt><trkpt lat="46.295136162316574" lon="6.789498290476443"><ele>1023.0</ele><time>2026-04-06T14:53:47.999Z</time></trkpt><trkpt lat="46.295115025938536" lon="6.789633905441395"><ele>1023.0</ele><time>2026-04-06T14:53:48.999Z</time></trkpt><trkpt lat="46.295092106236545" lon="6.789769588677862"><ele>1023.0</ele><time>2026-04-06T14:53:49.999Z</time></trkpt><trkpt lat="46.29507548690307" lon="6.7899094520780325"><ele>1023.0</ele><time>2026-04-06T14:53:50.999Z</time></trkpt><trkpt lat="46.29505597770985" lon="6.790052107154866"><ele>1023.0</ele><time>2026-04-06T14:53:51.999Z</time></trkpt><trkpt lat="46.29503578271996" lon="6.79021174431508"><ele>1023.0</ele><time>2026-04-06T14:53:52.999Z</time></trkpt><trkpt lat="46.29501822055493" lon="6.790367014594821"><ele>1023.2</ele><time>2026-04-06T14:53:53.999Z</time></trkpt><trkpt lat="46.295003001174685" lon="6.790529941417273"><ele>1023.4</ele><time>2026-04-06T14:53:54.999Z</time></trkpt><trkpt lat="46.294991680292476" lon="6.790691665701309"><ele>1023.6000000000001</ele><time>2026-04-06T14:53:55.999Z</time></trkpt><trkpt lat="46.294962074760285" lon="6.790837794395242"><ele>1023.8000000000001</ele><time>2026-04-06T14:53:56.999Z</time></trkpt><trkpt lat="46.29494448263159" lon="6.790969601372819"><ele>1024.0</ele><time>2026-04-06T14:53:57.999Z</time></trkpt><trkpt lat="46.294933502677864" lon="6.791089730732068"><ele>1024.6666666666665</ele><time>2026-04-06T14:53:58.999Z</time></trkpt><trkpt lat="46.2949016409489" lon="6.7911866141133"><ele>1025.3333333333333</ele><time>2026-04-06T14:53:59.999Z</time></trkpt><trkpt lat="46.29486667286445" lon="6.791266533642091"><ele>1026.0</ele><time>2026-04-06T14:54:00.999Z</time></trkpt><trkpt lat="46.29481377286402" lon="6.791374192391386"><ele>1026.6666666666667</ele><time>2026-04-06T14:54:02.999Z</time></trkpt><trkpt lat="46.29477645692634" lon="6.79147596240197"><ele>1027.3333333333335</ele><time>2026-04-06T14:54:04.999Z</time></trkpt><trkpt lat="46.294748402738826" lon="6.791568442916485"><ele>1028.0</ele><time>2026-04-06T14:54:06.999Z</time></trkpt><trkpt lat="46.29469934504685" lon="6.7916490639077285"><ele>1026.8</ele><time>2026-04-06T14:54:08.999Z</time></trkpt><trkpt lat="46.29468999219623" lon="6.791784364347542"><ele>1025.6</ele><time>2026-04-06T14:54:10.999Z</time></trkpt><trkpt lat="46.29463084664928" lon="6.7919494570078855"><ele>1024.4</ele><time>2026-04-06T14:54:12.999Z</time></trkpt><trkpt lat="46.29459901872682" lon="6.792028556853824"><ele>1023.2</ele><time>2026-04-06T14:54:13.999Z</time></trkpt><trkpt lat="46.29456186099302" lon="6.792105953820772"><ele>1022.0</ele><time>2026-04-06T14:54:14.999Z</time></trkpt><trkpt lat="46.29449045520768" lon="6.792240984897561"><ele>1022.0</ele><time>2026-04-06T14:54:17Z</time></trkpt><trkpt lat="46.29441895418864" lon="6.7923705842315165"><ele>1022.0</ele><time>2026-04-06T14:54:19Z</time></trkpt><trkpt lat="46.294377705322646" lon="6.7924617745462275"><ele>1022.0</ele><time>2026-04-06T14:54:20Z</time></trkpt><trkpt lat="46.29432628221422" lon="6.792560812746874"><ele>1022.0</ele><time>2026-04-06T14:54:21Z</time></trkpt><trkpt lat="46.294265869626216" lon="6.792667208160041"><ele>1022.0</ele><time>2026-04-06T14:54:22Z</time></trkpt><trkpt lat="46.29420184004385" lon="6.792775927991268"><ele>1021.1666666666667</ele><time>2026-04-06T14:54:23Z</time></trkpt><trkpt lat="46.294140643502814" lon="6.79287762937163"><ele>1020.3333333333334</ele><time>2026-04-06T14:54:24Z</time></trkpt><trkpt lat="46.294087163372495" lon="6.792975206691072"><ele>1019.5</ele><time>2026-04-06T14:54:25Z</time></trkpt><trkpt lat="46.294039684034765" lon="6.793060051349793"><ele>1018.6666666666667</ele><time>2026-04-06T14:54:26Z</time></trkpt><trkpt lat="46.29399266689748" lon="6.79313977822002"><ele>1017.8333333333334</ele><time>2026-04-06T14:54:27Z</time></trkpt><trkpt lat="46.29394406520704" lon="6.793221434881224"><ele>1017.0</ele><time>2026-04-06T14:54:28Z</time></trkpt><trkpt lat="46.29389383710517" lon="6.793310886499094"><ele>1017.0</ele><time>2026-04-06T14:54:29Z</time></trkpt><trkpt lat="46.29383637548469" lon="6.793413158371011"><ele>1017.0</ele><time>2026-04-06T14:54:30Z</time></trkpt><trkpt lat="46.29378713229265" lon="6.7934992144181505"><ele>1017.0</ele><time>2026-04-06T14:54:31Z</time></trkpt><trkpt lat="46.293736379010774" lon="6.7935903365372985"><ele>1017.0</ele><time>2026-04-06T14:54:32Z</time></trkpt><trkpt lat="46.29368488696749" lon="6.793700507826804"><ele>1017.0</ele><time>2026-04-06T14:54:33Z</time></trkpt><trkpt lat="46.293632319280384" lon="6.793834269478584"><ele>1017.0</ele><time>2026-04-06T14:54:34Z</time></trkpt><trkpt lat="46.29358811584888" lon="6.793973483173998"><ele>1017.6666666666666</ele><time>2026-04-06T14:54:35Z</time></trkpt><trkpt lat="46.29355509583489" lon="6.79411968615055"><ele>1018.3333333333333</ele><time>2026-04-06T14:54:36Z</time></trkpt><trkpt lat="46.29353163789605" lon="6.7942488554326035"><ele>1019.0</ele><time>2026-04-06T14:54:37Z</time></trkpt><trkpt lat="46.293517665675004" lon="6.794370962852633"><ele>1019.6666666666666</ele><time>2026-04-06T14:54:38Z</time></trkpt><trkpt lat="46.29350190771327" lon="6.794493214824806"><ele>1020.3333333333333</ele><time>2026-04-06T14:54:39Z</time></trkpt><trkpt lat="46.29348755670667" lon="6.794604685437967"><ele>1021.0</ele><time>2026-04-06T14:54:40Z</time></trkpt><trkpt lat="46.29347640504436" lon="6.794700495147009"><ele>1020.9999999999999</ele><time>2026-04-06T14:54:41Z</time></trkpt><trkpt lat="46.29346279778119" lon="6.794861179264533"><ele>1021.0</ele><time>2026-04-06T14:54:43Z</time></trkpt><trkpt lat="46.293442579619416" lon="6.794960995365808"><ele>1021.0</ele><time>2026-04-06T14:54:45Z</time></trkpt><trkpt lat="46.293493775323896" lon="6.794900843090927"><ele>1021.0</ele><time>2026-04-06T14:55:56.999Z</time></trkpt><trkpt lat="46.29339007741878" lon="6.794965149638291"><ele>1020.9999999999999</ele><time>2026-04-06T14:56:38.446Z</time></trkpt><trkpt lat="46.29339204554456" lon="6.7948666311067445"><ele>1021.0</ele><time>2026-04-06T15:00:53.997Z</time></trkpt><trkpt lat="46.29347281550631" lon="6.794858513501973"><ele>1021.0</ele><time>2026-04-06T15:00:58Z</time></trkpt><trkpt lat="46.29353087148572" lon="6.7948131903885285"><ele>1021.0</ele><time>2026-04-06T15:01:04Z</time></trkpt></trkseg><trkseg><trkpt lat="46.29344560977497" lon="6.795021031640068"><ele>1021.0</ele><time>2026-04-06T15:32:22Z</time></trkpt><trkpt lat="46.29345833820682" lon="6.7949027137142455"><ele>1020.9999999999999</ele><time>2026-04-06T15:32:24Z</time></trkpt><trkpt lat="46.293492391742475" lon="6.7947812202930375"><ele>1020.9999999999999</ele><time>2026-04-06T15:32:26Z</time></trkpt><trkpt lat="46.293494876602104" lon="6.794630411066832"><ele>1021.0</ele><time>2026-04-06T15:32:36Z</time></trkpt><trkpt lat="46.29351039006631" lon="6.794485782842404"><ele>1021.0</ele><time>2026-04-06T15:32:37Z</time></trkpt><trkpt lat="46.29352655293698" lon="6.794333308323587"><ele>1021.4</ele><time>2026-04-06T15:32:38Z</time></trkpt><trkpt lat="46.29356215090937" lon="6.794209268716416"><ele>1021.8</ele><time>2026-04-06T15:32:39Z</time></trkpt><trkpt lat="46.293590889696546" lon="6.794077065074338"><ele>1022.1999999999999</ele><time>2026-04-06T15:32:40Z</time></trkpt><trkpt lat="46.29363468547027" lon="6.793936206851062"><ele>1022.5999999999999</ele><time>2026-04-06T15:32:41Z</time></trkpt><trkpt lat="46.29368950390222" lon="6.793792515541994"><ele>1023.0</ele><time>2026-04-06T15:32:42Z</time></trkpt><trkpt lat="46.293757756708985" lon="6.793642485283062"><ele>1021.8</ele><time>2026-04-06T15:32:43Z</time></trkpt><trkpt lat="46.293831515461214" lon="6.7935022168034305"><ele>1020.5999999999999</ele><time>2026-04-06T15:32:44Z</time></trkpt><trkpt lat="46.29390329474517" lon="6.793370682259324"><ele>1019.4000000000001</ele><time>2026-04-06T15:32:45Z</time></trkpt><trkpt lat="46.29396895087914" lon="6.793253915208676"><ele>1018.2</ele><time>2026-04-06T15:32:46Z</time></trkpt><trkpt lat="46.29402999365515" lon="6.7931454236387925"><ele>1017.0</ele><time>2026-04-06T15:32:47Z</time></trkpt><trkpt lat="46.294103212613145" lon="6.793015291283148"><ele>1018.0</ele><time>2026-04-06T15:32:48Z</time></trkpt><trkpt lat="46.294180692722726" lon="6.792877585578208"><ele>1019.0</ele><time>2026-04-06T15:32:49Z</time></trkpt><trkpt lat="46.294240697653876" lon="6.7927307101078185"><ele>1020.0</ele><time>2026-04-06T15:32:50Z</time></trkpt><trkpt lat="46.29430605288508" lon="6.792611338345742"><ele>1021.0</ele><time>2026-04-06T15:32:51Z</time></trkpt><trkpt lat="46.29436762663351" lon="6.792503664513145"><ele>1022.0</ele><time>2026-04-06T15:32:52Z</time></trkpt><trkpt lat="46.29443060052724" lon="6.792391942208694"><ele>1022.0</ele><time>2026-04-06T15:32:53Z</time></trkpt><trkpt lat="46.294503523812175" lon="6.79224856864975"><ele>1022.0</ele><time>2026-04-06T15:32:54Z</time></trkpt><trkpt lat="46.29456892152814" lon="6.792116735502098"><ele>1022.0</ele><time>2026-04-06T15:32:55Z</time></trkpt><trkpt lat="46.29463167985182" lon="6.791987770540586"><ele>1022.0</ele><time>2026-04-06T15:32:56Z</time></trkpt><trkpt lat="46.29468984530362" lon="6.791835036893977"><ele>1021.5</ele><time>2026-04-06T15:32:57Z</time></trkpt><trkpt lat="46.29473737974126" lon="6.791664022633186"><ele>1021.0</ele><time>2026-04-06T15:32:58Z</time></trkpt><trkpt lat="46.29479431470793" lon="6.7915085601759015"><ele>1020.5</ele><time>2026-04-06T15:32:58.999Z</time></trkpt><trkpt lat="46.294855259196204" lon="6.791366551095592"><ele>1020.0</ele><time>2026-04-06T15:32:59.999Z</time></trkpt><trkpt lat="46.2949044639121" lon="6.791202020770482"><ele>1021.0</ele><time>2026-04-06T15:33:00.999Z</time></trkpt><trkpt lat="46.294968782746146" lon="6.791039536483484"><ele>1022.0</ele><time>2026-04-06T15:33:01.999Z</time></trkpt><trkpt lat="46.29498276555724" lon="6.790835418560651"><ele>1023.0</ele><time>2026-04-06T15:33:02.999Z</time></trkpt><trkpt lat="46.29500464086225" lon="6.790628623238006"><ele>1024.0</ele><time>2026-04-06T15:33:03.999Z</time></trkpt><trkpt lat="46.29502127225125" lon="6.790429086198948"><ele>1024.0</ele><time>2026-04-06T15:33:04.999Z</time></trkpt><trkpt lat="46.29505591857838" lon="6.790248707034236"><ele>1024.0</ele><time>2026-04-06T15:33:05.999Z</time></trkpt><trkpt lat="46.295074412864864" lon="6.790086368280811"><ele>1024.0</ele><time>2026-04-06T15:33:06.999Z</time></trkpt><trkpt lat="46.29509375553852" lon="6.789942324639935"><ele>1024.0</ele><time>2026-04-06T15:33:07.999Z</time></trkpt><trkpt lat="46.29511323410926" lon="6.789805367048578"><ele>1024.0</ele><time>2026-04-06T15:33:08.999Z</time></trkpt><trkpt lat="46.29513298544779" lon="6.789679757410193"><ele>1023.8000000000001</ele><time>2026-04-06T15:33:09.999Z</time></trkpt><trkpt lat="46.29515194913461" lon="6.7895591568896965"><ele>1023.6000000000001</ele><time>2026-04-06T15:33:10.999Z</time></trkpt><trkpt lat="46.2951742692947" lon="6.789430388847558"><ele>1023.4</ele><time>2026-04-06T15:33:11.999Z</time></trkpt><trkpt lat="46.29520086524419" lon="6.7892887518651595"><ele>1023.2</ele><time>2026-04-06T15:33:12.999Z</time></trkpt><trkpt lat="46.295218206194434" lon="6.789137824783329"><ele>1023.0</ele><time>2026-04-06T15:33:13.999Z</time></trkpt><trkpt lat="46.295263340466505" lon="6.789007833252612"><ele>1022.8</ele><time>2026-04-06T15:33:14.999Z</time></trkpt><trkpt lat="46.295292385715335" lon="6.7888829527149515"><ele>1022.5999999999999</ele><time>2026-04-06T15:33:15.999Z</time></trkpt><trkpt lat="46.29532384728888" lon="6.788754953859004"><ele>1022.4000000000001</ele><time>2026-04-06T15:33:16.999Z</time></trkpt><trkpt lat="46.29535768385589" lon="6.788622450325912"><ele>1022.2</ele><time>2026-04-06T15:33:17.999Z</time></trkpt><trkpt lat="46.295392511513214" lon="6.788488165962095"><ele>1022.0</ele><time>2026-04-06T15:33:18.999Z</time></trkpt><trkpt lat="46.295427202950385" lon="6.78835440683387"><ele>1022.0</ele><time>2026-04-06T15:33:19.999Z</time></trkpt><trkpt lat="46.295461454414124" lon="6.78821070748187"><ele>1022.0</ele><time>2026-04-06T15:33:20.999Z</time></trkpt><trkpt lat="46.29548995550258" lon="6.788092111068371"><ele>1022.0</ele><time>2026-04-06T15:33:21.999Z</time></trkpt><trkpt lat="46.295518722673755" lon="6.787966141465995"><ele>1022.0</ele><time>2026-04-06T15:33:22.999Z</time></trkpt><trkpt lat="46.29554788982581" lon="6.787827146954739"><ele>1022.0</ele><time>2026-04-06T15:33:23.999Z</time></trkpt><trkpt lat="46.29556088374784" lon="6.787660333822503"><ele>1022.2</ele><time>2026-04-06T15:33:24.999Z</time></trkpt><trkpt lat="46.29560343950065" lon="6.78748426207754"><ele>1022.4000000000001</ele><time>2026-04-06T15:33:25.999Z</time></trkpt><trkpt lat="46.29562313647702" lon="6.787314097364586"><ele>1022.5999999999999</ele><time>2026-04-06T15:33:26.999Z</time></trkpt><trkpt lat="46.29563776895757" lon="6.787168147787696"><ele>1022.8</ele><time>2026-04-06T15:33:27.999Z</time></trkpt><trkpt lat="46.29563383225458" lon="6.787024966504045"><ele>1023.0</ele><time>2026-04-06T15:33:28.999Z</time></trkpt><trkpt lat="46.295644854001345" lon="6.786892264964406"><ele>1022.4</ele><time>2026-04-06T15:33:29.999Z</time></trkpt><trkpt lat="46.29566197129794" lon="6.786748032093108"><ele>1021.8</ele><time>2026-04-06T15:33:30.999Z</time></trkpt><trkpt lat="46.29564801197377" lon="6.7865885023621395"><ele>1021.2</ele><time>2026-04-06T15:33:31.999Z</time></trkpt><trkpt lat="46.29563686193454" lon="6.786442373988371"><ele>1020.6</ele><time>2026-04-06T15:33:32.999Z</time></trkpt><trkpt lat="46.295627124877754" lon="6.7862988636625365"><ele>1020.0</ele><time>2026-04-06T15:33:33.999Z</time></trkpt><trkpt lat="46.29560278168633" lon="6.78615621292463"><ele>1020.0</ele><time>2026-04-06T15:33:34.999Z</time></trkpt><trkpt lat="46.295612828625266" lon="6.786015705568982"><ele>1020.0</ele><time>2026-04-06T15:33:35.999Z</time></trkpt><trkpt lat="46.29559030500662" lon="6.785874766055043"><ele>1020.0</ele><time>2026-04-06T15:33:36.999Z</time></trkpt><trkpt lat="46.29560004575749" lon="6.78573230163686"><ele>1020.0</ele><time>2026-04-06T15:33:37.999Z</time></trkpt><trkpt lat="46.29559392837988" lon="6.78559709887515"><ele>1020.0</ele><time>2026-04-06T15:33:38.999Z</time></trkpt><trkpt lat="46.29558924536536" lon="6.785474336398476"><ele>1018.3333333333334</ele><time>2026-04-06T15:33:39.999Z</time></trkpt><trkpt lat="46.29556975495198" lon="6.785375675550561"><ele>1016.6666666666667</ele><time>2026-04-06T15:33:40.999Z</time></trkpt><trkpt lat="46.29556697960098" lon="6.785279441501014"><ele>1015.0</ele><time>2026-04-06T15:33:41.999Z</time></trkpt><trkpt lat="46.2955639382058" lon="6.785178594861205"><ele>1013.3333333333334</ele><time>2026-04-06T15:33:42.999Z</time></trkpt><trkpt lat="46.2955760366053" lon="6.78506917252248"><ele>1011.6666666666667</ele><time>2026-04-06T15:33:43.999Z</time></trkpt><trkpt lat="46.295556821240915" lon="6.78493560531362"><ele>1010.0</ele><time>2026-04-06T15:33:44.999Z</time></trkpt><trkpt lat="46.29557011283556" lon="6.784801091936831"><ele>1009.4</ele><time>2026-04-06T15:33:45.999Z</time></trkpt><trkpt lat="46.29555611855815" lon="6.784669371418669"><ele>1008.8</ele><time>2026-04-06T15:33:46.999Z</time></trkpt><trkpt lat="46.29555960238996" lon="6.784540282283449"><ele>1008.2</ele><time>2026-04-06T15:33:47.999Z</time></trkpt><trkpt lat="46.295557369543495" lon="6.784371966308201"><ele>1007.6</ele><time>2026-04-06T15:33:48.999Z</time></trkpt><trkpt lat="46.29555417632103" lon="6.7841934712091385"><ele>1007.0</ele><time>2026-04-06T15:33:49.999Z</time></trkpt><trkpt lat="46.29555864014116" lon="6.7839994709630895"><ele>1007.0</ele><time>2026-04-06T15:33:50.999Z</time></trkpt><trkpt lat="46.29555740549513" lon="6.783806405975618"><ele>1007.0</ele><time>2026-04-06T15:33:51.999Z</time></trkpt><trkpt lat="46.2955515035792" lon="6.783617589295155"><ele>1007.0</ele><time>2026-04-06T15:33:52.999Z</time></trkpt><trkpt lat="46.295541391806616" lon="6.783436571225575"><ele>1007.0</ele><time>2026-04-06T15:33:53.999Z</time></trkpt><trkpt lat="46.29553247846727" lon="6.783249649326489"><ele>1006.75</ele><time>2026-04-06T15:33:54.999Z</time></trkpt><trkpt lat="46.29552271570572" lon="6.783041856815794"><ele>1006.5</ele><time>2026-04-06T15:33:55.999Z</time></trkpt><trkpt lat="46.29552488355339" lon="6.7828350598032605"><ele>1006.25</ele><time>2026-04-06T15:33:56.999Z</time></trkpt><trkpt lat="46.29552883129551" lon="6.782649822963144"><ele>1006.0</ele><time>2026-04-06T15:33:57.999Z</time></trkpt><trkpt lat="46.29555634286655" lon="6.782470447701969"><ele>1006.5</ele><time>2026-04-06T15:33:58.999Z</time></trkpt><trkpt lat="46.29557486254739" lon="6.782270534893369"><ele>1007.0</ele><time>2026-04-06T15:33:59.999Z</time></trkpt><trkpt lat="46.295599339000304" lon="6.782055606685329"><ele>1007.5</ele><time>2026-04-06T15:34:00.999Z</time></trkpt><trkpt lat="46.295606989866656" lon="6.781875742090969"><ele>1008.0</ele><time>2026-04-06T15:34:01.999Z</time></trkpt><trkpt lat="46.29562090575626" lon="6.781706988260009"><ele>1008.0</ele><time>2026-04-06T15:34:02.999Z</time></trkpt><trkpt lat="46.29564905485519" lon="6.781550270660405"><ele>1008.0</ele><time>2026-04-06T15:34:03.999Z</time></trkpt><trkpt lat="46.29566098215908" lon="6.781411389144743"><ele>1008.0</ele><time>2026-04-06T15:34:04.999Z</time></trkpt><trkpt lat="46.29567300351606" lon="6.781271412489201"><ele>1008.0</ele><time>2026-04-06T15:34:05.999Z</time></trkpt><trkpt lat="46.29566372607854" lon="6.781132695457843"><ele>1008.0</ele><time>2026-04-06T15:34:06.999Z</time></trkpt><trkpt lat="46.295668544274804" lon="6.7810063847183475"><ele>1007.4</ele><time>2026-04-06T15:34:07.999Z</time></trkpt><trkpt lat="46.29566231192121" lon="6.7808780505104975"><ele>1006.8</ele><time>2026-04-06T15:34:08.999Z</time></trkpt><trkpt lat="46.295650504062905" lon="6.780729624299145"><ele>1006.2</ele><time>2026-04-06T15:34:09.999Z</time></trkpt><trkpt lat="46.295642688427044" lon="6.780559154733648"><ele>1005.6</ele><time>2026-04-06T15:34:10.999Z</time></trkpt><trkpt lat="46.295657346145866" lon="6.780365782701024"><ele>1005.0</ele><time>2026-04-06T15:34:11.999Z</time></trkpt><trkpt lat="46.295662942485514" lon="6.780161941174937"><ele>1005.0</ele><time>2026-04-06T15:34:12.999Z</time></trkpt><trkpt lat="46.295658622318825" lon="6.779939030351635"><ele>1005.0</ele><time>2026-04-06T15:34:13.999Z</time></trkpt><trkpt lat="46.29566636992168" lon="6.779697278925181"><ele>1005.0</ele><time>2026-04-06T15:34:14.999Z</time></trkpt><trkpt lat="46.29567345959629" lon="6.779425522433455"><ele>1005.3333333333333</ele><time>2026-04-06T15:34:15.999Z</time></trkpt><trkpt lat="46.29566768407904" lon="6.779135041694194"><ele>1005.6666666666666</ele><time>2026-04-06T15:34:16.999Z</time></trkpt><trkpt lat="46.29566203612458" lon="6.77884518009775"><ele>1006.0</ele><time>2026-04-06T15:34:17.999Z</time></trkpt><trkpt lat="46.29566525661862" lon="6.778555564187067"><ele>1004.6666666666666</ele><time>2026-04-06T15:34:18.999Z</time></trkpt><trkpt lat="46.29566901296315" lon="6.778269660225576"><ele>1003.3333333333333</ele><time>2026-04-06T15:34:19.999Z</time></trkpt><trkpt lat="46.29567145462278" lon="6.778004594954575"><ele>1002.0</ele><time>2026-04-06T15:34:20.999Z</time></trkpt><trkpt lat="46.29566810257796" lon="6.777729616459529"><ele>1001.6666666666667</ele><time>2026-04-06T15:34:21.999Z</time></trkpt><trkpt lat="46.29566182929232" lon="6.777435346312939"><ele>1001.3333333333334</ele><time>2026-04-06T15:34:22.999Z</time></trkpt><trkpt lat="46.29563767346793" lon="6.777137547382545"><ele>1001.0</ele><time>2026-04-06T15:34:23.999Z</time></trkpt><trkpt lat="46.29559077831271" lon="6.776873312112909"><ele>997.0</ele><time>2026-04-06T15:34:24.999Z</time></trkpt><trkpt lat="46.29552577341463" lon="6.776614100552824"><ele>993.0</ele><time>2026-04-06T15:34:25.999Z</time></trkpt><trkpt lat="46.2954535722775" lon="6.776347283925537"><ele>989.0</ele><time>2026-04-06T15:34:26.999Z</time></trkpt><trkpt lat="46.29538174892417" lon="6.776070394087749"><ele>990.0</ele><time>2026-04-06T15:34:27.999Z</time></trkpt><trkpt lat="46.29531411156055" lon="6.775798733665366"><ele>991.0</ele><time>2026-04-06T15:34:28.999Z</time></trkpt><trkpt lat="46.29525348132122" lon="6.775565205873514"><ele>992.0</ele><time>2026-04-06T15:34:29.999Z</time></trkpt><trkpt lat="46.29520696567464" lon="6.775337698423215"><ele>993.3333333333334</ele><time>2026-04-06T15:34:30.999Z</time></trkpt><trkpt lat="46.295180794947676" lon="6.775091727926353"><ele>994.6666666666667</ele><time>2026-04-06T15:34:31.999Z</time></trkpt><trkpt lat="46.29516291338453" lon="6.774789237643866"><ele>996.0</ele><time>2026-04-06T15:34:32.999Z</time></trkpt><trkpt lat="46.29514708421266" lon="6.774468403930715"><ele>996.0</ele><time>2026-04-06T15:34:33.999Z</time></trkpt><trkpt lat="46.295125757655164" lon="6.7741498587303255"><ele>996.0</ele><time>2026-04-06T15:34:34.999Z</time></trkpt><trkpt lat="46.2950949881873" lon="6.773857917009076"><ele>996.0</ele><time>2026-04-06T15:34:35.999Z</time></trkpt><trkpt lat="46.29504147993358" lon="6.773590160512734"><ele>994.6666666666667</ele><time>2026-04-06T15:34:36.999Z</time></trkpt><trkpt lat="46.29498972751975" lon="6.773337240255199"><ele>993.3333333333334</ele><time>2026-04-06T15:34:37.999Z</time></trkpt><trkpt lat="46.294954039455774" lon="6.773087986698507"><ele>992.0</ele><time>2026-04-06T15:34:38.999Z</time></trkpt><trkpt lat="46.29494251374338" lon="6.772840296079922"><ele>989.6666666666667</ele><time>2026-04-06T15:34:39.999Z</time></trkpt><trkpt lat="46.29495678931666" lon="6.772583903533141"><ele>987.3333333333333</ele><time>2026-04-06T15:34:40.999Z</time></trkpt><trkpt lat="46.29498042103972" lon="6.772294608878174"><ele>985.0</ele><time>2026-04-06T15:34:41.999Z</time></trkpt><trkpt lat="46.29500252555384" lon="6.771991077677426"><ele>983.6666666666666</ele><time>2026-04-06T15:34:42.999Z</time></trkpt><trkpt lat="46.29501994851461" lon="6.771679234126342"><ele>982.3333333333333</ele><time>2026-04-06T15:34:43.999Z</time></trkpt><trkpt lat="46.295038324783675" lon="6.771373330571764"><ele>981.0</ele><time>2026-04-06T15:34:44.999Z</time></trkpt><trkpt lat="46.295054047711666" lon="6.771082252834374"><ele>980.6666666666667</ele><time>2026-04-06T15:34:45.999Z</time></trkpt><trkpt lat="46.2950746991259" lon="6.7708043826627735"><ele>980.3333333333334</ele><time>2026-04-06T15:34:46.999Z</time></trkpt><trkpt lat="46.29508016170815" lon="6.77053811598208"><ele>980.0</ele><time>2026-04-06T15:34:47.999Z</time></trkpt><trkpt lat="46.295074453552374" lon="6.770279743958876"><ele>979.3333333333334</ele><time>2026-04-06T15:34:48.999Z</time></trkpt><trkpt lat="46.295065112482334" lon="6.770016363219192"><ele>978.6666666666667</ele><time>2026-04-06T15:34:49.999Z</time></trkpt><trkpt lat="46.29504772939713" lon="6.769742097529762"><ele>978.0</ele><time>2026-04-06T15:34:50.999Z</time></trkpt><trkpt lat="46.29501595333677" lon="6.7694452065617075"><ele>977.3333333333333</ele><time>2026-04-06T15:34:51.999Z</time></trkpt><trkpt lat="46.294968694279476" lon="6.76914109835547"><ele>976.6666666666666</ele><time>2026-04-06T15:34:52.999Z</time></trkpt><trkpt lat="46.294910474943585" lon="6.7688201827538474"><ele>976.0</ele><time>2026-04-06T15:34:53.999Z</time></trkpt><trkpt lat="46.294862647623354" lon="6.768520509270506"><ele>977.6666666666666</ele><time>2026-04-06T15:34:54.999Z</time></trkpt><trkpt lat="46.29482121064694" lon="6.768231764768917"><ele>979.3333333333333</ele><time>2026-04-06T15:34:55.999Z</time></trkpt><trkpt lat="46.29478856200261" lon="6.767921010750474"><ele>981.0</ele><time>2026-04-06T15:34:56.999Z</time></trkpt><trkpt lat="46.294767656499936" lon="6.767589496543254"><ele>981.0</ele><time>2026-04-06T15:34:57.999Z</time></trkpt><trkpt lat="46.294754572511906" lon="6.767253208050718"><ele>981.0</ele><time>2026-04-06T15:34:58.999Z</time></trkpt><trkpt lat="46.29474544802658" lon="6.766943597105194"><ele>981.0</ele><time>2026-04-06T15:34:59.999Z</time></trkpt><trkpt lat="46.29473254994663" lon="6.766653784751837"><ele>981.3333333333333</ele><time>2026-04-06T15:35:00.999Z</time></trkpt><trkpt lat="46.2947202016374" lon="6.766368209768811"><ele>981.6666666666666</ele><time>2026-04-06T15:35:01.999Z</time></trkpt><trkpt lat="46.29470676896545" lon="6.766065716195811"><ele>982.0</ele><time>2026-04-06T15:35:02.999Z</time></trkpt><trkpt lat="46.29469674257922" lon="6.765751163129406"><ele>982.0</ele><time>2026-04-06T15:35:03.999Z</time></trkpt><trkpt lat="46.29469507168377" lon="6.765430360804453"><ele>982.0</ele><time>2026-04-06T15:35:04.999Z</time></trkpt><trkpt lat="46.294709832720905" lon="6.765098862010597"><ele>981.6666666666666</ele><time>2026-04-06T15:35:05.999Z</time></trkpt><trkpt lat="46.29474270595479" lon="6.764783617571913"><ele>981.3333333333333</ele><time>2026-04-06T15:35:06.999Z</time></trkpt><trkpt lat="46.29477167878337" lon="6.764496313057182"><ele>981.0</ele><time>2026-04-06T15:35:07.999Z</time></trkpt><trkpt lat="46.2947893241249" lon="6.764211541373723"><ele>981.0</ele><time>2026-04-06T15:35:08.999Z</time></trkpt><trkpt lat="46.2947933694952" lon="6.7639018674174824"><ele>981.0</ele><time>2026-04-06T15:35:09.999Z</time></trkpt><trkpt lat="46.294774302633336" lon="6.763587599793536"><ele>981.0</ele><time>2026-04-06T15:35:10.999Z</time></trkpt><trkpt lat="46.29472842175732" lon="6.763281421632231"><ele>981.0</ele><time>2026-04-06T15:35:11.999Z</time></trkpt><trkpt lat="46.29466570338173" lon="6.762984317577645"><ele>981.0</ele><time>2026-04-06T15:35:12.999Z</time></trkpt><trkpt lat="46.29460272729886" lon="6.762720410868847"><ele>981.0</ele><time>2026-04-06T15:35:13.999Z</time></trkpt><trkpt lat="46.294535882744015" lon="6.762444155269754"><ele>981.0</ele><time>2026-04-06T15:35:14.999Z</time></trkpt><trkpt lat="46.29444678141417" lon="6.762174706769965"><ele>981.0</ele><time>2026-04-06T15:35:15.999Z</time></trkpt><trkpt lat="46.29433397253852" lon="6.761906524099836"><ele>981.0</ele><time>2026-04-06T15:35:16.999Z</time></trkpt><trkpt lat="46.29420967694808" lon="6.761639178762918"><ele>980.3333333333333</ele><time>2026-04-06T15:35:17.999Z</time></trkpt><trkpt lat="46.29408938453592" lon="6.761366075467378"><ele>979.6666666666666</ele><time>2026-04-06T15:35:18.999Z</time></trkpt><trkpt lat="46.293983053579595" lon="6.761078053290029"><ele>979.0</ele><time>2026-04-06T15:35:19.999Z</time></trkpt><trkpt lat="46.29391328123136" lon="6.760756969380934"><ele>978.3333333333333</ele><time>2026-04-06T15:35:20.999Z</time></trkpt><trkpt lat="46.29382468855333" lon="6.760454846281271"><ele>977.6666666666667</ele><time>2026-04-06T15:35:21.999Z</time></trkpt><trkpt lat="46.293760488273676" lon="6.76016631029518"><ele>977.0</ele><time>2026-04-06T15:35:22.999Z</time></trkpt><trkpt lat="46.29369628942227" lon="6.759903075053444"><ele>976.3333333333334</ele><time>2026-04-06T15:35:23.999Z</time></trkpt><trkpt lat="46.293616221982404" lon="6.759652263782343"><ele>975.6666666666667</ele><time>2026-04-06T15:35:24.999Z</time></trkpt><trkpt lat="46.293511716410144" lon="6.759412362709504"><ele>975.0</ele><time>2026-04-06T15:35:25.999Z</time></trkpt><trkpt lat="46.29337340035964" lon="6.759192615058962"><ele>975.0</ele><time>2026-04-06T15:35:26.999Z</time></trkpt><trkpt lat="46.29322453893588" lon="6.758984136933317"><ele>975.0</ele><time>2026-04-06T15:35:27.999Z</time></trkpt><trkpt lat="46.2930822401386" lon="6.758782322910381"><ele>975.0</ele><time>2026-04-06T15:35:28.999Z</time></trkpt><trkpt lat="46.29299148099172" lon="6.758541277049615"><ele>973.6666666666667</ele><time>2026-04-06T15:35:29.999Z</time></trkpt><trkpt lat="46.29293157950088" lon="6.758288918317198"><ele>972.3333333333334</ele><time>2026-04-06T15:35:30.999Z</time></trkpt><trkpt lat="46.29290680508344" lon="6.758044470343776"><ele>971.0</ele><time>2026-04-06T15:35:31.999Z</time></trkpt><trkpt lat="46.29287402222422" lon="6.757809552555214"><ele>971.3333333333334</ele><time>2026-04-06T15:35:32.999Z</time></trkpt><trkpt lat="46.29286639242193" lon="6.757590146180724"><ele>971.6666666666667</ele><time>2026-04-06T15:35:33.999Z</time></trkpt><trkpt lat="46.29282945318603" lon="6.75737329038866"><ele>972.0</ele><time>2026-04-06T15:35:34.999Z</time></trkpt><trkpt lat="46.29275453700786" lon="6.7571578706640425"><ele>972.0</ele><time>2026-04-06T15:35:35.999Z</time></trkpt><trkpt lat="46.29266057205306" lon="6.756967891990498"><ele>972.0</ele><time>2026-04-06T15:35:36.999Z</time></trkpt><trkpt lat="46.29254216406609" lon="6.756790662501398"><ele>972.0</ele><time>2026-04-06T15:35:37.999Z</time></trkpt><trkpt lat="46.29239769530946" lon="6.756601940419383"><ele>971.6666666666667</ele><time>2026-04-06T15:35:38.999Z</time></trkpt><trkpt lat="46.2922413676939" lon="6.756401192105993"><ele>971.3333333333334</ele><time>2026-04-06T15:35:39.999Z</time></trkpt><trkpt lat="46.29209524175156" lon="6.75620560642478"><ele>971.0</ele><time>2026-04-06T15:35:40.999Z</time></trkpt><trkpt lat="46.29197074323404" lon="6.756012497566293"><ele>971.0</ele><time>2026-04-06T15:35:41.999Z</time></trkpt><trkpt lat="46.29186438583651" lon="6.7557868490832105"><ele>971.0</ele><time>2026-04-06T15:35:42.999Z</time></trkpt><trkpt lat="46.291761743292106" lon="6.755514855801166"><ele>971.0</ele><time>2026-04-06T15:35:43.999Z</time></trkpt><trkpt lat="46.291656616170435" lon="6.755217400874357"><ele>971.6666666666667</ele><time>2026-04-06T15:35:44.999Z</time></trkpt><trkpt lat="46.29155896736768" lon="6.754939666536261"><ele>972.3333333333333</ele><time>2026-04-06T15:35:45.999Z</time></trkpt><trkpt lat="46.29146554365679" lon="6.754689346742318"><ele>973.0</ele><time>2026-04-06T15:35:46.999Z</time></trkpt><trkpt lat="46.29137853374485" lon="6.7544577738845"><ele>971.0</ele><time>2026-04-06T15:35:47.999Z</time></trkpt><trkpt lat="46.291294893808995" lon="6.754236810629432"><ele>969.0</ele><time>2026-04-06T15:35:48.999Z</time></trkpt><trkpt lat="46.291202797810286" lon="6.754007373387497"><ele>967.0</ele><time>2026-04-06T15:35:49.999Z</time></trkpt><trkpt lat="46.291096718631465" lon="6.7537433245997045"><ele>966.5</ele><time>2026-04-06T15:35:50.999Z</time></trkpt><trkpt lat="46.290990831984246" lon="6.753458180201761"><ele>966.0</ele><time>2026-04-06T15:35:51.999Z</time></trkpt><trkpt lat="46.29089148365299" lon="6.753150226629839"><ele>966.0</ele><time>2026-04-06T15:35:52.999Z</time></trkpt><trkpt lat="46.290816151712505" lon="6.752845457959961"><ele>966.0</ele><time>2026-04-06T15:35:53.999Z</time></trkpt><trkpt lat="46.29074974997867" lon="6.752518811265329"><ele>966.5</ele><time>2026-04-06T15:35:54.999Z</time></trkpt><trkpt lat="46.290692471515925" lon="6.752175699581216"><ele>967.0</ele><time>2026-04-06T15:35:55.999Z</time></trkpt><trkpt lat="46.29063928374951" lon="6.7518558468064205"><ele>965.0</ele><time>2026-04-06T15:35:56.999Z</time></trkpt><trkpt lat="46.290580110259526" lon="6.751564667206687"><ele>963.0</ele><time>2026-04-06T15:35:57.999Z</time></trkpt><trkpt lat="46.29051042178453" lon="6.751300303810794"><ele>961.0</ele><time>2026-04-06T15:35:58.999Z</time></trkpt><trkpt lat="46.290422788961294" lon="6.75104218911975"><ele>961.0</ele><time>2026-04-06T15:35:59.999Z</time></trkpt><trkpt lat="46.29032055252116" lon="6.750786856230495"><ele>961.0</ele><time>2026-04-06T15:36:00.999Z</time></trkpt><trkpt lat="46.29020976038425" lon="6.750522790479802"><ele>961.0</ele><time>2026-04-06T15:36:01.999Z</time></trkpt><trkpt lat="46.290100909230944" lon="6.75027182518755"><ele>962.3333333333333</ele><time>2026-04-06T15:36:02.999Z</time></trkpt><trkpt lat="46.29000665128539" lon="6.750043299653881"><ele>963.6666666666667</ele><time>2026-04-06T15:36:03.999Z</time></trkpt><trkpt lat="46.28993175752498" lon="6.749809318299643"><ele>965.0</ele><time>2026-04-06T15:36:04.999Z</time></trkpt><trkpt lat="46.28987804865714" lon="6.749578101899064"><ele>964.3333333333334</ele><time>2026-04-06T15:36:05.999Z</time></trkpt><trkpt lat="46.28984446930028" lon="6.749349793322053"><ele>963.6666666666667</ele><time>2026-04-06T15:36:06.999Z</time></trkpt><trkpt lat="46.289811952014716" lon="6.749120876471519"><ele>963.0</ele><time>2026-04-06T15:36:07.999Z</time></trkpt><trkpt lat="46.289764924902194" lon="6.748860964727033"><ele>962.3333333333333</ele><time>2026-04-06T15:36:08.999Z</time></trkpt><trkpt lat="46.28971469653154" lon="6.748600098281491"><ele>961.6666666666666</ele><time>2026-04-06T15:36:10Z</time></trkpt><trkpt lat="46.289648038186726" lon="6.748346375248582"><ele>961.0</ele><time>2026-04-06T15:36:11Z</time></trkpt><trkpt lat="46.28956236768768" lon="6.748115425444158"><ele>959.0</ele><time>2026-04-06T15:36:12Z</time></trkpt><trkpt lat="46.28944943190751" lon="6.747867164192472"><ele>957.0</ele><time>2026-04-06T15:36:13Z</time></trkpt><trkpt lat="46.28933007278667" lon="6.747622427110968"><ele>955.0</ele><time>2026-04-06T15:36:14Z</time></trkpt><trkpt lat="46.2892192429058" lon="6.747386456323762"><ele>954.6666666666666</ele><time>2026-04-06T15:36:15Z</time></trkpt><trkpt lat="46.28911473716586" lon="6.7471617406841355"><ele>954.3333333333333</ele><time>2026-04-06T15:36:16Z</time></trkpt><trkpt lat="46.289022142739206" lon="6.746948815716617"><ele>954.0</ele><time>2026-04-06T15:36:17Z</time></trkpt><trkpt lat="46.28892993439005" lon="6.746736591870717"><ele>953.3333333333333</ele><time>2026-04-06T15:36:18Z</time></trkpt><trkpt lat="46.28883989867653" lon="6.746534085871641"><ele>952.6666666666666</ele><time>2026-04-06T15:36:19Z</time></trkpt><trkpt lat="46.288752766248955" lon="6.746340315021897"><ele>952.0</ele><time>2026-04-06T15:36:20Z</time></trkpt><trkpt lat="46.28866113949264" lon="6.746136535193227"><ele>952.0</ele><time>2026-04-06T15:36:21Z</time></trkpt><trkpt lat="46.28856511786307" lon="6.745916029894038"><ele>952.0</ele><time>2026-04-06T15:36:22Z</time></trkpt><trkpt lat="46.28846035141906" lon="6.745694518193729"><ele>952.0</ele><time>2026-04-06T15:36:23Z</time></trkpt><trkpt lat="46.2883464652624" lon="6.745500800873953"><ele>952.0</ele><time>2026-04-06T15:36:24Z</time></trkpt><trkpt lat="46.288220026028945" lon="6.745332182573124"><ele>952.0</ele><time>2026-04-06T15:36:25Z</time></trkpt><trkpt lat="46.2880756850592" lon="6.7451944154936205"><ele>952.0</ele><time>2026-04-06T15:36:26Z</time></trkpt><trkpt lat="46.287911920569904" lon="6.745079776545737"><ele>952.0</ele><time>2026-04-06T15:36:27Z</time></trkpt><trkpt lat="46.28772900631436" lon="6.745009141229473"><ele>952.0</ele><time>2026-04-06T15:36:28Z</time></trkpt><trkpt lat="46.287540469266126" lon="6.744957838777522"><ele>952.0</ele><time>2026-04-06T15:36:29Z</time></trkpt><trkpt lat="46.28736004259411" lon="6.744918435246666"><ele>951.6666666666666</ele><time>2026-04-06T15:36:30Z</time></trkpt><trkpt lat="46.28719960538867" lon="6.744854803237911"><ele>951.3333333333333</ele><time>2026-04-06T15:36:31Z</time></trkpt><trkpt lat="46.28705900176823" lon="6.744738933840659"><ele>951.0</ele><time>2026-04-06T15:36:32Z</time></trkpt><trkpt lat="46.286925787787276" lon="6.744567182462441"><ele>950.3333333333333</ele><time>2026-04-06T15:36:33Z</time></trkpt><trkpt lat="46.286818787488606" lon="6.744364230465821"><ele>949.6666666666666</ele><time>2026-04-06T15:36:34Z</time></trkpt><trkpt lat="46.28672989905539" lon="6.744104905509153"><ele>949.0</ele><time>2026-04-06T15:36:35Z</time></trkpt><trkpt lat="46.28665283853031" lon="6.743798108803142"><ele>948.5</ele><time>2026-04-06T15:36:36Z</time></trkpt><trkpt lat="46.28657170615129" lon="6.743468577546412"><ele>948.0</ele><time>2026-04-06T15:36:37Z</time></trkpt><trkpt lat="46.28648313513148" lon="6.743129485276666"><ele>947.3333333333333</ele><time>2026-04-06T15:36:38Z</time></trkpt><trkpt lat="46.28640147365462" lon="6.742822622888977"><ele>946.6666666666666</ele><time>2026-04-06T15:36:39Z</time></trkpt><trkpt lat="46.28632690956898" lon="6.742543653198397"><ele>946.0</ele><time>2026-04-06T15:36:40Z</time></trkpt><trkpt lat="46.2862503886681" lon="6.74226658270663"><ele>946.0</ele><time>2026-04-06T15:36:41Z</time></trkpt><trkpt lat="46.286175474021384" lon="6.741991671673555"><ele>946.0</ele><time>2026-04-06T15:36:42Z</time></trkpt><trkpt lat="46.28610666459739" lon="6.741728411852106"><ele>946.0</ele><time>2026-04-06T15:36:43Z</time></trkpt><trkpt lat="46.286039316968534" lon="6.741449403039008"><ele>946.0</ele><time>2026-04-06T15:36:44Z</time></trkpt><trkpt lat="46.28598218553511" lon="6.74114453736824"><ele>946.0</ele><time>2026-04-06T15:36:45Z</time></trkpt><trkpt lat="46.28593377081864" lon="6.740832309912049"><ele>946.0</ele><time>2026-04-06T15:36:46Z</time></trkpt><trkpt lat="46.28589620228428" lon="6.740538392935725"><ele>946.0</ele><time>2026-04-06T15:36:47Z</time></trkpt><trkpt lat="46.28585775348194" lon="6.740261560162576"><ele>946.0</ele><time>2026-04-06T15:36:48Z</time></trkpt><trkpt lat="46.28581775621512" lon="6.739984716437501"><ele>946.0</ele><time>2026-04-06T15:36:48.999Z</time></trkpt><trkpt lat="46.28577305289177" lon="6.7397024210211045"><ele>946.0</ele><time>2026-04-06T15:36:49.999Z</time></trkpt><trkpt lat="46.28572606416778" lon="6.7394304440241095"><ele>946.0</ele><time>2026-04-06T15:36:50.999Z</time></trkpt><trkpt lat="46.285671608302934" lon="6.739163689130502"><ele>946.0</ele><time>2026-04-06T15:36:51.999Z</time></trkpt><trkpt lat="46.2855901289095" lon="6.738875556782736"><ele>945.5</ele><time>2026-04-06T15:36:52.999Z</time></trkpt><trkpt lat="46.285479777105756" lon="6.738581542295544"><ele>945.0</ele><time>2026-04-06T15:36:53.999Z</time></trkpt><trkpt lat="46.28535721941503" lon="6.7383097328063055"><ele>945.0</ele><time>2026-04-06T15:36:54.999Z</time></trkpt><trkpt lat="46.28525092344333" lon="6.738043192501869"><ele>945.0</ele><time>2026-04-06T15:36:55.999Z</time></trkpt><trkpt lat="46.28514314935293" lon="6.737776258091193"><ele>945.0</ele><time>2026-04-06T15:36:56.999Z</time></trkpt><trkpt lat="46.28503690022061" lon="6.73750052403465"><ele>944.6666666666667</ele><time>2026-04-06T15:36:57.999Z</time></trkpt><trkpt lat="46.284948086219494" lon="6.737210670835444"><ele>944.3333333333334</ele><time>2026-04-06T15:36:58.999Z</time></trkpt><trkpt lat="46.28486690304021" lon="6.736920384708588"><ele>944.0</ele><time>2026-04-06T15:36:59.999Z</time></trkpt><trkpt lat="46.28479084237406" lon="6.736633565949995"><ele>944.0</ele><time>2026-04-06T15:37:00.999Z</time></trkpt><trkpt lat="46.28471275049215" lon="6.736340023543616"><ele>944.0</ele><time>2026-04-06T15:37:01.999Z</time></trkpt><trkpt lat="46.28463926300941" lon="6.736062760421572"><ele>944.0</ele><time>2026-04-06T15:37:02.999Z</time></trkpt><trkpt lat="46.28455441062757" lon="6.735798332398448"><ele>942.6666666666667</ele><time>2026-04-06T15:37:03.999Z</time></trkpt><trkpt lat="46.28445610721037" lon="6.735563880959688"><ele>941.3333333333333</ele><time>2026-04-06T15:37:04.999Z</time></trkpt><trkpt lat="46.28436209072726" lon="6.735350203308545"><ele>940.0</ele><time>2026-04-06T15:37:05.999Z</time></trkpt><trkpt lat="46.284259084880304" lon="6.735114591430318"><ele>939.3333333333333</ele><time>2026-04-06T15:37:06.999Z</time></trkpt><trkpt lat="46.28415255263107" lon="6.7348729490353145"><ele>938.6666666666667</ele><time>2026-04-06T15:37:07.999Z</time></trkpt><trkpt lat="46.284055675582316" lon="6.734644530305296"><ele>938.0</ele><time>2026-04-06T15:37:08.999Z</time></trkpt><trkpt lat="46.283969564988475" lon="6.734430742134063"><ele>937.75</ele><time>2026-04-06T15:37:09.999Z</time></trkpt><trkpt lat="46.28388769837165" lon="6.734241501284523"><ele>937.5</ele><time>2026-04-06T15:37:10.999Z</time></trkpt><trkpt lat="46.283811250879396" lon="6.734057109230451"><ele>937.25</ele><time>2026-04-06T15:37:11.999Z</time></trkpt><trkpt lat="46.28373603656744" lon="6.733881955013374"><ele>937.0</ele><time>2026-04-06T15:37:12.999Z</time></trkpt><trkpt lat="46.28364242364995" lon="6.733711917803543"><ele>937.6666666666666</ele><time>2026-04-06T15:37:13.999Z</time></trkpt><trkpt lat="46.283529399931915" lon="6.733548151116166"><ele>938.3333333333333</ele><time>2026-04-06T15:37:14.999Z</time></trkpt><trkpt lat="46.28339640369795" lon="6.733380881866804"><ele>939.0</ele><time>2026-04-06T15:37:15.999Z</time></trkpt><trkpt lat="46.283235480857385" lon="6.733222496820061"><ele>938.3333333333333</ele><time>2026-04-06T15:37:16.999Z</time></trkpt><trkpt lat="46.28305107625477" lon="6.733095385690341"><ele>937.6666666666666</ele><time>2026-04-06T15:37:17.999Z</time></trkpt><trkpt lat="46.2828793406463" lon="6.732992131640141"><ele>937.0</ele><time>2026-04-06T15:37:18.999Z</time></trkpt><trkpt lat="46.28272291184501" lon="6.732897186128241"><ele>937.0</ele><time>2026-04-06T15:37:19.999Z</time></trkpt><trkpt lat="46.28257989795879" lon="6.73280115216213"><ele>937.0</ele><time>2026-04-06T15:37:20.999Z</time></trkpt><trkpt lat="46.282447038861456" lon="6.732697408835493"><ele>937.0</ele><time>2026-04-06T15:37:21.999Z</time></trkpt><trkpt lat="46.28232251262742" lon="6.732587779024108"><ele>943.6666666666666</ele><time>2026-04-06T15:37:22.999Z</time></trkpt><trkpt lat="46.2822004319003" lon="6.732457146675561"><ele>950.3333333333333</ele><time>2026-04-06T15:37:23.999Z</time></trkpt><trkpt lat="46.28209521009571" lon="6.732282724773953"><ele>957.0</ele><time>2026-04-06T15:37:24.999Z</time></trkpt><trkpt lat="46.28201047889505" lon="6.7320700286872395"><ele>952.3333333333333</ele><time>2026-04-06T15:37:25.999Z</time></trkpt><trkpt lat="46.281971371947535" lon="6.73182147234372"><ele>947.6666666666666</ele><time>2026-04-06T15:37:26.999Z</time></trkpt><trkpt lat="46.28192934297111" lon="6.731568481009489"><ele>943.0</ele><time>2026-04-06T15:37:27.999Z</time></trkpt><trkpt lat="46.28188126275213" lon="6.73132721344676"><ele>943.0</ele><time>2026-04-06T15:37:28.999Z</time></trkpt><trkpt lat="46.28185829850327" lon="6.731102317564192"><ele>943.0</ele><time>2026-04-06T15:37:29.999Z</time></trkpt><trkpt lat="46.28183605746443" lon="6.730877801591326"><ele>943.0</ele><time>2026-04-06T15:37:30.999Z</time></trkpt><trkpt lat="46.28181608626397" lon="6.730644371085806"><ele>941.3333333333333</ele><time>2026-04-06T15:37:31.999Z</time></trkpt><trkpt lat="46.281794253847565" lon="6.730418382177791"><ele>939.6666666666667</ele><time>2026-04-06T15:37:32.999Z</time></trkpt><trkpt lat="46.28177180901098" lon="6.730177455872353"><ele>938.0</ele><time>2026-04-06T15:37:33.999Z</time></trkpt><trkpt lat="46.281750876480935" lon="6.729947399458682"><ele>937.0</ele><time>2026-04-06T15:37:34.999Z</time></trkpt><trkpt lat="46.28173841592193" lon="6.729700011382551"><ele>936.0</ele><time>2026-04-06T15:37:35.999Z</time></trkpt><trkpt lat="46.28172927142908" lon="6.729467664633117"><ele>935.0</ele><time>2026-04-06T15:37:36.999Z</time></trkpt><trkpt lat="46.28174083569945" lon="6.729227162395387"><ele>935.0</ele><time>2026-04-06T15:37:37.999Z</time></trkpt><trkpt lat="46.28177069097578" lon="6.7289844961605"><ele>935.0</ele><time>2026-04-06T15:37:38.999Z</time></trkpt><trkpt lat="46.281840156712875" lon="6.728774868898508"><ele>935.0</ele><time>2026-04-06T15:37:39.999Z</time></trkpt><trkpt lat="46.28188730441438" lon="6.7285574874502"><ele>933.6666666666667</ele><time>2026-04-06T15:37:40.999Z</time></trkpt><trkpt lat="46.28194379426057" lon="6.728360651987441"><ele>932.3333333333333</ele><time>2026-04-06T15:37:41.999Z</time></trkpt><trkpt lat="46.2819920882104" lon="6.728140848356505"><ele>931.0</ele><time>2026-04-06T15:37:42.999Z</time></trkpt><trkpt lat="46.28203795212387" lon="6.7279000867902345"><ele>930.0</ele><time>2026-04-06T15:37:43.999Z</time></trkpt><trkpt lat="46.282034451359706" lon="6.727624000203444"><ele>929.0</ele><time>2026-04-06T15:37:44.999Z</time></trkpt><trkpt lat="46.28199669911863" lon="6.727342160879481"><ele>928.0</ele><time>2026-04-06T15:37:45.999Z</time></trkpt><trkpt lat="46.28199380534446" lon="6.727242840351447"><ele>928.0</ele><time>2026-04-06T15:37:46.999Z</time></trkpt><trkpt lat="46.28194417378071" lon="6.727016029820189"><ele>928.0</ele><time>2026-04-06T15:37:47.999Z</time></trkpt><trkpt lat="46.28192389431213" lon="6.726797115050317"><ele>928.0</ele><time>2026-04-06T15:37:48.999Z</time></trkpt><trkpt lat="46.28191052802074" lon="6.72659391032077"><ele>928.0</ele><time>2026-04-06T15:37:49.999Z</time></trkpt><trkpt lat="46.28191487181799" lon="6.726383524557687"><ele>928.0</ele><time>2026-04-06T15:37:50.999Z</time></trkpt><trkpt lat="46.281932061484085" lon="6.726169996290413"><ele>928.0</ele><time>2026-04-06T15:37:51.999Z</time></trkpt><trkpt lat="46.281957812578874" lon="6.725979478003608"><ele>928.0</ele><time>2026-04-06T15:37:52.999Z</time></trkpt><trkpt lat="46.281985917088754" lon="6.725778694871083"><ele>927.5999999999999</ele><time>2026-04-06T15:37:53.999Z</time></trkpt><trkpt lat="46.282008912787155" lon="6.725614667924797"><ele>927.1999999999999</ele><time>2026-04-06T15:37:54.999Z</time></trkpt><trkpt lat="46.28201351238601" lon="6.725460554963622"><ele>926.8</ele><time>2026-04-06T15:37:55.999Z</time></trkpt><trkpt lat="46.28203653870283" lon="6.725336779757048"><ele>926.4</ele><time>2026-04-06T15:37:56.999Z</time></trkpt><trkpt lat="46.28205400225225" lon="6.725198101257744"><ele>926.0</ele><time>2026-04-06T15:37:57.999Z</time></trkpt><trkpt lat="46.282073478893736" lon="6.725033627565341"><ele>925.5</ele><time>2026-04-06T15:37:58.999Z</time></trkpt><trkpt lat="46.2820865936588" lon="6.724864182693939"><ele>925.0</ele><time>2026-04-06T15:37:59.999Z</time></trkpt><trkpt lat="46.28209681709091" lon="6.7246856653162865"><ele>924.5</ele><time>2026-04-06T15:38:00.999Z</time></trkpt><trkpt lat="46.28209010385589" lon="6.724501397302396"><ele>924.0</ele><time>2026-04-06T15:38:01.999Z</time></trkpt><trkpt lat="46.28206220882711" lon="6.724288800122404"><ele>925.0</ele><time>2026-04-06T15:38:03Z</time></trkpt><trkpt lat="46.28202760540825" lon="6.724072455464631"><ele>926.0</ele><time>2026-04-06T15:38:04Z</time></trkpt><trkpt lat="46.281989485371604" lon="6.723904898588569"><ele>927.0</ele><time>2026-04-06T15:38:05Z</time></trkpt><trkpt lat="46.28195121351003" lon="6.723699394305832"><ele>928.0</ele><time>2026-04-06T15:38:06Z</time></trkpt><trkpt lat="46.28190036730892" lon="6.723487230663545"><ele>929.25</ele><time>2026-04-06T15:38:07Z</time></trkpt><trkpt lat="46.281863361733535" lon="6.723311230169481"><ele>930.5</ele><time>2026-04-06T15:38:08Z</time></trkpt><trkpt lat="46.281821187427795" lon="6.72316147810005"><ele>931.75</ele><time>2026-04-06T15:38:09Z</time></trkpt><trkpt lat="46.281799636070645" lon="6.723003535561063"><ele>933.0</ele><time>2026-04-06T15:38:10Z</time></trkpt><trkpt lat="46.281748223957635" lon="6.722872323184422"><ele>935.0</ele><time>2026-04-06T15:38:11Z</time></trkpt><trkpt lat="46.28170577932617" lon="6.722723693487088"><ele>937.0</ele><time>2026-04-06T15:38:12Z</time></trkpt><trkpt lat="46.28163512912179" lon="6.7225414716683325"><ele>939.0</ele><time>2026-04-06T15:38:13Z</time></trkpt><trkpt lat="46.281548357348704" lon="6.722348945641242"><ele>941.0</ele><time>2026-04-06T15:38:14Z</time></trkpt><trkpt lat="46.28145693172068" lon="6.722179446747073"><ele>937.5</ele><time>2026-04-06T15:38:15Z</time></trkpt><trkpt lat="46.28136566147818" lon="6.722041046351836"><ele>934.0</ele><time>2026-04-06T15:38:16Z</time></trkpt><trkpt lat="46.281273277880416" lon="6.721916221138329"><ele>930.5</ele><time>2026-04-06T15:38:17Z</time></trkpt><trkpt lat="46.28118645311267" lon="6.721770859750106"><ele>927.0</ele><time>2026-04-06T15:38:18Z</time></trkpt><trkpt lat="46.28107571059006" lon="6.721615778028066"><ele>927.0</ele><time>2026-04-06T15:38:19Z</time></trkpt><trkpt lat="46.28098373798725" lon="6.721483560994352"><ele>927.0</ele><time>2026-04-06T15:38:20Z</time></trkpt><trkpt lat="46.280912372844895" lon="6.7213757059549195"><ele>927.0</ele><time>2026-04-06T15:38:21Z</time></trkpt><trkpt lat="46.280842768856715" lon="6.721295732532495"><ele>927.0</ele><time>2026-04-06T15:38:22Z</time></trkpt><trkpt lat="46.280796988388786" lon="6.721208504247039"><ele>927.0</ele><time>2026-04-06T15:38:23Z</time></trkpt><trkpt lat="46.28075500075526" lon="6.721122473475085"><ele>927.6</ele><time>2026-04-06T15:38:24Z</time></trkpt><trkpt lat="46.28073406560322" lon="6.721020256601719"><ele>928.2</ele><time>2026-04-06T15:38:25Z</time></trkpt><trkpt lat="46.28070621833306" lon="6.720938188818365"><ele>928.8</ele><time>2026-04-06T15:38:26Z</time></trkpt><trkpt lat="46.280670863619726" lon="6.720808824602119"><ele>929.4</ele><time>2026-04-06T15:38:28Z</time></trkpt><trkpt lat="46.28064990479381" lon="6.720636211541295"><ele>930.0</ele><time>2026-04-06T15:38:30Z</time></trkpt><trkpt lat="46.280648340744776" lon="6.720464677117484"><ele>930.0</ele><time>2026-04-06T15:38:31Z</time></trkpt><trkpt lat="46.280647143000685" lon="6.72025059989962"><ele>930.0</ele><time>2026-04-06T15:38:32Z</time></trkpt><trkpt lat="46.28066194943691" lon="6.720060878453057"><ele>930.0</ele><time>2026-04-06T15:38:33Z</time></trkpt><trkpt lat="46.28066282422797" lon="6.719899752992279"><ele>930.0</ele><time>2026-04-06T15:38:34Z</time></trkpt><trkpt lat="46.28065940680444" lon="6.719753934273377"><ele>930.6666666666666</ele><time>2026-04-06T15:38:35Z</time></trkpt><trkpt lat="46.280672972217516" lon="6.719607471795317"><ele>931.3333333333333</ele><time>2026-04-06T15:38:36Z</time></trkpt><trkpt lat="46.28072450160774" lon="6.719477728502975"><ele>932.0</ele><time>2026-04-06T15:38:37Z</time></trkpt><trkpt lat="46.28076050765539" lon="6.719370949442412"><ele>932.6666666666666</ele><time>2026-04-06T15:38:38Z</time></trkpt><trkpt lat="46.28078463257525" lon="6.719284123356887"><ele>933.3333333333333</ele><time>2026-04-06T15:38:39Z</time></trkpt><trkpt lat="46.28077506618578" lon="6.7191893119714905"><ele>934.0</ele><time>2026-04-06T15:38:40Z</time></trkpt><trkpt lat="46.28080803878435" lon="6.719097402226609"><ele>932.4000000000001</ele><time>2026-04-06T15:38:41Z</time></trkpt><trkpt lat="46.280834028827655" lon="6.719003833053423"><ele>930.8000000000001</ele><time>2026-04-06T15:38:42Z</time></trkpt><trkpt lat="46.280860738391596" lon="6.718898705288055"><ele>929.1999999999999</ele><time>2026-04-06T15:38:43Z</time></trkpt><trkpt lat="46.280886671359724" lon="6.718764242517094"><ele>927.5999999999999</ele><time>2026-04-06T15:38:44Z</time></trkpt><trkpt lat="46.28092396043057" lon="6.718586146262365"><ele>926.0</ele><time>2026-04-06T15:38:45Z</time></trkpt><trkpt lat="46.28094298717923" lon="6.71835991735284"><ele>925.6666666666667</ele><time>2026-04-06T15:38:46Z</time></trkpt><trkpt lat="46.28094296540573" lon="6.718071718587698"><ele>925.3333333333333</ele><time>2026-04-06T15:38:47Z</time></trkpt><trkpt lat="46.28092549646923" lon="6.717789994893533"><ele>925.0</ele><time>2026-04-06T15:38:48Z</time></trkpt><trkpt lat="46.28090935271658" lon="6.717516657552577"><ele>927.3333333333333</ele><time>2026-04-06T15:38:49Z</time></trkpt><trkpt lat="46.280899377741186" lon="6.717275360965207"><ele>929.6666666666667</ele><time>2026-04-06T15:38:50Z</time></trkpt><trkpt lat="46.28089584075281" lon="6.717035322295946"><ele>932.0</ele><time>2026-04-06T15:38:51Z</time></trkpt><trkpt lat="46.28092348625888" lon="6.716773702047434"><ele>932.6666666666667</ele><time>2026-04-06T15:38:52Z</time></trkpt><trkpt lat="46.28096337156912" lon="6.716508499610882"><ele>933.3333333333333</ele><time>2026-04-06T15:38:53Z</time></trkpt><trkpt lat="46.28100589284377" lon="6.716266723692674"><ele>934.0</ele><time>2026-04-06T15:38:54Z</time></trkpt><trkpt lat="46.28102969374042" lon="6.716059305293557"><ele>931.75</ele><time>2026-04-06T15:38:55Z</time></trkpt><trkpt lat="46.281032712893506" lon="6.715851374785007"><ele>929.5</ele><time>2026-04-06T15:38:56Z</time></trkpt><trkpt lat="46.2810102330042" lon="6.715631022682005"><ele>927.25</ele><time>2026-04-06T15:38:57Z</time></trkpt><trkpt lat="46.28096590612674" lon="6.7154230659807075"><ele>925.0</ele><time>2026-04-06T15:38:58Z</time></trkpt><trkpt lat="46.28091472824654" lon="6.715212808273153"><ele>924.3333333333333</ele><time>2026-04-06T15:38:59Z</time></trkpt><trkpt lat="46.2808512968111" lon="6.71500845713397"><ele>923.6666666666667</ele><time>2026-04-06T15:39:00Z</time></trkpt><trkpt lat="46.28082797311915" lon="6.7147934961485864"><ele>923.0</ele><time>2026-04-06T15:39:01Z</time></trkpt><trkpt lat="46.28081829337293" lon="6.714567280101574"><ele>922.3333333333334</ele><time>2026-04-06T15:39:02Z</time></trkpt><trkpt lat="46.28085301326896" lon="6.714344663980986"><ele>921.6666666666667</ele><time>2026-04-06T15:39:03Z</time></trkpt><trkpt lat="46.28091267074278" lon="6.714095399157581"><ele>921.0</ele><time>2026-04-06T15:39:04Z</time></trkpt><trkpt lat="46.28095652907327" lon="6.7137906805127106"><ele>920.0</ele><time>2026-04-06T15:39:05Z</time></trkpt><trkpt lat="46.28101338468022" lon="6.713465794724214"><ele>919.0</ele><time>2026-04-06T15:39:06Z</time></trkpt><trkpt lat="46.28105100013082" lon="6.713122280088695"><ele>919.0</ele><time>2026-04-06T15:39:07Z</time></trkpt><trkpt lat="46.281070807163594" lon="6.712784569950516"><ele>919.0</ele><time>2026-04-06T15:39:08Z</time></trkpt><trkpt lat="46.28107211338839" lon="6.712466530473988"><ele>919.0</ele><time>2026-04-06T15:39:09Z</time></trkpt><trkpt lat="46.281064618147354" lon="6.712160886291101"><ele>919.0</ele><time>2026-04-06T15:39:10Z</time></trkpt><trkpt lat="46.28104768517093" lon="6.711870579268781"><ele>919.0</ele><time>2026-04-06T15:39:11Z</time></trkpt><trkpt lat="46.28102650616925" lon="6.711576209173396"><ele>919.3333333333333</ele><time>2026-04-06T15:39:12Z</time></trkpt><trkpt lat="46.28100636419829" lon="6.711260746739216"><ele>919.6666666666667</ele><time>2026-04-06T15:39:13Z</time></trkpt><trkpt lat="46.28098185163309" lon="6.710967042267337"><ele>920.0</ele><time>2026-04-06T15:39:14Z</time></trkpt><trkpt lat="46.280955116267094" lon="6.710689833642573"><ele>920.0</ele><time>2026-04-06T15:39:15Z</time></trkpt><trkpt lat="46.28094780644243" lon="6.710381293315545"><ele>920.0</ele><time>2026-04-06T15:39:16Z</time></trkpt><trkpt lat="46.2809304773271" lon="6.710068097948273"><ele>920.0</ele><time>2026-04-06T15:39:17Z</time></trkpt><trkpt lat="46.28092072887006" lon="6.7097821857041975"><ele>919.6666666666667</ele><time>2026-04-06T15:39:18Z</time></trkpt><trkpt lat="46.28092153081381" lon="6.709512807950307"><ele>919.3333333333333</ele><time>2026-04-06T15:39:19Z</time></trkpt><trkpt lat="46.28093234834718" lon="6.709260187949265"><ele>919.0</ele><time>2026-04-06T15:39:20Z</time></trkpt><trkpt lat="46.28095003749723" lon="6.7090353656718875"><ele>920.75</ele><time>2026-04-06T15:39:21Z</time></trkpt><trkpt lat="46.280974851029356" lon="6.708827417334474"><ele>922.5</ele><time>2026-04-06T15:39:22Z</time></trkpt><trkpt lat="46.28100852145165" lon="6.708619779062866"><ele>924.25</ele><time>2026-04-06T15:39:23Z</time></trkpt><trkpt lat="46.28105064928708" lon="6.708420001489178"><ele>926.0</ele><time>2026-04-06T15:39:24Z</time></trkpt><trkpt lat="46.28110064626026" lon="6.708222955181283"><ele>927.0</ele><time>2026-04-06T15:39:25Z</time></trkpt><trkpt lat="46.28116158969147" lon="6.708011807802534"><ele>928.0</ele><time>2026-04-06T15:39:26Z</time></trkpt><trkpt lat="46.28122943362342" lon="6.707788611894647"><ele>929.0</ele><time>2026-04-06T15:39:27Z</time></trkpt><trkpt lat="46.281311302104385" lon="6.707523915824559"><ele>929.3333333333334</ele><time>2026-04-06T15:39:28Z</time></trkpt><trkpt lat="46.28136504069961" lon="6.707229856619558"><ele>929.6666666666667</ele><time>2026-04-06T15:39:29Z</time></trkpt><trkpt lat="46.281444763785615" lon="6.706981808579771"><ele>930.0</ele><time>2026-04-06T15:39:30Z</time></trkpt><trkpt lat="46.28151015526554" lon="6.70677590363243"><ele>927.0</ele><time>2026-04-06T15:39:31Z</time></trkpt><trkpt lat="46.28157694988761" lon="6.706589719896714"><ele>924.0</ele><time>2026-04-06T15:39:32Z</time></trkpt><trkpt lat="46.28166845291839" lon="6.706424750388596"><ele>921.0</ele><time>2026-04-06T15:39:33Z</time></trkpt><trkpt lat="46.281785210705365" lon="6.706266672480824"><ele>921.0</ele><time>2026-04-06T15:39:34Z</time></trkpt><trkpt lat="46.28192433938052" lon="6.706113905024475"><ele>921.0</ele><time>2026-04-06T15:39:35Z</time></trkpt><trkpt lat="46.28207630886126" lon="6.705985938281873"><ele>921.0</ele><time>2026-04-06T15:39:36Z</time></trkpt><trkpt lat="46.282196184012136" lon="6.705803692702249"><ele>922.0</ele><time>2026-04-06T15:39:37Z</time></trkpt><trkpt lat="46.282303748772044" lon="6.705591846516972"><ele>923.0</ele><time>2026-04-06T15:39:38Z</time></trkpt><trkpt lat="46.2823944848769" lon="6.705387906444146"><ele>924.0</ele><time>2026-04-06T15:39:39Z</time></trkpt><trkpt lat="46.28247767840466" lon="6.705194776193089"><ele>921.3333333333333</ele><time>2026-04-06T15:39:40Z</time></trkpt><trkpt lat="46.282562309843215" lon="6.704999393337485"><ele>918.6666666666666</ele><time>2026-04-06T15:39:41Z</time></trkpt><trkpt lat="46.28265421805541" lon="6.704795833257719"><ele>916.0</ele><time>2026-04-06T15:39:42Z</time></trkpt><trkpt lat="46.28275121611576" lon="6.7045928341200485"><ele>916.0</ele><time>2026-04-06T15:39:43Z</time></trkpt><trkpt lat="46.28285046349018" lon="6.704407816776819"><ele>916.0</ele><time>2026-04-06T15:39:43.999Z</time></trkpt><trkpt lat="46.282921109431385" lon="6.704208165523999"><ele>916.0</ele><time>2026-04-06T15:39:44.999Z</time></trkpt><trkpt lat="46.283030377387085" lon="6.704059969635367"><ele>915.6666666666666</ele><time>2026-04-06T15:39:45.999Z</time></trkpt><trkpt lat="46.28314982346892" lon="6.703904509545159"><ele>915.3333333333333</ele><time>2026-04-06T15:39:46.999Z</time></trkpt><trkpt lat="46.283273440168294" lon="6.703708955682189"><ele>915.0</ele><time>2026-04-06T15:39:47.999Z</time></trkpt><trkpt lat="46.28343370408375" lon="6.703503317357287"><ele>915.0</ele><time>2026-04-06T15:39:48.999Z</time></trkpt><trkpt lat="46.2835501015629" lon="6.703213812738757"><ele>915.0</ele><time>2026-04-06T15:39:49.999Z</time></trkpt><trkpt lat="46.28365242785558" lon="6.702889690022603"><ele>914.0</ele><time>2026-04-06T15:39:50.999Z</time></trkpt><trkpt lat="46.283747748864734" lon="6.702565003130877"><ele>913.0</ele><time>2026-04-06T15:39:51.999Z</time></trkpt><trkpt lat="46.28380807434759" lon="6.70225789814442"><ele>913.0</ele><time>2026-04-06T15:39:52.999Z</time></trkpt><trkpt lat="46.28387813992422" lon="6.701981304386285"><ele>913.0</ele><time>2026-04-06T15:39:53.999Z</time></trkpt><trkpt lat="46.28391681340899" lon="6.701704137423589"><ele>913.0</ele><time>2026-04-06T15:39:54.999Z</time></trkpt><trkpt lat="46.283931299822086" lon="6.701433689345748"><ele>912.6666666666666</ele><time>2026-04-06T15:39:55.999Z</time></trkpt><trkpt lat="46.28391624243264" lon="6.70119425839683"><ele>912.3333333333333</ele><time>2026-04-06T15:39:56.999Z</time></trkpt><trkpt lat="46.28393492563307" lon="6.700964766461812"><ele>912.0</ele><time>2026-04-06T15:39:57.999Z</time></trkpt><trkpt lat="46.28395349342357" lon="6.700752520000922"><ele>912.0</ele><time>2026-04-06T15:39:58.999Z</time></trkpt><trkpt lat="46.28400344459888" lon="6.700565131549986"><ele>912.0</ele><time>2026-04-06T15:39:59.999Z</time></trkpt><trkpt lat="46.28407721724628" lon="6.700390691606225"><ele>912.0</ele><time>2026-04-06T15:40:00.999Z</time></trkpt><trkpt lat="46.284177704101104" lon="6.700188589986044"><ele>912.3333333333333</ele><time>2026-04-06T15:40:01.999Z</time></trkpt><trkpt lat="46.2842927903399" lon="6.699965895463895"><ele>912.6666666666666</ele><time>2026-04-06T15:40:02.999Z</time></trkpt><trkpt lat="46.28441672360265" lon="6.699722594522488"><ele>913.0</ele><time>2026-04-06T15:40:03.999Z</time></trkpt><trkpt lat="46.284553605329755" lon="6.699453355596478"><ele>912.3333333333333</ele><time>2026-04-06T15:40:04.999Z</time></trkpt><trkpt lat="46.284686931341305" lon="6.699186634598953"><ele>911.6666666666667</ele><time>2026-04-06T15:40:05.999Z</time></trkpt><trkpt lat="46.284807118320366" lon="6.6989469157332024"><ele>911.0</ele><time>2026-04-06T15:40:06.999Z</time></trkpt><trkpt lat="46.28492004936405" lon="6.698732766329218"><ele>911.6666666666667</ele><time>2026-04-06T15:40:08Z</time></trkpt><trkpt lat="46.28503942419329" lon="6.698545754274165"><ele>912.3333333333333</ele><time>2026-04-06T15:40:09Z</time></trkpt><trkpt lat="46.285169613484875" lon="6.698395718133986"><ele>913.0</ele><time>2026-04-06T15:40:10Z</time></trkpt><trkpt lat="46.28528436622692" lon="6.698238645826235"><ele>913.0</ele><time>2026-04-06T15:40:11Z</time></trkpt><trkpt lat="46.285391459248935" lon="6.698105829443223"><ele>913.0</ele><time>2026-04-06T15:40:12Z</time></trkpt><trkpt lat="46.28547833781424" lon="6.697984524377471"><ele>913.0</ele><time>2026-04-06T15:40:13Z</time></trkpt><trkpt lat="46.28552349739374" lon="6.697818599579157"><ele>913.0</ele><time>2026-04-06T15:40:14Z</time></trkpt><trkpt lat="46.285539921710665" lon="6.697653051648707"><ele>911.5</ele><time>2026-04-06T15:40:15Z</time></trkpt><trkpt lat="46.28552480821807" lon="6.697473872359897"><ele>910.0</ele><time>2026-04-06T15:40:16Z</time></trkpt><trkpt lat="46.28549109269353" lon="6.697271068846116"><ele>908.5</ele><time>2026-04-06T15:40:17Z</time></trkpt><trkpt lat="46.28548206614431" lon="6.6970561887911275"><ele>907.0</ele><time>2026-04-06T15:40:18Z</time></trkpt><trkpt lat="46.28548292246345" lon="6.696869651463214"><ele>906.5</ele><time>2026-04-06T15:40:19Z</time></trkpt><trkpt lat="46.28550980060724" lon="6.696698138890466"><ele>906.0</ele><time>2026-04-06T15:40:20Z</time></trkpt><trkpt lat="46.28559716687127" lon="6.69655998837933"><ele>905.5</ele><time>2026-04-06T15:40:21Z</time></trkpt><trkpt lat="46.285705111130916" lon="6.69645975160587"><ele>905.0</ele><time>2026-04-06T15:40:22Z</time></trkpt><trkpt lat="46.285835968451714" lon="6.696337590828427"><ele>905.0</ele><time>2026-04-06T15:40:23Z</time></trkpt><trkpt lat="46.2859724048464" lon="6.696212566251218"><ele>905.0</ele><time>2026-04-06T15:40:24Z</time></trkpt><trkpt lat="46.28609175890382" lon="6.69609364729758"><ele>905.0</ele><time>2026-04-06T15:40:25Z</time></trkpt><trkpt lat="46.286207200388176" lon="6.695976575865894"><ele>905.0</ele><time>2026-04-06T15:40:26Z</time></trkpt><trkpt lat="46.28632311581027" lon="6.695865237773382"><ele>912.6666666666667</ele><time>2026-04-06T15:40:27Z</time></trkpt><trkpt lat="46.28644742089807" lon="6.69575182334327"><ele>920.3333333333333</ele><time>2026-04-06T15:40:28Z</time></trkpt><trkpt lat="46.286589809523356" lon="6.6956515916546335"><ele>928.0</ele><time>2026-04-06T15:40:29Z</time></trkpt><trkpt lat="46.28676349180969" lon="6.695561712405101"><ele>928.0</ele><time>2026-04-06T15:40:30Z</time></trkpt><trkpt lat="46.286932729590276" lon="6.695476916172805"><ele>928.0</ele><time>2026-04-06T15:40:31Z</time></trkpt><trkpt lat="46.28708504392782" lon="6.6954005995383445"><ele>928.0</ele><time>2026-04-06T15:40:32Z</time></trkpt><trkpt lat="46.28722836674289" lon="6.695328789929206"><ele>922.5</ele><time>2026-04-06T15:40:33Z</time></trkpt><trkpt lat="46.28736062058839" lon="6.695252265763748"><ele>917.0</ele><time>2026-04-06T15:40:34Z</time></trkpt><trkpt lat="46.287496864786604" lon="6.695170357515511"><ele>911.5</ele><time>2026-04-06T15:40:35Z</time></trkpt><trkpt lat="46.28762809208553" lon="6.695065464363423"><ele>906.0</ele><time>2026-04-06T15:40:36Z</time></trkpt><trkpt lat="46.287740190643326" lon="6.694854564447806"><ele>906.0</ele><time>2026-04-06T15:40:37Z</time></trkpt><trkpt lat="46.28786983440292" lon="6.694642934154636"><ele>906.0</ele><time>2026-04-06T15:40:38Z</time></trkpt><trkpt lat="46.287985321647206" lon="6.694451125080102"><ele>906.0</ele><time>2026-04-06T15:40:39Z</time></trkpt><trkpt lat="46.28807280535189" lon="6.694267513379794"><ele>907.3333333333333</ele><time>2026-04-06T15:40:40Z</time></trkpt><trkpt lat="46.28812299340843" lon="6.694064538177996"><ele>908.6666666666666</ele><time>2026-04-06T15:40:41Z</time></trkpt><trkpt lat="46.288147633150054" lon="6.693830448204697"><ele>910.0</ele><time>2026-04-06T15:40:42Z</time></trkpt><trkpt lat="46.28813923778864" lon="6.693565985172904"><ele>910.0</ele><time>2026-04-06T15:40:43Z</time></trkpt><trkpt lat="46.28810853302832" lon="6.693318042324951"><ele>910.0</ele><time>2026-04-06T15:40:44Z</time></trkpt><trkpt lat="46.288045725757335" lon="6.6930923982742625"><ele>910.0</ele><time>2026-04-06T15:40:45Z</time></trkpt><trkpt lat="46.28793983396615" lon="6.692891387457437"><ele>904.3333333333333</ele><time>2026-04-06T15:40:46Z</time></trkpt><trkpt lat="46.28780531957853" lon="6.6927161452844866"><ele>898.6666666666667</ele><time>2026-04-06T15:40:47Z</time></trkpt><trkpt lat="46.28766615307821" lon="6.692583226122041"><ele>893.0</ele><time>2026-04-06T15:40:48Z</time></trkpt><trkpt lat="46.28756011039005" lon="6.692430331433153"><ele>893.0</ele><time>2026-04-06T15:40:49Z</time></trkpt><trkpt lat="46.28749481189482" lon="6.692246189863169"><ele>893.0</ele><time>2026-04-06T15:40:50Z</time></trkpt><trkpt lat="46.2874542604768" lon="6.69202842551437"><ele>893.0</ele><time>2026-04-06T15:40:51Z</time></trkpt><trkpt lat="46.287432332859765" lon="6.6917719361597126"><ele>892.6666666666667</ele><time>2026-04-06T15:40:52Z</time></trkpt><trkpt lat="46.28742022993332" lon="6.691504699890468"><ele>892.3333333333333</ele><time>2026-04-06T15:40:53Z</time></trkpt><trkpt lat="46.28742090927555" lon="6.691262111204373"><ele>892.0</ele><time>2026-04-06T15:40:54Z</time></trkpt><trkpt lat="46.28743377880041" lon="6.6910285266765"><ele>891.3333333333333</ele><time>2026-04-06T15:40:55Z</time></trkpt><trkpt lat="46.28746703375662" lon="6.690799799553902"><ele>890.6666666666667</ele><time>2026-04-06T15:40:56Z</time></trkpt><trkpt lat="46.28752621085058" lon="6.690591978314747"><ele>890.0</ele><time>2026-04-06T15:40:57Z</time></trkpt><trkpt lat="46.287616765558276" lon="6.690396571712466"><ele>888.6666666666667</ele><time>2026-04-06T15:40:58Z</time></trkpt><trkpt lat="46.28774979516334" lon="6.690180415880221"><ele>887.3333333333333</ele><time>2026-04-06T15:40:59Z</time></trkpt><trkpt lat="46.28791012708741" lon="6.6899501264883465"><ele>886.0</ele><time>2026-04-06T15:41:00Z</time></trkpt><trkpt lat="46.288085287873635" lon="6.689697043996629"><ele>885.0</ele><time>2026-04-06T15:41:01Z</time></trkpt><trkpt lat="46.28827097795984" lon="6.689423787257911"><ele>884.0</ele><time>2026-04-06T15:41:02Z</time></trkpt><trkpt lat="46.28846222362721" lon="6.689135378263811"><ele>884.0</ele><time>2026-04-06T15:41:03Z</time></trkpt><trkpt lat="46.28865545968093" lon="6.688810098465364"><ele>884.0</ele><time>2026-04-06T15:41:04Z</time></trkpt><trkpt lat="46.28885347733579" lon="6.6885123835202585"><ele>885.0</ele><time>2026-04-06T15:41:05Z</time></trkpt><trkpt lat="46.28908138756746" lon="6.688215780224556"><ele>886.0</ele><time>2026-04-06T15:41:06Z</time></trkpt><trkpt lat="46.28931896254579" lon="6.687872338138717"><ele>888.0</ele><time>2026-04-06T15:41:07Z</time></trkpt><trkpt lat="46.289564509566624" lon="6.687511379106222"><ele>890.0</ele><time>2026-04-06T15:41:08Z</time></trkpt><trkpt lat="46.28981576157488" lon="6.687140470449638"><ele>885.5</ele><time>2026-04-06T15:41:09Z</time></trkpt><trkpt lat="46.29004264077262" lon="6.686799977258223"><ele>881.0</ele><time>2026-04-06T15:41:10Z</time></trkpt><trkpt lat="46.29026139689645" lon="6.68650015781096"><ele>881.0</ele><time>2026-04-06T15:41:11Z</time></trkpt><trkpt lat="46.29048121799528" lon="6.686225082928135"><ele>881.0</ele><time>2026-04-06T15:41:12Z</time></trkpt><trkpt lat="46.29071097533624" lon="6.68596716694597"><ele>879.0</ele><time>2026-04-06T15:41:13Z</time></trkpt><trkpt lat="46.290957349047524" lon="6.6857143174133515"><ele>877.0</ele><time>2026-04-06T15:41:14Z</time></trkpt><trkpt lat="46.29121068584612" lon="6.6854639294145635"><ele>874.5</ele><time>2026-04-06T15:41:15Z</time></trkpt><trkpt lat="46.29145855287424" lon="6.685218947227039"><ele>872.0</ele><time>2026-04-06T15:41:16Z</time></trkpt><trkpt lat="46.29169325449362" lon="6.6849869773511355"><ele>872.0</ele><time>2026-04-06T15:41:17Z</time></trkpt><trkpt lat="46.29193767122713" lon="6.684745405522431"><ele>872.0</ele><time>2026-04-06T15:41:18Z</time></trkpt><trkpt lat="46.2921847408957" lon="6.684499310739605"><ele>870.0</ele><time>2026-04-06T15:41:19Z</time></trkpt><trkpt lat="46.29244060145797" lon="6.684241059018832"><ele>868.0</ele><time>2026-04-06T15:41:20Z</time></trkpt><trkpt lat="46.292663354987404" lon="6.684014766445881"><ele>868.0</ele><time>2026-04-06T15:41:21Z</time></trkpt><trkpt lat="46.29286933768209" lon="6.683805510891791"><ele>868.0</ele><time>2026-04-06T15:41:22Z</time></trkpt><trkpt lat="46.29306502722254" lon="6.683594738428092"><ele>869.0</ele><time>2026-04-06T15:41:23Z</time></trkpt><trkpt lat="46.29324271819905" lon="6.683421979113194"><ele>870.0</ele><time>2026-04-06T15:41:24Z</time></trkpt><trkpt lat="46.2934176458445" lon="6.683252387442651"><ele>871.0</ele><time>2026-04-06T15:41:25Z</time></trkpt><trkpt lat="46.293580923283045" lon="6.68309128998106"><ele>871.0</ele><time>2026-04-06T15:41:26Z</time></trkpt><trkpt lat="46.293736940725275" lon="6.682937227975459"><ele>871.0</ele><time>2026-04-06T15:41:27Z</time></trkpt><trkpt lat="46.293885265627175" lon="6.682785226667142"><ele>871.0</ele><time>2026-04-06T15:41:28Z</time></trkpt><trkpt lat="46.29403913664741" lon="6.6826162214142935"><ele>873.0</ele><time>2026-04-06T15:41:29Z</time></trkpt><trkpt lat="46.29421180852744" lon="6.6824050254165615"><ele>875.0</ele><time>2026-04-06T15:41:30Z</time></trkpt><trkpt lat="46.2943833986482" lon="6.682141864513013"><ele>867.5</ele><time>2026-04-06T15:41:31Z</time></trkpt><trkpt lat="46.294551309340825" lon="6.6818474473815295"><ele>860.0</ele><time>2026-04-06T15:41:32Z</time></trkpt><trkpt lat="46.29472234751546" lon="6.6815285385897045"><ele>864.0</ele><time>2026-04-06T15:41:33Z</time></trkpt><trkpt lat="46.2948952126009" lon="6.681185745921321"><ele>868.0</ele><time>2026-04-06T15:41:34Z</time></trkpt><trkpt lat="46.29507655749831" lon="6.680814734310018"><ele>868.0</ele><time>2026-04-06T15:41:35Z</time></trkpt><trkpt lat="46.29526133530619" lon="6.680435442544134"><ele>868.0</ele><time>2026-04-06T15:41:36Z</time></trkpt><trkpt lat="46.2954213917626" lon="6.680093455231961"><ele>862.5</ele><time>2026-04-06T15:41:37Z</time></trkpt><trkpt lat="46.29555340856104" lon="6.67977474496815"><ele>857.0</ele><time>2026-04-06T15:41:38Z</time></trkpt><trkpt lat="46.295647231279375" lon="6.679467737678901"><ele>859.0</ele><time>2026-04-06T15:41:39Z</time></trkpt><trkpt lat="46.29573204141819" lon="6.6791840460438"><ele>861.0</ele><time>2026-04-06T15:41:40Z</time></trkpt><trkpt lat="46.29583131641903" lon="6.678889183638515"><ele>863.0</ele><time>2026-04-06T15:41:41Z</time></trkpt><trkpt lat="46.295973258049514" lon="6.6786169223096845"><ele>859.6666666666667</ele><time>2026-04-06T15:41:42Z</time></trkpt><trkpt lat="46.2961143514017" lon="6.678344232095107"><ele>856.3333333333333</ele><time>2026-04-06T15:41:43Z</time></trkpt><trkpt lat="46.29624755592406" lon="6.678104301972418"><ele>853.0</ele><time>2026-04-06T15:41:44Z</time></trkpt><trkpt lat="46.29636000578027" lon="6.677858941185454"><ele>856.0</ele><time>2026-04-06T15:41:45Z</time></trkpt><trkpt lat="46.29647823109994" lon="6.67763783645374"><ele>859.0</ele><time>2026-04-06T15:41:46Z</time></trkpt><trkpt lat="46.2965801889364" lon="6.677409090282811"><ele>862.0</ele><time>2026-04-06T15:41:47Z</time></trkpt><trkpt lat="46.296658457208665" lon="6.677177098222047"><ele>862.0</ele><time>2026-04-06T15:41:48Z</time></trkpt><trkpt lat="46.29671545324888" lon="6.67694194879808"><ele>862.0</ele><time>2026-04-06T15:41:49Z</time></trkpt><trkpt lat="46.296772026992286" lon="6.676709234440089"><ele>862.0</ele><time>2026-04-06T15:41:50Z</time></trkpt><trkpt lat="46.29682344136359" lon="6.676487096241338"><ele>860.0</ele><time>2026-04-06T15:41:51Z</time></trkpt><trkpt lat="46.29689734721127" lon="6.676285773038805"><ele>858.0</ele><time>2026-04-06T15:41:52Z</time></trkpt><trkpt lat="46.29697929022569" lon="6.67610571769533"><ele>856.0</ele><time>2026-04-06T15:41:53Z</time></trkpt><trkpt lat="46.2970517263262" lon="6.6759350466659"><ele>854.0</ele><time>2026-04-06T15:41:54Z</time></trkpt><trkpt lat="46.2971125273048" lon="6.675759561720292"><ele>854.0</ele><time>2026-04-06T15:41:55Z</time></trkpt><trkpt lat="46.29717356833313" lon="6.6755567880184365"><ele>854.0</ele><time>2026-04-06T15:41:56Z</time></trkpt><trkpt lat="46.29722817578898" lon="6.6753662171571815"><ele>854.0</ele><time>2026-04-06T15:41:57Z</time></trkpt><trkpt lat="46.29727918895509" lon="6.67518072080244"><ele>854.0</ele><time>2026-04-06T15:41:57.999Z</time></trkpt><trkpt lat="46.29733188114516" lon="6.675005053388852"><ele>854.0</ele><time>2026-04-06T15:41:58.999Z</time></trkpt><trkpt lat="46.29738821164009" lon="6.674833910933469"><ele>854.0</ele><time>2026-04-06T15:41:59.999Z</time></trkpt><trkpt lat="46.29745010194885" lon="6.674669650672666"><ele>854.0</ele><time>2026-04-06T15:42:00.999Z</time></trkpt><trkpt lat="46.29752414681021" lon="6.674530038038449"><ele>854.0</ele><time>2026-04-06T15:42:01.999Z</time></trkpt><trkpt lat="46.29762415578247" lon="6.674409047858241"><ele>852.25</ele><time>2026-04-06T15:42:02.999Z</time></trkpt><trkpt lat="46.29774009191477" lon="6.6743142531772"><ele>850.5</ele><time>2026-04-06T15:42:03.999Z</time></trkpt><trkpt lat="46.29786946329516" lon="6.6742494653361835"><ele>848.75</ele><time>2026-04-06T15:42:04.999Z</time></trkpt><trkpt lat="46.29799201331787" lon="6.674222825062901"><ele>847.0</ele><time>2026-04-06T15:42:05.999Z</time></trkpt><trkpt lat="46.298123086376926" lon="6.674220436098491"><ele>846.0</ele><time>2026-04-06T15:42:06.999Z</time></trkpt><trkpt lat="46.29827707263581" lon="6.67422808481147"><ele>845.0</ele><time>2026-04-06T15:42:07.999Z</time></trkpt><trkpt lat="46.29846076815152" lon="6.67423920935016"><ele>844.0</ele><time>2026-04-06T15:42:08.999Z</time></trkpt><trkpt lat="46.29865799499961" lon="6.674249193656491"><ele>844.0</ele><time>2026-04-06T15:42:09.999Z</time></trkpt><trkpt lat="46.29887979465404" lon="6.674261490423025"><ele>844.0</ele><time>2026-04-06T15:42:10.999Z</time></trkpt><trkpt lat="46.2991172011922" lon="6.674255548879813"><ele>843.3333333333333</ele><time>2026-04-06T15:42:11.999Z</time></trkpt><trkpt lat="46.29933212760038" lon="6.674310664588874"><ele>842.6666666666667</ele><time>2026-04-06T15:42:12.999Z</time></trkpt><trkpt lat="46.299518634079256" lon="6.674280756511045"><ele>842.0</ele><time>2026-04-06T15:42:14Z</time></trkpt><trkpt lat="46.29969981957608" lon="6.67427815097525"><ele>839.6666666666667</ele><time>2026-04-06T15:42:15.001Z</time></trkpt><trkpt lat="46.2998834392442" lon="6.674210660996021"><ele>837.3333333333333</ele><time>2026-04-06T15:42:16Z</time></trkpt><trkpt lat="46.30005247011582" lon="6.674076345902523"><ele>835.0</ele><time>2026-04-06T15:42:17Z</time></trkpt><trkpt lat="46.30022346839762" lon="6.673939922796085"><ele>835.0</ele><time>2026-04-06T15:42:18.001Z</time></trkpt><trkpt lat="46.30042114347191" lon="6.6738585613304"><ele>835.0</ele><time>2026-04-06T15:42:19Z</time></trkpt><trkpt lat="46.30061075328187" lon="6.673800484022445"><ele>835.0</ele><time>2026-04-06T15:42:20Z</time></trkpt><trkpt lat="46.30078914437172" lon="6.673758289063878"><ele>834.6666666666666</ele><time>2026-04-06T15:42:21Z</time></trkpt><trkpt lat="46.30094303724984" lon="6.673734968657015"><ele>834.3333333333333</ele><time>2026-04-06T15:42:22Z</time></trkpt><trkpt lat="46.30109925391129" lon="6.673736052152837"><ele>834.0</ele><time>2026-04-06T15:42:23Z</time></trkpt><trkpt lat="46.30123806726791" lon="6.6738197669830965"><ele>834.0</ele><time>2026-04-06T15:42:24Z</time></trkpt><trkpt lat="46.30137027349521" lon="6.67395183631876"><ele>834.0</ele><time>2026-04-06T15:42:25Z</time></trkpt><trkpt lat="46.3014944131166" lon="6.674116697150845"><ele>834.0</ele><time>2026-04-06T15:42:26Z</time></trkpt><trkpt lat="46.30159458452984" lon="6.674335868939242"><ele>833.0</ele><time>2026-04-06T15:42:27Z</time></trkpt><trkpt lat="46.30165650519074" lon="6.674567428729519"><ele>832.0</ele><time>2026-04-06T15:42:28Z</time></trkpt><trkpt lat="46.30171921806028" lon="6.674756648036419"><ele>831.0</ele><time>2026-04-06T15:42:29Z</time></trkpt><trkpt lat="46.301802607103745" lon="6.67491881146086"><ele>831.0</ele><time>2026-04-06T15:42:30Z</time></trkpt><trkpt lat="46.301923940155724" lon="6.675062527577518"><ele>831.0</ele><time>2026-04-06T15:42:31Z</time></trkpt><trkpt lat="46.302056355838225" lon="6.675171714338651"><ele>831.0</ele><time>2026-04-06T15:42:32Z</time></trkpt><trkpt lat="46.30219528500358" lon="6.675213471570125"><ele>831.0</ele><time>2026-04-06T15:42:33Z</time></trkpt><trkpt lat="46.302337712370736" lon="6.675194676584709"><ele>831.0</ele><time>2026-04-06T15:42:34Z</time></trkpt><trkpt lat="46.302495615396836" lon="6.675125995542597"><ele>831.0</ele><time>2026-04-06T15:42:35Z</time></trkpt><trkpt lat="46.30266695960551" lon="6.675055505889107"><ele>831.0</ele><time>2026-04-06T15:42:36Z</time></trkpt><trkpt lat="46.302849745172644" lon="6.675038112256422"><ele>831.0</ele><time>2026-04-06T15:42:37Z</time></trkpt><trkpt lat="46.30303259421537" lon="6.67508801560367"><ele>831.0</ele><time>2026-04-06T15:42:38Z</time></trkpt><trkpt lat="46.30323014329949" lon="6.675184206245058"><ele>829.6666666666667</ele><time>2026-04-06T15:42:39Z</time></trkpt><trkpt lat="46.3034365148458" lon="6.675297594725278"><ele>828.3333333333334</ele><time>2026-04-06T15:42:40Z</time></trkpt><trkpt lat="46.30361386650221" lon="6.675414070688927"><ele>827.0</ele><time>2026-04-06T15:42:41Z</time></trkpt><trkpt lat="46.30377546212521" lon="6.675567975838738"><ele>826.3333333333334</ele><time>2026-04-06T15:42:42Z</time></trkpt><trkpt lat="46.30391368191401" lon="6.67579489985103"><ele>825.6666666666667</ele><time>2026-04-06T15:42:43Z</time></trkpt><trkpt lat="46.30404844880234" lon="6.676065949862799"><ele>825.0</ele><time>2026-04-06T15:42:44Z</time></trkpt><trkpt lat="46.3042084136977" lon="6.676358611226209"><ele>825.0</ele><time>2026-04-06T15:42:45Z</time></trkpt><trkpt lat="46.30435009383486" lon="6.676658541762371"><ele>825.0</ele><time>2026-04-06T15:42:46Z</time></trkpt><trkpt lat="46.30448179108943" lon="6.676898974423573"><ele>825.0</ele><time>2026-04-06T15:42:47Z</time></trkpt><trkpt lat="46.3046334024269" lon="6.67709790887423"><ele>825.0</ele><time>2026-04-06T15:42:48Z</time></trkpt><trkpt lat="46.30481496490742" lon="6.677279295855116"><ele>825.0</ele><time>2026-04-06T15:42:49Z</time></trkpt><trkpt lat="46.30503000141535" lon="6.677439001975684"><ele>825.0</ele><time>2026-04-06T15:42:50Z</time></trkpt><trkpt lat="46.3052491849308" lon="6.677570173001366"><ele>825.0</ele><time>2026-04-06T15:42:51Z</time></trkpt><trkpt lat="46.30543425638773" lon="6.6776962227034"><ele>825.0</ele><time>2026-04-06T15:42:52Z</time></trkpt><trkpt lat="46.30560726805216" lon="6.677747124737236"><ele>824.6666666666667</ele><time>2026-04-06T15:42:53Z</time></trkpt><trkpt lat="46.30578326270989" lon="6.677780312456002"><ele>824.3333333333334</ele><time>2026-04-06T15:42:54Z</time></trkpt><trkpt lat="46.30596095434716" lon="6.6777687270207915"><ele>824.0</ele><time>2026-04-06T15:42:55Z</time></trkpt><trkpt lat="46.30616226927607" lon="6.677702594080348"><ele>821.0</ele><time>2026-04-06T15:42:56Z</time></trkpt><trkpt lat="46.30637617365651" lon="6.677581584872796"><ele>818.0</ele><time>2026-04-06T15:42:57Z</time></trkpt><trkpt lat="46.30661651361858" lon="6.677500810824423"><ele>818.0</ele><time>2026-04-06T15:42:58Z</time></trkpt><trkpt lat="46.30687529070739" lon="6.677431223708277"><ele>818.0</ele><time>2026-04-06T15:42:59Z</time></trkpt><trkpt lat="46.307151399870534" lon="6.677369944637267"><ele>817.0</ele><time>2026-04-06T15:43:00Z</time></trkpt><trkpt lat="46.307443385610625" lon="6.677329436077251"><ele>816.0</ele><time>2026-04-06T15:43:01Z</time></trkpt><trkpt lat="46.30775568640534" lon="6.677330344041772"><ele>816.0</ele><time>2026-04-06T15:43:02Z</time></trkpt><trkpt lat="46.30805182433413" lon="6.677336353682621"><ele>816.0</ele><time>2026-04-06T15:43:03Z</time></trkpt><trkpt lat="46.30831507271713" lon="6.677337121493112"><ele>815.3333333333333</ele><time>2026-04-06T15:43:04Z</time></trkpt><trkpt lat="46.308540241264375" lon="6.677345700291941"><ele>814.6666666666666</ele><time>2026-04-06T15:43:05Z</time></trkpt><trkpt lat="46.308721496473346" lon="6.677397008552612"><ele>814.0</ele><time>2026-04-06T15:43:06Z</time></trkpt><trkpt lat="46.308894987597974" lon="6.6775035427703875"><ele>815.5</ele><time>2026-04-06T15:43:07Z</time></trkpt><trkpt lat="46.309084232695916" lon="6.677668259597304"><ele>817.0</ele><time>2026-04-06T15:43:08Z</time></trkpt><trkpt lat="46.30928278517437" lon="6.677840868614281"><ele>814.3333333333333</ele><time>2026-04-06T15:43:09Z</time></trkpt><trkpt lat="46.309470229792005" lon="6.677992299829068"><ele>811.6666666666667</ele><time>2026-04-06T15:43:10Z</time></trkpt><trkpt lat="46.309653028463636" lon="6.678075454638135"><ele>809.0</ele><time>2026-04-06T15:43:11Z</time></trkpt><trkpt lat="46.309855672914104" lon="6.678134042734321"><ele>808.0</ele><time>2026-04-06T15:43:12Z</time></trkpt><trkpt lat="46.3100855048358" lon="6.678156259841101"><ele>807.0</ele><time>2026-04-06T15:43:13Z</time></trkpt><trkpt lat="46.3103422213127" lon="6.67813935956361"><ele>806.0</ele><time>2026-04-06T15:43:14Z</time></trkpt><trkpt lat="46.310612876675336" lon="6.6781617858395"><ele>805.0</ele><time>2026-04-06T15:43:15Z</time></trkpt><trkpt lat="46.310899284277326" lon="6.678168496288104"><ele>805.0</ele><time>2026-04-06T15:43:16Z</time></trkpt><trkpt lat="46.311169375844976" lon="6.678174651062228"><ele>805.0</ele><time>2026-04-06T15:43:17Z</time></trkpt><trkpt lat="46.31141162006764" lon="6.678178069882804"><ele>805.3333333333333</ele><time>2026-04-06T15:43:18Z</time></trkpt><trkpt lat="46.3116209263558" lon="6.67815808719574"><ele>805.6666666666667</ele><time>2026-04-06T15:43:19Z</time></trkpt><trkpt lat="46.31179681860026" lon="6.678157833377546"><ele>806.0</ele><time>2026-04-06T15:43:20Z</time></trkpt><trkpt lat="46.3119597216342" lon="6.678127211328508"><ele>806.0</ele><time>2026-04-06T15:43:21Z</time></trkpt><trkpt lat="46.31212576061935" lon="6.678051287455044"><ele>806.0</ele><time>2026-04-06T15:43:22Z</time></trkpt><trkpt lat="46.31228967118057" lon="6.677906507692363"><ele>806.0</ele><time>2026-04-06T15:43:23Z</time></trkpt><trkpt lat="46.31243754502789" lon="6.677732818460372"><ele>806.3333333333334</ele><time>2026-04-06T15:43:24Z</time></trkpt><trkpt lat="46.31256604136128" lon="6.677521815582904"><ele>806.6666666666667</ele><time>2026-04-06T15:43:25Z</time></trkpt><trkpt lat="46.312665717334525" lon="6.677279022402257"><ele>807.0</ele><time>2026-04-06T15:43:26Z</time></trkpt><trkpt lat="46.31275584383006" lon="6.676987767053539"><ele>804.5</ele><time>2026-04-06T15:43:27Z</time></trkpt><trkpt lat="46.31283763902518" lon="6.676656644639019"><ele>802.0</ele><time>2026-04-06T15:43:28Z</time></trkpt><trkpt lat="46.312903697748396" lon="6.676348129166386"><ele>802.0</ele><time>2026-04-06T15:43:29Z</time></trkpt><trkpt lat="46.31297410544754" lon="6.676135492243272"><ele>802.0</ele><time>2026-04-06T15:43:30Z</time></trkpt><trkpt lat="46.31305251367288" lon="6.675950898842184"><ele>802.0</ele><time>2026-04-06T15:43:31Z</time></trkpt><trkpt lat="46.31317575352452" lon="6.67579382438139"><ele>803.3333333333333</ele><time>2026-04-06T15:43:32Z</time></trkpt><trkpt lat="46.31334818421358" lon="6.675632445817225"><ele>804.6666666666667</ele><time>2026-04-06T15:43:33Z</time></trkpt><trkpt lat="46.31355278899121" lon="6.675481593264406"><ele>806.0</ele><time>2026-04-06T15:43:34Z</time></trkpt><trkpt lat="46.31376902691886" lon="6.675318515042263"><ele>803.0</ele><time>2026-04-06T15:43:35Z</time></trkpt><trkpt lat="46.31400403503961" lon="6.6751439016620715"><ele>800.0</ele><time>2026-04-06T15:43:36Z</time></trkpt><trkpt lat="46.31422958773054" lon="6.674974047963675"><ele>800.0</ele><time>2026-04-06T15:43:37Z</time></trkpt><trkpt lat="46.31443280151744" lon="6.67482029265621"><ele>800.0</ele><time>2026-04-06T15:43:38Z</time></trkpt><trkpt lat="46.31461650574077" lon="6.67469775987599"><ele>800.0</ele><time>2026-04-06T15:43:39Z</time></trkpt><trkpt lat="46.31479470783751" lon="6.674624049046565"><ele>799.6666666666667</ele><time>2026-04-06T15:43:40Z</time></trkpt><trkpt lat="46.314967950540535" lon="6.674605882606544"><ele>799.3333333333333</ele><time>2026-04-06T15:43:41Z</time></trkpt><trkpt lat="46.31514277828598" lon="6.674635760951292"><ele>799.0</ele><time>2026-04-06T15:43:42Z</time></trkpt><trkpt lat="46.315327771344236" lon="6.674728629190977"><ele>799.0</ele><time>2026-04-06T15:43:43Z</time></trkpt><trkpt lat="46.31551950064189" lon="6.674866667052686"><ele>799.0</ele><time>2026-04-06T15:43:44Z</time></trkpt><trkpt lat="46.31570116955892" lon="6.674988579972626"><ele>799.0</ele><time>2026-04-06T15:43:45Z</time></trkpt><trkpt lat="46.315858049680884" lon="6.67512480941976"><ele>798.6666666666666</ele><time>2026-04-06T15:43:46Z</time></trkpt><trkpt lat="46.31601606521254" lon="6.675220468338823"><ele>798.3333333333333</ele><time>2026-04-06T15:43:47Z</time></trkpt><trkpt lat="46.31619068656366" lon="6.675261724113187"><ele>798.0</ele><time>2026-04-06T15:43:48Z</time></trkpt><trkpt lat="46.3163754593983" lon="6.6752573794593415"><ele>797.6666666666667</ele><time>2026-04-06T15:43:49Z</time></trkpt><trkpt lat="46.316556264034865" lon="6.675194244192063"><ele>797.3333333333334</ele><time>2026-04-06T15:43:50Z</time></trkpt><trkpt lat="46.31672827436445" lon="6.67507805672471"><ele>797.0</ele><time>2026-04-06T15:43:51Z</time></trkpt><trkpt lat="46.31689311337184" lon="6.674935024723587"><ele>797.0</ele><time>2026-04-06T15:43:52Z</time></trkpt><trkpt lat="46.3170610367588" lon="6.674720181488287"><ele>797.0</ele><time>2026-04-06T15:43:53Z</time></trkpt><trkpt lat="46.31723179515528" lon="6.674514056434877"><ele>797.0</ele><time>2026-04-06T15:43:54Z</time></trkpt><trkpt lat="46.31738793132468" lon="6.674341112846298"><ele>795.6666666666667</ele><time>2026-04-06T15:43:55Z</time></trkpt><trkpt lat="46.317528377522244" lon="6.674198560350179"><ele>794.3333333333333</ele><time>2026-04-06T15:43:55.999Z</time></trkpt><trkpt lat="46.317670150568716" lon="6.674103647962845"><ele>793.0</ele><time>2026-04-06T15:43:56.999Z</time></trkpt><trkpt lat="46.317835855499624" lon="6.674053147058097"><ele>793.0</ele><time>2026-04-06T15:43:57.999Z</time></trkpt><trkpt lat="46.31802394015765" lon="6.6740789602043655"><ele>793.0</ele><time>2026-04-06T15:43:58.999Z</time></trkpt><trkpt lat="46.31822366031488" lon="6.674115009298889"><ele>793.0</ele><time>2026-04-06T15:43:59.999Z</time></trkpt><trkpt lat="46.318431358428136" lon="6.674173694443623"><ele>792.6666666666666</ele><time>2026-04-06T15:44:00.999Z</time></trkpt><trkpt lat="46.31862350878364" lon="6.67421411503942"><ele>792.3333333333333</ele><time>2026-04-06T15:44:01.999Z</time></trkpt><trkpt lat="46.3188138338251" lon="6.674270020626005"><ele>792.0</ele><time>2026-04-06T15:44:02.999Z</time></trkpt><trkpt lat="46.31901572255217" lon="6.674325957357481"><ele>792.0</ele><time>2026-04-06T15:44:03.999Z</time></trkpt><trkpt lat="46.31920134635798" lon="6.674369220992458"><ele>792.0</ele><time>2026-04-06T15:44:04.999Z</time></trkpt><trkpt lat="46.31937827997378" lon="6.674390008961093"><ele>792.0</ele><time>2026-04-06T15:44:05.999Z</time></trkpt><trkpt lat="46.3195373661996" lon="6.674349992329983"><ele>792.0</ele><time>2026-04-06T15:44:06.999Z</time></trkpt><trkpt lat="46.3196939958311" lon="6.674266529081904"><ele>792.0</ele><time>2026-04-06T15:44:07.999Z</time></trkpt><trkpt lat="46.31984561634535" lon="6.674149205191468"><ele>792.0</ele><time>2026-04-06T15:44:08.999Z</time></trkpt><trkpt lat="46.31998655909419" lon="6.67398358465603"><ele>791.3333333333333</ele><time>2026-04-06T15:44:09.999Z</time></trkpt><trkpt lat="46.320106394249045" lon="6.673783662100198"><ele>790.6666666666666</ele><time>2026-04-06T15:44:10.999Z</time></trkpt><trkpt lat="46.320235631786666" lon="6.67362706410553"><ele>790.0</ele><time>2026-04-06T15:44:11.999Z</time></trkpt><trkpt lat="46.3203438624263" lon="6.6734677366092034"><ele>790.0</ele><time>2026-04-06T15:44:12.999Z</time></trkpt><trkpt lat="46.3204500302373" lon="6.673311445848883"><ele>790.0</ele><time>2026-04-06T15:44:13.999Z</time></trkpt><trkpt lat="46.320561783960855" lon="6.673146932012487"><ele>790.0</ele><time>2026-04-06T15:44:14.999Z</time></trkpt><trkpt lat="46.32068571734961" lon="6.672964467375292"><ele>789.3333333333333</ele><time>2026-04-06T15:44:15.999Z</time></trkpt><trkpt lat="46.32080141855984" lon="6.672799069713556"><ele>788.6666666666667</ele><time>2026-04-06T15:44:16.999Z</time></trkpt><trkpt lat="46.32093402860754" lon="6.6726559427619305"><ele>788.0</ele><time>2026-04-06T15:44:17.999Z</time></trkpt><trkpt lat="46.32110767305079" lon="6.672529809389014"><ele>788.0</ele><time>2026-04-06T15:44:18.999Z</time></trkpt><trkpt lat="46.32132261868359" lon="6.6724064374814605"><ele>788.0</ele><time>2026-04-06T15:44:20.001Z</time></trkpt><trkpt lat="46.32155786667503" lon="6.672269124241872"><ele>787.0</ele><time>2026-04-06T15:44:21.001Z</time></trkpt><trkpt lat="46.321807523568296" lon="6.6720766461515915"><ele>786.0</ele><time>2026-04-06T15:44:22.001Z</time></trkpt><trkpt lat="46.32205560353257" lon="6.671819906931293"><ele>790.0</ele><time>2026-04-06T15:44:23.001Z</time></trkpt><trkpt lat="46.32230682645589" lon="6.671555618514432"><ele>794.0</ele><time>2026-04-06T15:44:24.001Z</time></trkpt><trkpt lat="46.322566463604986" lon="6.671280765665711"><ele>789.5</ele><time>2026-04-06T15:44:25.001Z</time></trkpt><trkpt lat="46.32279540801973" lon="6.67103367219046"><ele>785.0</ele><time>2026-04-06T15:44:26.001Z</time></trkpt><trkpt lat="46.32301366117925" lon="6.670804048659149"><ele>790.0</ele><time>2026-04-06T15:44:27.001Z</time></trkpt><trkpt lat="46.3232169971451" lon="6.670591311461138"><ele>795.0</ele><time>2026-04-06T15:44:28.001Z</time></trkpt><trkpt lat="46.323396698926345" lon="6.670405038690085"><ele>793.0</ele><time>2026-04-06T15:44:29.001Z</time></trkpt><trkpt lat="46.3235674662198" lon="6.670247912950077"><ele>791.0</ele><time>2026-04-06T15:44:30.001Z</time></trkpt><trkpt lat="46.32375802370149" lon="6.670144834209312"><ele>789.0</ele><time>2026-04-06T15:44:31Z</time></trkpt><trkpt lat="46.32398894668121" lon="6.6700702810392585"><ele>789.0</ele><time>2026-04-06T15:44:32Z</time></trkpt><trkpt lat="46.32424042295548" lon="6.66998030522915"><ele>789.0</ele><time>2026-04-06T15:44:33Z</time></trkpt><trkpt lat="46.32447634733903" lon="6.669852619691839"><ele>789.0</ele><time>2026-04-06T15:44:34Z</time></trkpt><trkpt lat="46.32469101426935" lon="6.669767569185489"><ele>789.0</ele><time>2026-04-06T15:44:35Z</time></trkpt><trkpt lat="46.32490034149851" lon="6.669674486668329"><ele>789.0</ele><time>2026-04-06T15:44:36Z</time></trkpt><trkpt lat="46.32510373598896" lon="6.6696104674251435"><ele>791.0</ele><time>2026-04-06T15:44:37Z</time></trkpt><trkpt lat="46.32532188312125" lon="6.669574569591311"><ele>793.0</ele><time>2026-04-06T15:44:38Z</time></trkpt><trkpt lat="46.32555485115574" lon="6.669576419923163"><ele>793.3333333333333</ele><time>2026-04-06T15:44:39Z</time></trkpt><trkpt lat="46.325777785401115" lon="6.66956557101354"><ele>793.6666666666667</ele><time>2026-04-06T15:44:40Z</time></trkpt><trkpt lat="46.325973522246564" lon="6.66955276266218"><ele>794.0</ele><time>2026-04-06T15:44:41Z</time></trkpt><trkpt lat="46.32619387744746" lon="6.66948223771667"><ele>791.6666666666667</ele><time>2026-04-06T15:44:42Z</time></trkpt><trkpt lat="46.32641016625732" lon="6.669392882429186"><ele>789.3333333333333</ele><time>2026-04-06T15:44:43Z</time></trkpt><trkpt lat="46.32660499345244" lon="6.66932251858721"><ele>787.0</ele><time>2026-04-06T15:44:44Z</time></trkpt><trkpt lat="46.326770215096815" lon="6.669271467754473"><ele>787.0</ele><time>2026-04-06T15:44:45Z</time></trkpt><trkpt lat="46.32690994301001" lon="6.669209923545459"><ele>787.0</ele><time>2026-04-06T15:44:46Z</time></trkpt><trkpt lat="46.327041008388235" lon="6.669119556368863"><ele>787.0</ele><time>2026-04-06T15:44:47Z</time></trkpt><trkpt lat="46.32715063262076" lon="6.668979199212163"><ele>787.0</ele><time>2026-04-06T15:44:48Z</time></trkpt><trkpt lat="46.32724583565736" lon="6.668797424104178"><ele>787.3333333333333</ele><time>2026-04-06T15:44:49Z</time></trkpt><trkpt lat="46.32733049914796" lon="6.668547773024102"><ele>787.6666666666667</ele><time>2026-04-06T15:44:50Z</time></trkpt><trkpt lat="46.32743730250426" lon="6.668295398889744"><ele>788.0</ele><time>2026-04-06T15:44:51Z</time></trkpt><trkpt lat="46.32752793337826" lon="6.668061666738357"><ele>788.0</ele><time>2026-04-06T15:44:52Z</time></trkpt><trkpt lat="46.32761915894566" lon="6.667845600836592"><ele>788.0</ele><time>2026-04-06T15:44:53Z</time></trkpt><trkpt lat="46.32775508103471" lon="6.667704909185433"><ele>788.0</ele><time>2026-04-06T15:44:54Z</time></trkpt><trkpt lat="46.327899519883594" lon="6.667592686226198"><ele>788.3333333333334</ele><time>2026-04-06T15:44:55Z</time></trkpt><trkpt lat="46.32805921871718" lon="6.66749435946776"><ele>788.6666666666667</ele><time>2026-04-06T15:44:56Z</time></trkpt><trkpt lat="46.328206472629326" lon="6.667402719497058"><ele>789.0</ele><time>2026-04-06T15:44:57Z</time></trkpt><trkpt lat="46.32834515101632" lon="6.667300787953444"><ele>789.0</ele><time>2026-04-06T15:44:58Z</time></trkpt><trkpt lat="46.32846526452451" lon="6.667181884726418"><ele>789.0</ele><time>2026-04-06T15:44:59Z</time></trkpt><trkpt lat="46.32854792207883" lon="6.6670163642450895"><ele>789.0</ele><time>2026-04-06T15:45:00Z</time></trkpt><trkpt lat="46.32863507159334" lon="6.666852318004893"><ele>789.0</ele><time>2026-04-06T15:45:01Z</time></trkpt><trkpt lat="46.32870031152672" lon="6.666674128357455"><ele>787.25</ele><time>2026-04-06T15:45:02Z</time></trkpt><trkpt lat="46.32876583719903" lon="6.666488600605811"><ele>785.5</ele><time>2026-04-06T15:45:03Z</time></trkpt><trkpt lat="46.32884132268456" lon="6.666303042445236"><ele>783.75</ele><time>2026-04-06T15:45:04Z</time></trkpt><trkpt lat="46.328926250899244" lon="6.666151782370031"><ele>782.0</ele><time>2026-04-06T15:45:05Z</time></trkpt><trkpt lat="46.32902736617547" lon="6.666025017638845"><ele>782.0</ele><time>2026-04-06T15:45:06Z</time></trkpt><trkpt lat="46.329154549912666" lon="6.665911762407864"><ele>782.0</ele><time>2026-04-06T15:45:07Z</time></trkpt><trkpt lat="46.32931833225094" lon="6.6657993236004565"><ele>782.0</ele><time>2026-04-06T15:45:08Z</time></trkpt><trkpt lat="46.32950894679368" lon="6.665681758284059"><ele>782.0</ele><time>2026-04-06T15:45:09Z</time></trkpt><trkpt lat="46.329716738895115" lon="6.665554116353861"><ele>782.0</ele><time>2026-04-06T15:45:10Z</time></trkpt><trkpt lat="46.329919400651924" lon="6.665426138901343"><ele>782.0</ele><time>2026-04-06T15:45:11Z</time></trkpt><trkpt lat="46.33009856901332" lon="6.665292430170956"><ele>781.3333333333334</ele><time>2026-04-06T15:45:12Z</time></trkpt><trkpt lat="46.330246711192444" lon="6.665103793175251"><ele>780.6666666666667</ele><time>2026-04-06T15:45:13Z</time></trkpt><trkpt lat="46.33039025573267" lon="6.664879481313373"><ele>780.0</ele><time>2026-04-06T15:45:14Z</time></trkpt><trkpt lat="46.330520724441925" lon="6.664599860581864"><ele>782.3333333333333</ele><time>2026-04-06T15:45:15Z</time></trkpt><trkpt lat="46.330650176396105" lon="6.664360972305356"><ele>784.6666666666666</ele><time>2026-04-06T15:45:16Z</time></trkpt><trkpt lat="46.33076414518396" lon="6.664136313437278"><ele>787.0</ele><time>2026-04-06T15:45:17Z</time></trkpt><trkpt lat="46.33087550712343" lon="6.663916792654357"><ele>787.0</ele><time>2026-04-06T15:45:18Z</time></trkpt><trkpt lat="46.33097759655125" lon="6.663715549874655"><ele>787.0</ele><time>2026-04-06T15:45:19Z</time></trkpt><trkpt lat="46.33107267157514" lon="6.663525854402804"><ele>787.0</ele><time>2026-04-06T15:45:20Z</time></trkpt><trkpt lat="46.33116331373226" lon="6.663328873841971"><ele>788.0</ele><time>2026-04-06T15:45:21Z</time></trkpt><trkpt lat="46.331256087130015" lon="6.66306678668307"><ele>789.0</ele><time>2026-04-06T15:45:22Z</time></trkpt><trkpt lat="46.33135113264917" lon="6.662770753696924"><ele>790.0</ele><time>2026-04-06T15:45:23Z</time></trkpt><trkpt lat="46.331457644267246" lon="6.662434979880609"><ele>790.0</ele><time>2026-04-06T15:45:24Z</time></trkpt><trkpt lat="46.331567747984444" lon="6.662078988215108"><ele>790.0</ele><time>2026-04-06T15:45:25Z</time></trkpt><trkpt lat="46.33167671274027" lon="6.661718016284955"><ele>788.0</ele><time>2026-04-06T15:45:26Z</time></trkpt><trkpt lat="46.33174153302754" lon="6.661381812770339"><ele>786.0</ele><time>2026-04-06T15:45:27Z</time></trkpt><trkpt lat="46.33179562968428" lon="6.661061320632086"><ele>781.5</ele><time>2026-04-06T15:45:28Z</time></trkpt><trkpt lat="46.33180985902002" lon="6.660702718142966"><ele>777.0</ele><time>2026-04-06T15:45:29Z</time></trkpt><trkpt lat="46.33183914623218" lon="6.6603360802474905"><ele>775.3333333333333</ele><time>2026-04-06T15:45:30Z</time></trkpt><trkpt lat="46.33182815532684" lon="6.660021799096573"><ele>773.6666666666666</ele><time>2026-04-06T15:45:31Z</time></trkpt><trkpt lat="46.33184872826007" lon="6.659767605202563"><ele>772.0</ele><time>2026-04-06T15:45:32Z</time></trkpt><trkpt lat="46.33188785200341" lon="6.659558734848767"><ele>770.3333333333333</ele><time>2026-04-06T15:45:33Z</time></trkpt><trkpt lat="46.33196001730174" lon="6.659370419560002"><ele>768.6666666666666</ele><time>2026-04-06T15:45:34Z</time></trkpt><trkpt lat="46.332092232794665" lon="6.659210358446891"><ele>767.0</ele><time>2026-04-06T15:45:35Z</time></trkpt><trkpt lat="46.33224418284958" lon="6.659046977287141"><ele>769.6666666666666</ele><time>2026-04-06T15:45:36Z</time></trkpt><trkpt lat="46.3324032673212" lon="6.658888617996504"><ele>772.3333333333333</ele><time>2026-04-06T15:45:37Z</time></trkpt><trkpt lat="46.33254198154473" lon="6.658749170956555"><ele>775.0</ele><time>2026-04-06T15:45:38Z</time></trkpt><trkpt lat="46.33268004425613" lon="6.658607011559294"><ele>775.0</ele><time>2026-04-06T15:45:39Z</time></trkpt><trkpt lat="46.33280998689606" lon="6.658471758419858"><ele>775.0</ele><time>2026-04-06T15:45:40Z</time></trkpt><trkpt lat="46.33293048092888" lon="6.6583516324908825"><ele>775.0</ele><time>2026-04-06T15:45:41Z</time></trkpt><trkpt lat="46.33304869668681" lon="6.6582517117725555"><ele>775.0</ele><time>2026-04-06T15:45:42Z</time></trkpt><trkpt lat="46.33318478568517" lon="6.658169112642293"><ele>777.5</ele><time>2026-04-06T15:45:43Z</time></trkpt><trkpt lat="46.33331202692632" lon="6.658091596107935"><ele>780.0</ele><time>2026-04-06T15:45:44Z</time></trkpt><trkpt lat="46.333420173572556" lon="6.657988461829706"><ele>782.5</ele><time>2026-04-06T15:45:45Z</time></trkpt><trkpt lat="46.33352527438082" lon="6.657865995480186"><ele>785.0</ele><time>2026-04-06T15:45:46Z</time></trkpt><trkpt lat="46.33361188125062" lon="6.657702002432207"><ele>785.0</ele><time>2026-04-06T15:45:47Z</time></trkpt><trkpt lat="46.333693046221896" lon="6.657530045709939"><ele>785.0</ele><time>2026-04-06T15:45:48Z</time></trkpt><trkpt lat="46.33378166205305" lon="6.657386999293217"><ele>785.0</ele><time>2026-04-06T15:45:49Z</time></trkpt><trkpt lat="46.33383754065795" lon="6.6572224936505675"><ele>785.0</ele><time>2026-04-06T15:45:49.999Z</time></trkpt><trkpt lat="46.33383414339711" lon="6.657039722309632"><ele>783.75</ele><time>2026-04-06T15:45:50.999Z</time></trkpt><trkpt lat="46.33380754528137" lon="6.656870323955278"><ele>782.5</ele><time>2026-04-06T15:45:51.999Z</time></trkpt><trkpt lat="46.33375643660149" lon="6.656661840823987"><ele>781.25</ele><time>2026-04-06T15:45:52.999Z</time></trkpt><trkpt lat="46.333751530757844" lon="6.656449313022504"><ele>780.0</ele><time>2026-04-06T15:45:53.999Z</time></trkpt><trkpt lat="46.33374544097311" lon="6.656271423832459"><ele>780.0</ele><time>2026-04-06T15:45:54.999Z</time></trkpt><trkpt lat="46.3337512928861" lon="6.656074570390771"><ele>780.0</ele><time>2026-04-06T15:45:55.999Z</time></trkpt><trkpt lat="46.333770169873176" lon="6.655887856749615"><ele>780.0</ele><time>2026-04-06T15:45:56.999Z</time></trkpt><trkpt lat="46.33379557089735" lon="6.65570520898858"><ele>780.0</ele><time>2026-04-06T15:45:57.999Z</time></trkpt><trkpt lat="46.333808965623014" lon="6.655536408580443"><ele>780.0</ele><time>2026-04-06T15:45:58.999Z</time></trkpt><trkpt lat="46.33383543643506" lon="6.6553682031982815"><ele>780.0</ele><time>2026-04-06T15:45:59.999Z</time></trkpt><trkpt lat="46.333853512699164" lon="6.655176027544309"><ele>780.0</ele><time>2026-04-06T15:46:00.999Z</time></trkpt><trkpt lat="46.33385326185724" lon="6.654963640236962"><ele>780.0</ele><time>2026-04-06T15:46:01.999Z</time></trkpt><trkpt lat="46.33387527877869" lon="6.654755570487759"><ele>782.0</ele><time>2026-04-06T15:46:02.999Z</time></trkpt><trkpt lat="46.33395150624269" lon="6.654562160766625"><ele>784.0</ele><time>2026-04-06T15:46:03.999Z</time></trkpt><trkpt lat="46.33403546748151" lon="6.65434738892497"><ele>786.0</ele><time>2026-04-06T15:46:04.999Z</time></trkpt><trkpt lat="46.33408341421234" lon="6.654092982957839"><ele>786.0</ele><time>2026-04-06T15:46:05.999Z</time></trkpt><trkpt lat="46.334095206596956" lon="6.653854370480659"><ele>786.0</ele><time>2026-04-06T15:46:06.999Z</time></trkpt><trkpt lat="46.334132960568354" lon="6.653624322676403"><ele>786.0</ele><time>2026-04-06T15:46:07.999Z</time></trkpt><trkpt lat="46.33423237500102" lon="6.65338891424716"><ele>781.5</ele><time>2026-04-06T15:46:08.999Z</time></trkpt><trkpt lat="46.334373317945186" lon="6.653147050672179"><ele>777.0</ele><time>2026-04-06T15:46:09.999Z</time></trkpt><trkpt lat="46.33449441100939" lon="6.652854606027941"><ele>773.5</ele><time>2026-04-06T15:46:10.999Z</time></trkpt><trkpt lat="46.334622746643596" lon="6.652544901246549"><ele>770.0</ele><time>2026-04-06T15:46:11.999Z</time></trkpt><trkpt lat="46.334747997043" lon="6.652265136756678"><ele>775.0</ele><time>2026-04-06T15:46:12.999Z</time></trkpt><trkpt lat="46.33487640968183" lon="6.652034016148209"><ele>780.0</ele><time>2026-04-06T15:46:13.999Z</time></trkpt><trkpt lat="46.335017708660544" lon="6.6518506905673895"><ele>785.0</ele><time>2026-04-06T15:46:14.999Z</time></trkpt><trkpt lat="46.33513664277152" lon="6.651652085082084"><ele>785.0</ele><time>2026-04-06T15:46:15.999Z</time></trkpt><trkpt lat="46.33523264449934" lon="6.651469282525311"><ele>785.0</ele><time>2026-04-06T15:46:16.999Z</time></trkpt><trkpt lat="46.33530750437625" lon="6.65123941658149"><ele>785.0</ele><time>2026-04-06T15:46:17.999Z</time></trkpt><trkpt lat="46.33530217081812" lon="6.65094937296185"><ele>783.3333333333334</ele><time>2026-04-06T15:46:18.999Z</time></trkpt><trkpt lat="46.335301537303486" lon="6.650657742132493"><ele>781.6666666666667</ele><time>2026-04-06T15:46:19.999Z</time></trkpt><trkpt lat="46.33535304257557" lon="6.650399032406909"><ele>780.0</ele><time>2026-04-06T15:46:20.999Z</time></trkpt><trkpt lat="46.33543322159867" lon="6.650104899346121"><ele>780.0</ele><time>2026-04-06T15:46:21.999Z</time></trkpt><trkpt lat="46.33552633257231" lon="6.649776746376732"><ele>780.0</ele><time>2026-04-06T15:46:22.999Z</time></trkpt><trkpt lat="46.3356098708686" lon="6.6494075820850975"><ele>787.5</ele><time>2026-04-06T15:46:23.999Z</time></trkpt><trkpt lat="46.33572595864995" lon="6.64905147979672"><ele>795.0</ele><time>2026-04-06T15:46:24.999Z</time></trkpt><trkpt lat="46.33581612228578" lon="6.648739792989658"><ele>793.3333333333333</ele><time>2026-04-06T15:46:26Z</time></trkpt><trkpt lat="46.33588909737343" lon="6.648489703554976"><ele>791.6666666666666</ele><time>2026-04-06T15:46:27Z</time></trkpt><trkpt lat="46.33595936206834" lon="6.648267971638543"><ele>790.0</ele><time>2026-04-06T15:46:28Z</time></trkpt><trkpt lat="46.33604840973296" lon="6.648066640171647"><ele>790.0</ele><time>2026-04-06T15:46:29Z</time></trkpt><trkpt lat="46.33617583045831" lon="6.647889960058412"><ele>790.0</ele><time>2026-04-06T15:46:30Z</time></trkpt><trkpt lat="46.33631708526925" lon="6.647734934631069"><ele>790.0</ele><time>2026-04-06T15:46:31Z</time></trkpt><trkpt lat="46.33644890163925" lon="6.647562912959236"><ele>791.0</ele><time>2026-04-06T15:46:32Z</time></trkpt><trkpt lat="46.33654193567525" lon="6.647317887356977"><ele>792.0</ele><time>2026-04-06T15:46:33Z</time></trkpt><trkpt lat="46.33658209248089" lon="6.6470005394690155"><ele>793.0</ele><time>2026-04-06T15:46:34Z</time></trkpt><trkpt lat="46.33665551669327" lon="6.646671867473461"><ele>793.0</ele><time>2026-04-06T15:46:35Z</time></trkpt><trkpt lat="46.336723478002334" lon="6.646333421486403"><ele>793.0</ele><time>2026-04-06T15:46:36Z</time></trkpt><trkpt lat="46.33679013318096" lon="6.646016190020921"><ele>791.6666666666666</ele><time>2026-04-06T15:46:37Z</time></trkpt><trkpt lat="46.33685065785818" lon="6.645740623931803"><ele>790.3333333333333</ele><time>2026-04-06T15:46:38Z</time></trkpt><trkpt lat="46.33692048143394" lon="6.645507044157946"><ele>789.0</ele><time>2026-04-06T15:46:39Z</time></trkpt><trkpt lat="46.33703170234476" lon="6.645310565584699"><ele>786.0</ele><time>2026-04-06T15:46:40Z</time></trkpt><trkpt lat="46.33718976940331" lon="6.645107882601799"><ele>783.0</ele><time>2026-04-06T15:46:41Z</time></trkpt><trkpt lat="46.33738568931073" lon="6.6449091025619"><ele>794.0</ele><time>2026-04-06T15:46:42Z</time></trkpt><trkpt lat="46.337597854647456" lon="6.644699941620076"><ele>805.0</ele><time>2026-04-06T15:46:43Z</time></trkpt><trkpt lat="46.33781567969737" lon="6.644496367837432"><ele>803.6666666666666</ele><time>2026-04-06T15:46:44Z</time></trkpt><trkpt lat="46.338000685074825" lon="6.644329126953821"><ele>802.3333333333333</ele><time>2026-04-06T15:46:45Z</time></trkpt><trkpt lat="46.33815451289421" lon="6.64417539278444"><ele>801.0</ele><time>2026-04-06T15:46:46Z</time></trkpt><trkpt lat="46.33828442997903" lon="6.64399223672018"><ele>802.3333333333333</ele><time>2026-04-06T15:46:47Z</time></trkpt><trkpt lat="46.33840249476168" lon="6.643760940353901"><ele>803.6666666666666</ele><time>2026-04-06T15:46:48Z</time></trkpt><trkpt lat="46.338439208897796" lon="6.643429538625045"><ele>805.0</ele><time>2026-04-06T15:46:49Z</time></trkpt><trkpt lat="46.338504523423666" lon="6.643100298952361"><ele>804.3333333333333</ele><time>2026-04-06T15:46:50Z</time></trkpt><trkpt lat="46.33852305190938" lon="6.642789634952816"><ele>803.6666666666667</ele><time>2026-04-06T15:46:51Z</time></trkpt><trkpt lat="46.338565562521154" lon="6.6425292658271875"><ele>803.0</ele><time>2026-04-06T15:46:52Z</time></trkpt><trkpt lat="46.33861977784912" lon="6.642276317107768"><ele>803.0</ele><time>2026-04-06T15:46:53Z</time></trkpt><trkpt lat="46.3387021734705" lon="6.642038964704685"><ele>803.0</ele><time>2026-04-06T15:46:54Z</time></trkpt><trkpt lat="46.33875410194019" lon="6.641803726791191"><ele>803.0</ele><time>2026-04-06T15:46:55Z</time></trkpt><trkpt lat="46.33879282562806" lon="6.641541532228418"><ele>803.3333333333334</ele><time>2026-04-06T15:46:56Z</time></trkpt><trkpt lat="46.338782982786434" lon="6.641253389737859"><ele>803.6666666666667</ele><time>2026-04-06T15:46:57Z</time></trkpt><trkpt lat="46.33883872196655" lon="6.640980863232779"><ele>804.0</ele><time>2026-04-06T15:46:58Z</time></trkpt><trkpt lat="46.338894441286754" lon="6.640697638614435"><ele>807.0</ele><time>2026-04-06T15:46:59Z</time></trkpt><trkpt lat="46.338937811802374" lon="6.64042399408748"><ele>810.0</ele><time>2026-04-06T15:47:00Z</time></trkpt><trkpt lat="46.33903097852256" lon="6.64016835741453"><ele>813.0</ele><time>2026-04-06T15:47:01Z</time></trkpt><trkpt lat="46.33914616398265" lon="6.639906423053788"><ele>813.0</ele><time>2026-04-06T15:47:02Z</time></trkpt><trkpt lat="46.3392815307389" lon="6.639611480584534"><ele>813.0</ele><time>2026-04-06T15:47:03Z</time></trkpt><trkpt lat="46.33941153980106" lon="6.639327449858667"><ele>812.0</ele><time>2026-04-06T15:47:04Z</time></trkpt><trkpt lat="46.33951909616135" lon="6.639091509968896"><ele>811.0</ele><time>2026-04-06T15:47:05Z</time></trkpt><trkpt lat="46.339610960743634" lon="6.638919435196452"><ele>810.0</ele><time>2026-04-06T15:47:06Z</time></trkpt><trkpt lat="46.33971957140426" lon="6.6387816677147775"><ele>811.5</ele><time>2026-04-06T15:47:07Z</time></trkpt><trkpt lat="46.33984141629853" lon="6.638630012123869"><ele>813.0</ele><time>2026-04-06T15:47:08Z</time></trkpt><trkpt lat="46.33994486660579" lon="6.638498980565468"><ele>814.5</ele><time>2026-04-06T15:47:09Z</time></trkpt><trkpt lat="46.34003029462007" lon="6.638382300282784"><ele>816.0</ele><time>2026-04-06T15:47:10Z</time></trkpt><trkpt lat="46.34010488256672" lon="6.638303130468371"><ele>816.0</ele><time>2026-04-06T15:47:11Z</time></trkpt><trkpt lat="46.34018665939415" lon="6.63823743923602"><ele>816.0</ele><time>2026-04-06T15:47:12Z</time></trkpt><trkpt lat="46.34026291612591" lon="6.638202560685736"><ele>816.0</ele><time>2026-04-06T15:47:13Z</time></trkpt><trkpt lat="46.34030036486195" lon="6.638067975748217"><ele>816.0</ele><time>2026-04-06T15:47:14Z</time></trkpt><trkpt lat="46.340294282851104" lon="6.637895681474016"><ele>816.0</ele><time>2026-04-06T15:47:15Z</time></trkpt><trkpt lat="46.340356657742625" lon="6.637696029597933"><ele>814.3333333333333</ele><time>2026-04-06T15:47:16Z</time></trkpt><trkpt lat="46.34043610387588" lon="6.637455880130135"><ele>812.6666666666666</ele><time>2026-04-06T15:47:17Z</time></trkpt><trkpt lat="46.340528958336854" lon="6.6371755699001955"><ele>811.0</ele><time>2026-04-06T15:47:18Z</time></trkpt><trkpt lat="46.340616188094835" lon="6.636863561228303"><ele>815.0</ele><time>2026-04-06T15:47:19Z</time></trkpt><trkpt lat="46.340702151879015" lon="6.636579575725023"><ele>819.0</ele><time>2026-04-06T15:47:20Z</time></trkpt><trkpt lat="46.3407530843816" lon="6.636317518287294"><ele>823.0</ele><time>2026-04-06T15:47:21Z</time></trkpt><trkpt lat="46.3407620557462" lon="6.636065486294528"><ele>825.3333333333333</ele><time>2026-04-06T15:47:22Z</time></trkpt><trkpt lat="46.34074071536094" lon="6.635780241247277"><ele>827.6666666666667</ele><time>2026-04-06T15:47:23Z</time></trkpt><trkpt lat="46.34071563806373" lon="6.635453620072582"><ele>830.0</ele><time>2026-04-06T15:47:24Z</time></trkpt><trkpt lat="46.34071987983619" lon="6.635093925064482"><ele>832.5</ele><time>2026-04-06T15:47:25Z</time></trkpt><trkpt lat="46.340711983776615" lon="6.634708441195409"><ele>835.0</ele><time>2026-04-06T15:47:26Z</time></trkpt><trkpt lat="46.3407058435352" lon="6.634294034321098"><ele>840.0</ele><time>2026-04-06T15:47:27Z</time></trkpt><trkpt lat="46.340690793721784" lon="6.633910428703891"><ele>845.0</ele><time>2026-04-06T15:47:28Z</time></trkpt><trkpt lat="46.3406469859435" lon="6.633519470625351"><ele>847.0</ele><time>2026-04-06T15:47:29Z</time></trkpt><trkpt lat="46.340579520284535" lon="6.633107262411819"><ele>849.0</ele><time>2026-04-06T15:47:30Z</time></trkpt><trkpt lat="46.34050138309997" lon="6.63271996871482"><ele>839.6666666666667</ele><time>2026-04-06T15:47:31Z</time></trkpt><trkpt lat="46.340497340128465" lon="6.632400611518986"><ele>830.3333333333334</ele><time>2026-04-06T15:47:32Z</time></trkpt><trkpt lat="46.34048119938566" lon="6.632083583474395"><ele>821.0</ele><time>2026-04-06T15:47:33Z</time></trkpt><trkpt lat="46.3404259901327" lon="6.631849819998076"><ele>821.0</ele><time>2026-04-06T15:47:34Z</time></trkpt><trkpt lat="46.34036545028557" lon="6.631642240071197"><ele>821.0</ele><time>2026-04-06T15:47:35Z</time></trkpt><trkpt lat="46.340292251321934" lon="6.6314635158823965"><ele>821.0</ele><time>2026-04-06T15:47:36Z</time></trkpt><trkpt lat="46.34024781270226" lon="6.631275860955054"><ele>821.0</ele><time>2026-04-06T15:47:37Z</time></trkpt><trkpt lat="46.340284294866564" lon="6.631083345417753"><ele>821.0</ele><time>2026-04-06T15:47:38Z</time></trkpt><trkpt lat="46.34035190330586" lon="6.630880743335179"><ele>821.0</ele><time>2026-04-06T15:47:39Z</time></trkpt><trkpt lat="46.340409233128" lon="6.630632384057164"><ele>821.0</ele><time>2026-04-06T15:47:39.999Z</time></trkpt><trkpt lat="46.34047677742326" lon="6.630418199868415"><ele>819.0</ele><time>2026-04-06T15:47:40.999Z</time></trkpt><trkpt lat="46.34048046848624" lon="6.63018216078418"><ele>817.0</ele><time>2026-04-06T15:47:41.999Z</time></trkpt><trkpt lat="46.34049543786421" lon="6.629915458063098"><ele>815.0</ele><time>2026-04-06T15:47:42.999Z</time></trkpt><trkpt lat="46.34059153747946" lon="6.629666105094724"><ele>823.0</ele><time>2026-04-06T15:47:43.999Z</time></trkpt><trkpt lat="46.340705891517494" lon="6.629382040563022"><ele>831.0</ele><time>2026-04-06T15:47:44.999Z</time></trkpt><trkpt lat="46.34081895440645" lon="6.629105064032157"><ele>839.0</ele><time>2026-04-06T15:47:45.999Z</time></trkpt><trkpt lat="46.34091492777263" lon="6.628862837836395"><ele>839.0</ele><time>2026-04-06T15:47:46.999Z</time></trkpt><trkpt lat="46.34099119746258" lon="6.628676690444373"><ele>839.0</ele><time>2026-04-06T15:47:47.999Z</time></trkpt><trkpt lat="46.341053316953754" lon="6.62851577723263"><ele>839.0</ele><time>2026-04-06T15:47:48.999Z</time></trkpt><trkpt lat="46.3411581820672" lon="6.628415318611609"><ele>839.0</ele><time>2026-04-06T15:47:49.999Z</time></trkpt><trkpt lat="46.34127625067778" lon="6.628353682264195"><ele>839.75</ele><time>2026-04-06T15:47:50.999Z</time></trkpt><trkpt lat="46.341405151728736" lon="6.628354273236842"><ele>840.5</ele><time>2026-04-06T15:47:51.999Z</time></trkpt><trkpt lat="46.34153375430758" lon="6.628411597007587"><ele>841.25</ele><time>2026-04-06T15:47:52.999Z</time></trkpt><trkpt lat="46.34164848116164" lon="6.628559635351276"><ele>842.0</ele><time>2026-04-06T15:47:53.999Z</time></trkpt><trkpt lat="46.3418082312301" lon="6.628714659764514"><ele>847.0</ele><time>2026-04-06T15:47:54.999Z</time></trkpt><trkpt lat="46.341996256572386" lon="6.628814287615573"><ele>852.0</ele><time>2026-04-06T15:47:55.999Z</time></trkpt><trkpt lat="46.34220472207916" lon="6.6289044512429545"><ele>857.0</ele><time>2026-04-06T15:47:56.999Z</time></trkpt><trkpt lat="46.34239080769212" lon="6.628978818397673"><ele>857.3333333333334</ele><time>2026-04-06T15:47:57.999Z</time></trkpt><trkpt lat="46.34255567053576" lon="6.629097046721485"><ele>857.6666666666667</ele><time>2026-04-06T15:47:58.999Z</time></trkpt><trkpt lat="46.34272744147168" lon="6.629180531359697"><ele>858.0</ele><time>2026-04-06T15:47:59.999Z</time></trkpt><trkpt lat="46.34288253070962" lon="6.629151376715546"><ele>858.0</ele><time>2026-04-06T15:48:00.999Z</time></trkpt><trkpt lat="46.34302828379417" lon="6.629123563738551"><ele>858.0</ele><time>2026-04-06T15:48:01.999Z</time></trkpt><trkpt lat="46.343147591699534" lon="6.629167380053152"><ele>858.0</ele><time>2026-04-06T15:48:02.999Z</time></trkpt><trkpt lat="46.343241687828986" lon="6.629253571245272"><ele>858.0</ele><time>2026-04-06T15:48:03.999Z</time></trkpt><trkpt lat="46.343367763942126" lon="6.629410936963092"><ele>863.3333333333333</ele><time>2026-04-06T15:48:04.999Z</time></trkpt><trkpt lat="46.343534642843295" lon="6.629519520551636"><ele>868.6666666666666</ele><time>2026-04-06T15:48:05.999Z</time></trkpt><trkpt lat="46.343711633949546" lon="6.629634311869417"><ele>874.0</ele><time>2026-04-06T15:48:06.999Z</time></trkpt><trkpt lat="46.34387143789506" lon="6.62980937348588"><ele>874.3333333333333</ele><time>2026-04-06T15:48:07.999Z</time></trkpt><trkpt lat="46.344017765781885" lon="6.630031396437408"><ele>874.6666666666667</ele><time>2026-04-06T15:48:08.999Z</time></trkpt><trkpt lat="46.34416027296123" lon="6.630215233383621"><ele>875.0</ele><time>2026-04-06T15:48:09.999Z</time></trkpt><trkpt lat="46.3443318967453" lon="6.630360873964305"><ele>875.0</ele><time>2026-04-06T15:48:10.999Z</time></trkpt><trkpt lat="46.34452761050582" lon="6.630483643063553"><ele>875.0</ele><time>2026-04-06T15:48:11.999Z</time></trkpt><trkpt lat="46.34468603712488" lon="6.630638724822533"><ele>875.0</ele><time>2026-04-06T15:48:12.999Z</time></trkpt><trkpt lat="46.344830469304064" lon="6.6308014761863845"><ele>869.6666666666667</ele><time>2026-04-06T15:48:13.999Z</time></trkpt><trkpt lat="46.344992316388314" lon="6.630938621606866"><ele>864.3333333333333</ele><time>2026-04-06T15:48:14.999Z</time></trkpt><trkpt lat="46.34516618909622" lon="6.631043318914051"><ele>859.0</ele><time>2026-04-06T15:48:15.999Z</time></trkpt><trkpt lat="46.34529735654351" lon="6.631121759513578"><ele>862.5</ele><time>2026-04-06T15:48:16.999Z</time></trkpt><trkpt lat="46.34542510849072" lon="6.631215554431899"><ele>866.0</ele><time>2026-04-06T15:48:17.999Z</time></trkpt><trkpt lat="46.345556031325806" lon="6.631301543996736"><ele>869.5</ele><time>2026-04-06T15:48:18.999Z</time></trkpt><trkpt lat="46.345706283312865" lon="6.631366839726926"><ele>873.0</ele><time>2026-04-06T15:48:19.999Z</time></trkpt><trkpt lat="46.34585477601874" lon="6.631383114498398"><ele>873.0</ele><time>2026-04-06T15:48:20.999Z</time></trkpt><trkpt lat="46.34599181698023" lon="6.631351926608976"><ele>873.0</ele><time>2026-04-06T15:48:21.999Z</time></trkpt><trkpt lat="46.34612221647191" lon="6.631325604406086"><ele>873.0</ele><time>2026-04-06T15:48:22.999Z</time></trkpt><trkpt lat="46.34623836482696" lon="6.6312864365609"><ele>873.0</ele><time>2026-04-06T15:48:23.999Z</time></trkpt><trkpt lat="46.346351252709525" lon="6.6312698335447955"><ele>871.75</ele><time>2026-04-06T15:48:24.999Z</time></trkpt><trkpt lat="46.346458946899794" lon="6.631280934628967"><ele>870.5</ele><time>2026-04-06T15:48:25.999Z</time></trkpt><trkpt lat="46.3465566737253" lon="6.631401372132652"><ele>869.25</ele><time>2026-04-06T15:48:26.999Z</time></trkpt><trkpt lat="46.346650947935544" lon="6.631555824279238"><ele>868.0</ele><time>2026-04-06T15:48:27.999Z</time></trkpt><trkpt lat="46.346753589868584" lon="6.631724925666531"><ele>868.0</ele><time>2026-04-06T15:48:28.999Z</time></trkpt><trkpt lat="46.34687712662627" lon="6.631871183541768"><ele>868.0</ele><time>2026-04-06T15:48:29.999Z</time></trkpt><trkpt lat="46.34699584146678" lon="6.632000024700784"><ele>868.0</ele><time>2026-04-06T15:48:30.999Z</time></trkpt><trkpt lat="46.34711261653751" lon="6.632117825043319"><ele>867.75</ele><time>2026-04-06T15:48:32Z</time></trkpt><trkpt lat="46.34722481252537" lon="6.632242290642643"><ele>867.5</ele><time>2026-04-06T15:48:33Z</time></trkpt><trkpt lat="46.34733194531503" lon="6.632387282300845"><ele>867.25</ele><time>2026-04-06T15:48:34Z</time></trkpt><trkpt lat="46.34742396799675" lon="6.6325660441844985"><ele>867.0</ele><time>2026-04-06T15:48:35Z</time></trkpt><trkpt lat="46.34751930045822" lon="6.632746005744644"><ele>870.75</ele><time>2026-04-06T15:48:36Z</time></trkpt><trkpt lat="46.34761266051977" lon="6.63290732027889"><ele>874.5</ele><time>2026-04-06T15:48:37Z</time></trkpt><trkpt lat="46.34770465490642" lon="6.633077632964543"><ele>878.25</ele><time>2026-04-06T15:48:38Z</time></trkpt><trkpt lat="46.347798959199395" lon="6.633218078638487"><ele>882.0</ele><time>2026-04-06T15:48:39Z</time></trkpt><trkpt lat="46.34790658867746" lon="6.6333212449598316"><ele>882.0</ele><time>2026-04-06T15:48:40Z</time></trkpt><trkpt lat="46.348027174838265" lon="6.633392387232366"><ele>882.0</ele><time>2026-04-06T15:48:41Z</time></trkpt><trkpt lat="46.34815849623959" lon="6.633412709011371"><ele>882.0</ele><time>2026-04-06T15:48:42Z</time></trkpt><trkpt lat="46.348310562260785" lon="6.6333497840727595"><ele>882.0</ele><time>2026-04-06T15:48:43Z</time></trkpt><trkpt lat="46.34845891136545" lon="6.633289654873474"><ele>877.6666666666667</ele><time>2026-04-06T15:48:44Z</time></trkpt><trkpt lat="46.34863173381111" lon="6.633251941151207"><ele>873.3333333333334</ele><time>2026-04-06T15:48:45Z</time></trkpt><trkpt lat="46.348770325338585" lon="6.633221697318216"><ele>869.0</ele><time>2026-04-06T15:48:46Z</time></trkpt><trkpt lat="46.348917846293844" lon="6.633167493341203"><ele>867.75</ele><time>2026-04-06T15:48:47Z</time></trkpt><trkpt lat="46.349081870121545" lon="6.633160163406077"><ele>866.5</ele><time>2026-04-06T15:48:48Z</time></trkpt><trkpt lat="46.34922501368005" lon="6.633147918214598"><ele>865.25</ele><time>2026-04-06T15:48:49Z</time></trkpt><trkpt lat="46.349355810367456" lon="6.633164617055112"><ele>864.0</ele><time>2026-04-06T15:48:50Z</time></trkpt><trkpt lat="46.34948429096408" lon="6.633217688544901"><ele>864.0</ele><time>2026-04-06T15:48:51Z</time></trkpt><trkpt lat="46.34962174192637" lon="6.633293681985913"><ele>864.0</ele><time>2026-04-06T15:48:52Z</time></trkpt><trkpt lat="46.34976949020668" lon="6.633399435211643"><ele>864.0</ele><time>2026-04-06T15:48:53Z</time></trkpt><trkpt lat="46.34990172979538" lon="6.633538860966736"><ele>864.0</ele><time>2026-04-06T15:48:54Z</time></trkpt><trkpt lat="46.35003944471465" lon="6.633683970795804"><ele>864.0</ele><time>2026-04-06T15:48:55Z</time></trkpt><trkpt lat="46.35016406451547" lon="6.633849183231662"><ele>864.0</ele><time>2026-04-06T15:48:56Z</time></trkpt><trkpt lat="46.35028532295651" lon="6.634047970541791"><ele>864.0</ele><time>2026-04-06T15:48:57Z</time></trkpt><trkpt lat="46.35041153726377" lon="6.634286319207004"><ele>864.0</ele><time>2026-04-06T15:48:58Z</time></trkpt><trkpt lat="46.35055802181218" lon="6.634564136276564"><ele>864.0</ele><time>2026-04-06T15:48:59Z</time></trkpt><trkpt lat="46.350715897154544" lon="6.634867195403402"><ele>862.0</ele><time>2026-04-06T15:49:00Z</time></trkpt><trkpt lat="46.350877142950324" lon="6.63519677312675"><ele>860.0</ele><time>2026-04-06T15:49:01Z</time></trkpt><trkpt lat="46.35101202154602" lon="6.6354980538656045"><ele>860.0</ele><time>2026-04-06T15:49:02Z</time></trkpt><trkpt lat="46.35115549933617" lon="6.635790743622704"><ele>860.0</ele><time>2026-04-06T15:49:03Z</time></trkpt><trkpt lat="46.35128487451389" lon="6.6360833002428565"><ele>858.6666666666667</ele><time>2026-04-06T15:49:04Z</time></trkpt><trkpt lat="46.351405204322845" lon="6.636352432488418"><ele>857.3333333333333</ele><time>2026-04-06T15:49:05Z</time></trkpt><trkpt lat="46.35153355101637" lon="6.6366120116458145"><ele>856.0</ele><time>2026-04-06T15:49:06Z</time></trkpt><trkpt lat="46.351662248274245" lon="6.636874535863549"><ele>856.3333333333333</ele><time>2026-04-06T15:49:07Z</time></trkpt><trkpt lat="46.351776940131714" lon="6.63711657467685"><ele>856.6666666666667</ele><time>2026-04-06T15:49:08Z</time></trkpt><trkpt lat="46.351882445500166" lon="6.637359240856694"><ele>857.0</ele><time>2026-04-06T15:49:09Z</time></trkpt><trkpt lat="46.35199890609239" lon="6.637610655148102"><ele>857.6666666666667</ele><time>2026-04-06T15:49:10Z</time></trkpt><trkpt lat="46.35210501080876" lon="6.6378467511757"><ele>858.3333333333333</ele><time>2026-04-06T15:49:11Z</time></trkpt><trkpt lat="46.352206715230196" lon="6.63807814767336"><ele>859.0</ele><time>2026-04-06T15:49:12Z</time></trkpt><trkpt lat="46.35231393277034" lon="6.638312856507278"><ele>859.6666666666666</ele><time>2026-04-06T15:49:13Z</time></trkpt><trkpt lat="46.352421660752086" lon="6.6385496886934225"><ele>860.3333333333333</ele><time>2026-04-06T15:49:14Z</time></trkpt><trkpt lat="46.352514925628356" lon="6.63877171653958"><ele>861.0</ele><time>2026-04-06T15:49:15Z</time></trkpt><trkpt lat="46.35256548413157" lon="6.639001845933099"><ele>861.0</ele><time>2026-04-06T15:49:16Z</time></trkpt><trkpt lat="46.35261766281434" lon="6.63921986258295"><ele>861.0</ele><time>2026-04-06T15:49:17Z</time></trkpt><trkpt lat="46.35263660757436" lon="6.639450176510929"><ele>861.0</ele><time>2026-04-06T15:49:18Z</time></trkpt><trkpt lat="46.352632095901235" lon="6.639677050323903"><ele>861.25</ele><time>2026-04-06T15:49:19Z</time></trkpt><trkpt lat="46.35260118493726" lon="6.639889540041694"><ele>861.5</ele><time>2026-04-06T15:49:20Z</time></trkpt><trkpt lat="46.35255831212152" lon="6.640089772002002"><ele>861.75</ele><time>2026-04-06T15:49:21Z</time></trkpt><trkpt lat="46.352534958872575" lon="6.6402728570673935"><ele>862.0</ele><time>2026-04-06T15:49:22Z</time></trkpt><trkpt lat="46.352555112796004" lon="6.640447032237077"><ele>861.25</ele><time>2026-04-06T15:49:23Z</time></trkpt><trkpt lat="46.35260183048051" lon="6.640605575003136"><ele>860.5</ele><time>2026-04-06T15:49:24Z</time></trkpt><trkpt lat="46.35266646108312" lon="6.640757660435144"><ele>859.75</ele><time>2026-04-06T15:49:25Z</time></trkpt><trkpt lat="46.35273686023565" lon="6.640897113964136"><ele>859.0</ele><time>2026-04-06T15:49:26Z</time></trkpt><trkpt lat="46.352800229663984" lon="6.6410301188308365"><ele>859.4000000000001</ele><time>2026-04-06T15:49:27Z</time></trkpt><trkpt lat="46.35286849092595" lon="6.641147050023021"><ele>859.8000000000001</ele><time>2026-04-06T15:49:28Z</time></trkpt><trkpt lat="46.35294867060745" lon="6.641245339698351"><ele>860.1999999999999</ele><time>2026-04-06T15:49:29Z</time></trkpt><trkpt lat="46.353040095113144" lon="6.641314585078631"><ele>860.5999999999999</ele><time>2026-04-06T15:49:30Z</time></trkpt><trkpt lat="46.35313898323404" lon="6.641359814751491"><ele>861.0</ele><time>2026-04-06T15:49:31Z</time></trkpt><trkpt lat="46.35325620803817" lon="6.641377341839822"><ele>859.1999999999999</ele><time>2026-04-06T15:49:32Z</time></trkpt><trkpt lat="46.35337151093976" lon="6.641378034650085"><ele>857.3999999999999</ele><time>2026-04-06T15:49:33Z</time></trkpt><trkpt lat="46.35346626283811" lon="6.641401797517458"><ele>855.6</ele><time>2026-04-06T15:49:33.999Z</time></trkpt><trkpt lat="46.35354977445475" lon="6.6413863947906195"><ele>853.8</ele><time>2026-04-06T15:49:34.999Z</time></trkpt><trkpt lat="46.35362651514074" lon="6.641351804681029"><ele>852.0</ele><time>2026-04-06T15:49:35.999Z</time></trkpt><trkpt lat="46.35369708353512" lon="6.641283261891174"><ele>852.0</ele><time>2026-04-06T15:49:36.999Z</time></trkpt><trkpt lat="46.353738749633074" lon="6.641169680511742"><ele>852.0</ele><time>2026-04-06T15:49:37.999Z</time></trkpt><trkpt lat="46.35377270170302" lon="6.641043517008355"><ele>852.0</ele><time>2026-04-06T15:49:38.999Z</time></trkpt><trkpt lat="46.35378634866887" lon="6.640871444218395"><ele>852.0</ele><time>2026-04-06T15:49:39.999Z</time></trkpt><trkpt lat="46.3537946433904" lon="6.640687921918517"><ele>852.0</ele><time>2026-04-06T15:49:40.999Z</time></trkpt><trkpt lat="46.35381535673309" lon="6.64052360627303"><ele>852.0</ele><time>2026-04-06T15:49:41.999Z</time></trkpt><trkpt lat="46.35389192369015" lon="6.640409847217882"><ele>852.0</ele><time>2026-04-06T15:49:42.999Z</time></trkpt><trkpt lat="46.35400671646946" lon="6.640307546377755"><ele>852.0</ele><time>2026-04-06T15:49:43.999Z</time></trkpt><trkpt lat="46.35412633813851" lon="6.640103778176327"><ele>852.0</ele><time>2026-04-06T15:49:44.999Z</time></trkpt><trkpt lat="46.35423065447483" lon="6.639849113218596"><ele>852.0</ele><time>2026-04-06T15:49:45.999Z</time></trkpt><trkpt lat="46.354341693560734" lon="6.639611555460981"><ele>852.0</ele><time>2026-04-06T15:49:46.999Z</time></trkpt><trkpt lat="46.3544501472704" lon="6.639443117621739"><ele>852.0</ele><time>2026-04-06T15:49:47.999Z</time></trkpt><trkpt lat="46.35456141480474" lon="6.639306838398316"><ele>851.75</ele><time>2026-04-06T15:49:48.999Z</time></trkpt><trkpt lat="46.35468058703861" lon="6.639159446452516"><ele>851.5</ele><time>2026-04-06T15:49:49.999Z</time></trkpt><trkpt lat="46.354804316644284" lon="6.63903728898307"><ele>851.25</ele><time>2026-04-06T15:49:50.999Z</time></trkpt><trkpt lat="46.354910149802556" lon="6.63891806104519"><ele>851.0</ele><time>2026-04-06T15:49:51.999Z</time></trkpt><trkpt lat="46.35500091246459" lon="6.638789159350872"><ele>852.75</ele><time>2026-04-06T15:49:52.999Z</time></trkpt><trkpt lat="46.35506962248083" lon="6.63863862527234"><ele>854.5</ele><time>2026-04-06T15:49:53.999Z</time></trkpt><trkpt lat="46.35512321685966" lon="6.638453196798828"><ele>856.25</ele><time>2026-04-06T15:49:54.999Z</time></trkpt><trkpt lat="46.3551643339227" lon="6.638248993198719"><ele>858.0</ele><time>2026-04-06T15:49:55.999Z</time></trkpt><trkpt lat="46.355224068593145" lon="6.638043481403315"><ele>858.0</ele><time>2026-04-06T15:49:56.999Z</time></trkpt><trkpt lat="46.35528012087743" lon="6.6378203427377"><ele>858.0</ele><time>2026-04-06T15:49:57.999Z</time></trkpt><trkpt lat="46.35533724014756" lon="6.637592956210967"><ele>858.0</ele><time>2026-04-06T15:49:58.999Z</time></trkpt><trkpt lat="46.355392304510424" lon="6.637374859735088"><ele>858.6666666666667</ele><time>2026-04-06T15:49:59.999Z</time></trkpt><trkpt lat="46.35544511587796" lon="6.637166861940557"><ele>859.3333333333334</ele><time>2026-04-06T15:50:00.999Z</time></trkpt><trkpt lat="46.3555009118174" lon="6.636947109102625"><ele>860.0</ele><time>2026-04-06T15:50:01.999Z</time></trkpt><trkpt lat="46.35556584721678" lon="6.636688586777908"><ele>863.5</ele><time>2026-04-06T15:50:02.999Z</time></trkpt><trkpt lat="46.35564694369849" lon="6.636360433626886"><ele>867.0</ele><time>2026-04-06T15:50:03.999Z</time></trkpt><trkpt lat="46.35573653670163" lon="6.635997899201399"><ele>868.0</ele><time>2026-04-06T15:50:04.999Z</time></trkpt><trkpt lat="46.35581206753482" lon="6.63564369974434"><ele>869.0</ele><time>2026-04-06T15:50:05.999Z</time></trkpt><trkpt lat="46.355894941496885" lon="6.635334827982706"><ele>869.3333333333334</ele><time>2026-04-06T15:50:06.999Z</time></trkpt><trkpt lat="46.35595559365577" lon="6.635040196477846"><ele>869.6666666666667</ele><time>2026-04-06T15:50:07.999Z</time></trkpt><trkpt lat="46.3559750568564" lon="6.634719504841996"><ele>870.0</ele><time>2026-04-06T15:50:08.999Z</time></trkpt><trkpt lat="46.35596126598067" lon="6.634381417381101"><ele>871.0</ele><time>2026-04-06T15:50:09.999Z</time></trkpt><trkpt lat="46.35592455182312" lon="6.634011147016999"><ele>872.0</ele><time>2026-04-06T15:50:10.999Z</time></trkpt><trkpt lat="46.355884873335576" lon="6.633647409539782"><ele>873.0</ele><time>2026-04-06T15:50:11.999Z</time></trkpt><trkpt lat="46.35586115754275" lon="6.633320309083334"><ele>874.0</ele><time>2026-04-06T15:50:12.999Z</time></trkpt><trkpt lat="46.35581780295225" lon="6.633024250231102"><ele>875.0</ele><time>2026-04-06T15:50:13.999Z</time></trkpt><trkpt lat="46.35574207947119" lon="6.6327429194938405"><ele>874.0</ele><time>2026-04-06T15:50:14.999Z</time></trkpt><trkpt lat="46.35562813633868" lon="6.632487487480726"><ele>873.0</ele><time>2026-04-06T15:50:15.999Z</time></trkpt><trkpt lat="46.3554798838762" lon="6.632256462613222"><ele>872.0</ele><time>2026-04-06T15:50:16.999Z</time></trkpt><trkpt lat="46.35528530394178" lon="6.632032839681704"><ele>876.5</ele><time>2026-04-06T15:50:17.999Z</time></trkpt><trkpt lat="46.35508759857344" lon="6.6317922582165165"><ele>881.0</ele><time>2026-04-06T15:50:18.999Z</time></trkpt><trkpt lat="46.35487452288041" lon="6.631511836439797"><ele>882.0</ele><time>2026-04-06T15:50:19.999Z</time></trkpt><trkpt lat="46.35464644047469" lon="6.631216048256656"><ele>883.0</ele><time>2026-04-06T15:50:20.999Z</time></trkpt><trkpt lat="46.35441536652439" lon="6.630900281737644"><ele>883.0</ele><time>2026-04-06T15:50:21.999Z</time></trkpt><trkpt lat="46.35418645793343" lon="6.63058362851877"><ele>883.0</ele><time>2026-04-06T15:50:22.999Z</time></trkpt><trkpt lat="46.35395187460206" lon="6.630255691513852"><ele>882.5</ele><time>2026-04-06T15:50:23.999Z</time></trkpt><trkpt lat="46.35373326018545" lon="6.629917026931818"><ele>882.0</ele><time>2026-04-06T15:50:24.999Z</time></trkpt><trkpt lat="46.35353864996174" lon="6.62957436360088"><ele>886.0</ele><time>2026-04-06T15:50:25.999Z</time></trkpt><trkpt lat="46.353384121800474" lon="6.629190230931765"><ele>890.0</ele><time>2026-04-06T15:50:26.999Z</time></trkpt><trkpt lat="46.3531991103377" lon="6.628799382745069"><ele>888.0</ele><time>2026-04-06T15:50:27.999Z</time></trkpt><trkpt lat="46.35302359124992" lon="6.628367000269052"><ele>886.0</ele><time>2026-04-06T15:50:28.999Z</time></trkpt><trkpt lat="46.35283997960885" lon="6.627938349879286"><ele>890.0</ele><time>2026-04-06T15:50:29.999Z</time></trkpt><trkpt lat="46.352675501362405" lon="6.627562385480327"><ele>894.0</ele><time>2026-04-06T15:50:30.999Z</time></trkpt><trkpt lat="46.35252581859442" lon="6.62721169979486"><ele>898.5</ele><time>2026-04-06T15:50:31.999Z</time></trkpt><trkpt lat="46.35239627253423" lon="6.626890137135689"><ele>903.0</ele><time>2026-04-06T15:50:32.999Z</time></trkpt><trkpt lat="46.35228466384088" lon="6.626560986558932"><ele>899.5</ele><time>2026-04-06T15:50:33.999Z</time></trkpt><trkpt lat="46.352196650315584" lon="6.626213089601843"><ele>896.0</ele><time>2026-04-06T15:50:34.999Z</time></trkpt><trkpt lat="46.35213330510724" lon="6.625835560278031"><ele>896.0</ele><time>2026-04-06T15:50:35.999Z</time></trkpt><trkpt lat="46.35208121330662" lon="6.625433203413254"><ele>896.0</ele><time>2026-04-06T15:50:36.999Z</time></trkpt><trkpt lat="46.352026459508444" lon="6.625041683117333"><ele>899.0</ele><time>2026-04-06T15:50:38Z</time></trkpt><trkpt lat="46.351977993774284" lon="6.624694719442038"><ele>902.0</ele><time>2026-04-06T15:50:39Z</time></trkpt><trkpt lat="46.35193991448147" lon="6.624373115630598"><ele>903.0</ele><time>2026-04-06T15:50:40Z</time></trkpt><trkpt lat="46.35190359354666" lon="6.624085916192188"><ele>904.0</ele><time>2026-04-06T15:50:41Z</time></trkpt><trkpt lat="46.3518743774246" lon="6.623834103920274"><ele>905.0</ele><time>2026-04-06T15:50:42Z</time></trkpt><trkpt lat="46.351888253226385" lon="6.623574988093017"><ele>906.0</ele><time>2026-04-06T15:50:43Z</time></trkpt><trkpt lat="46.35191238780805" lon="6.623282792994226"><ele>907.0</ele><time>2026-04-06T15:50:44Z</time></trkpt><trkpt lat="46.3519503616762" lon="6.622967930932385"><ele>908.0</ele><time>2026-04-06T15:50:45Z</time></trkpt><trkpt lat="46.35197484986932" lon="6.622672552366141"><ele>908.6666666666667</ele><time>2026-04-06T15:50:46Z</time></trkpt><trkpt lat="46.35200517128023" lon="6.62241141476978"><ele>909.3333333333333</ele><time>2026-04-06T15:50:47Z</time></trkpt><trkpt lat="46.35201441549797" lon="6.622166726835287"><ele>910.0</ele><time>2026-04-06T15:50:48Z</time></trkpt><trkpt lat="46.351987050968646" lon="6.621916550975011"><ele>911.6666666666666</ele><time>2026-04-06T15:50:49Z</time></trkpt><trkpt lat="46.351923539389745" lon="6.621672300722559"><ele>913.3333333333333</ele><time>2026-04-06T15:50:50Z</time></trkpt><trkpt lat="46.35183245791226" lon="6.621417730005565"><ele>915.0</ele><time>2026-04-06T15:50:51Z</time></trkpt><trkpt lat="46.35171376787522" lon="6.621162683011169"><ele>916.0</ele><time>2026-04-06T15:50:52Z</time></trkpt><trkpt lat="46.35161300794527" lon="6.620935748042428"><ele>917.0</ele><time>2026-04-06T15:50:53Z</time></trkpt><trkpt lat="46.35152941472005" lon="6.620723103297913"><ele>918.0</ele><time>2026-04-06T15:50:54Z</time></trkpt><trkpt lat="46.35146394795981" lon="6.620544021120603"><ele>918.0</ele><time>2026-04-06T15:50:55Z</time></trkpt><trkpt lat="46.35140653989308" lon="6.620386661389056"><ele>918.0</ele><time>2026-04-06T15:50:56Z</time></trkpt><trkpt lat="46.35135779528806" lon="6.620252770530786"><ele>918.0</ele><time>2026-04-06T15:50:57Z</time></trkpt><trkpt lat="46.351327687323675" lon="6.620126037666429"><ele>918.0</ele><time>2026-04-06T15:50:58Z</time></trkpt><trkpt lat="46.35134110765795" lon="6.620005350094471"><ele>918.0</ele><time>2026-04-06T15:50:59Z</time></trkpt><trkpt lat="46.351390014303576" lon="6.619901549005806"><ele>918.0</ele><time>2026-04-06T15:51:00Z</time></trkpt><trkpt lat="46.35145679694203" lon="6.61981269150231"><ele>918.0</ele><time>2026-04-06T15:51:01Z</time></trkpt><trkpt lat="46.35154073374071" lon="6.6197373722594435"><ele>918.0</ele><time>2026-04-06T15:51:02Z</time></trkpt><trkpt lat="46.351635339667595" lon="6.619685307864542"><ele>918.0</ele><time>2026-04-06T15:51:03Z</time></trkpt><trkpt lat="46.35169814969936" lon="6.619624676415978"><ele>918.0</ele><time>2026-04-06T15:51:04Z</time></trkpt><trkpt lat="46.35182112952316" lon="6.6197426116908415"><ele>918.0</ele><time>2026-04-06T15:51:05Z</time></trkpt><trkpt lat="46.351928575544946" lon="6.61981237444934"><ele>918.0</ele><time>2026-04-06T15:51:06Z</time></trkpt><trkpt lat="46.352068539184785" lon="6.6199032525377"><ele>918.0</ele><time>2026-04-06T15:51:07Z</time></trkpt><trkpt lat="46.35223850096836" lon="6.619991187031583"><ele>918.0</ele><time>2026-04-06T15:51:08Z</time></trkpt><trkpt lat="46.35242786895332" lon="6.62010164115531"><ele>918.0</ele><time>2026-04-06T15:51:09Z</time></trkpt><trkpt lat="46.35263255134622" lon="6.620223051692062"><ele>918.0</ele><time>2026-04-06T15:51:10Z</time></trkpt><trkpt lat="46.352826122789075" lon="6.620342529361963"><ele>918.0</ele><time>2026-04-06T15:51:11Z</time></trkpt><trkpt lat="46.35302126649135" lon="6.620464715311197"><ele>918.0</ele><time>2026-04-06T15:51:12Z</time></trkpt><trkpt lat="46.35321782111133" lon="6.620582256888328"><ele>918.0</ele><time>2026-04-06T15:51:13Z</time></trkpt><trkpt lat="46.35341823095267" lon="6.6206999638918305"><ele>918.3333333333333</ele><time>2026-04-06T15:51:14Z</time></trkpt><trkpt lat="46.35361770735949" lon="6.620815203330341"><ele>918.6666666666666</ele><time>2026-04-06T15:51:15Z</time></trkpt><trkpt lat="46.35381819553439" lon="6.620932995806388"><ele>919.0</ele><time>2026-04-06T15:51:16Z</time></trkpt><trkpt lat="46.35402749526591" lon="6.621057493157458"><ele>918.5</ele><time>2026-04-06T15:51:17Z</time></trkpt><trkpt lat="46.35424312507089" lon="6.621189051370715"><ele>918.0</ele><time>2026-04-06T15:51:18Z</time></trkpt><trkpt lat="46.35446899537345" lon="6.621324202412828"><ele>918.0</ele><time>2026-04-06T15:51:19Z</time></trkpt><trkpt lat="46.354701505933214" lon="6.621466132014709"><ele>918.0</ele><time>2026-04-06T15:51:20Z</time></trkpt><trkpt lat="46.35493670748814" lon="6.621604093023585"><ele>918.5</ele><time>2026-04-06T15:51:21Z</time></trkpt><trkpt lat="46.35518123296288" lon="6.621750123113925"><ele>919.0</ele><time>2026-04-06T15:51:22Z</time></trkpt><trkpt lat="46.35544045304417" lon="6.621901515248912"><ele>919.5</ele><time>2026-04-06T15:51:23Z</time></trkpt><trkpt lat="46.355708921254376" lon="6.622056645963111"><ele>920.0</ele><time>2026-04-06T15:51:24Z</time></trkpt><trkpt lat="46.35597793986228" lon="6.622214321200031"><ele>920.0</ele><time>2026-04-06T15:51:25Z</time></trkpt><trkpt lat="46.3562508967893" lon="6.622373447819489"><ele>920.0</ele><time>2026-04-06T15:51:26Z</time></trkpt><trkpt lat="46.356503197546296" lon="6.622510138469377"><ele>919.0</ele><time>2026-04-06T15:51:26.999Z</time></trkpt><trkpt lat="46.35674820718285" lon="6.622618413614658"><ele>918.0</ele><time>2026-04-06T15:51:27.999Z</time></trkpt><trkpt lat="46.35700124478678" lon="6.62270992734594"><ele>919.0</ele><time>2026-04-06T15:51:28.999Z</time></trkpt><trkpt lat="46.357254357160095" lon="6.622779384074403"><ele>920.0</ele><time>2026-04-06T15:51:29.999Z</time></trkpt><trkpt lat="46.35749032816374" lon="6.622844607786841"><ele>920.0</ele><time>2026-04-06T15:51:30.999Z</time></trkpt><trkpt lat="46.357730460101656" lon="6.622837433168476"><ele>920.0</ele><time>2026-04-06T15:51:31.999Z</time></trkpt><trkpt lat="46.35796196397571" lon="6.622752428809043"><ele>916.0</ele><time>2026-04-06T15:51:32.999Z</time></trkpt><trkpt lat="46.35820792865699" lon="6.622668263069973"><ele>912.0</ele><time>2026-04-06T15:51:33.999Z</time></trkpt><trkpt lat="46.35844332302651" lon="6.6225588301539915"><ele>912.0</ele><time>2026-04-06T15:51:34.999Z</time></trkpt><trkpt lat="46.35866519805669" lon="6.622471611622499"><ele>912.0</ele><time>2026-04-06T15:51:35.999Z</time></trkpt><trkpt lat="46.35887327226418" lon="6.622396605013288"><ele>912.0</ele><time>2026-04-06T15:51:36.999Z</time></trkpt><trkpt lat="46.35905623399879" lon="6.622326139800421"><ele>911.6666666666667</ele><time>2026-04-06T15:51:37.999Z</time></trkpt><trkpt lat="46.35923635146623" lon="6.6222861657675764"><ele>911.3333333333334</ele><time>2026-04-06T15:51:38.999Z</time></trkpt><trkpt lat="46.359411044040016" lon="6.6222449928798515"><ele>911.0</ele><time>2026-04-06T15:51:39.999Z</time></trkpt><trkpt lat="46.35960236432604" lon="6.622243569653468"><ele>909.6666666666667</ele><time>2026-04-06T15:51:40.999Z</time></trkpt><trkpt lat="46.35980305041894" lon="6.622264285955311"><ele>908.3333333333333</ele><time>2026-04-06T15:51:41.999Z</time></trkpt><trkpt lat="46.35999353199718" lon="6.622336880445324"><ele>907.0</ele><time>2026-04-06T15:51:42.999Z</time></trkpt><trkpt lat="46.3601687048941" lon="6.622422396841466"><ele>907.0</ele><time>2026-04-06T15:51:43.999Z</time></trkpt><trkpt lat="46.36033431925431" lon="6.622496939944208"><ele>907.0</ele><time>2026-04-06T15:51:44.999Z</time></trkpt><trkpt lat="46.360486037470466" lon="6.622601829473393"><ele>907.0</ele><time>2026-04-06T15:51:45.999Z</time></trkpt><trkpt lat="46.36063177446704" lon="6.622751470862325"><ele>905.6666666666666</ele><time>2026-04-06T15:51:46.999Z</time></trkpt><trkpt lat="46.360741907499836" lon="6.622960191531248"><ele>904.3333333333333</ele><time>2026-04-06T15:51:47.999Z</time></trkpt><trkpt lat="46.36083881769003" lon="6.623212082347463"><ele>903.0</ele><time>2026-04-06T15:51:48.999Z</time></trkpt><trkpt lat="46.3609392399836" lon="6.623471640227539"><ele>904.0</ele><time>2026-04-06T15:51:49.999Z</time></trkpt><trkpt lat="46.36103796183069" lon="6.623704160874976"><ele>905.0</ele><time>2026-04-06T15:51:50.999Z</time></trkpt><trkpt lat="46.36114991171151" lon="6.623901901323282"><ele>906.0</ele><time>2026-04-06T15:51:51.999Z</time></trkpt><trkpt lat="46.361288876901014" lon="6.624058447166284"><ele>903.6666666666667</ele><time>2026-04-06T15:51:52.999Z</time></trkpt><trkpt lat="46.36142002209146" lon="6.624197640965686"><ele>901.3333333333334</ele><time>2026-04-06T15:51:53.999Z</time></trkpt><trkpt lat="46.361579380972465" lon="6.624268011255641"><ele>899.0</ele><time>2026-04-06T15:51:54.999Z</time></trkpt><trkpt lat="46.36175262223941" lon="6.624287112480485"><ele>899.0</ele><time>2026-04-06T15:51:55.999Z</time></trkpt><trkpt lat="46.36192403512023" lon="6.624263628506083"><ele>899.0</ele><time>2026-04-06T15:51:56.999Z</time></trkpt><trkpt lat="46.36209108904041" lon="6.624204918893956"><ele>899.0</ele><time>2026-04-06T15:51:57.999Z</time></trkpt><trkpt lat="46.36224186260949" lon="6.62409822496474"><ele>899.0</ele><time>2026-04-06T15:51:58.999Z</time></trkpt><trkpt lat="46.36236906713075" lon="6.62394724931456"><ele>899.0</ele><time>2026-04-06T15:51:59.999Z</time></trkpt><trkpt lat="46.362483147061944" lon="6.62376495361642"><ele>899.0</ele><time>2026-04-06T15:52:00.999Z</time></trkpt><trkpt lat="46.36260717443731" lon="6.623592229168261"><ele>896.3333333333334</ele><time>2026-04-06T15:52:01.999Z</time></trkpt><trkpt lat="46.3627211908305" lon="6.6234172680212176"><ele>893.6666666666667</ele><time>2026-04-06T15:52:02.999Z</time></trkpt><trkpt lat="46.36283136113395" lon="6.62324820855711"><ele>891.0</ele><time>2026-04-06T15:52:03.999Z</time></trkpt><trkpt lat="46.36293644824459" lon="6.623089550870988"><ele>890.8</ele><time>2026-04-06T15:52:04.999Z</time></trkpt><trkpt lat="46.36303331187353" lon="6.622945662901235"><ele>890.5999999999999</ele><time>2026-04-06T15:52:05.999Z</time></trkpt><trkpt lat="46.363109521511646" lon="6.6228324561409595"><ele>890.4</ele><time>2026-04-06T15:52:06.999Z</time></trkpt><trkpt lat="46.36316922558532" lon="6.622744815273381"><ele>890.2</ele><time>2026-04-06T15:52:07.999Z</time></trkpt><trkpt lat="46.363216034298844" lon="6.62267739823214"><ele>890.0</ele><time>2026-04-06T15:52:08.999Z</time></trkpt><trkpt lat="46.363275448563826" lon="6.6225919999919824"><ele>890.0</ele><time>2026-04-06T15:52:10.999Z</time></trkpt><trkpt lat="46.36333943753415" lon="6.622503247618394"><ele>890.0</ele><time>2026-04-06T15:52:13.999Z</time></trkpt><trkpt lat="46.363406924377664" lon="6.622414306645052"><ele>890.0</ele><time>2026-04-06T15:52:14.999Z</time></trkpt><trkpt lat="46.36347710097917" lon="6.622326370336193"><ele>890.0</ele><time>2026-04-06T15:52:15.999Z</time></trkpt><trkpt lat="46.36356092175122" lon="6.622225690063375"><ele>890.0</ele><time>2026-04-06T15:52:16.999Z</time></trkpt><trkpt lat="46.36365835869785" lon="6.6221076108738535"><ele>889.5</ele><time>2026-04-06T15:52:17.999Z</time></trkpt><trkpt lat="46.363763655360735" lon="6.621978684063515"><ele>889.0</ele><time>2026-04-06T15:52:18.999Z</time></trkpt><trkpt lat="46.36384197755532" lon="6.621806549381732"><ele>888.5</ele><time>2026-04-06T15:52:19.999Z</time></trkpt><trkpt lat="46.36393179580669" lon="6.621636663637748"><ele>888.0</ele><time>2026-04-06T15:52:20.999Z</time></trkpt><trkpt lat="46.36401581925141" lon="6.621411475541858"><ele>888.0</ele><time>2026-04-06T15:52:21.999Z</time></trkpt><trkpt lat="46.36410407183566" lon="6.6211796115824395"><ele>888.0</ele><time>2026-04-06T15:52:22.999Z</time></trkpt><trkpt lat="46.36424192269347" lon="6.620977154329195"><ele>888.0</ele><time>2026-04-06T15:52:23.999Z</time></trkpt><trkpt lat="46.36440082561048" lon="6.620728504760788"><ele>886.0</ele><time>2026-04-06T15:52:24.999Z</time></trkpt><trkpt lat="46.364575021578695" lon="6.620474200001469"><ele>884.0</ele><time>2026-04-06T15:52:25.999Z</time></trkpt><trkpt lat="46.36472687860715" lon="6.62022989206378"><ele>883.6666666666667</ele><time>2026-04-06T15:52:26.999Z</time></trkpt><trkpt lat="46.36483555572156" lon="6.619959429522193"><ele>883.3333333333333</ele><time>2026-04-06T15:52:27.999Z</time></trkpt><trkpt lat="46.36493731365988" lon="6.619694516021327"><ele>883.0</ele><time>2026-04-06T15:52:28.999Z</time></trkpt><trkpt lat="46.365028269472255" lon="6.619399739200173"><ele>881.0</ele><time>2026-04-06T15:52:29.999Z</time></trkpt><trkpt lat="46.36511108267929" lon="6.619105601060509"><ele>879.0</ele><time>2026-04-06T15:52:30.999Z</time></trkpt><trkpt lat="46.365214756752074" lon="6.618867263439788"><ele>877.0</ele><time>2026-04-06T15:52:31.999Z</time></trkpt><trkpt lat="46.36532983672263" lon="6.618646857488344"><ele>876.6666666666666</ele><time>2026-04-06T15:52:32.999Z</time></trkpt><trkpt lat="46.36546414134203" lon="6.618469209498091"><ele>876.3333333333333</ele><time>2026-04-06T15:52:33.999Z</time></trkpt><trkpt lat="46.36563395604244" lon="6.618291946168107"><ele>876.0</ele><time>2026-04-06T15:52:34.999Z</time></trkpt><trkpt lat="46.365828255605095" lon="6.618121034320722"><ele>876.0</ele><time>2026-04-06T15:52:35.999Z</time></trkpt><trkpt lat="46.366015288477186" lon="6.617971072581643"><ele>876.0</ele><time>2026-04-06T15:52:36.999Z</time></trkpt><trkpt lat="46.36620062115686" lon="6.617856233351987"><ele>876.0</ele><time>2026-04-06T15:52:37.999Z</time></trkpt><trkpt lat="46.366400030325714" lon="6.6177706536717125"><ele>873.5</ele><time>2026-04-06T15:52:38.999Z</time></trkpt><trkpt lat="46.366629647179224" lon="6.617690158112285"><ele>871.0</ele><time>2026-04-06T15:52:39.999Z</time></trkpt><trkpt lat="46.36686127951356" lon="6.617617624334141"><ele>871.0</ele><time>2026-04-06T15:52:40.999Z</time></trkpt><trkpt lat="46.36707152303184" lon="6.617552830277651"><ele>871.0</ele><time>2026-04-06T15:52:41.999Z</time></trkpt><trkpt lat="46.36725028271308" lon="6.617514069547297"><ele>871.0</ele><time>2026-04-06T15:52:42.999Z</time></trkpt><trkpt lat="46.36740532233428" lon="6.6174952692296145"><ele>870.0</ele><time>2026-04-06T15:52:44Z</time></trkpt><trkpt lat="46.36755424856472" lon="6.617492737526456"><ele>869.0</ele><time>2026-04-06T15:52:45Z</time></trkpt><trkpt lat="46.36768534183702" lon="6.617504375403845"><ele>868.0</ele><time>2026-04-06T15:52:46Z</time></trkpt><trkpt lat="46.3677987476369" lon="6.617522647690137"><ele>867.0</ele><time>2026-04-06T15:52:47Z</time></trkpt><trkpt lat="46.36789233139633" lon="6.617521130745299"><ele>867.0</ele><time>2026-04-06T15:52:48Z</time></trkpt><trkpt lat="46.36797747015142" lon="6.617575704789513"><ele>867.0</ele><time>2026-04-06T15:52:49Z</time></trkpt><trkpt lat="46.36808705521759" lon="6.61765288578827"><ele>867.0</ele><time>2026-04-06T15:52:50Z</time></trkpt><trkpt lat="46.3682168311552" lon="6.617667501712728"><ele>867.0</ele><time>2026-04-06T15:52:51Z</time></trkpt><trkpt lat="46.36838342385151" lon="6.617650904690894"><ele>864.3333333333333</ele><time>2026-04-06T15:52:52Z</time></trkpt><trkpt lat="46.36857748212762" lon="6.617718738844956"><ele>861.6666666666666</ele><time>2026-04-06T15:52:53Z</time></trkpt><trkpt lat="46.36881259959391" lon="6.617760162348109"><ele>859.0</ele><time>2026-04-06T15:52:54Z</time></trkpt><trkpt lat="46.369057434022075" lon="6.617823219334153"><ele>859.0</ele><time>2026-04-06T15:52:55Z</time></trkpt><trkpt lat="46.36929570669718" lon="6.617888521235025"><ele>859.0</ele><time>2026-04-06T15:52:56Z</time></trkpt><trkpt lat="46.36951073093896" lon="6.617943126163296"><ele>858.3333333333333</ele><time>2026-04-06T15:52:57Z</time></trkpt><trkpt lat="46.36970677234639" lon="6.617989514599161"><ele>857.6666666666667</ele><time>2026-04-06T15:52:58Z</time></trkpt><trkpt lat="46.36989595266331" lon="6.618032873462021"><ele>857.0</ele><time>2026-04-06T15:52:59Z</time></trkpt><trkpt lat="46.37007422197907" lon="6.618076095164656"><ele>857.0</ele><time>2026-04-06T15:53:00Z</time></trkpt><trkpt lat="46.37022250216651" lon="6.618099908651401"><ele>857.0</ele><time>2026-04-06T15:53:01Z</time></trkpt><trkpt lat="46.37034236600767" lon="6.618123076104248"><ele>857.0</ele><time>2026-04-06T15:53:02Z</time></trkpt><trkpt lat="46.37044803055937" lon="6.618134721152229"><ele>857.0</ele><time>2026-04-06T15:53:03Z</time></trkpt><trkpt lat="46.370533115398025" lon="6.6181433166380375"><ele>856.0000000000001</ele><time>2026-04-06T15:53:04Z</time></trkpt><trkpt lat="46.37059856243691" lon="6.618148196951556"><ele>855.0</ele><time>2026-04-06T15:53:05Z</time></trkpt><trkpt lat="46.37066118513551" lon="6.61816358292705"><ele>854.0</ele><time>2026-04-06T15:53:07Z</time></trkpt><trkpt lat="46.370740107207446" lon="6.618138018791146"><ele>853.0</ele><time>2026-04-06T15:54:04.999Z</time></trkpt><trkpt lat="46.37082079996143" lon="6.6181136076184615"><ele>852.0000000000001</ele><time>2026-04-06T15:54:05.999Z</time></trkpt><trkpt lat="46.37093609739899" lon="6.618129271360755"><ele>851.0</ele><time>2026-04-06T15:54:06.999Z</time></trkpt><trkpt lat="46.371049018525" lon="6.618098981334886"><ele>851.0</ele><time>2026-04-06T15:54:07.999Z</time></trkpt><trkpt lat="46.37118281657066" lon="6.618093575511364"><ele>851.0</ele><time>2026-04-06T15:54:08.999Z</time></trkpt><trkpt lat="46.37133166351729" lon="6.618078538923065"><ele>851.0</ele><time>2026-04-06T15:54:09.999Z</time></trkpt><trkpt lat="46.37148416175031" lon="6.618061926895954"><ele>851.0</ele><time>2026-04-06T15:54:10.999Z</time></trkpt><trkpt lat="46.37161999175876" lon="6.618043880901869"><ele>851.0</ele><time>2026-04-06T15:54:11.999Z</time></trkpt><trkpt lat="46.37175010532489" lon="6.618030932775165"><ele>851.0</ele><time>2026-04-06T15:54:12.999Z</time></trkpt><trkpt lat="46.37190428907597" lon="6.6180168750290385"><ele>851.0</ele><time>2026-04-06T15:54:13.999Z</time></trkpt><trkpt lat="46.37208510008765" lon="6.617994921445789"><ele>850.3333333333334</ele><time>2026-04-06T15:54:14.999Z</time></trkpt><trkpt lat="46.37226074467835" lon="6.617968916103144"><ele>849.6666666666667</ele><time>2026-04-06T15:54:15.999Z</time></trkpt><trkpt lat="46.37243807909473" lon="6.617921707980176"><ele>849.0</ele><time>2026-04-06T15:54:16.999Z</time></trkpt><trkpt lat="46.37261815562535" lon="6.617855662466691"><ele>847.0</ele><time>2026-04-06T15:54:17.999Z</time></trkpt><trkpt lat="46.3727913026284" lon="6.617774178701863"><ele>845.0</ele><time>2026-04-06T15:54:18.999Z</time></trkpt><trkpt lat="46.37296681435121" lon="6.617693891744078"><ele>843.0</ele><time>2026-04-06T15:54:19.999Z</time></trkpt><trkpt lat="46.37315058635935" lon="6.617613874350419"><ele>842.6666666666667</ele><time>2026-04-06T15:54:20.999Z</time></trkpt><trkpt lat="46.37331851302037" lon="6.617555166639981"><ele>842.3333333333334</ele><time>2026-04-06T15:54:21.999Z</time></trkpt><trkpt lat="46.37346983212713" lon="6.617512497135564"><ele>842.0</ele><time>2026-04-06T15:54:22.999Z</time></trkpt><trkpt lat="46.373609411201265" lon="6.617475691254333"><ele>842.0</ele><time>2026-04-06T15:54:23.999Z</time></trkpt><trkpt lat="46.37374950627876" lon="6.617437951021992"><ele>842.0</ele><time>2026-04-06T15:54:24.999Z</time></trkpt><trkpt lat="46.3738839694429" lon="6.617401648125"><ele>842.0</ele><time>2026-04-06T15:54:25.999Z</time></trkpt><trkpt lat="46.3740310787618" lon="6.6173635334852365"><ele>842.0</ele><time>2026-04-06T15:54:26.999Z</time></trkpt><trkpt lat="46.37420829875041" lon="6.617317682691125"><ele>841.3333333333334</ele><time>2026-04-06T15:54:27.999Z</time></trkpt><trkpt lat="46.3743790677312" lon="6.6172680726868105"><ele>840.6666666666667</ele><time>2026-04-06T15:54:28.999Z</time></trkpt><trkpt lat="46.37453223238497" lon="6.617229102802397"><ele>840.0</ele><time>2026-04-06T15:54:29.999Z</time></trkpt><trkpt lat="46.374662127344905" lon="6.617198178864234"><ele>839.8</ele><time>2026-04-06T15:54:30.999Z</time></trkpt><trkpt lat="46.37476737446194" lon="6.617177052814317"><ele>839.6</ele><time>2026-04-06T15:54:31.999Z</time></trkpt><trkpt lat="46.37484626603507" lon="6.61716204291941"><ele>839.4000000000001</ele><time>2026-04-06T15:54:32.999Z</time></trkpt><trkpt lat="46.37493384129685" lon="6.617168750089977"><ele>839.2</ele><time>2026-04-06T15:54:34.999Z</time></trkpt><trkpt lat="46.37499512998947" lon="6.617143573860786"><ele>839.0</ele><time>2026-04-06T15:54:38.999Z</time></trkpt><trkpt lat="46.37492507452684" lon="6.616934478220854"><ele>839.0</ele><time>2026-04-06T15:54:41.999Z</time></trkpt><trkpt lat="46.37490862021216" lon="6.617046236978238"><ele>839.0</ele><time>2026-04-06T15:54:44.999Z</time></trkpt><trkpt lat="46.37485743750242" lon="6.61713835381533"><ele>839.0</ele><time>2026-04-06T15:54:48.999Z</time></trkpt><trkpt lat="46.37475876490319" lon="6.617164370210562"><ele>839.0</ele><time>2026-04-06T15:54:50Z</time></trkpt><trkpt lat="46.374630171667036" lon="6.617168085819398"><ele>839.0</ele><time>2026-04-06T15:54:51Z</time></trkpt><trkpt lat="46.374485024518684" lon="6.6171952589080405"><ele>839.3333333333334</ele><time>2026-04-06T15:54:52Z</time></trkpt><trkpt lat="46.37430664800394" lon="6.617249627561339"><ele>839.6666666666667</ele><time>2026-04-06T15:54:53Z</time></trkpt><trkpt lat="46.374098593373624" lon="6.617308857801889"><ele>840.0</ele><time>2026-04-06T15:54:54Z</time></trkpt><trkpt lat="46.37385698024897" lon="6.617369292335285"><ele>841.0</ele><time>2026-04-06T15:54:55Z</time></trkpt><trkpt lat="46.373610876720186" lon="6.617430815947184"><ele>842.0</ele><time>2026-04-06T15:54:56Z</time></trkpt><trkpt lat="46.37334303720452" lon="6.617507206662514"><ele>842.0</ele><time>2026-04-06T15:54:57Z</time></trkpt><trkpt lat="46.373057701193375" lon="6.617609950804514"><ele>842.0</ele><time>2026-04-06T15:54:58Z</time></trkpt><trkpt lat="46.37276612378255" lon="6.617736154489226"><ele>845.5</ele><time>2026-04-06T15:54:59Z</time></trkpt><trkpt lat="46.372474975135276" lon="6.617872641452608"><ele>849.0</ele><time>2026-04-06T15:55:00Z</time></trkpt><trkpt lat="46.37216542014449" lon="6.6179708626288"><ele>850.0</ele><time>2026-04-06T15:55:01Z</time></trkpt><trkpt lat="46.371827401362104" lon="6.6179932330744125"><ele>851.0</ele><time>2026-04-06T15:55:02Z</time></trkpt><trkpt lat="46.37147510542958" lon="6.618045960641016"><ele>851.0</ele><time>2026-04-06T15:55:03Z</time></trkpt><trkpt lat="46.37114874836391" lon="6.618068832915848"><ele>851.0</ele><time>2026-04-06T15:55:04Z</time></trkpt><trkpt lat="46.37083184200276" lon="6.618099335665912"><ele>854.0</ele><time>2026-04-06T15:55:05Z</time></trkpt><trkpt lat="46.37049946044009" lon="6.6181105239705555"><ele>857.0</ele><time>2026-04-06T15:55:06Z</time></trkpt><trkpt lat="46.37014862712481" lon="6.618059166241679"><ele>857.0</ele><time>2026-04-06T15:55:07Z</time></trkpt><trkpt lat="46.36978771711829" lon="6.6179719139505435"><ele>857.0</ele><time>2026-04-06T15:55:08Z</time></trkpt><trkpt lat="46.36945440276512" lon="6.617903439912167"><ele>858.0</ele><time>2026-04-06T15:55:09Z</time></trkpt><trkpt lat="46.36916343009569" lon="6.617821895447327"><ele>859.0</ele><time>2026-04-06T15:55:10Z</time></trkpt><trkpt lat="46.36891320305899" lon="6.617757536244042"><ele>858.6666666666666</ele><time>2026-04-06T15:55:11Z</time></trkpt><trkpt lat="46.368705023881624" lon="6.617708260920249"><ele>858.3333333333333</ele><time>2026-04-06T15:55:12Z</time></trkpt><trkpt lat="46.36853350527751" lon="6.617663933851538"><ele>858.0</ele><time>2026-04-06T15:55:13Z</time></trkpt><trkpt lat="46.36839768725568" lon="6.617622312819022"><ele>858.0</ele><time>2026-04-06T15:55:14Z</time></trkpt><trkpt lat="46.36828348143986" lon="6.617589266346801"><ele>858.0</ele><time>2026-04-06T15:55:15Z</time></trkpt><trkpt lat="46.36819057415688" lon="6.617557789212484"><ele>858.0</ele><time>2026-04-06T15:55:16Z</time></trkpt><trkpt lat="46.36812261207938" lon="6.617513681690132"><ele>858.0</ele><time>2026-04-06T15:55:17Z</time></trkpt><trkpt lat="46.36806164026378" lon="6.617459691426499"><ele>858.0</ele><time>2026-04-06T15:55:18Z</time></trkpt><trkpt lat="46.367975056694405" lon="6.61749971698161"><ele>858.0</ele><time>2026-04-06T15:55:20Z</time></trkpt><trkpt lat="46.36802988724243" lon="6.6176693157543784"><ele>858.0</ele><time>2026-04-06T15:55:22.999Z</time></trkpt><trkpt lat="46.368164890999005" lon="6.617649763345973"><ele>858.0</ele><time>2026-04-06T15:55:24.999Z</time></trkpt><trkpt lat="46.36827933714841" lon="6.617618972485814"><ele>858.0</ele><time>2026-04-06T15:55:25.999Z</time></trkpt><trkpt lat="46.36843831021334" lon="6.617650831233599"><ele>858.0</ele><time>2026-04-06T15:55:26.999Z</time></trkpt><trkpt lat="46.368625831008494" lon="6.617716148358027"><ele>858.0</ele><time>2026-04-06T15:55:27.999Z</time></trkpt><trkpt lat="46.368826136276105" lon="6.6177718863426325"><ele>858.0</ele><time>2026-04-06T15:55:28.999Z</time></trkpt><trkpt lat="46.36903507633539" lon="6.617814307407912"><ele>858.0</ele><time>2026-04-06T15:55:29.999Z</time></trkpt><trkpt lat="46.369254547712096" lon="6.617887804143033"><ele>858.5</ele><time>2026-04-06T15:55:30.999Z</time></trkpt><trkpt lat="46.369491985432234" lon="6.617927793676859"><ele>859.0</ele><time>2026-04-06T15:55:31.999Z</time></trkpt><trkpt lat="46.36970870972078" lon="6.617990946492319"><ele>858.3333333333333</ele><time>2026-04-06T15:55:32.999Z</time></trkpt><trkpt lat="46.36990151085764" lon="6.618035341632258"><ele>857.6666666666667</ele><time>2026-04-06T15:55:33.999Z</time></trkpt><trkpt lat="46.370071761335886" lon="6.61807569684505"><ele>857.0</ele><time>2026-04-06T15:55:34.999Z</time></trkpt><trkpt lat="46.370227292069636" lon="6.618109638665078"><ele>857.0</ele><time>2026-04-06T15:55:35.999Z</time></trkpt><trkpt lat="46.370361666892094" lon="6.618123826403117"><ele>857.0</ele><time>2026-04-06T15:55:36.999Z</time></trkpt><trkpt lat="46.37048019666459" lon="6.618135456790862"><ele>857.0</ele><time>2026-04-06T15:55:37.999Z</time></trkpt><trkpt lat="46.370580001256606" lon="6.618137626407067"><ele>857.0</ele><time>2026-04-06T15:55:38.999Z</time></trkpt><trkpt lat="46.37065709986971" lon="6.618132388242881"><ele>857.0</ele><time>2026-04-06T15:55:39.999Z</time></trkpt><trkpt lat="46.370729173534755" lon="6.618098171080187"><ele>851.0</ele><time>2026-04-06T15:55:41.999Z</time></trkpt><trkpt lat="46.37067495881173" lon="6.618151739155722"><ele>851.0</ele><time>2026-04-06T15:55:46.999Z</time></trkpt></trkseg></trk></gpx>